<?xml version="1.0" encoding="UTF-8" standalone="no" ?>
<gpx xmlns="http://www.topografix.com/GPX/1/1" xmlns:xsi="http://www.w3.org/2001/XMLSchema-instance" xsi:schemaLocation="http://www.topografix.com/GPX/1/1 http://www.topografix.com/GPX/1/1/gpx.xsd" version="1.1" creator="VisuGPX - https://www.visugpx.com">
  <metadata>
    <name>2StMartinVesubie-Jausiers</name>
    <desc><![CDATA[St Martin de Vésubie- M2565- 
St Dalmas du Plan- 
La Bolline- M2205-
St Sauveur Sur Tinée -
Isola-
St Etienne de Tinée-
Cîme de La Bonette -
Jausiers]]></desc>
  </metadata>
  <trk>
    <name><![CDATA[9834126-2StMartinVesubie-Jausiers]]></name>
    <trkseg>
      <trkpt lat="44.06822" lon="7.25522">
        <ele>938</ele>
        <time>2019-09-03T18:59:49Z</time>
      </trkpt>
      <trkpt lat="44.06856" lon="7.25527">
        <ele>944</ele>
        <time>2019-09-03T18:59:55Z</time>
      </trkpt>
      <trkpt lat="44.06988" lon="7.255">
        <ele>956</ele>
        <time>2019-09-03T19:00:19Z</time>
      </trkpt>
      <trkpt lat="44.07007" lon="7.25484">
        <ele>957</ele>
        <time>2019-09-03T19:00:23Z</time>
      </trkpt>
      <trkpt lat="44.0703" lon="7.2546">
        <ele>957</ele>
        <time>2019-09-03T19:00:28Z</time>
      </trkpt>
      <trkpt lat="44.07042" lon="7.25451">
        <ele>958</ele>
        <time>2019-09-03T19:00:30Z</time>
      </trkpt>
      <trkpt lat="44.07054" lon="7.25449">
        <ele>959</ele>
        <time>2019-09-03T19:00:32Z</time>
      </trkpt>
      <trkpt lat="44.07065" lon="7.25461">
        <ele>961</ele>
        <time>2019-09-03T19:00:35Z</time>
      </trkpt>
      <trkpt lat="44.07073" lon="7.2548">
        <ele>963</ele>
        <time>2019-09-03T19:00:38Z</time>
      </trkpt>
      <trkpt lat="44.07072" lon="7.25499">
        <ele>964</ele>
        <time>2019-09-03T19:00:40Z</time>
      </trkpt>
      <trkpt lat="44.07007" lon="7.25612">
        <ele>967</ele>
        <time>2019-09-03T19:00:59Z</time>
      </trkpt>
      <trkpt lat="44.07008" lon="7.25623">
        <ele>968</ele>
        <time>2019-09-03T19:01:00Z</time>
      </trkpt>
      <trkpt lat="44.07015" lon="7.25633">
        <ele>969</ele>
        <time>2019-09-03T19:01:02Z</time>
      </trkpt>
      <trkpt lat="44.07025" lon="7.25635">
        <ele>970</ele>
        <time>2019-09-03T19:01:04Z</time>
      </trkpt>
      <trkpt lat="44.0708" lon="7.25543">
        <ele>967</ele>
        <time>2019-09-03T19:01:19Z</time>
      </trkpt>
      <trkpt lat="44.07121" lon="7.25471">
        <ele>969</ele>
        <time>2019-09-03T19:01:31Z</time>
      </trkpt>
      <trkpt lat="44.07166" lon="7.25379">
        <ele>971</ele>
        <time>2019-09-03T19:01:45Z</time>
      </trkpt>
      <trkpt lat="44.07201" lon="7.25319">
        <ele>974</ele>
        <time>2019-09-03T19:01:55Z</time>
      </trkpt>
      <trkpt lat="44.07228" lon="7.25288">
        <ele>976</ele>
        <time>2019-09-03T19:02:01Z</time>
      </trkpt>
      <trkpt lat="44.07282" lon="7.25235">
        <ele>979</ele>
        <time>2019-09-03T19:02:13Z</time>
      </trkpt>
      <trkpt lat="44.07334" lon="7.25202">
        <ele>980</ele>
        <time>2019-09-03T19:02:23Z</time>
      </trkpt>
      <trkpt lat="44.07341" lon="7.25191">
        <ele>979</ele>
        <time>2019-09-03T19:02:25Z</time>
      </trkpt>
      <trkpt lat="44.07344" lon="7.25178">
        <ele>977</ele>
        <time>2019-09-03T19:02:27Z</time>
      </trkpt>
      <trkpt lat="44.07344" lon="7.25164">
        <ele>974</ele>
        <time>2019-09-03T19:02:28Z</time>
      </trkpt>
      <trkpt lat="44.07331" lon="7.25117">
        <ele>974</ele>
        <time>2019-09-03T19:02:35Z</time>
      </trkpt>
      <trkpt lat="44.07333" lon="7.25102">
        <ele>975</ele>
        <time>2019-09-03T19:02:37Z</time>
      </trkpt>
      <trkpt lat="44.07348" lon="7.2507">
        <ele>979</ele>
        <time>2019-09-03T19:02:42Z</time>
      </trkpt>
      <trkpt lat="44.07368" lon="7.25035">
        <ele>985</ele>
        <time>2019-09-03T19:02:47Z</time>
      </trkpt>
      <trkpt lat="44.07378" lon="7.25024">
        <ele>986</ele>
        <time>2019-09-03T19:02:50Z</time>
      </trkpt>
      <trkpt lat="44.07388" lon="7.25016">
        <ele>987</ele>
        <time>2019-09-03T19:02:52Z</time>
      </trkpt>
      <trkpt lat="44.07433" lon="7.24989">
        <ele>990</ele>
        <time>2019-09-03T19:03:00Z</time>
      </trkpt>
      <trkpt lat="44.07467" lon="7.24963">
        <ele>994</ele>
        <time>2019-09-03T19:03:07Z</time>
      </trkpt>
      <trkpt lat="44.07479" lon="7.24959">
        <ele>994</ele>
        <time>2019-09-03T19:03:10Z</time>
      </trkpt>
      <trkpt lat="44.07526" lon="7.24957">
        <ele>996</ele>
        <time>2019-09-03T19:03:18Z</time>
      </trkpt>
      <trkpt lat="44.07547" lon="7.2496">
        <ele>997</ele>
        <time>2019-09-03T19:03:22Z</time>
      </trkpt>
      <trkpt lat="44.07623" lon="7.24982">
        <ele>1002</ele>
        <time>2019-09-03T19:03:35Z</time>
      </trkpt>
      <trkpt lat="44.07674" lon="7.24989">
        <ele>1008</ele>
        <time>2019-09-03T19:03:45Z</time>
      </trkpt>
      <trkpt lat="44.07924" lon="7.24975">
        <ele>1027</ele>
        <time>2019-09-03T19:04:29Z</time>
      </trkpt>
      <trkpt lat="44.07988" lon="7.24946">
        <ele>1036</ele>
        <time>2019-09-03T19:04:41Z</time>
      </trkpt>
      <trkpt lat="44.08009" lon="7.24939">
        <ele>1038</ele>
        <time>2019-09-03T19:04:45Z</time>
      </trkpt>
      <trkpt lat="44.08031" lon="7.24934">
        <ele>1041</ele>
        <time>2019-09-03T19:04:49Z</time>
      </trkpt>
      <trkpt lat="44.08046" lon="7.24935">
        <ele>1042</ele>
        <time>2019-09-03T19:04:52Z</time>
      </trkpt>
      <trkpt lat="44.08076" lon="7.24941">
        <ele>1045</ele>
        <time>2019-09-03T19:04:57Z</time>
      </trkpt>
      <trkpt lat="44.0826" lon="7.25018">
        <ele>1059</ele>
        <time>2019-09-03T19:05:31Z</time>
      </trkpt>
      <trkpt lat="44.08297" lon="7.25024">
        <ele>1062</ele>
        <time>2019-09-03T19:05:38Z</time>
      </trkpt>
      <trkpt lat="44.08319" lon="7.25024">
        <ele>1064</ele>
        <time>2019-09-03T19:05:42Z</time>
      </trkpt>
      <trkpt lat="44.08341" lon="7.25019">
        <ele>1066</ele>
        <time>2019-09-03T19:05:46Z</time>
      </trkpt>
      <trkpt lat="44.08364" lon="7.2501">
        <ele>1066</ele>
        <time>2019-09-03T19:05:50Z</time>
      </trkpt>
      <trkpt lat="44.08434" lon="7.24962">
        <ele>1073</ele>
        <time>2019-09-03T19:06:04Z</time>
      </trkpt>
      <trkpt lat="44.08475" lon="7.24942">
        <ele>1078</ele>
        <time>2019-09-03T19:06:12Z</time>
      </trkpt>
      <trkpt lat="44.08533" lon="7.24927">
        <ele>1084</ele>
        <time>2019-09-03T19:06:22Z</time>
      </trkpt>
      <trkpt lat="44.08549" lon="7.24924">
        <ele>1085</ele>
        <time>2019-09-03T19:06:25Z</time>
      </trkpt>
      <trkpt lat="44.08565" lon="7.24925">
        <ele>1086</ele>
        <time>2019-09-03T19:06:28Z</time>
      </trkpt>
      <trkpt lat="44.0859" lon="7.24936">
        <ele>1086</ele>
        <time>2019-09-03T19:06:32Z</time>
      </trkpt>
      <trkpt lat="44.08643" lon="7.24965">
        <ele>1087</ele>
        <time>2019-09-03T19:06:43Z</time>
      </trkpt>
      <trkpt lat="44.08661" lon="7.24973">
        <ele>1088</ele>
        <time>2019-09-03T19:06:46Z</time>
      </trkpt>
      <trkpt lat="44.08794" lon="7.2499">
        <ele>1101</ele>
        <time>2019-09-03T19:07:10Z</time>
      </trkpt>
      <trkpt lat="44.08834" lon="7.25006">
        <ele>1105</ele>
        <time>2019-09-03T19:07:17Z</time>
      </trkpt>
      <trkpt lat="44.08851" lon="7.25008">
        <ele>1107</ele>
        <time>2019-09-03T19:07:20Z</time>
      </trkpt>
      <trkpt lat="44.08887" lon="7.24999">
        <ele>1112</ele>
        <time>2019-09-03T19:07:27Z</time>
      </trkpt>
      <trkpt lat="44.08911" lon="7.25003">
        <ele>1115</ele>
        <time>2019-09-03T19:07:31Z</time>
      </trkpt>
      <trkpt lat="44.08933" lon="7.25018">
        <ele>1116</ele>
        <time>2019-09-03T19:07:35Z</time>
      </trkpt>
      <trkpt lat="44.08953" lon="7.25039">
        <ele>1117</ele>
        <time>2019-09-03T19:07:40Z</time>
      </trkpt>
      <trkpt lat="44.08977" lon="7.25071">
        <ele>1116</ele>
        <time>2019-09-03T19:07:46Z</time>
      </trkpt>
      <trkpt lat="44.09017" lon="7.25155">
        <ele>1117</ele>
        <time>2019-09-03T19:07:59Z</time>
      </trkpt>
      <trkpt lat="44.09025" lon="7.25162">
        <ele>1117</ele>
        <time>2019-09-03T19:08:00Z</time>
      </trkpt>
      <trkpt lat="44.09036" lon="7.25162">
        <ele>1119</ele>
        <time>2019-09-03T19:08:02Z</time>
      </trkpt>
      <trkpt lat="44.09043" lon="7.25155">
        <ele>1120</ele>
        <time>2019-09-03T19:08:04Z</time>
      </trkpt>
      <trkpt lat="44.09041" lon="7.25137">
        <ele>1122</ele>
        <time>2019-09-03T19:08:06Z</time>
      </trkpt>
      <trkpt lat="44.09016" lon="7.25022">
        <ele>1132</ele>
        <time>2019-09-03T19:08:21Z</time>
      </trkpt>
      <trkpt lat="44.0901" lon="7.25005">
        <ele>1133</ele>
        <time>2019-09-03T19:08:24Z</time>
      </trkpt>
      <trkpt lat="44.08999" lon="7.24986">
        <ele>1134</ele>
        <time>2019-09-03T19:08:27Z</time>
      </trkpt>
      <trkpt lat="44.08911" lon="7.24885">
        <ele>1150</ele>
        <time>2019-09-03T19:08:47Z</time>
      </trkpt>
      <trkpt lat="44.08866" lon="7.24849">
        <ele>1155</ele>
        <time>2019-09-03T19:08:56Z</time>
      </trkpt>
      <trkpt lat="44.08717" lon="7.24774">
        <ele>1160</ele>
        <time>2019-09-03T19:09:25Z</time>
      </trkpt>
      <trkpt lat="44.08677" lon="7.24736">
        <ele>1175</ele>
        <time>2019-09-03T19:09:33Z</time>
      </trkpt>
      <trkpt lat="44.08662" lon="7.24734">
        <ele>1175</ele>
        <time>2019-09-03T19:09:36Z</time>
      </trkpt>
      <trkpt lat="44.0862" lon="7.24736">
        <ele>1166</ele>
        <time>2019-09-03T19:09:43Z</time>
      </trkpt>
      <trkpt lat="44.08571" lon="7.24708">
        <ele>1173</ele>
        <time>2019-09-03T19:09:53Z</time>
      </trkpt>
      <trkpt lat="44.0854" lon="7.24694">
        <ele>1173</ele>
        <time>2019-09-03T19:09:59Z</time>
      </trkpt>
      <trkpt lat="44.0851" lon="7.24684">
        <ele>1169</ele>
        <time>2019-09-03T19:10:04Z</time>
      </trkpt>
      <trkpt lat="44.08488" lon="7.24672">
        <ele>1167</ele>
        <time>2019-09-03T19:10:08Z</time>
      </trkpt>
      <trkpt lat="44.08479" lon="7.2466">
        <ele>1168</ele>
        <time>2019-09-03T19:10:11Z</time>
      </trkpt>
      <trkpt lat="44.08475" lon="7.24644">
        <ele>1172</ele>
        <time>2019-09-03T19:10:13Z</time>
      </trkpt>
      <trkpt lat="44.08476" lon="7.2463">
        <ele>1176</ele>
        <time>2019-09-03T19:10:15Z</time>
      </trkpt>
      <trkpt lat="44.08492" lon="7.24595">
        <ele>1189</ele>
        <time>2019-09-03T19:10:20Z</time>
      </trkpt>
      <trkpt lat="44.08502" lon="7.24567">
        <ele>1201</ele>
        <time>2019-09-03T19:10:24Z</time>
      </trkpt>
      <trkpt lat="44.08501" lon="7.24548">
        <ele>1208</ele>
        <time>2019-09-03T19:10:26Z</time>
      </trkpt>
      <trkpt lat="44.08498" lon="7.24534">
        <ele>1212</ele>
        <time>2019-09-03T19:10:28Z</time>
      </trkpt>
      <trkpt lat="44.08489" lon="7.24524">
        <ele>1216</ele>
        <time>2019-09-03T19:10:30Z</time>
      </trkpt>
      <trkpt lat="44.08482" lon="7.2452">
        <ele>1217</ele>
        <time>2019-09-03T19:10:32Z</time>
      </trkpt>
      <trkpt lat="44.08468" lon="7.24522">
        <ele>1215</ele>
        <time>2019-09-03T19:10:34Z</time>
      </trkpt>
      <trkpt lat="44.08414" lon="7.24542">
        <ele>1201</ele>
        <time>2019-09-03T19:10:44Z</time>
      </trkpt>
      <trkpt lat="44.08368" lon="7.24566">
        <ele>1191</ele>
        <time>2019-09-03T19:10:53Z</time>
      </trkpt>
      <trkpt lat="44.08358" lon="7.24566">
        <ele>1191</ele>
        <time>2019-09-03T19:10:54Z</time>
      </trkpt>
      <trkpt lat="44.08348" lon="7.24563">
        <ele>1192</ele>
        <time>2019-09-03T19:10:56Z</time>
      </trkpt>
      <trkpt lat="44.0834" lon="7.24552">
        <ele>1197</ele>
        <time>2019-09-03T19:10:58Z</time>
      </trkpt>
      <trkpt lat="44.08336" lon="7.24532">
        <ele>1204</ele>
        <time>2019-09-03T19:11:01Z</time>
      </trkpt>
      <trkpt lat="44.08331" lon="7.24486">
        <ele>1222</ele>
        <time>2019-09-03T19:11:07Z</time>
      </trkpt>
      <trkpt lat="44.08328" lon="7.24474">
        <ele>1227</ele>
        <time>2019-09-03T19:11:09Z</time>
      </trkpt>
      <trkpt lat="44.08314" lon="7.24461">
        <ele>1233</ele>
        <time>2019-09-03T19:11:12Z</time>
      </trkpt>
      <trkpt lat="44.08301" lon="7.24462">
        <ele>1232</ele>
        <time>2019-09-03T19:11:14Z</time>
      </trkpt>
      <trkpt lat="44.08272" lon="7.24485">
        <ele>1222</ele>
        <time>2019-09-03T19:11:20Z</time>
      </trkpt>
      <trkpt lat="44.08254" lon="7.24493">
        <ele>1218</ele>
        <time>2019-09-03T19:11:23Z</time>
      </trkpt>
      <trkpt lat="44.08232" lon="7.24494">
        <ele>1216</ele>
        <time>2019-09-03T19:11:27Z</time>
      </trkpt>
      <trkpt lat="44.08206" lon="7.24487">
        <ele>1218</ele>
        <time>2019-09-03T19:11:32Z</time>
      </trkpt>
      <trkpt lat="44.08172" lon="7.24468">
        <ele>1226</ele>
        <time>2019-09-03T19:11:38Z</time>
      </trkpt>
      <trkpt lat="44.08133" lon="7.24441">
        <ele>1234</ele>
        <time>2019-09-03T19:11:46Z</time>
      </trkpt>
      <trkpt lat="44.07991" lon="7.24364">
        <ele>1251</ele>
        <time>2019-09-03T19:12:13Z</time>
      </trkpt>
      <trkpt lat="44.07943" lon="7.24341">
        <ele>1252</ele>
        <time>2019-09-03T19:12:22Z</time>
      </trkpt>
      <trkpt lat="44.07887" lon="7.243">
        <ele>1255</ele>
        <time>2019-09-03T19:12:33Z</time>
      </trkpt>
      <trkpt lat="44.07873" lon="7.24278">
        <ele>1261</ele>
        <time>2019-09-03T19:12:37Z</time>
      </trkpt>
      <trkpt lat="44.07865" lon="7.24263">
        <ele>1264</ele>
        <time>2019-09-03T19:12:40Z</time>
      </trkpt>
      <trkpt lat="44.07856" lon="7.2425">
        <ele>1267</ele>
        <time>2019-09-03T19:12:42Z</time>
      </trkpt>
      <trkpt lat="44.07811" lon="7.24209">
        <ele>1270</ele>
        <time>2019-09-03T19:12:51Z</time>
      </trkpt>
      <trkpt lat="44.07788" lon="7.2418">
        <ele>1275</ele>
        <time>2019-09-03T19:12:57Z</time>
      </trkpt>
      <trkpt lat="44.07769" lon="7.2415">
        <ele>1281</ele>
        <time>2019-09-03T19:13:02Z</time>
      </trkpt>
      <trkpt lat="44.07755" lon="7.24123">
        <ele>1287</ele>
        <time>2019-09-03T19:13:06Z</time>
      </trkpt>
      <trkpt lat="44.07749" lon="7.24105">
        <ele>1292</ele>
        <time>2019-09-03T19:13:09Z</time>
      </trkpt>
      <trkpt lat="44.07742" lon="7.24095">
        <ele>1297</ele>
        <time>2019-09-03T19:13:11Z</time>
      </trkpt>
      <trkpt lat="44.07735" lon="7.24092">
        <ele>1300</ele>
        <time>2019-09-03T19:13:12Z</time>
      </trkpt>
      <trkpt lat="44.07727" lon="7.24095">
        <ele>1300</ele>
        <time>2019-09-03T19:13:13Z</time>
      </trkpt>
      <trkpt lat="44.0772" lon="7.241">
        <ele>1300</ele>
        <time>2019-09-03T19:13:15Z</time>
      </trkpt>
      <trkpt lat="44.07704" lon="7.24128">
        <ele>1293</ele>
        <time>2019-09-03T19:13:19Z</time>
      </trkpt>
      <trkpt lat="44.07647" lon="7.24193">
        <ele>1278</ele>
        <time>2019-09-03T19:13:33Z</time>
      </trkpt>
      <trkpt lat="44.07618" lon="7.24199">
        <ele>1274</ele>
        <time>2019-09-03T19:13:38Z</time>
      </trkpt>
      <trkpt lat="44.07612" lon="7.24196">
        <ele>1275</ele>
        <time>2019-09-03T19:13:39Z</time>
      </trkpt>
      <trkpt lat="44.0761" lon="7.24187">
        <ele>1278</ele>
        <time>2019-09-03T19:13:40Z</time>
      </trkpt>
      <trkpt lat="44.07611" lon="7.24179">
        <ele>1281</ele>
        <time>2019-09-03T19:13:41Z</time>
      </trkpt>
      <trkpt lat="44.07638" lon="7.24172">
        <ele>1285</ele>
        <time>2019-09-03T19:13:46Z</time>
      </trkpt>
      <trkpt lat="44.07657" lon="7.24158">
        <ele>1291</ele>
        <time>2019-09-03T19:13:50Z</time>
      </trkpt>
      <trkpt lat="44.07674" lon="7.24136">
        <ele>1297</ele>
        <time>2019-09-03T19:13:54Z</time>
      </trkpt>
      <trkpt lat="44.07685" lon="7.24116">
        <ele>1301</ele>
        <time>2019-09-03T19:13:57Z</time>
      </trkpt>
      <trkpt lat="44.07692" lon="7.24093">
        <ele>1308</ele>
        <time>2019-09-03T19:14:00Z</time>
      </trkpt>
      <trkpt lat="44.0772" lon="7.2403">
        <ele>1330</ele>
        <time>2019-09-03T19:14:10Z</time>
      </trkpt>
      <trkpt lat="44.07726" lon="7.24023">
        <ele>1332</ele>
        <time>2019-09-03T19:14:11Z</time>
      </trkpt>
      <trkpt lat="44.07732" lon="7.24021">
        <ele>1332</ele>
        <time>2019-09-03T19:14:12Z</time>
      </trkpt>
      <trkpt lat="44.07738" lon="7.24023">
        <ele>1330</ele>
        <time>2019-09-03T19:14:13Z</time>
      </trkpt>
      <trkpt lat="44.07775" lon="7.24066">
        <ele>1317</ele>
        <time>2019-09-03T19:14:22Z</time>
      </trkpt>
      <trkpt lat="44.07931" lon="7.24187">
        <ele>1325</ele>
        <time>2019-09-03T19:14:54Z</time>
      </trkpt>
      <trkpt lat="44.07994" lon="7.24219">
        <ele>1331</ele>
        <time>2019-09-03T19:15:06Z</time>
      </trkpt>
      <trkpt lat="44.08053" lon="7.24223">
        <ele>1341</ele>
        <time>2019-09-03T19:15:16Z</time>
      </trkpt>
      <trkpt lat="44.08067" lon="7.2423">
        <ele>1339</ele>
        <time>2019-09-03T19:15:19Z</time>
      </trkpt>
      <trkpt lat="44.08097" lon="7.24239">
        <ele>1339</ele>
        <time>2019-09-03T19:15:24Z</time>
      </trkpt>
      <trkpt lat="44.0815" lon="7.24241">
        <ele>1344</ele>
        <time>2019-09-03T19:15:34Z</time>
      </trkpt>
      <trkpt lat="44.08187" lon="7.24241">
        <ele>1344</ele>
        <time>2019-09-03T19:15:40Z</time>
      </trkpt>
      <trkpt lat="44.08225" lon="7.24227">
        <ele>1346</ele>
        <time>2019-09-03T19:15:47Z</time>
      </trkpt>
      <trkpt lat="44.08259" lon="7.24207">
        <ele>1350</ele>
        <time>2019-09-03T19:15:54Z</time>
      </trkpt>
      <trkpt lat="44.08283" lon="7.24188">
        <ele>1354</ele>
        <time>2019-09-03T19:15:59Z</time>
      </trkpt>
      <trkpt lat="44.08282" lon="7.24177">
        <ele>1359</ele>
        <time>2019-09-03T19:16:00Z</time>
      </trkpt>
      <trkpt lat="44.08274" lon="7.24171">
        <ele>1364</ele>
        <time>2019-09-03T19:16:02Z</time>
      </trkpt>
      <trkpt lat="44.08253" lon="7.24188">
        <ele>1360</ele>
        <time>2019-09-03T19:16:06Z</time>
      </trkpt>
      <trkpt lat="44.08192" lon="7.24221">
        <ele>1355</ele>
        <time>2019-09-03T19:16:18Z</time>
      </trkpt>
      <trkpt lat="44.08176" lon="7.24217">
        <ele>1360</ele>
        <time>2019-09-03T19:16:21Z</time>
      </trkpt>
      <trkpt lat="44.0815" lon="7.24207">
        <ele>1365</ele>
        <time>2019-09-03T19:16:26Z</time>
      </trkpt>
      <trkpt lat="44.08128" lon="7.24204">
        <ele>1364</ele>
        <time>2019-09-03T19:16:29Z</time>
      </trkpt>
      <trkpt lat="44.081" lon="7.24197">
        <ele>1365</ele>
        <time>2019-09-03T19:16:35Z</time>
      </trkpt>
      <trkpt lat="44.08071" lon="7.2418">
        <ele>1370</ele>
        <time>2019-09-03T19:16:40Z</time>
      </trkpt>
      <trkpt lat="44.08032" lon="7.2416">
        <ele>1373</ele>
        <time>2019-09-03T19:16:48Z</time>
      </trkpt>
      <trkpt lat="44.07977" lon="7.24138">
        <ele>1369</ele>
        <time>2019-09-03T19:16:58Z</time>
      </trkpt>
      <trkpt lat="44.07962" lon="7.24122">
        <ele>1371</ele>
        <time>2019-09-03T19:17:01Z</time>
      </trkpt>
      <trkpt lat="44.07933" lon="7.2407">
        <ele>1383</ele>
        <time>2019-09-03T19:17:09Z</time>
      </trkpt>
      <trkpt lat="44.07905" lon="7.24029">
        <ele>1388</ele>
        <time>2019-09-03T19:17:17Z</time>
      </trkpt>
      <trkpt lat="44.07838" lon="7.23958">
        <ele>1389</ele>
        <time>2019-09-03T19:17:32Z</time>
      </trkpt>
      <trkpt lat="44.07757" lon="7.23838">
        <ele>1408</ele>
        <time>2019-09-03T19:17:53Z</time>
      </trkpt>
      <trkpt lat="44.07741" lon="7.23818">
        <ele>1416</ele>
        <time>2019-09-03T19:17:57Z</time>
      </trkpt>
      <trkpt lat="44.07731" lon="7.23807">
        <ele>1423</ele>
        <time>2019-09-03T19:17:59Z</time>
      </trkpt>
      <trkpt lat="44.07724" lon="7.23808">
        <ele>1424</ele>
        <time>2019-09-03T19:18:00Z</time>
      </trkpt>
      <trkpt lat="44.07708" lon="7.2382">
        <ele>1421</ele>
        <time>2019-09-03T19:18:03Z</time>
      </trkpt>
      <trkpt lat="44.07697" lon="7.23838">
        <ele>1415</ele>
        <time>2019-09-03T19:18:06Z</time>
      </trkpt>
      <trkpt lat="44.07682" lon="7.23867">
        <ele>1408</ele>
        <time>2019-09-03T19:18:11Z</time>
      </trkpt>
      <trkpt lat="44.07655" lon="7.23882">
        <ele>1407</ele>
        <time>2019-09-03T19:18:16Z</time>
      </trkpt>
      <trkpt lat="44.07616" lon="7.23899">
        <ele>1406</ele>
        <time>2019-09-03T19:18:23Z</time>
      </trkpt>
      <trkpt lat="44.07598" lon="7.23897">
        <ele>1410</ele>
        <time>2019-09-03T19:18:27Z</time>
      </trkpt>
      <trkpt lat="44.07524" lon="7.23858">
        <ele>1424</ele>
        <time>2019-09-03T19:18:41Z</time>
      </trkpt>
      <trkpt lat="44.075" lon="7.23841">
        <ele>1432</ele>
        <time>2019-09-03T19:18:45Z</time>
      </trkpt>
      <trkpt lat="44.07439" lon="7.23763">
        <ele>1439</ele>
        <time>2019-09-03T19:19:00Z</time>
      </trkpt>
      <trkpt lat="44.07412" lon="7.23717">
        <ele>1436</ele>
        <time>2019-09-03T19:19:08Z</time>
      </trkpt>
      <trkpt lat="44.07395" lon="7.23658">
        <ele>1436</ele>
        <time>2019-09-03T19:19:16Z</time>
      </trkpt>
      <trkpt lat="44.07394" lon="7.23647">
        <ele>1436</ele>
        <time>2019-09-03T19:19:17Z</time>
      </trkpt>
      <trkpt lat="44.07396" lon="7.23573">
        <ele>1445</ele>
        <time>2019-09-03T19:19:27Z</time>
      </trkpt>
      <trkpt lat="44.07393" lon="7.23544">
        <ele>1448</ele>
        <time>2019-09-03T19:19:31Z</time>
      </trkpt>
      <trkpt lat="44.07318" lon="7.23365">
        <ele>1443</ele>
        <time>2019-09-03T19:19:57Z</time>
      </trkpt>
      <trkpt lat="44.07312" lon="7.23342">
        <ele>1444</ele>
        <time>2019-09-03T19:20:00Z</time>
      </trkpt>
      <trkpt lat="44.07313" lon="7.23264">
        <ele>1458</ele>
        <time>2019-09-03T19:20:10Z</time>
      </trkpt>
      <trkpt lat="44.07272" lon="7.23186">
        <ele>1460</ele>
        <time>2019-09-03T19:20:22Z</time>
      </trkpt>
      <trkpt lat="44.07234" lon="7.23151">
        <ele>1455</ele>
        <time>2019-09-03T19:20:31Z</time>
      </trkpt>
      <trkpt lat="44.07224" lon="7.23124">
        <ele>1457</ele>
        <time>2019-09-03T19:20:34Z</time>
      </trkpt>
      <trkpt lat="44.07215" lon="7.23035">
        <ele>1468</ele>
        <time>2019-09-03T19:20:46Z</time>
      </trkpt>
      <trkpt lat="44.07192" lon="7.22863">
        <ele>1480</ele>
        <time>2019-09-03T19:21:08Z</time>
      </trkpt>
      <trkpt lat="44.07121" lon="7.22618">
        <ele>1491</ele>
        <time>2019-09-03T19:21:42Z</time>
      </trkpt>
      <trkpt lat="44.07102" lon="7.22563">
        <ele>1490</ele>
        <time>2019-09-03T19:21:50Z</time>
      </trkpt>
      <trkpt lat="44.07095" lon="7.22531">
        <ele>1490</ele>
        <time>2019-09-03T19:21:54Z</time>
      </trkpt>
      <trkpt lat="44.0709" lon="7.22459">
        <ele>1494</ele>
        <time>2019-09-03T19:22:03Z</time>
      </trkpt>
      <trkpt lat="44.07091" lon="7.22443">
        <ele>1495</ele>
        <time>2019-09-03T19:22:05Z</time>
      </trkpt>
      <trkpt lat="44.07092" lon="7.22437">
        <ele>1496</ele>
        <time>2019-09-03T19:22:06Z</time>
      </trkpt>
      <trkpt lat="44.07096" lon="7.22429">
        <ele>1498</ele>
        <time>2019-09-03T19:22:07Z</time>
      </trkpt>
      <trkpt lat="44.07097" lon="7.22425">
        <ele>1499</ele>
        <time>2019-09-03T19:22:08Z</time>
      </trkpt>
      <trkpt lat="44.07094" lon="7.22417">
        <ele>1498</ele>
        <time>2019-09-03T19:22:09Z</time>
      </trkpt>
      <trkpt lat="44.07091" lon="7.22414">
        <ele>1498</ele>
        <time>2019-09-03T19:22:10Z</time>
      </trkpt>
      <trkpt lat="44.07089" lon="7.22391">
        <ele>1499</ele>
        <time>2019-09-03T19:22:13Z</time>
      </trkpt>
      <trkpt lat="44.0709" lon="7.22367">
        <ele>1501</ele>
        <time>2019-09-03T19:22:16Z</time>
      </trkpt>
      <trkpt lat="44.07107" lon="7.22261">
        <ele>1507</ele>
        <time>2019-09-03T19:22:30Z</time>
      </trkpt>
      <trkpt lat="44.07106" lon="7.22246">
        <ele>1507</ele>
        <time>2019-09-03T19:22:32Z</time>
      </trkpt>
      <trkpt lat="44.07092" lon="7.22206">
        <ele>1508</ele>
        <time>2019-09-03T19:22:37Z</time>
      </trkpt>
      <trkpt lat="44.07088" lon="7.22183">
        <ele>1509</ele>
        <time>2019-09-03T19:22:40Z</time>
      </trkpt>
      <trkpt lat="44.07095" lon="7.22136">
        <ele>1512</ele>
        <time>2019-09-03T19:22:47Z</time>
      </trkpt>
      <trkpt lat="44.07102" lon="7.22106">
        <ele>1513</ele>
        <time>2019-09-03T19:22:51Z</time>
      </trkpt>
      <trkpt lat="44.07109" lon="7.22083">
        <ele>1513</ele>
        <time>2019-09-03T19:22:54Z</time>
      </trkpt>
      <trkpt lat="44.07123" lon="7.2207">
        <ele>1510</ele>
        <time>2019-09-03T19:22:57Z</time>
      </trkpt>
      <trkpt lat="44.07176" lon="7.22062">
        <ele>1502</ele>
        <time>2019-09-03T19:23:06Z</time>
      </trkpt>
      <trkpt lat="44.07194" lon="7.22045">
        <ele>1503</ele>
        <time>2019-09-03T19:23:10Z</time>
      </trkpt>
      <trkpt lat="44.07206" lon="7.22033">
        <ele>1503</ele>
        <time>2019-09-03T19:23:13Z</time>
      </trkpt>
      <trkpt lat="44.07214" lon="7.22019">
        <ele>1502</ele>
        <time>2019-09-03T19:23:15Z</time>
      </trkpt>
      <trkpt lat="44.07256" lon="7.21917">
        <ele>1486</ele>
        <time>2019-09-03T19:23:30Z</time>
      </trkpt>
      <trkpt lat="44.07298" lon="7.21838">
        <ele>1483</ele>
        <time>2019-09-03T19:23:43Z</time>
      </trkpt>
      <trkpt lat="44.07333" lon="7.21738">
        <ele>1474</ele>
        <time>2019-09-03T19:23:57Z</time>
      </trkpt>
      <trkpt lat="44.07351" lon="7.2168">
        <ele>1471</ele>
        <time>2019-09-03T19:24:05Z</time>
      </trkpt>
      <trkpt lat="44.07396" lon="7.21561">
        <ele>1471</ele>
        <time>2019-09-03T19:24:22Z</time>
      </trkpt>
      <trkpt lat="44.07397" lon="7.21537">
        <ele>1469</ele>
        <time>2019-09-03T19:24:25Z</time>
      </trkpt>
      <trkpt lat="44.07396" lon="7.21506">
        <ele>1465</ele>
        <time>2019-09-03T19:24:29Z</time>
      </trkpt>
      <trkpt lat="44.07384" lon="7.21471">
        <ele>1457</ele>
        <time>2019-09-03T19:24:34Z</time>
      </trkpt>
      <trkpt lat="44.07379" lon="7.21435">
        <ele>1452</ele>
        <time>2019-09-03T19:24:39Z</time>
      </trkpt>
      <trkpt lat="44.07384" lon="7.21298">
        <ele>1448</ele>
        <time>2019-09-03T19:24:56Z</time>
      </trkpt>
      <trkpt lat="44.07382" lon="7.21149">
        <ele>1439</ele>
        <time>2019-09-03T19:25:15Z</time>
      </trkpt>
      <trkpt lat="44.07399" lon="7.20995">
        <ele>1434</ele>
        <time>2019-09-03T19:25:35Z</time>
      </trkpt>
      <trkpt lat="44.07398" lon="7.20962">
        <ele>1434</ele>
        <time>2019-09-03T19:25:40Z</time>
      </trkpt>
      <trkpt lat="44.0739" lon="7.20937">
        <ele>1431</ele>
        <time>2019-09-03T19:25:43Z</time>
      </trkpt>
      <trkpt lat="44.07368" lon="7.20887">
        <ele>1423</ele>
        <time>2019-09-03T19:25:51Z</time>
      </trkpt>
      <trkpt lat="44.07358" lon="7.2084">
        <ele>1423</ele>
        <time>2019-09-03T19:25:57Z</time>
      </trkpt>
      <trkpt lat="44.07357" lon="7.20793">
        <ele>1420</ele>
        <time>2019-09-03T19:26:03Z</time>
      </trkpt>
      <trkpt lat="44.07358" lon="7.20734">
        <ele>1417</ele>
        <time>2019-09-03T19:26:10Z</time>
      </trkpt>
      <trkpt lat="44.07348" lon="7.2058">
        <ele>1412</ele>
        <time>2019-09-03T19:26:30Z</time>
      </trkpt>
      <trkpt lat="44.07339" lon="7.20559">
        <ele>1410</ele>
        <time>2019-09-03T19:26:33Z</time>
      </trkpt>
      <trkpt lat="44.07322" lon="7.2055">
        <ele>1405</ele>
        <time>2019-09-03T19:26:36Z</time>
      </trkpt>
      <trkpt lat="44.07296" lon="7.20541">
        <ele>1396</ele>
        <time>2019-09-03T19:26:41Z</time>
      </trkpt>
      <trkpt lat="44.07275" lon="7.2052">
        <ele>1391</ele>
        <time>2019-09-03T19:26:46Z</time>
      </trkpt>
      <trkpt lat="44.07261" lon="7.20489">
        <ele>1388</ele>
        <time>2019-09-03T19:26:51Z</time>
      </trkpt>
      <trkpt lat="44.07255" lon="7.2045">
        <ele>1387</ele>
        <time>2019-09-03T19:26:56Z</time>
      </trkpt>
      <trkpt lat="44.07255" lon="7.20403">
        <ele>1386</ele>
        <time>2019-09-03T19:27:02Z</time>
      </trkpt>
      <trkpt lat="44.07258" lon="7.20355">
        <ele>1385</ele>
        <time>2019-09-03T19:27:08Z</time>
      </trkpt>
      <trkpt lat="44.07267" lon="7.20291">
        <ele>1385</ele>
        <time>2019-09-03T19:27:16Z</time>
      </trkpt>
      <trkpt lat="44.07265" lon="7.20274">
        <ele>1384</ele>
        <time>2019-09-03T19:27:18Z</time>
      </trkpt>
      <trkpt lat="44.07252" lon="7.20266">
        <ele>1381</ele>
        <time>2019-09-03T19:27:21Z</time>
      </trkpt>
      <trkpt lat="44.0724" lon="7.2027">
        <ele>1379</ele>
        <time>2019-09-03T19:27:23Z</time>
      </trkpt>
      <trkpt lat="44.07234" lon="7.20283">
        <ele>1378</ele>
        <time>2019-09-03T19:27:25Z</time>
      </trkpt>
      <trkpt lat="44.07228" lon="7.20321">
        <ele>1377</ele>
        <time>2019-09-03T19:27:30Z</time>
      </trkpt>
      <trkpt lat="44.07215" lon="7.20454">
        <ele>1375</ele>
        <time>2019-09-03T19:27:47Z</time>
      </trkpt>
      <trkpt lat="44.07213" lon="7.20504">
        <ele>1373</ele>
        <time>2019-09-03T19:27:54Z</time>
      </trkpt>
      <trkpt lat="44.07223" lon="7.20557">
        <ele>1370</ele>
        <time>2019-09-03T19:28:01Z</time>
      </trkpt>
      <trkpt lat="44.07236" lon="7.20595">
        <ele>1370</ele>
        <time>2019-09-03T19:28:06Z</time>
      </trkpt>
      <trkpt lat="44.0724" lon="7.20621">
        <ele>1369</ele>
        <time>2019-09-03T19:28:09Z</time>
      </trkpt>
      <trkpt lat="44.07238" lon="7.20678">
        <ele>1365</ele>
        <time>2019-09-03T19:28:17Z</time>
      </trkpt>
      <trkpt lat="44.07233" lon="7.20715">
        <ele>1364</ele>
        <time>2019-09-03T19:28:21Z</time>
      </trkpt>
      <trkpt lat="44.07233" lon="7.20755">
        <ele>1364</ele>
        <time>2019-09-03T19:28:27Z</time>
      </trkpt>
      <trkpt lat="44.07231" lon="7.20793">
        <ele>1364</ele>
        <time>2019-09-03T19:28:31Z</time>
      </trkpt>
      <trkpt lat="44.07217" lon="7.20825">
        <ele>1360</ele>
        <time>2019-09-03T19:28:36Z</time>
      </trkpt>
      <trkpt lat="44.07212" lon="7.20847">
        <ele>1358</ele>
        <time>2019-09-03T19:28:39Z</time>
      </trkpt>
      <trkpt lat="44.07217" lon="7.20883">
        <ele>1359</ele>
        <time>2019-09-03T19:28:44Z</time>
      </trkpt>
      <trkpt lat="44.07213" lon="7.20899">
        <ele>1358</ele>
        <time>2019-09-03T19:28:46Z</time>
      </trkpt>
      <trkpt lat="44.07207" lon="7.20904">
        <ele>1356</ele>
        <time>2019-09-03T19:28:47Z</time>
      </trkpt>
      <trkpt lat="44.07203" lon="7.20903">
        <ele>1354</ele>
        <time>2019-09-03T19:28:48Z</time>
      </trkpt>
      <trkpt lat="44.07197" lon="7.209">
        <ele>1352</ele>
        <time>2019-09-03T19:28:49Z</time>
      </trkpt>
      <trkpt lat="44.07194" lon="7.20894">
        <ele>1351</ele>
        <time>2019-09-03T19:28:50Z</time>
      </trkpt>
      <trkpt lat="44.07192" lon="7.20886">
        <ele>1351</ele>
        <time>2019-09-03T19:28:51Z</time>
      </trkpt>
      <trkpt lat="44.07192" lon="7.20856">
        <ele>1351</ele>
        <time>2019-09-03T19:28:55Z</time>
      </trkpt>
      <trkpt lat="44.07197" lon="7.20802">
        <ele>1353</ele>
        <time>2019-09-03T19:29:02Z</time>
      </trkpt>
      <trkpt lat="44.07188" lon="7.20784">
        <ele>1350</ele>
        <time>2019-09-03T19:29:05Z</time>
      </trkpt>
      <trkpt lat="44.07175" lon="7.20765">
        <ele>1346</ele>
        <time>2019-09-03T19:29:08Z</time>
      </trkpt>
      <trkpt lat="44.07163" lon="7.20735">
        <ele>1342</ele>
        <time>2019-09-03T19:29:12Z</time>
      </trkpt>
      <trkpt lat="44.07154" lon="7.20709">
        <ele>1341</ele>
        <time>2019-09-03T19:29:16Z</time>
      </trkpt>
      <trkpt lat="44.07146" lon="7.2069">
        <ele>1339</ele>
        <time>2019-09-03T19:29:19Z</time>
      </trkpt>
      <trkpt lat="44.07135" lon="7.20673">
        <ele>1338</ele>
        <time>2019-09-03T19:29:22Z</time>
      </trkpt>
      <trkpt lat="44.07108" lon="7.20654">
        <ele>1334</ele>
        <time>2019-09-03T19:29:27Z</time>
      </trkpt>
      <trkpt lat="44.07067" lon="7.20616">
        <ele>1330</ele>
        <time>2019-09-03T19:29:36Z</time>
      </trkpt>
      <trkpt lat="44.07026" lon="7.20602">
        <ele>1326</ele>
        <time>2019-09-03T19:29:44Z</time>
      </trkpt>
      <trkpt lat="44.06904" lon="7.20494">
        <ele>1316</ele>
        <time>2019-09-03T19:30:09Z</time>
      </trkpt>
      <trkpt lat="44.06767" lon="7.20413">
        <ele>1300</ele>
        <time>2019-09-03T19:30:36Z</time>
      </trkpt>
      <trkpt lat="44.06744" lon="7.20412">
        <ele>1297</ele>
        <time>2019-09-03T19:30:40Z</time>
      </trkpt>
      <trkpt lat="44.06719" lon="7.2042">
        <ele>1296</ele>
        <time>2019-09-03T19:30:44Z</time>
      </trkpt>
      <trkpt lat="44.06704" lon="7.20421">
        <ele>1295</ele>
        <time>2019-09-03T19:30:47Z</time>
      </trkpt>
      <trkpt lat="44.06692" lon="7.20417">
        <ele>1294</ele>
        <time>2019-09-03T19:30:49Z</time>
      </trkpt>
      <trkpt lat="44.06674" lon="7.20408">
        <ele>1293</ele>
        <time>2019-09-03T19:30:53Z</time>
      </trkpt>
      <trkpt lat="44.06665" lon="7.20396">
        <ele>1293</ele>
        <time>2019-09-03T19:30:55Z</time>
      </trkpt>
      <trkpt lat="44.06658" lon="7.20382">
        <ele>1293</ele>
        <time>2019-09-03T19:30:57Z</time>
      </trkpt>
      <trkpt lat="44.06652" lon="7.20366">
        <ele>1293</ele>
        <time>2019-09-03T19:30:59Z</time>
      </trkpt>
      <trkpt lat="44.0665" lon="7.20349">
        <ele>1293</ele>
        <time>2019-09-03T19:31:02Z</time>
      </trkpt>
      <trkpt lat="44.06653" lon="7.20293">
        <ele>1292</ele>
        <time>2019-09-03T19:31:09Z</time>
      </trkpt>
      <trkpt lat="44.06652" lon="7.2026">
        <ele>1291</ele>
        <time>2019-09-03T19:31:13Z</time>
      </trkpt>
      <trkpt lat="44.06645" lon="7.20179">
        <ele>1286</ele>
        <time>2019-09-03T19:31:23Z</time>
      </trkpt>
      <trkpt lat="44.06647" lon="7.20159">
        <ele>1284</ele>
        <time>2019-09-03T19:31:26Z</time>
      </trkpt>
      <trkpt lat="44.06654" lon="7.20145">
        <ele>1283</ele>
        <time>2019-09-03T19:31:28Z</time>
      </trkpt>
      <trkpt lat="44.06662" lon="7.20135">
        <ele>1282</ele>
        <time>2019-09-03T19:31:30Z</time>
      </trkpt>
      <trkpt lat="44.06669" lon="7.20114">
        <ele>1282</ele>
        <time>2019-09-03T19:31:33Z</time>
      </trkpt>
      <trkpt lat="44.06669" lon="7.20097">
        <ele>1281</ele>
        <time>2019-09-03T19:31:35Z</time>
      </trkpt>
      <trkpt lat="44.06659" lon="7.20017">
        <ele>1277</ele>
        <time>2019-09-03T19:31:46Z</time>
      </trkpt>
      <trkpt lat="44.06651" lon="7.19973">
        <ele>1275</ele>
        <time>2019-09-03T19:31:51Z</time>
      </trkpt>
      <trkpt lat="44.06643" lon="7.1994">
        <ele>1272</ele>
        <time>2019-09-03T19:31:56Z</time>
      </trkpt>
      <trkpt lat="44.06597" lon="7.1981">
        <ele>1263</ele>
        <time>2019-09-03T19:32:14Z</time>
      </trkpt>
      <trkpt lat="44.06581" lon="7.19756">
        <ele>1261</ele>
        <time>2019-09-03T19:32:22Z</time>
      </trkpt>
      <trkpt lat="44.06557" lon="7.19682">
        <ele>1256</ele>
        <time>2019-09-03T19:32:32Z</time>
      </trkpt>
      <trkpt lat="44.06559" lon="7.19601">
        <ele>1252</ele>
        <time>2019-09-03T19:32:43Z</time>
      </trkpt>
      <trkpt lat="44.06557" lon="7.1955">
        <ele>1249</ele>
        <time>2019-09-03T19:32:49Z</time>
      </trkpt>
      <trkpt lat="44.06536" lon="7.19419">
        <ele>1238</ele>
        <time>2019-09-03T19:33:06Z</time>
      </trkpt>
      <trkpt lat="44.0654" lon="7.19385">
        <ele>1237</ele>
        <time>2019-09-03T19:33:11Z</time>
      </trkpt>
      <trkpt lat="44.06554" lon="7.19325">
        <ele>1235</ele>
        <time>2019-09-03T19:33:19Z</time>
      </trkpt>
      <trkpt lat="44.06562" lon="7.19273">
        <ele>1234</ele>
        <time>2019-09-03T19:33:26Z</time>
      </trkpt>
      <trkpt lat="44.06565" lon="7.19248">
        <ele>1233</ele>
        <time>2019-09-03T19:33:29Z</time>
      </trkpt>
      <trkpt lat="44.06574" lon="7.19122">
        <ele>1224</ele>
        <time>2019-09-03T19:33:45Z</time>
      </trkpt>
      <trkpt lat="44.06583" lon="7.19085">
        <ele>1222</ele>
        <time>2019-09-03T19:33:50Z</time>
      </trkpt>
      <trkpt lat="44.06597" lon="7.19051">
        <ele>1221</ele>
        <time>2019-09-03T19:33:55Z</time>
      </trkpt>
      <trkpt lat="44.06606" lon="7.1902">
        <ele>1220</ele>
        <time>2019-09-03T19:33:59Z</time>
      </trkpt>
      <trkpt lat="44.06608" lon="7.1899">
        <ele>1219</ele>
        <time>2019-09-03T19:34:03Z</time>
      </trkpt>
      <trkpt lat="44.06612" lon="7.18903">
        <ele>1216</ele>
        <time>2019-09-03T19:34:14Z</time>
      </trkpt>
      <trkpt lat="44.06605" lon="7.1882">
        <ele>1207</ele>
        <time>2019-09-03T19:34:25Z</time>
      </trkpt>
      <trkpt lat="44.06614" lon="7.18735">
        <ele>1200</ele>
        <time>2019-09-03T19:34:36Z</time>
      </trkpt>
      <trkpt lat="44.0663" lon="7.18682">
        <ele>1197</ele>
        <time>2019-09-03T19:34:43Z</time>
      </trkpt>
      <trkpt lat="44.06644" lon="7.18663">
        <ele>1198</ele>
        <time>2019-09-03T19:34:47Z</time>
      </trkpt>
      <trkpt lat="44.0666" lon="7.18649">
        <ele>1198</ele>
        <time>2019-09-03T19:34:50Z</time>
      </trkpt>
      <trkpt lat="44.06655" lon="7.18634">
        <ele>1195</ele>
        <time>2019-09-03T19:34:52Z</time>
      </trkpt>
      <trkpt lat="44.06644" lon="7.18637">
        <ele>1193</ele>
        <time>2019-09-03T19:34:54Z</time>
      </trkpt>
      <trkpt lat="44.0661" lon="7.18669">
        <ele>1191</ele>
        <time>2019-09-03T19:35:02Z</time>
      </trkpt>
      <trkpt lat="44.06579" lon="7.18716">
        <ele>1190</ele>
        <time>2019-09-03T19:35:10Z</time>
      </trkpt>
      <trkpt lat="44.06561" lon="7.18741">
        <ele>1191</ele>
        <time>2019-09-03T19:35:14Z</time>
      </trkpt>
      <trkpt lat="44.06545" lon="7.18745">
        <ele>1189</ele>
        <time>2019-09-03T19:35:17Z</time>
      </trkpt>
      <trkpt lat="44.06531" lon="7.18736">
        <ele>1186</ele>
        <time>2019-09-03T19:35:20Z</time>
      </trkpt>
      <trkpt lat="44.06505" lon="7.18729">
        <ele>1182</ele>
        <time>2019-09-03T19:35:25Z</time>
      </trkpt>
      <trkpt lat="44.0646" lon="7.18729">
        <ele>1178</ele>
        <time>2019-09-03T19:35:33Z</time>
      </trkpt>
      <trkpt lat="44.06443" lon="7.18736">
        <ele>1178</ele>
        <time>2019-09-03T19:35:36Z</time>
      </trkpt>
      <trkpt lat="44.06423" lon="7.18754">
        <ele>1178</ele>
        <time>2019-09-03T19:35:40Z</time>
      </trkpt>
      <trkpt lat="44.06416" lon="7.18758">
        <ele>1178</ele>
        <time>2019-09-03T19:35:41Z</time>
      </trkpt>
      <trkpt lat="44.06409" lon="7.18758">
        <ele>1177</ele>
        <time>2019-09-03T19:35:43Z</time>
      </trkpt>
      <trkpt lat="44.064" lon="7.18751">
        <ele>1176</ele>
        <time>2019-09-03T19:35:44Z</time>
      </trkpt>
      <trkpt lat="44.06394" lon="7.18741">
        <ele>1174</ele>
        <time>2019-09-03T19:35:46Z</time>
      </trkpt>
      <trkpt lat="44.06393" lon="7.1873">
        <ele>1173</ele>
        <time>2019-09-03T19:35:47Z</time>
      </trkpt>
      <trkpt lat="44.06393" lon="7.18719">
        <ele>1173</ele>
        <time>2019-09-03T19:35:49Z</time>
      </trkpt>
      <trkpt lat="44.06433" lon="7.18601">
        <ele>1166</ele>
        <time>2019-09-03T19:36:06Z</time>
      </trkpt>
      <trkpt lat="44.06485" lon="7.1851">
        <ele>1162</ele>
        <time>2019-09-03T19:36:20Z</time>
      </trkpt>
      <trkpt lat="44.06556" lon="7.18427">
        <ele>1155</ele>
        <time>2019-09-03T19:36:37Z</time>
      </trkpt>
      <trkpt lat="44.06678" lon="7.18269">
        <ele>1146</ele>
        <time>2019-09-03T19:37:07Z</time>
      </trkpt>
      <trkpt lat="44.06711" lon="7.18221">
        <ele>1146</ele>
        <time>2019-09-03T19:37:15Z</time>
      </trkpt>
      <trkpt lat="44.06755" lon="7.18069">
        <ele>1137</ele>
        <time>2019-09-03T19:37:36Z</time>
      </trkpt>
      <trkpt lat="44.06771" lon="7.18005">
        <ele>1135</ele>
        <time>2019-09-03T19:37:45Z</time>
      </trkpt>
      <trkpt lat="44.06784" lon="7.17931">
        <ele>1131</ele>
        <time>2019-09-03T19:37:54Z</time>
      </trkpt>
      <trkpt lat="44.06786" lon="7.17839">
        <ele>1122</ele>
        <time>2019-09-03T19:38:06Z</time>
      </trkpt>
      <trkpt lat="44.06797" lon="7.17769">
        <ele>1115</ele>
        <time>2019-09-03T19:38:15Z</time>
      </trkpt>
      <trkpt lat="44.06816" lon="7.17706">
        <ele>1112</ele>
        <time>2019-09-03T19:38:24Z</time>
      </trkpt>
      <trkpt lat="44.06844" lon="7.17681">
        <ele>1114</ele>
        <time>2019-09-03T19:38:30Z</time>
      </trkpt>
      <trkpt lat="44.06864" lon="7.17668">
        <ele>1115</ele>
        <time>2019-09-03T19:38:34Z</time>
      </trkpt>
      <trkpt lat="44.06941" lon="7.17596">
        <ele>1114</ele>
        <time>2019-09-03T19:38:50Z</time>
      </trkpt>
      <trkpt lat="44.07007" lon="7.1753">
        <ele>1110</ele>
        <time>2019-09-03T19:39:05Z</time>
      </trkpt>
      <trkpt lat="44.0703" lon="7.17513">
        <ele>1110</ele>
        <time>2019-09-03T19:39:10Z</time>
      </trkpt>
      <trkpt lat="44.07044" lon="7.17504">
        <ele>1109</ele>
        <time>2019-09-03T19:39:12Z</time>
      </trkpt>
      <trkpt lat="44.07054" lon="7.17492">
        <ele>1108</ele>
        <time>2019-09-03T19:39:15Z</time>
      </trkpt>
      <trkpt lat="44.0706" lon="7.17481">
        <ele>1108</ele>
        <time>2019-09-03T19:39:16Z</time>
      </trkpt>
      <trkpt lat="44.07068" lon="7.1746">
        <ele>1105</ele>
        <time>2019-09-03T19:39:19Z</time>
      </trkpt>
      <trkpt lat="44.07078" lon="7.17408">
        <ele>1099</ele>
        <time>2019-09-03T19:39:26Z</time>
      </trkpt>
      <trkpt lat="44.07171" lon="7.17227">
        <ele>1088</ele>
        <time>2019-09-03T19:39:55Z</time>
      </trkpt>
      <trkpt lat="44.07202" lon="7.17182">
        <ele>1086</ele>
        <time>2019-09-03T19:40:03Z</time>
      </trkpt>
      <trkpt lat="44.07232" lon="7.17146">
        <ele>1088</ele>
        <time>2019-09-03T19:40:10Z</time>
      </trkpt>
      <trkpt lat="44.07236" lon="7.17139">
        <ele>1087</ele>
        <time>2019-09-03T19:40:11Z</time>
      </trkpt>
      <trkpt lat="44.0724" lon="7.17127">
        <ele>1086</ele>
        <time>2019-09-03T19:40:13Z</time>
      </trkpt>
      <trkpt lat="44.07267" lon="7.17018">
        <ele>1075</ele>
        <time>2019-09-03T19:40:27Z</time>
      </trkpt>
      <trkpt lat="44.07288" lon="7.16966">
        <ele>1068</ele>
        <time>2019-09-03T19:40:35Z</time>
      </trkpt>
      <trkpt lat="44.07305" lon="7.16938">
        <ele>1065</ele>
        <time>2019-09-03T19:40:40Z</time>
      </trkpt>
      <trkpt lat="44.0733" lon="7.16922">
        <ele>1068</ele>
        <time>2019-09-03T19:40:45Z</time>
      </trkpt>
      <trkpt lat="44.07328" lon="7.16905">
        <ele>1061</ele>
        <time>2019-09-03T19:40:47Z</time>
      </trkpt>
      <trkpt lat="44.0732" lon="7.16899">
        <ele>1057</ele>
        <time>2019-09-03T19:40:48Z</time>
      </trkpt>
      <trkpt lat="44.07284" lon="7.16942">
        <ele>1059</ele>
        <time>2019-09-03T19:40:57Z</time>
      </trkpt>
      <trkpt lat="44.07261" lon="7.16976">
        <ele>1061</ele>
        <time>2019-09-03T19:41:03Z</time>
      </trkpt>
      <trkpt lat="44.07241" lon="7.17014">
        <ele>1064</ele>
        <time>2019-09-03T19:41:09Z</time>
      </trkpt>
      <trkpt lat="44.07217" lon="7.17053">
        <ele>1065</ele>
        <time>2019-09-03T19:41:15Z</time>
      </trkpt>
      <trkpt lat="44.07204" lon="7.17066">
        <ele>1064</ele>
        <time>2019-09-03T19:41:18Z</time>
      </trkpt>
      <trkpt lat="44.07185" lon="7.17076">
        <ele>1060</ele>
        <time>2019-09-03T19:41:22Z</time>
      </trkpt>
      <trkpt lat="44.07062" lon="7.1709">
        <ele>1046</ele>
        <time>2019-09-03T19:41:44Z</time>
      </trkpt>
      <trkpt lat="44.06987" lon="7.17076">
        <ele>1038</ele>
        <time>2019-09-03T19:41:57Z</time>
      </trkpt>
      <trkpt lat="44.06937" lon="7.17103">
        <ele>1037</ele>
        <time>2019-09-03T19:42:07Z</time>
      </trkpt>
      <trkpt lat="44.06923" lon="7.17108">
        <ele>1036</ele>
        <time>2019-09-03T19:42:09Z</time>
      </trkpt>
      <trkpt lat="44.06914" lon="7.171">
        <ele>1035</ele>
        <time>2019-09-03T19:42:11Z</time>
      </trkpt>
      <trkpt lat="44.06911" lon="7.17092">
        <ele>1034</ele>
        <time>2019-09-03T19:42:12Z</time>
      </trkpt>
      <trkpt lat="44.06911" lon="7.17085">
        <ele>1033</ele>
        <time>2019-09-03T19:42:13Z</time>
      </trkpt>
      <trkpt lat="44.06916" lon="7.17066">
        <ele>1031</ele>
        <time>2019-09-03T19:42:16Z</time>
      </trkpt>
      <trkpt lat="44.06925" lon="7.17052">
        <ele>1031</ele>
        <time>2019-09-03T19:42:18Z</time>
      </trkpt>
      <trkpt lat="44.06922" lon="7.17052">
        <ele>1030</ele>
        <time>2019-09-03T19:42:19Z</time>
      </trkpt>
      <trkpt lat="44.0691" lon="7.17049">
        <ele>1029</ele>
        <time>2019-09-03T19:42:21Z</time>
      </trkpt>
      <trkpt lat="44.0692" lon="7.16977">
        <ele>1022</ele>
        <time>2019-09-03T19:42:30Z</time>
      </trkpt>
      <trkpt lat="44.06933" lon="7.16899">
        <ele>1013</ele>
        <time>2019-09-03T19:42:41Z</time>
      </trkpt>
      <trkpt lat="44.06943" lon="7.16874">
        <ele>1011</ele>
        <time>2019-09-03T19:42:44Z</time>
      </trkpt>
      <trkpt lat="44.06991" lon="7.16805">
        <ele>1009</ele>
        <time>2019-09-03T19:42:57Z</time>
      </trkpt>
      <trkpt lat="44.07006" lon="7.16789">
        <ele>1009</ele>
        <time>2019-09-03T19:43:00Z</time>
      </trkpt>
      <trkpt lat="44.07016" lon="7.16784">
        <ele>1008</ele>
        <time>2019-09-03T19:43:02Z</time>
      </trkpt>
      <trkpt lat="44.07023" lon="7.16784">
        <ele>1008</ele>
        <time>2019-09-03T19:43:03Z</time>
      </trkpt>
      <trkpt lat="44.07026" lon="7.16779">
        <ele>1008</ele>
        <time>2019-09-03T19:43:04Z</time>
      </trkpt>
      <trkpt lat="44.07026" lon="7.16773">
        <ele>1007</ele>
        <time>2019-09-03T19:43:05Z</time>
      </trkpt>
      <trkpt lat="44.07025" lon="7.16769">
        <ele>1007</ele>
        <time>2019-09-03T19:43:05Z</time>
      </trkpt>
      <trkpt lat="44.07027" lon="7.16757">
        <ele>1006</ele>
        <time>2019-09-03T19:43:07Z</time>
      </trkpt>
      <trkpt lat="44.07034" lon="7.1674">
        <ele>1004</ele>
        <time>2019-09-03T19:43:09Z</time>
      </trkpt>
      <trkpt lat="44.07072" lon="7.16689">
        <ele>1000</ele>
        <time>2019-09-03T19:43:19Z</time>
      </trkpt>
      <trkpt lat="44.07143" lon="7.16654">
        <ele>995</ele>
        <time>2019-09-03T19:43:32Z</time>
      </trkpt>
      <trkpt lat="44.07137" lon="7.16646">
        <ele>995</ele>
        <time>2019-09-03T19:43:34Z</time>
      </trkpt>
      <trkpt lat="44.07124" lon="7.16642">
        <ele>995</ele>
        <time>2019-09-03T19:43:36Z</time>
      </trkpt>
      <trkpt lat="44.07137" lon="7.16646">
        <ele>995</ele>
        <time>2019-09-03T19:43:38Z</time>
      </trkpt>
      <trkpt lat="44.07143" lon="7.16654">
        <ele>995</ele>
        <time>2019-09-03T19:43:40Z</time>
      </trkpt>
      <trkpt lat="44.07196" lon="7.16629">
        <ele>992</ele>
        <time>2019-09-03T19:43:50Z</time>
      </trkpt>
      <trkpt lat="44.07213" lon="7.16627">
        <ele>992</ele>
        <time>2019-09-03T19:43:53Z</time>
      </trkpt>
      <trkpt lat="44.0732" lon="7.16633">
        <ele>994</ele>
        <time>2019-09-03T19:44:12Z</time>
      </trkpt>
      <trkpt lat="44.07398" lon="7.16652">
        <ele>997</ele>
        <time>2019-09-03T19:44:26Z</time>
      </trkpt>
      <trkpt lat="44.07449" lon="7.1665">
        <ele>998</ele>
        <time>2019-09-03T19:44:35Z</time>
      </trkpt>
      <trkpt lat="44.0747" lon="7.16646">
        <ele>999</ele>
        <time>2019-09-03T19:44:39Z</time>
      </trkpt>
      <trkpt lat="44.07483" lon="7.16636">
        <ele>999</ele>
        <time>2019-09-03T19:44:41Z</time>
      </trkpt>
      <trkpt lat="44.07505" lon="7.16605">
        <ele>998</ele>
        <time>2019-09-03T19:44:47Z</time>
      </trkpt>
      <trkpt lat="44.07515" lon="7.16583">
        <ele>998</ele>
        <time>2019-09-03T19:44:50Z</time>
      </trkpt>
      <trkpt lat="44.07508" lon="7.16553">
        <ele>998</ele>
        <time>2019-09-03T19:44:54Z</time>
      </trkpt>
      <trkpt lat="44.0749" lon="7.1651">
        <ele>996</ele>
        <time>2019-09-03T19:45:01Z</time>
      </trkpt>
      <trkpt lat="44.07478" lon="7.16487">
        <ele>994</ele>
        <time>2019-09-03T19:45:04Z</time>
      </trkpt>
      <trkpt lat="44.07467" lon="7.16475">
        <ele>991</ele>
        <time>2019-09-03T19:45:07Z</time>
      </trkpt>
      <trkpt lat="44.07447" lon="7.16461">
        <ele>987</ele>
        <time>2019-09-03T19:45:11Z</time>
      </trkpt>
      <trkpt lat="44.07436" lon="7.16445">
        <ele>984</ele>
        <time>2019-09-03T19:45:14Z</time>
      </trkpt>
      <trkpt lat="44.07427" lon="7.16406">
        <ele>984</ele>
        <time>2019-09-03T19:45:19Z</time>
      </trkpt>
      <trkpt lat="44.07418" lon="7.16351">
        <ele>988</ele>
        <time>2019-09-03T19:45:26Z</time>
      </trkpt>
      <trkpt lat="44.0739" lon="7.16304">
        <ele>992</ele>
        <time>2019-09-03T19:45:34Z</time>
      </trkpt>
      <trkpt lat="44.07376" lon="7.1629">
        <ele>991</ele>
        <time>2019-09-03T19:45:37Z</time>
      </trkpt>
      <trkpt lat="44.07334" lon="7.16273">
        <ele>980</ele>
        <time>2019-09-03T19:45:45Z</time>
      </trkpt>
      <trkpt lat="44.07317" lon="7.16249">
        <ele>980</ele>
        <time>2019-09-03T19:45:49Z</time>
      </trkpt>
      <trkpt lat="44.07283" lon="7.1618">
        <ele>982</ele>
        <time>2019-09-03T19:46:00Z</time>
      </trkpt>
      <trkpt lat="44.07253" lon="7.16093">
        <ele>977</ele>
        <time>2019-09-03T19:46:12Z</time>
      </trkpt>
      <trkpt lat="44.07203" lon="7.15919">
        <ele>967</ele>
        <time>2019-09-03T19:46:36Z</time>
      </trkpt>
      <trkpt lat="44.07187" lon="7.15843">
        <ele>959</ele>
        <time>2019-09-03T19:46:46Z</time>
      </trkpt>
      <trkpt lat="44.0717" lon="7.15729">
        <ele>955</ele>
        <time>2019-09-03T19:47:01Z</time>
      </trkpt>
      <trkpt lat="44.07162" lon="7.1571">
        <ele>952</ele>
        <time>2019-09-03T19:47:04Z</time>
      </trkpt>
      <trkpt lat="44.07151" lon="7.15691">
        <ele>947</ele>
        <time>2019-09-03T19:47:07Z</time>
      </trkpt>
      <trkpt lat="44.07137" lon="7.15678">
        <ele>939</ele>
        <time>2019-09-03T19:47:10Z</time>
      </trkpt>
      <trkpt lat="44.07128" lon="7.15658">
        <ele>933</ele>
        <time>2019-09-03T19:47:13Z</time>
      </trkpt>
      <trkpt lat="44.07128" lon="7.15628">
        <ele>930</ele>
        <time>2019-09-03T19:47:17Z</time>
      </trkpt>
      <trkpt lat="44.07169" lon="7.15536">
        <ele>934</ele>
        <time>2019-09-03T19:47:31Z</time>
      </trkpt>
      <trkpt lat="44.07189" lon="7.15497">
        <ele>935</ele>
        <time>2019-09-03T19:47:37Z</time>
      </trkpt>
      <trkpt lat="44.07213" lon="7.15435">
        <ele>937</ele>
        <time>2019-09-03T19:47:46Z</time>
      </trkpt>
      <trkpt lat="44.07217" lon="7.15418">
        <ele>936</ele>
        <time>2019-09-03T19:47:48Z</time>
      </trkpt>
      <trkpt lat="44.07215" lon="7.15397">
        <ele>936</ele>
        <time>2019-09-03T19:47:51Z</time>
      </trkpt>
      <trkpt lat="44.07203" lon="7.15378">
        <ele>930</ele>
        <time>2019-09-03T19:47:54Z</time>
      </trkpt>
      <trkpt lat="44.07196" lon="7.15371">
        <ele>926</ele>
        <time>2019-09-03T19:47:56Z</time>
      </trkpt>
      <trkpt lat="44.0719" lon="7.15359">
        <ele>924</ele>
        <time>2019-09-03T19:47:57Z</time>
      </trkpt>
      <trkpt lat="44.07189" lon="7.15342">
        <ele>925</ele>
        <time>2019-09-03T19:48:00Z</time>
      </trkpt>
      <trkpt lat="44.07191" lon="7.15308">
        <ele>934</ele>
        <time>2019-09-03T19:48:04Z</time>
      </trkpt>
      <trkpt lat="44.07186" lon="7.15293">
        <ele>935</ele>
        <time>2019-09-03T19:48:06Z</time>
      </trkpt>
      <trkpt lat="44.07174" lon="7.15278">
        <ele>931</ele>
        <time>2019-09-03T19:48:09Z</time>
      </trkpt>
      <trkpt lat="44.07145" lon="7.15251">
        <ele>915</ele>
        <time>2019-09-03T19:48:15Z</time>
      </trkpt>
      <trkpt lat="44.07142" lon="7.15244">
        <ele>915</ele>
        <time>2019-09-03T19:48:16Z</time>
      </trkpt>
      <trkpt lat="44.07128" lon="7.15197">
        <ele>919</ele>
        <time>2019-09-03T19:48:23Z</time>
      </trkpt>
      <trkpt lat="44.07115" lon="7.15173">
        <ele>916</ele>
        <time>2019-09-03T19:48:27Z</time>
      </trkpt>
      <trkpt lat="44.07107" lon="7.15138">
        <ele>920</ele>
        <time>2019-09-03T19:48:31Z</time>
      </trkpt>
      <trkpt lat="44.07101" lon="7.15121">
        <ele>920</ele>
        <time>2019-09-03T19:48:34Z</time>
      </trkpt>
      <trkpt lat="44.07089" lon="7.15106">
        <ele>915</ele>
        <time>2019-09-03T19:48:37Z</time>
      </trkpt>
      <trkpt lat="44.07081" lon="7.15076">
        <ele>918</ele>
        <time>2019-09-03T19:48:41Z</time>
      </trkpt>
      <trkpt lat="44.07074" lon="7.15058">
        <ele>918</ele>
        <time>2019-09-03T19:48:43Z</time>
      </trkpt>
      <trkpt lat="44.07058" lon="7.15041">
        <ele>911</ele>
        <time>2019-09-03T19:48:47Z</time>
      </trkpt>
      <trkpt lat="44.07046" lon="7.15017">
        <ele>908</ele>
        <time>2019-09-03T19:48:51Z</time>
      </trkpt>
      <trkpt lat="44.07031" lon="7.14975">
        <ele>903</ele>
        <time>2019-09-03T19:48:57Z</time>
      </trkpt>
      <trkpt lat="44.07028" lon="7.14953">
        <ele>902</ele>
        <time>2019-09-03T19:48:59Z</time>
      </trkpt>
      <trkpt lat="44.07037" lon="7.14893">
        <ele>911</ele>
        <time>2019-09-03T19:49:07Z</time>
      </trkpt>
      <trkpt lat="44.07038" lon="7.14838">
        <ele>912</ele>
        <time>2019-09-03T19:49:14Z</time>
      </trkpt>
      <trkpt lat="44.07032" lon="7.14821">
        <ele>911</ele>
        <time>2019-09-03T19:49:17Z</time>
      </trkpt>
      <trkpt lat="44.07021" lon="7.14812">
        <ele>908</ele>
        <time>2019-09-03T19:49:19Z</time>
      </trkpt>
      <trkpt lat="44.06982" lon="7.1479">
        <ele>895</ele>
        <time>2019-09-03T19:49:26Z</time>
      </trkpt>
      <trkpt lat="44.06923" lon="7.14722">
        <ele>884</ele>
        <time>2019-09-03T19:49:40Z</time>
      </trkpt>
      <trkpt lat="44.06907" lon="7.1469">
        <ele>885</ele>
        <time>2019-09-03T19:49:45Z</time>
      </trkpt>
      <trkpt lat="44.06893" lon="7.14635">
        <ele>883</ele>
        <time>2019-09-03T19:49:53Z</time>
      </trkpt>
      <trkpt lat="44.06891" lon="7.14603">
        <ele>882</ele>
        <time>2019-09-03T19:49:57Z</time>
      </trkpt>
      <trkpt lat="44.06887" lon="7.14597">
        <ele>880</ele>
        <time>2019-09-03T19:49:58Z</time>
      </trkpt>
      <trkpt lat="44.06883" lon="7.14596">
        <ele>877</ele>
        <time>2019-09-03T19:49:58Z</time>
      </trkpt>
      <trkpt lat="44.06879" lon="7.14602">
        <ele>875</ele>
        <time>2019-09-03T19:49:59Z</time>
      </trkpt>
      <trkpt lat="44.06878" lon="7.14609">
        <ele>875</ele>
        <time>2019-09-03T19:50:00Z</time>
      </trkpt>
      <trkpt lat="44.06899" lon="7.14706">
        <ele>876</ele>
        <time>2019-09-03T19:50:13Z</time>
      </trkpt>
      <trkpt lat="44.06925" lon="7.14761">
        <ele>875</ele>
        <time>2019-09-03T19:50:22Z</time>
      </trkpt>
      <trkpt lat="44.06941" lon="7.14798">
        <ele>874</ele>
        <time>2019-09-03T19:50:27Z</time>
      </trkpt>
      <trkpt lat="44.06971" lon="7.14839">
        <ele>878</ele>
        <time>2019-09-03T19:50:35Z</time>
      </trkpt>
      <trkpt lat="44.06979" lon="7.14853">
        <ele>880</ele>
        <time>2019-09-03T19:50:37Z</time>
      </trkpt>
      <trkpt lat="44.06981" lon="7.14869">
        <ele>879</ele>
        <time>2019-09-03T19:50:39Z</time>
      </trkpt>
      <trkpt lat="44.06973" lon="7.1489">
        <ele>873</ele>
        <time>2019-09-03T19:50:42Z</time>
      </trkpt>
      <trkpt lat="44.06969" lon="7.14907">
        <ele>869</ele>
        <time>2019-09-03T19:50:44Z</time>
      </trkpt>
      <trkpt lat="44.06973" lon="7.14946">
        <ele>868</ele>
        <time>2019-09-03T19:50:49Z</time>
      </trkpt>
      <trkpt lat="44.06973" lon="7.14963">
        <ele>866</ele>
        <time>2019-09-03T19:50:52Z</time>
      </trkpt>
      <trkpt lat="44.0698" lon="7.15012">
        <ele>866</ele>
        <time>2019-09-03T19:50:58Z</time>
      </trkpt>
      <trkpt lat="44.06984" lon="7.15025">
        <ele>866</ele>
        <time>2019-09-03T19:51:00Z</time>
      </trkpt>
      <trkpt lat="44.06999" lon="7.15053">
        <ele>869</ele>
        <time>2019-09-03T19:51:04Z</time>
      </trkpt>
      <trkpt lat="44.06999" lon="7.15061">
        <ele>867</ele>
        <time>2019-09-03T19:51:05Z</time>
      </trkpt>
      <trkpt lat="44.06995" lon="7.15066">
        <ele>865</ele>
        <time>2019-09-03T19:51:06Z</time>
      </trkpt>
      <trkpt lat="44.0699" lon="7.15067">
        <ele>862</ele>
        <time>2019-09-03T19:51:07Z</time>
      </trkpt>
      <trkpt lat="44.06986" lon="7.15064">
        <ele>860</ele>
        <time>2019-09-03T19:51:08Z</time>
      </trkpt>
      <trkpt lat="44.06982" lon="7.15042">
        <ele>862</ele>
        <time>2019-09-03T19:51:11Z</time>
      </trkpt>
      <trkpt lat="44.06961" lon="7.1498">
        <ele>858</ele>
        <time>2019-09-03T19:51:20Z</time>
      </trkpt>
      <trkpt lat="44.06958" lon="7.14958">
        <ele>858</ele>
        <time>2019-09-03T19:51:23Z</time>
      </trkpt>
      <trkpt lat="44.06955" lon="7.14946">
        <ele>858</ele>
        <time>2019-09-03T19:51:24Z</time>
      </trkpt>
      <trkpt lat="44.06948" lon="7.14927">
        <ele>855</ele>
        <time>2019-09-03T19:51:27Z</time>
      </trkpt>
      <trkpt lat="44.0694" lon="7.14884">
        <ele>856</ele>
        <time>2019-09-03T19:51:33Z</time>
      </trkpt>
      <trkpt lat="44.06924" lon="7.14863">
        <ele>852</ele>
        <time>2019-09-03T19:51:36Z</time>
      </trkpt>
      <trkpt lat="44.06894" lon="7.1481">
        <ele>850</ele>
        <time>2019-09-03T19:51:45Z</time>
      </trkpt>
      <trkpt lat="44.06814" lon="7.14642">
        <ele>841</ele>
        <time>2019-09-03T19:52:11Z</time>
      </trkpt>
      <trkpt lat="44.0681" lon="7.14618">
        <ele>841</ele>
        <time>2019-09-03T19:52:14Z</time>
      </trkpt>
      <trkpt lat="44.06811" lon="7.14588">
        <ele>842</ele>
        <time>2019-09-03T19:52:18Z</time>
      </trkpt>
      <trkpt lat="44.06807" lon="7.1458">
        <ele>841</ele>
        <time>2019-09-03T19:52:19Z</time>
      </trkpt>
      <trkpt lat="44.06798" lon="7.14582">
        <ele>838</ele>
        <time>2019-09-03T19:52:21Z</time>
      </trkpt>
      <trkpt lat="44.06793" lon="7.14606">
        <ele>835</ele>
        <time>2019-09-03T19:52:24Z</time>
      </trkpt>
      <trkpt lat="44.06793" lon="7.14627">
        <ele>834</ele>
        <time>2019-09-03T19:52:27Z</time>
      </trkpt>
      <trkpt lat="44.06797" lon="7.14651">
        <ele>834</ele>
        <time>2019-09-03T19:52:30Z</time>
      </trkpt>
      <trkpt lat="44.06798" lon="7.14694">
        <ele>830</ele>
        <time>2019-09-03T19:52:35Z</time>
      </trkpt>
      <trkpt lat="44.06803" lon="7.14711">
        <ele>830</ele>
        <time>2019-09-03T19:52:38Z</time>
      </trkpt>
      <trkpt lat="44.06841" lon="7.14787">
        <ele>831</ele>
        <time>2019-09-03T19:52:49Z</time>
      </trkpt>
      <trkpt lat="44.06839" lon="7.14796">
        <ele>829</ele>
        <time>2019-09-03T19:52:51Z</time>
      </trkpt>
      <trkpt lat="44.06831" lon="7.14797">
        <ele>826</ele>
        <time>2019-09-03T19:52:52Z</time>
      </trkpt>
      <trkpt lat="44.06807" lon="7.14748">
        <ele>826</ele>
        <time>2019-09-03T19:53:00Z</time>
      </trkpt>
      <trkpt lat="44.06796" lon="7.14735">
        <ele>824</ele>
        <time>2019-09-03T19:53:02Z</time>
      </trkpt>
      <trkpt lat="44.06755" lon="7.14703">
        <ele>814</ele>
        <time>2019-09-03T19:53:11Z</time>
      </trkpt>
      <trkpt lat="44.06742" lon="7.1469">
        <ele>812</ele>
        <time>2019-09-03T19:53:13Z</time>
      </trkpt>
      <trkpt lat="44.06739" lon="7.14678">
        <ele>811</ele>
        <time>2019-09-03T19:53:15Z</time>
      </trkpt>
      <trkpt lat="44.06741" lon="7.14663">
        <ele>813</ele>
        <time>2019-09-03T19:53:17Z</time>
      </trkpt>
      <trkpt lat="44.06751" lon="7.14635">
        <ele>817</ele>
        <time>2019-09-03T19:53:21Z</time>
      </trkpt>
      <trkpt lat="44.06752" lon="7.14621">
        <ele>819</ele>
        <time>2019-09-03T19:53:23Z</time>
      </trkpt>
      <trkpt lat="44.06748" lon="7.14611">
        <ele>819</ele>
        <time>2019-09-03T19:53:24Z</time>
      </trkpt>
      <trkpt lat="44.06735" lon="7.14599">
        <ele>819</ele>
        <time>2019-09-03T19:53:27Z</time>
      </trkpt>
      <trkpt lat="44.0673" lon="7.14598">
        <ele>819</ele>
        <time>2019-09-03T19:53:28Z</time>
      </trkpt>
      <trkpt lat="44.06721" lon="7.14603">
        <ele>817</ele>
        <time>2019-09-03T19:53:30Z</time>
      </trkpt>
      <trkpt lat="44.06708" lon="7.14621">
        <ele>813</ele>
        <time>2019-09-03T19:53:33Z</time>
      </trkpt>
      <trkpt lat="44.06701" lon="7.14624">
        <ele>812</ele>
        <time>2019-09-03T19:53:34Z</time>
      </trkpt>
      <trkpt lat="44.06652" lon="7.14627">
        <ele>805</ele>
        <time>2019-09-03T19:53:43Z</time>
      </trkpt>
      <trkpt lat="44.06637" lon="7.14622">
        <ele>804</ele>
        <time>2019-09-03T19:53:46Z</time>
      </trkpt>
      <trkpt lat="44.06611" lon="7.14606">
        <ele>803</ele>
        <time>2019-09-03T19:53:51Z</time>
      </trkpt>
      <trkpt lat="44.06588" lon="7.14597">
        <ele>801</ele>
        <time>2019-09-03T19:53:55Z</time>
      </trkpt>
      <trkpt lat="44.06556" lon="7.14593">
        <ele>794</ele>
        <time>2019-09-03T19:54:01Z</time>
      </trkpt>
      <trkpt lat="44.06543" lon="7.14588">
        <ele>791</ele>
        <time>2019-09-03T19:54:03Z</time>
      </trkpt>
      <trkpt lat="44.06532" lon="7.1457">
        <ele>790</ele>
        <time>2019-09-03T19:54:06Z</time>
      </trkpt>
      <trkpt lat="44.06528" lon="7.14558">
        <ele>789</ele>
        <time>2019-09-03T19:54:08Z</time>
      </trkpt>
      <trkpt lat="44.06529" lon="7.14532">
        <ele>791</ele>
        <time>2019-09-03T19:54:11Z</time>
      </trkpt>
      <trkpt lat="44.06532" lon="7.1451">
        <ele>793</ele>
        <time>2019-09-03T19:54:14Z</time>
      </trkpt>
      <trkpt lat="44.06532" lon="7.14479">
        <ele>796</ele>
        <time>2019-09-03T19:54:18Z</time>
      </trkpt>
      <trkpt lat="44.06527" lon="7.14467">
        <ele>795</ele>
        <time>2019-09-03T19:54:20Z</time>
      </trkpt>
      <trkpt lat="44.06508" lon="7.14454">
        <ele>789</ele>
        <time>2019-09-03T19:54:24Z</time>
      </trkpt>
      <trkpt lat="44.06488" lon="7.14432">
        <ele>783</ele>
        <time>2019-09-03T19:54:28Z</time>
      </trkpt>
      <trkpt lat="44.0648" lon="7.1444">
        <ele>779</ele>
        <time>2019-09-03T19:54:30Z</time>
      </trkpt>
      <trkpt lat="44.06482" lon="7.14454">
        <ele>779</ele>
        <time>2019-09-03T19:54:32Z</time>
      </trkpt>
      <trkpt lat="44.06493" lon="7.14473">
        <ele>782</ele>
        <time>2019-09-03T19:54:35Z</time>
      </trkpt>
      <trkpt lat="44.06507" lon="7.14487">
        <ele>786</ele>
        <time>2019-09-03T19:54:38Z</time>
      </trkpt>
      <trkpt lat="44.0651" lon="7.14498">
        <ele>786</ele>
        <time>2019-09-03T19:54:39Z</time>
      </trkpt>
      <trkpt lat="44.065" lon="7.14569">
        <ele>780</ele>
        <time>2019-09-03T19:54:49Z</time>
      </trkpt>
      <trkpt lat="44.06505" lon="7.14634">
        <ele>778</ele>
        <time>2019-09-03T19:54:57Z</time>
      </trkpt>
      <trkpt lat="44.06492" lon="7.14705">
        <ele>770</ele>
        <time>2019-09-03T19:55:06Z</time>
      </trkpt>
      <trkpt lat="44.06489" lon="7.14728">
        <ele>767</ele>
        <time>2019-09-03T19:55:09Z</time>
      </trkpt>
      <trkpt lat="44.06494" lon="7.14742">
        <ele>768</ele>
        <time>2019-09-03T19:55:11Z</time>
      </trkpt>
      <trkpt lat="44.0651" lon="7.14767">
        <ele>768</ele>
        <time>2019-09-03T19:55:16Z</time>
      </trkpt>
      <trkpt lat="44.06511" lon="7.14774">
        <ele>767</ele>
        <time>2019-09-03T19:55:16Z</time>
      </trkpt>
      <trkpt lat="44.06508" lon="7.14781">
        <ele>766</ele>
        <time>2019-09-03T19:55:18Z</time>
      </trkpt>
      <trkpt lat="44.06504" lon="7.14783">
        <ele>765</ele>
        <time>2019-09-03T19:55:18Z</time>
      </trkpt>
      <trkpt lat="44.06494" lon="7.14778">
        <ele>764</ele>
        <time>2019-09-03T19:55:20Z</time>
      </trkpt>
      <trkpt lat="44.06461" lon="7.14745">
        <ele>758</ele>
        <time>2019-09-03T19:55:27Z</time>
      </trkpt>
      <trkpt lat="44.06446" lon="7.14722">
        <ele>755</ele>
        <time>2019-09-03T19:55:31Z</time>
      </trkpt>
      <trkpt lat="44.06439" lon="7.14694">
        <ele>753</ele>
        <time>2019-09-03T19:55:35Z</time>
      </trkpt>
      <trkpt lat="44.06415" lon="7.14578">
        <ele>752</ele>
        <time>2019-09-03T19:55:51Z</time>
      </trkpt>
      <trkpt lat="44.06411" lon="7.14451">
        <ele>749</ele>
        <time>2019-09-03T19:56:07Z</time>
      </trkpt>
      <trkpt lat="44.06403" lon="7.14372">
        <ele>747</ele>
        <time>2019-09-03T19:56:17Z</time>
      </trkpt>
      <trkpt lat="44.06402" lon="7.14235">
        <ele>747</ele>
        <time>2019-09-03T19:56:35Z</time>
      </trkpt>
      <trkpt lat="44.06396" lon="7.14207">
        <ele>745</ele>
        <time>2019-09-03T19:56:38Z</time>
      </trkpt>
      <trkpt lat="44.06393" lon="7.14175">
        <ele>743</ele>
        <time>2019-09-03T19:56:42Z</time>
      </trkpt>
      <trkpt lat="44.06396" lon="7.14136">
        <ele>745</ele>
        <time>2019-09-03T19:56:47Z</time>
      </trkpt>
      <trkpt lat="44.06408" lon="7.14109">
        <ele>751</ele>
        <time>2019-09-03T19:56:52Z</time>
      </trkpt>
      <trkpt lat="44.06412" lon="7.14089">
        <ele>752</ele>
        <time>2019-09-03T19:56:54Z</time>
      </trkpt>
      <trkpt lat="44.06406" lon="7.14075">
        <ele>752</ele>
        <time>2019-09-03T19:56:56Z</time>
      </trkpt>
      <trkpt lat="44.06398" lon="7.14067">
        <ele>750</ele>
        <time>2019-09-03T19:56:58Z</time>
      </trkpt>
      <trkpt lat="44.06377" lon="7.14059">
        <ele>742</ele>
        <time>2019-09-03T19:57:02Z</time>
      </trkpt>
      <trkpt lat="44.0636" lon="7.14057">
        <ele>734</ele>
        <time>2019-09-03T19:57:05Z</time>
      </trkpt>
      <trkpt lat="44.06351" lon="7.14052">
        <ele>731</ele>
        <time>2019-09-03T19:57:07Z</time>
      </trkpt>
      <trkpt lat="44.06341" lon="7.14037">
        <ele>730</ele>
        <time>2019-09-03T19:57:09Z</time>
      </trkpt>
      <trkpt lat="44.06302" lon="7.13947">
        <ele>735</ele>
        <time>2019-09-03T19:57:23Z</time>
      </trkpt>
      <trkpt lat="44.0623" lon="7.13867">
        <ele>728</ele>
        <time>2019-09-03T19:57:39Z</time>
      </trkpt>
      <trkpt lat="44.06202" lon="7.1385">
        <ele>723</ele>
        <time>2019-09-03T19:57:45Z</time>
      </trkpt>
      <trkpt lat="44.06174" lon="7.13849">
        <ele>711</ele>
        <time>2019-09-03T19:57:49Z</time>
      </trkpt>
      <trkpt lat="44.06157" lon="7.13833">
        <ele>710</ele>
        <time>2019-09-03T19:57:53Z</time>
      </trkpt>
      <trkpt lat="44.0615" lon="7.1381">
        <ele>713</ele>
        <time>2019-09-03T19:57:56Z</time>
      </trkpt>
      <trkpt lat="44.06143" lon="7.13802">
        <ele>712</ele>
        <time>2019-09-03T19:57:58Z</time>
      </trkpt>
      <trkpt lat="44.06129" lon="7.13794">
        <ele>708</ele>
        <time>2019-09-03T19:58:01Z</time>
      </trkpt>
      <trkpt lat="44.0612" lon="7.13777">
        <ele>707</ele>
        <time>2019-09-03T19:58:03Z</time>
      </trkpt>
      <trkpt lat="44.06116" lon="7.13756">
        <ele>710</ele>
        <time>2019-09-03T19:58:06Z</time>
      </trkpt>
      <trkpt lat="44.06117" lon="7.13714">
        <ele>720</ele>
        <time>2019-09-03T19:58:11Z</time>
      </trkpt>
      <trkpt lat="44.06112" lon="7.13704">
        <ele>720</ele>
        <time>2019-09-03T19:58:13Z</time>
      </trkpt>
      <trkpt lat="44.06103" lon="7.13698">
        <ele>717</ele>
        <time>2019-09-03T19:58:15Z</time>
      </trkpt>
      <trkpt lat="44.06089" lon="7.137">
        <ele>710</ele>
        <time>2019-09-03T19:58:17Z</time>
      </trkpt>
      <trkpt lat="44.06075" lon="7.13694">
        <ele>705</ele>
        <time>2019-09-03T19:58:20Z</time>
      </trkpt>
      <trkpt lat="44.06035" lon="7.13657">
        <ele>696</ele>
        <time>2019-09-03T19:58:28Z</time>
      </trkpt>
      <trkpt lat="44.06027" lon="7.13636">
        <ele>700</ele>
        <time>2019-09-03T19:58:32Z</time>
      </trkpt>
      <trkpt lat="44.06025" lon="7.13606">
        <ele>712</ele>
        <time>2019-09-03T19:58:35Z</time>
      </trkpt>
      <trkpt lat="44.06016" lon="7.1359">
        <ele>714</ele>
        <time>2019-09-03T19:58:38Z</time>
      </trkpt>
      <trkpt lat="44.05994" lon="7.13572">
        <ele>710</ele>
        <time>2019-09-03T19:58:43Z</time>
      </trkpt>
      <trkpt lat="44.05979" lon="7.13568">
        <ele>706</ele>
        <time>2019-09-03T19:58:45Z</time>
      </trkpt>
      <trkpt lat="44.0596" lon="7.13573">
        <ele>696</ele>
        <time>2019-09-03T19:58:49Z</time>
      </trkpt>
      <trkpt lat="44.05948" lon="7.13565">
        <ele>694</ele>
        <time>2019-09-03T19:58:51Z</time>
      </trkpt>
      <trkpt lat="44.05937" lon="7.1355">
        <ele>694</ele>
        <time>2019-09-03T19:58:54Z</time>
      </trkpt>
      <trkpt lat="44.05933" lon="7.13527">
        <ele>701</ele>
        <time>2019-09-03T19:58:57Z</time>
      </trkpt>
      <trkpt lat="44.05926" lon="7.13513">
        <ele>702</ele>
        <time>2019-09-03T19:58:59Z</time>
      </trkpt>
      <trkpt lat="44.05908" lon="7.13502">
        <ele>699</ele>
        <time>2019-09-03T19:59:02Z</time>
      </trkpt>
      <trkpt lat="44.05837" lon="7.13476">
        <ele>688</ele>
        <time>2019-09-03T19:59:16Z</time>
      </trkpt>
      <trkpt lat="44.05812" lon="7.13438">
        <ele>697</ele>
        <time>2019-09-03T19:59:22Z</time>
      </trkpt>
      <trkpt lat="44.05801" lon="7.13436">
        <ele>695</ele>
        <time>2019-09-03T19:59:24Z</time>
      </trkpt>
      <trkpt lat="44.05779" lon="7.13438">
        <ele>686</ele>
        <time>2019-09-03T19:59:28Z</time>
      </trkpt>
      <trkpt lat="44.05749" lon="7.13429">
        <ele>680</ele>
        <time>2019-09-03T19:59:33Z</time>
      </trkpt>
      <trkpt lat="44.05734" lon="7.13403">
        <ele>691</ele>
        <time>2019-09-03T19:59:38Z</time>
      </trkpt>
      <trkpt lat="44.05727" lon="7.13399">
        <ele>692</ele>
        <time>2019-09-03T19:59:39Z</time>
      </trkpt>
      <trkpt lat="44.057" lon="7.13403">
        <ele>684</ele>
        <time>2019-09-03T19:59:44Z</time>
      </trkpt>
      <trkpt lat="44.05661" lon="7.13391">
        <ele>683</ele>
        <time>2019-09-03T19:59:51Z</time>
      </trkpt>
      <trkpt lat="44.05618" lon="7.13391">
        <ele>679</ele>
        <time>2019-09-03T19:59:59Z</time>
      </trkpt>
      <trkpt lat="44.05579" lon="7.13394">
        <ele>673</ele>
        <time>2019-09-03T20:00:06Z</time>
      </trkpt>
      <trkpt lat="44.05562" lon="7.13394">
        <ele>673</ele>
        <time>2019-09-03T20:00:09Z</time>
      </trkpt>
      <trkpt lat="44.05554" lon="7.13391">
        <ele>675</ele>
        <time>2019-09-03T20:00:10Z</time>
      </trkpt>
      <trkpt lat="44.05541" lon="7.13396">
        <ele>671</ele>
        <time>2019-09-03T20:00:13Z</time>
      </trkpt>
      <trkpt lat="44.05523" lon="7.13408">
        <ele>663</ele>
        <time>2019-09-03T20:00:16Z</time>
      </trkpt>
      <trkpt lat="44.05515" lon="7.13408">
        <ele>663</ele>
        <time>2019-09-03T20:00:18Z</time>
      </trkpt>
      <trkpt lat="44.05489" lon="7.1338">
        <ele>681</ele>
        <time>2019-09-03T20:00:23Z</time>
      </trkpt>
      <trkpt lat="44.05474" lon="7.13375">
        <ele>683</ele>
        <time>2019-09-03T20:00:26Z</time>
      </trkpt>
      <trkpt lat="44.05452" lon="7.13375">
        <ele>681</ele>
        <time>2019-09-03T20:00:30Z</time>
      </trkpt>
      <trkpt lat="44.05438" lon="7.13377">
        <ele>678</ele>
        <time>2019-09-03T20:00:33Z</time>
      </trkpt>
      <trkpt lat="44.05411" lon="7.13391">
        <ele>665</ele>
        <time>2019-09-03T20:00:38Z</time>
      </trkpt>
      <trkpt lat="44.05405" lon="7.13391">
        <ele>663</ele>
        <time>2019-09-03T20:00:39Z</time>
      </trkpt>
      <trkpt lat="44.05366" lon="7.13375">
        <ele>666</ele>
        <time>2019-09-03T20:00:46Z</time>
      </trkpt>
      <trkpt lat="44.05337" lon="7.13359">
        <ele>672</ele>
        <time>2019-09-03T20:00:52Z</time>
      </trkpt>
      <trkpt lat="44.05321" lon="7.13355">
        <ele>673</ele>
        <time>2019-09-03T20:00:54Z</time>
      </trkpt>
      <trkpt lat="44.05292" lon="7.1336">
        <ele>666</ele>
        <time>2019-09-03T20:01:00Z</time>
      </trkpt>
      <trkpt lat="44.05255" lon="7.13352">
        <ele>667</ele>
        <time>2019-09-03T20:01:06Z</time>
      </trkpt>
      <trkpt lat="44.05226" lon="7.13373">
        <ele>647</ele>
        <time>2019-09-03T20:01:12Z</time>
      </trkpt>
      <trkpt lat="44.05184" lon="7.13385">
        <ele>634</ele>
        <time>2019-09-03T20:01:20Z</time>
      </trkpt>
      <trkpt lat="44.05162" lon="7.13379">
        <ele>635</ele>
        <time>2019-09-03T20:01:24Z</time>
      </trkpt>
      <trkpt lat="44.05126" lon="7.1336">
        <ele>637</ele>
        <time>2019-09-03T20:01:31Z</time>
      </trkpt>
      <trkpt lat="44.0508" lon="7.13361">
        <ele>625</ele>
        <time>2019-09-03T20:01:39Z</time>
      </trkpt>
      <trkpt lat="44.05065" lon="7.13353">
        <ele>621</ele>
        <time>2019-09-03T20:01:42Z</time>
      </trkpt>
      <trkpt lat="44.05051" lon="7.13334">
        <ele>620</ele>
        <time>2019-09-03T20:01:45Z</time>
      </trkpt>
      <trkpt lat="44.05022" lon="7.13247">
        <ele>637</ele>
        <time>2019-09-03T20:01:57Z</time>
      </trkpt>
      <trkpt lat="44.05011" lon="7.13237">
        <ele>636</ele>
        <time>2019-09-03T20:02:00Z</time>
      </trkpt>
      <trkpt lat="44.04972" lon="7.13225">
        <ele>627</ele>
        <time>2019-09-03T20:02:07Z</time>
      </trkpt>
      <trkpt lat="44.04948" lon="7.13204">
        <ele>630</ele>
        <time>2019-09-03T20:02:12Z</time>
      </trkpt>
      <trkpt lat="44.04924" lon="7.13203">
        <ele>624</ele>
        <time>2019-09-03T20:02:16Z</time>
      </trkpt>
      <trkpt lat="44.04884" lon="7.13208">
        <ele>597</ele>
        <time>2019-09-03T20:02:23Z</time>
      </trkpt>
      <trkpt lat="44.04868" lon="7.13201">
        <ele>590</ele>
        <time>2019-09-03T20:02:26Z</time>
      </trkpt>
      <trkpt lat="44.04856" lon="7.13184">
        <ele>589</ele>
        <time>2019-09-03T20:02:29Z</time>
      </trkpt>
      <trkpt lat="44.04838" lon="7.13107">
        <ele>582</ele>
        <time>2019-09-03T20:02:40Z</time>
      </trkpt>
      <trkpt lat="44.04851" lon="7.1308">
        <ele>589</ele>
        <time>2019-09-03T20:02:44Z</time>
      </trkpt>
      <trkpt lat="44.04873" lon="7.13048">
        <ele>578</ele>
        <time>2019-09-03T20:02:49Z</time>
      </trkpt>
      <trkpt lat="44.04924" lon="7.13012">
        <ele>581</ele>
        <time>2019-09-03T20:03:00Z</time>
      </trkpt>
      <trkpt lat="44.04952" lon="7.13003">
        <ele>596</ele>
        <time>2019-09-03T20:03:05Z</time>
      </trkpt>
      <trkpt lat="44.04967" lon="7.12982">
        <ele>592</ele>
        <time>2019-09-03T20:03:09Z</time>
      </trkpt>
      <trkpt lat="44.04996" lon="7.12973">
        <ele>608</ele>
        <time>2019-09-03T20:03:14Z</time>
      </trkpt>
      <trkpt lat="44.05034" lon="7.12941">
        <ele>596</ele>
        <time>2019-09-03T20:03:22Z</time>
      </trkpt>
      <trkpt lat="44.05103" lon="7.12905">
        <ele>601</ele>
        <time>2019-09-03T20:03:35Z</time>
      </trkpt>
      <trkpt lat="44.05111" lon="7.12892">
        <ele>597</ele>
        <time>2019-09-03T20:03:37Z</time>
      </trkpt>
      <trkpt lat="44.05118" lon="7.12864">
        <ele>583</ele>
        <time>2019-09-03T20:03:41Z</time>
      </trkpt>
      <trkpt lat="44.05126" lon="7.12844">
        <ele>575</ele>
        <time>2019-09-03T20:03:44Z</time>
      </trkpt>
      <trkpt lat="44.05145" lon="7.12817">
        <ele>572</ele>
        <time>2019-09-03T20:03:49Z</time>
      </trkpt>
      <trkpt lat="44.05158" lon="7.12775">
        <ele>557</ele>
        <time>2019-09-03T20:03:54Z</time>
      </trkpt>
      <trkpt lat="44.05182" lon="7.12757">
        <ele>560</ele>
        <time>2019-09-03T20:03:59Z</time>
      </trkpt>
      <trkpt lat="44.052" lon="7.12722">
        <ele>547</ele>
        <time>2019-09-03T20:04:05Z</time>
      </trkpt>
      <trkpt lat="44.0522" lon="7.12712">
        <ele>550</ele>
        <time>2019-09-03T20:04:09Z</time>
      </trkpt>
      <trkpt lat="44.05252" lon="7.12718">
        <ele>568</ele>
        <time>2019-09-03T20:04:14Z</time>
      </trkpt>
      <trkpt lat="44.05264" lon="7.12712">
        <ele>570</ele>
        <time>2019-09-03T20:04:17Z</time>
      </trkpt>
      <trkpt lat="44.05275" lon="7.12694">
        <ele>565</ele>
        <time>2019-09-03T20:04:20Z</time>
      </trkpt>
      <trkpt lat="44.05287" lon="7.12649">
        <ele>549</ele>
        <time>2019-09-03T20:04:26Z</time>
      </trkpt>
      <trkpt lat="44.05319" lon="7.12611">
        <ele>551</ele>
        <time>2019-09-03T20:04:33Z</time>
      </trkpt>
      <trkpt lat="44.05326" lon="7.12567">
        <ele>537</ele>
        <time>2019-09-03T20:04:39Z</time>
      </trkpt>
      <trkpt lat="44.05335" lon="7.12559">
        <ele>538</ele>
        <time>2019-09-03T20:04:41Z</time>
      </trkpt>
      <trkpt lat="44.05359" lon="7.12552">
        <ele>543</ele>
        <time>2019-09-03T20:04:45Z</time>
      </trkpt>
      <trkpt lat="44.05399" lon="7.12547">
        <ele>555</ele>
        <time>2019-09-03T20:04:52Z</time>
      </trkpt>
      <trkpt lat="44.0541" lon="7.12531">
        <ele>553</ele>
        <time>2019-09-03T20:04:55Z</time>
      </trkpt>
      <trkpt lat="44.0543" lon="7.12471">
        <ele>544</ele>
        <time>2019-09-03T20:05:04Z</time>
      </trkpt>
      <trkpt lat="44.05423" lon="7.12425">
        <ele>527</ele>
        <time>2019-09-03T20:05:10Z</time>
      </trkpt>
      <trkpt lat="44.05424" lon="7.12387">
        <ele>522</ele>
        <time>2019-09-03T20:05:15Z</time>
      </trkpt>
      <trkpt lat="44.05438" lon="7.12343">
        <ele>525</ele>
        <time>2019-09-03T20:05:21Z</time>
      </trkpt>
      <trkpt lat="44.05442" lon="7.12324">
        <ele>524</ele>
        <time>2019-09-03T20:05:23Z</time>
      </trkpt>
      <trkpt lat="44.05438" lon="7.12296">
        <ele>514</ele>
        <time>2019-09-03T20:05:27Z</time>
      </trkpt>
      <trkpt lat="44.05446" lon="7.12262">
        <ele>510</ele>
        <time>2019-09-03T20:05:31Z</time>
      </trkpt>
      <trkpt lat="44.05468" lon="7.12203">
        <ele>509</ele>
        <time>2019-09-03T20:05:40Z</time>
      </trkpt>
      <trkpt lat="44.05504" lon="7.12095">
        <ele>514</ele>
        <time>2019-09-03T20:05:55Z</time>
      </trkpt>
      <trkpt lat="44.05505" lon="7.12072">
        <ele>510</ele>
        <time>2019-09-03T20:05:58Z</time>
      </trkpt>
      <trkpt lat="44.05492" lon="7.11952">
        <ele>479</ele>
        <time>2019-09-03T20:06:14Z</time>
      </trkpt>
      <trkpt lat="44.05483" lon="7.11919">
        <ele>469</ele>
        <time>2019-09-03T20:06:18Z</time>
      </trkpt>
      <trkpt lat="44.05482" lon="7.11904">
        <ele>465</ele>
        <time>2019-09-03T20:06:20Z</time>
      </trkpt>
      <trkpt lat="44.05484" lon="7.11888">
        <ele>460</ele>
        <time>2019-09-03T20:06:22Z</time>
      </trkpt>
      <trkpt lat="44.05484" lon="7.1188">
        <ele>457</ele>
        <time>2019-09-03T20:06:23Z</time>
      </trkpt>
      <trkpt lat="44.05479" lon="7.11876">
        <ele>455</ele>
        <time>2019-09-03T20:06:24Z</time>
      </trkpt>
      <trkpt lat="44.05475" lon="7.11878">
        <ele>455</ele>
        <time>2019-09-03T20:06:25Z</time>
      </trkpt>
      <trkpt lat="44.05471" lon="7.11887">
        <ele>456</ele>
        <time>2019-09-03T20:06:26Z</time>
      </trkpt>
      <trkpt lat="44.05471" lon="7.11906">
        <ele>462</ele>
        <time>2019-09-03T20:06:29Z</time>
      </trkpt>
      <trkpt lat="44.05478" lon="7.11941">
        <ele>471</ele>
        <time>2019-09-03T20:06:33Z</time>
      </trkpt>
      <trkpt lat="44.05482" lon="7.12015">
        <ele>485</ele>
        <time>2019-09-03T20:06:43Z</time>
      </trkpt>
      <trkpt lat="44.05483" lon="7.12064">
        <ele>493</ele>
        <time>2019-09-03T20:06:49Z</time>
      </trkpt>
      <trkpt lat="44.05473" lon="7.12107">
        <ele>492</ele>
        <time>2019-09-03T20:06:55Z</time>
      </trkpt>
      <trkpt lat="44.05471" lon="7.12135">
        <ele>496</ele>
        <time>2019-09-03T20:06:59Z</time>
      </trkpt>
      <trkpt lat="44.0547" lon="7.1214">
        <ele>496</ele>
        <time>2019-09-03T20:06:59Z</time>
      </trkpt>
      <trkpt lat="44.05464" lon="7.12141">
        <ele>491</ele>
        <time>2019-09-03T20:07:00Z</time>
      </trkpt>
      <trkpt lat="44.05467" lon="7.12111">
        <ele>488</ele>
        <time>2019-09-03T20:07:04Z</time>
      </trkpt>
      <trkpt lat="44.05475" lon="7.1206">
        <ele>486</ele>
        <time>2019-09-03T20:07:11Z</time>
      </trkpt>
      <trkpt lat="44.0547" lon="7.12016">
        <ele>477</ele>
        <time>2019-09-03T20:07:17Z</time>
      </trkpt>
      <trkpt lat="44.05471" lon="7.11967">
        <ele>471</ele>
        <time>2019-09-03T20:07:23Z</time>
      </trkpt>
      <trkpt lat="44.05466" lon="7.11939">
        <ele>466</ele>
        <time>2019-09-03T20:07:26Z</time>
      </trkpt>
      <trkpt lat="44.05451" lon="7.1191">
        <ele>457</ele>
        <time>2019-09-03T20:07:31Z</time>
      </trkpt>
      <trkpt lat="44.05446" lon="7.11896">
        <ele>452</ele>
        <time>2019-09-03T20:07:33Z</time>
      </trkpt>
      <trkpt lat="44.05446" lon="7.11882">
        <ele>449</ele>
        <time>2019-09-03T20:07:35Z</time>
      </trkpt>
      <trkpt lat="44.0545" lon="7.1187">
        <ele>448</ele>
        <time>2019-09-03T20:07:37Z</time>
      </trkpt>
      <trkpt lat="44.05459" lon="7.11863">
        <ele>448</ele>
        <time>2019-09-03T20:07:38Z</time>
      </trkpt>
      <trkpt lat="44.05472" lon="7.11857">
        <ele>448</ele>
        <time>2019-09-03T20:07:41Z</time>
      </trkpt>
      <trkpt lat="44.05482" lon="7.11859">
        <ele>450</ele>
        <time>2019-09-03T20:07:43Z</time>
      </trkpt>
      <trkpt lat="44.05495" lon="7.11863">
        <ele>454</ele>
        <time>2019-09-03T20:07:45Z</time>
      </trkpt>
      <trkpt lat="44.05544" lon="7.11925">
        <ele>479</ele>
        <time>2019-09-03T20:07:57Z</time>
      </trkpt>
      <trkpt lat="44.05571" lon="7.11947">
        <ele>493</ele>
        <time>2019-09-03T20:08:02Z</time>
      </trkpt>
      <trkpt lat="44.05593" lon="7.11939">
        <ele>492</ele>
        <time>2019-09-03T20:08:06Z</time>
      </trkpt>
      <trkpt lat="44.05612" lon="7.11918">
        <ele>484</ele>
        <time>2019-09-03T20:08:11Z</time>
      </trkpt>
      <trkpt lat="44.05627" lon="7.11894">
        <ele>474</ele>
        <time>2019-09-03T20:08:15Z</time>
      </trkpt>
      <trkpt lat="44.05644" lon="7.11875">
        <ele>465</ele>
        <time>2019-09-03T20:08:19Z</time>
      </trkpt>
      <trkpt lat="44.05665" lon="7.11884">
        <ele>473</ele>
        <time>2019-09-03T20:08:23Z</time>
      </trkpt>
      <trkpt lat="44.05685" lon="7.11896">
        <ele>486</ele>
        <time>2019-09-03T20:08:26Z</time>
      </trkpt>
      <trkpt lat="44.05712" lon="7.119">
        <ele>497</ele>
        <time>2019-09-03T20:08:31Z</time>
      </trkpt>
      <trkpt lat="44.05728" lon="7.11897">
        <ele>499</ele>
        <time>2019-09-03T20:08:34Z</time>
      </trkpt>
      <trkpt lat="44.05743" lon="7.11887">
        <ele>496</ele>
        <time>2019-09-03T20:08:37Z</time>
      </trkpt>
      <trkpt lat="44.05754" lon="7.11863">
        <ele>480</ele>
        <time>2019-09-03T20:08:41Z</time>
      </trkpt>
      <trkpt lat="44.05767" lon="7.11849">
        <ele>471</ele>
        <time>2019-09-03T20:08:44Z</time>
      </trkpt>
      <trkpt lat="44.05778" lon="7.11843">
        <ele>467</ele>
        <time>2019-09-03T20:08:46Z</time>
      </trkpt>
      <trkpt lat="44.05798" lon="7.11835">
        <ele>462</ele>
        <time>2019-09-03T20:08:49Z</time>
      </trkpt>
      <trkpt lat="44.05839" lon="7.11864">
        <ele>487</ele>
        <time>2019-09-03T20:08:58Z</time>
      </trkpt>
      <trkpt lat="44.05858" lon="7.11869">
        <ele>494</ele>
        <time>2019-09-03T20:09:01Z</time>
      </trkpt>
      <trkpt lat="44.05882" lon="7.11854">
        <ele>486</ele>
        <time>2019-09-03T20:09:06Z</time>
      </trkpt>
      <trkpt lat="44.05916" lon="7.11827">
        <ele>475</ele>
        <time>2019-09-03T20:09:13Z</time>
      </trkpt>
      <trkpt lat="44.05948" lon="7.11827">
        <ele>485</ele>
        <time>2019-09-03T20:09:18Z</time>
      </trkpt>
      <trkpt lat="44.05971" lon="7.11804">
        <ele>479</ele>
        <time>2019-09-03T20:09:23Z</time>
      </trkpt>
      <trkpt lat="44.05983" lon="7.11786">
        <ele>471</ele>
        <time>2019-09-03T20:09:27Z</time>
      </trkpt>
      <trkpt lat="44.05995" lon="7.1177">
        <ele>464</ele>
        <time>2019-09-03T20:09:30Z</time>
      </trkpt>
      <trkpt lat="44.06037" lon="7.11767">
        <ele>469</ele>
        <time>2019-09-03T20:09:37Z</time>
      </trkpt>
      <trkpt lat="44.06073" lon="7.11769">
        <ele>475</ele>
        <time>2019-09-03T20:09:43Z</time>
      </trkpt>
      <trkpt lat="44.06091" lon="7.11776">
        <ele>480</ele>
        <time>2019-09-03T20:09:47Z</time>
      </trkpt>
      <trkpt lat="44.06117" lon="7.11804">
        <ele>493</ele>
        <time>2019-09-03T20:09:53Z</time>
      </trkpt>
      <trkpt lat="44.06129" lon="7.11805">
        <ele>492</ele>
        <time>2019-09-03T20:09:55Z</time>
      </trkpt>
      <trkpt lat="44.06155" lon="7.11794">
        <ele>480</ele>
        <time>2019-09-03T20:10:00Z</time>
      </trkpt>
      <trkpt lat="44.06167" lon="7.11794">
        <ele>478</ele>
        <time>2019-09-03T20:10:02Z</time>
      </trkpt>
      <trkpt lat="44.06192" lon="7.118">
        <ele>489</ele>
        <time>2019-09-03T20:10:06Z</time>
      </trkpt>
      <trkpt lat="44.06201" lon="7.11799">
        <ele>492</ele>
        <time>2019-09-03T20:10:08Z</time>
      </trkpt>
      <trkpt lat="44.06211" lon="7.1179">
        <ele>490</ele>
        <time>2019-09-03T20:10:10Z</time>
      </trkpt>
      <trkpt lat="44.06241" lon="7.11741">
        <ele>475</ele>
        <time>2019-09-03T20:10:18Z</time>
      </trkpt>
      <trkpt lat="44.06251" lon="7.11717">
        <ele>469</ele>
        <time>2019-09-03T20:10:22Z</time>
      </trkpt>
      <trkpt lat="44.06263" lon="7.11703">
        <ele>466</ele>
        <time>2019-09-03T20:10:25Z</time>
      </trkpt>
      <trkpt lat="44.06275" lon="7.11702">
        <ele>467</ele>
        <time>2019-09-03T20:10:27Z</time>
      </trkpt>
      <trkpt lat="44.06302" lon="7.11718">
        <ele>478</ele>
        <time>2019-09-03T20:10:32Z</time>
      </trkpt>
      <trkpt lat="44.0634" lon="7.11717">
        <ele>483</ele>
        <time>2019-09-03T20:10:39Z</time>
      </trkpt>
      <trkpt lat="44.0637" lon="7.11709">
        <ele>479</ele>
        <time>2019-09-03T20:10:44Z</time>
      </trkpt>
      <trkpt lat="44.06433" lon="7.11725">
        <ele>492</ele>
        <time>2019-09-03T20:10:55Z</time>
      </trkpt>
      <trkpt lat="44.06446" lon="7.11718">
        <ele>494</ele>
        <time>2019-09-03T20:10:58Z</time>
      </trkpt>
      <trkpt lat="44.06458" lon="7.11703">
        <ele>493</ele>
        <time>2019-09-03T20:11:01Z</time>
      </trkpt>
      <trkpt lat="44.0646" lon="7.11673">
        <ele>486</ele>
        <time>2019-09-03T20:11:05Z</time>
      </trkpt>
      <trkpt lat="44.06459" lon="7.11632">
        <ele>478</ele>
        <time>2019-09-03T20:11:10Z</time>
      </trkpt>
      <trkpt lat="44.06472" lon="7.11599">
        <ele>478</ele>
        <time>2019-09-03T20:11:15Z</time>
      </trkpt>
      <trkpt lat="44.06484" lon="7.11557">
        <ele>475</ele>
        <time>2019-09-03T20:11:21Z</time>
      </trkpt>
      <trkpt lat="44.06497" lon="7.11534">
        <ele>475</ele>
        <time>2019-09-03T20:11:24Z</time>
      </trkpt>
      <trkpt lat="44.06513" lon="7.11475">
        <ele>465</ele>
        <time>2019-09-03T20:11:32Z</time>
      </trkpt>
      <trkpt lat="44.06523" lon="7.11457">
        <ele>463</ele>
        <time>2019-09-03T20:11:35Z</time>
      </trkpt>
      <trkpt lat="44.06532" lon="7.11448">
        <ele>462</ele>
        <time>2019-09-03T20:11:37Z</time>
      </trkpt>
      <trkpt lat="44.06552" lon="7.11442">
        <ele>462</ele>
        <time>2019-09-03T20:11:41Z</time>
      </trkpt>
      <trkpt lat="44.06596" lon="7.11459">
        <ele>474</ele>
        <time>2019-09-03T20:11:49Z</time>
      </trkpt>
      <trkpt lat="44.06634" lon="7.11481">
        <ele>488</ele>
        <time>2019-09-03T20:11:56Z</time>
      </trkpt>
      <trkpt lat="44.06666" lon="7.11495">
        <ele>499</ele>
        <time>2019-09-03T20:12:02Z</time>
      </trkpt>
      <trkpt lat="44.06686" lon="7.11481">
        <ele>493</ele>
        <time>2019-09-03T20:12:06Z</time>
      </trkpt>
      <trkpt lat="44.06716" lon="7.11477">
        <ele>494</ele>
        <time>2019-09-03T20:12:12Z</time>
      </trkpt>
      <trkpt lat="44.06807" lon="7.11423">
        <ele>493</ele>
        <time>2019-09-03T20:12:29Z</time>
      </trkpt>
      <trkpt lat="44.06822" lon="7.11405">
        <ele>494</ele>
        <time>2019-09-03T20:12:33Z</time>
      </trkpt>
      <trkpt lat="44.06849" lon="7.1131">
        <ele>488</ele>
        <time>2019-09-03T20:12:46Z</time>
      </trkpt>
      <trkpt lat="44.06876" lon="7.11187">
        <ele>481</ele>
        <time>2019-09-03T20:13:02Z</time>
      </trkpt>
      <trkpt lat="44.06894" lon="7.11166">
        <ele>483</ele>
        <time>2019-09-03T20:13:06Z</time>
      </trkpt>
      <trkpt lat="44.06943" lon="7.11126">
        <ele>491</ele>
        <time>2019-09-03T20:13:17Z</time>
      </trkpt>
      <trkpt lat="44.06977" lon="7.11076">
        <ele>482</ele>
        <time>2019-09-03T20:13:25Z</time>
      </trkpt>
      <trkpt lat="44.07055" lon="7.11022">
        <ele>490</ele>
        <time>2019-09-03T20:13:41Z</time>
      </trkpt>
      <trkpt lat="44.07125" lon="7.10959">
        <ele>476</ele>
        <time>2019-09-03T20:13:56Z</time>
      </trkpt>
      <trkpt lat="44.07151" lon="7.10955">
        <ele>477</ele>
        <time>2019-09-03T20:14:00Z</time>
      </trkpt>
      <trkpt lat="44.07299" lon="7.10964">
        <ele>480</ele>
        <time>2019-09-03T20:14:27Z</time>
      </trkpt>
      <trkpt lat="44.07345" lon="7.10951">
        <ele>479</ele>
        <time>2019-09-03T20:14:35Z</time>
      </trkpt>
      <trkpt lat="44.0737" lon="7.10941">
        <ele>482</ele>
        <time>2019-09-03T20:14:40Z</time>
      </trkpt>
      <trkpt lat="44.07429" lon="7.10908">
        <ele>487</ele>
        <time>2019-09-03T20:14:51Z</time>
      </trkpt>
      <trkpt lat="44.07458" lon="7.1089">
        <ele>491</ele>
        <time>2019-09-03T20:14:57Z</time>
      </trkpt>
      <trkpt lat="44.07596" lon="7.10773">
        <ele>494</ele>
        <time>2019-09-03T20:15:25Z</time>
      </trkpt>
      <trkpt lat="44.07646" lon="7.10706">
        <ele>495</ele>
        <time>2019-09-03T20:15:38Z</time>
      </trkpt>
      <trkpt lat="44.07683" lon="7.10646">
        <ele>494</ele>
        <time>2019-09-03T20:15:48Z</time>
      </trkpt>
      <trkpt lat="44.07712" lon="7.10587">
        <ele>494</ele>
        <time>2019-09-03T20:15:57Z</time>
      </trkpt>
      <trkpt lat="44.07729" lon="7.10534">
        <ele>487</ele>
        <time>2019-09-03T20:16:04Z</time>
      </trkpt>
      <trkpt lat="44.07746" lon="7.10512">
        <ele>483</ele>
        <time>2019-09-03T20:16:08Z</time>
      </trkpt>
      <trkpt lat="44.07771" lon="7.10492">
        <ele>481</ele>
        <time>2019-09-03T20:16:14Z</time>
      </trkpt>
      <trkpt lat="44.07797" lon="7.10483">
        <ele>483</ele>
        <time>2019-09-03T20:16:18Z</time>
      </trkpt>
      <trkpt lat="44.07822" lon="7.10492">
        <ele>487</ele>
        <time>2019-09-03T20:16:23Z</time>
      </trkpt>
      <trkpt lat="44.0785" lon="7.10506">
        <ele>495</ele>
        <time>2019-09-03T20:16:28Z</time>
      </trkpt>
      <trkpt lat="44.07884" lon="7.10515">
        <ele>503</ele>
        <time>2019-09-03T20:16:34Z</time>
      </trkpt>
      <trkpt lat="44.07912" lon="7.10513">
        <ele>502</ele>
        <time>2019-09-03T20:16:39Z</time>
      </trkpt>
      <trkpt lat="44.07958" lon="7.10531">
        <ele>502</ele>
        <time>2019-09-03T20:16:48Z</time>
      </trkpt>
      <trkpt lat="44.07988" lon="7.10553">
        <ele>499</ele>
        <time>2019-09-03T20:16:54Z</time>
      </trkpt>
      <trkpt lat="44.08025" lon="7.1064">
        <ele>522</ele>
        <time>2019-09-03T20:17:07Z</time>
      </trkpt>
      <trkpt lat="44.08048" lon="7.10667">
        <ele>522</ele>
        <time>2019-09-03T20:17:12Z</time>
      </trkpt>
      <trkpt lat="44.08102" lon="7.10687">
        <ele>512</ele>
        <time>2019-09-03T20:17:22Z</time>
      </trkpt>
      <trkpt lat="44.08117" lon="7.10688">
        <ele>514</ele>
        <time>2019-09-03T20:17:25Z</time>
      </trkpt>
      <trkpt lat="44.08179" lon="7.10651">
        <ele>503</ele>
        <time>2019-09-03T20:17:37Z</time>
      </trkpt>
      <trkpt lat="44.08384" lon="7.1049">
        <ele>492</ele>
        <time>2019-09-03T20:18:19Z</time>
      </trkpt>
      <trkpt lat="44.08393" lon="7.10488">
        <ele>492</ele>
        <time>2019-09-03T20:18:20Z</time>
      </trkpt>
      <trkpt lat="44.08401" lon="7.1049">
        <ele>492</ele>
        <time>2019-09-03T20:18:22Z</time>
      </trkpt>
      <trkpt lat="44.08405" lon="7.10494">
        <ele>492</ele>
        <time>2019-09-03T20:18:23Z</time>
      </trkpt>
      <trkpt lat="44.08413" lon="7.10512">
        <ele>496</ele>
        <time>2019-09-03T20:18:25Z</time>
      </trkpt>
      <trkpt lat="44.0842" lon="7.10541">
        <ele>501</ele>
        <time>2019-09-03T20:18:29Z</time>
      </trkpt>
      <trkpt lat="44.08433" lon="7.10562">
        <ele>504</ele>
        <time>2019-09-03T20:18:33Z</time>
      </trkpt>
      <trkpt lat="44.08442" lon="7.10602">
        <ele>514</ele>
        <time>2019-09-03T20:18:38Z</time>
      </trkpt>
      <trkpt lat="44.08451" lon="7.10619">
        <ele>520</ele>
        <time>2019-09-03T20:18:41Z</time>
      </trkpt>
      <trkpt lat="44.08461" lon="7.10628">
        <ele>521</ele>
        <time>2019-09-03T20:18:43Z</time>
      </trkpt>
      <trkpt lat="44.08477" lon="7.10631">
        <ele>517</ele>
        <time>2019-09-03T20:18:46Z</time>
      </trkpt>
      <trkpt lat="44.08517" lon="7.10629">
        <ele>512</ele>
        <time>2019-09-03T20:18:53Z</time>
      </trkpt>
      <trkpt lat="44.08547" lon="7.10632">
        <ele>518</ele>
        <time>2019-09-03T20:18:58Z</time>
      </trkpt>
      <trkpt lat="44.08562" lon="7.10629">
        <ele>520</ele>
        <time>2019-09-03T20:19:01Z</time>
      </trkpt>
      <trkpt lat="44.08595" lon="7.10615">
        <ele>516</ele>
        <time>2019-09-03T20:19:07Z</time>
      </trkpt>
      <trkpt lat="44.08616" lon="7.10615">
        <ele>519</ele>
        <time>2019-09-03T20:19:11Z</time>
      </trkpt>
      <trkpt lat="44.08665" lon="7.10611">
        <ele>522</ele>
        <time>2019-09-03T20:19:20Z</time>
      </trkpt>
      <trkpt lat="44.08684" lon="7.10612">
        <ele>519</ele>
        <time>2019-09-03T20:19:23Z</time>
      </trkpt>
      <trkpt lat="44.08705" lon="7.10621">
        <ele>519</ele>
        <time>2019-09-03T20:19:27Z</time>
      </trkpt>
      <trkpt lat="44.08723" lon="7.10653">
        <ele>525</ele>
        <time>2019-09-03T20:19:32Z</time>
      </trkpt>
      <trkpt lat="44.08738" lon="7.10687">
        <ele>532</ele>
        <time>2019-09-03T20:19:37Z</time>
      </trkpt>
      <trkpt lat="44.08763" lon="7.1072">
        <ele>538</ele>
        <time>2019-09-03T20:19:43Z</time>
      </trkpt>
      <trkpt lat="44.08788" lon="7.10743">
        <ele>542</ele>
        <time>2019-09-03T20:19:49Z</time>
      </trkpt>
      <trkpt lat="44.08834" lon="7.10757">
        <ele>537</ele>
        <time>2019-09-03T20:19:57Z</time>
      </trkpt>
      <trkpt lat="44.0887" lon="7.10771">
        <ele>546</ele>
        <time>2019-09-03T20:20:04Z</time>
      </trkpt>
      <trkpt lat="44.08885" lon="7.10774">
        <ele>549</ele>
        <time>2019-09-03T20:20:06Z</time>
      </trkpt>
      <trkpt lat="44.08906" lon="7.10773">
        <ele>549</ele>
        <time>2019-09-03T20:20:10Z</time>
      </trkpt>
      <trkpt lat="44.09002" lon="7.10749">
        <ele>549</ele>
        <time>2019-09-03T20:20:28Z</time>
      </trkpt>
      <trkpt lat="44.0902" lon="7.10748">
        <ele>546</ele>
        <time>2019-09-03T20:20:31Z</time>
      </trkpt>
      <trkpt lat="44.09033" lon="7.1075">
        <ele>543</ele>
        <time>2019-09-03T20:20:33Z</time>
      </trkpt>
      <trkpt lat="44.09078" lon="7.10783">
        <ele>552</ele>
        <time>2019-09-03T20:20:42Z</time>
      </trkpt>
      <trkpt lat="44.09093" lon="7.10784">
        <ele>553</ele>
        <time>2019-09-03T20:20:45Z</time>
      </trkpt>
      <trkpt lat="44.09105" lon="7.10778">
        <ele>553</ele>
        <time>2019-09-03T20:20:47Z</time>
      </trkpt>
      <trkpt lat="44.09121" lon="7.10763">
        <ele>548</ele>
        <time>2019-09-03T20:20:50Z</time>
      </trkpt>
      <trkpt lat="44.09326" lon="7.10665">
        <ele>557</ele>
        <time>2019-09-03T20:21:29Z</time>
      </trkpt>
      <trkpt lat="44.09483" lon="7.1063">
        <ele>575</ele>
        <time>2019-09-03T20:21:57Z</time>
      </trkpt>
      <trkpt lat="44.09521" lon="7.10632">
        <ele>583</ele>
        <time>2019-09-03T20:22:04Z</time>
      </trkpt>
      <trkpt lat="44.09546" lon="7.10624">
        <ele>584</ele>
        <time>2019-09-03T20:22:09Z</time>
      </trkpt>
      <trkpt lat="44.09607" lon="7.10581">
        <ele>583</ele>
        <time>2019-09-03T20:22:21Z</time>
      </trkpt>
      <trkpt lat="44.09616" lon="7.10567">
        <ele>583</ele>
        <time>2019-09-03T20:22:23Z</time>
      </trkpt>
      <trkpt lat="44.09641" lon="7.10509">
        <ele>570</ele>
        <time>2019-09-03T20:22:32Z</time>
      </trkpt>
      <trkpt lat="44.09653" lon="7.10497">
        <ele>569</ele>
        <time>2019-09-03T20:22:35Z</time>
      </trkpt>
      <trkpt lat="44.09754" lon="7.10458">
        <ele>592</ele>
        <time>2019-09-03T20:22:53Z</time>
      </trkpt>
      <trkpt lat="44.09837" lon="7.10377">
        <ele>579</ele>
        <time>2019-09-03T20:23:11Z</time>
      </trkpt>
      <trkpt lat="44.09856" lon="7.10369">
        <ele>581</ele>
        <time>2019-09-03T20:23:15Z</time>
      </trkpt>
      <trkpt lat="44.09954" lon="7.10367">
        <ele>603</ele>
        <time>2019-09-03T20:23:32Z</time>
      </trkpt>
      <trkpt lat="44.10012" lon="7.10347">
        <ele>600</ele>
        <time>2019-09-03T20:23:43Z</time>
      </trkpt>
      <trkpt lat="44.10082" lon="7.10337">
        <ele>608</ele>
        <time>2019-09-03T20:23:55Z</time>
      </trkpt>
      <trkpt lat="44.10241" lon="7.103">
        <ele>610</ele>
        <time>2019-09-03T20:24:24Z</time>
      </trkpt>
      <trkpt lat="44.10381" lon="7.1026">
        <ele>611</ele>
        <time>2019-09-03T20:24:49Z</time>
      </trkpt>
      <trkpt lat="44.10442" lon="7.10224">
        <ele>608</ele>
        <time>2019-09-03T20:25:01Z</time>
      </trkpt>
      <trkpt lat="44.10495" lon="7.10209">
        <ele>613</ele>
        <time>2019-09-03T20:25:11Z</time>
      </trkpt>
      <trkpt lat="44.10586" lon="7.10189">
        <ele>611</ele>
        <time>2019-09-03T20:25:27Z</time>
      </trkpt>
      <trkpt lat="44.10615" lon="7.10192">
        <ele>613</ele>
        <time>2019-09-03T20:25:32Z</time>
      </trkpt>
      <trkpt lat="44.10669" lon="7.10211">
        <ele>626</ele>
        <time>2019-09-03T20:25:42Z</time>
      </trkpt>
      <trkpt lat="44.10784" lon="7.10205">
        <ele>623</ele>
        <time>2019-09-03T20:26:03Z</time>
      </trkpt>
      <trkpt lat="44.10842" lon="7.10193">
        <ele>626</ele>
        <time>2019-09-03T20:26:13Z</time>
      </trkpt>
      <trkpt lat="44.10886" lon="7.10161">
        <ele>623</ele>
        <time>2019-09-03T20:26:22Z</time>
      </trkpt>
      <trkpt lat="44.10924" lon="7.10098">
        <ele>622</ele>
        <time>2019-09-03T20:26:33Z</time>
      </trkpt>
      <trkpt lat="44.10963" lon="7.10011">
        <ele>625</ele>
        <time>2019-09-03T20:26:46Z</time>
      </trkpt>
      <trkpt lat="44.1104" lon="7.0987">
        <ele>625</ele>
        <time>2019-09-03T20:27:08Z</time>
      </trkpt>
      <trkpt lat="44.11083" lon="7.09822">
        <ele>626</ele>
        <time>2019-09-03T20:27:18Z</time>
      </trkpt>
      <trkpt lat="44.11129" lon="7.09765">
        <ele>629</ele>
        <time>2019-09-03T20:27:29Z</time>
      </trkpt>
      <trkpt lat="44.11267" lon="7.09721">
        <ele>646</ele>
        <time>2019-09-03T20:27:54Z</time>
      </trkpt>
      <trkpt lat="44.11312" lon="7.09676">
        <ele>636</ele>
        <time>2019-09-03T20:28:04Z</time>
      </trkpt>
      <trkpt lat="44.11352" lon="7.09642">
        <ele>636</ele>
        <time>2019-09-03T20:28:12Z</time>
      </trkpt>
      <trkpt lat="44.11428" lon="7.096">
        <ele>641</ele>
        <time>2019-09-03T20:28:27Z</time>
      </trkpt>
      <trkpt lat="44.11509" lon="7.09514">
        <ele>649</ele>
        <time>2019-09-03T20:28:45Z</time>
      </trkpt>
      <trkpt lat="44.11589" lon="7.09329">
        <ele>646</ele>
        <time>2019-09-03T20:29:13Z</time>
      </trkpt>
      <trkpt lat="44.11624" lon="7.09262">
        <ele>639</ele>
        <time>2019-09-03T20:29:23Z</time>
      </trkpt>
      <trkpt lat="44.1166" lon="7.09238">
        <ele>639</ele>
        <time>2019-09-03T20:29:30Z</time>
      </trkpt>
      <trkpt lat="44.11688" lon="7.09238">
        <ele>640</ele>
        <time>2019-09-03T20:29:35Z</time>
      </trkpt>
      <trkpt lat="44.11737" lon="7.09251">
        <ele>643</ele>
        <time>2019-09-03T20:29:44Z</time>
      </trkpt>
      <trkpt lat="44.11786" lon="7.09271">
        <ele>656</ele>
        <time>2019-09-03T20:29:53Z</time>
      </trkpt>
      <trkpt lat="44.11814" lon="7.09274">
        <ele>661</ele>
        <time>2019-09-03T20:29:58Z</time>
      </trkpt>
      <trkpt lat="44.11979" lon="7.09214">
        <ele>657</ele>
        <time>2019-09-03T20:30:29Z</time>
      </trkpt>
      <trkpt lat="44.12001" lon="7.09209">
        <ele>657</ele>
        <time>2019-09-03T20:30:33Z</time>
      </trkpt>
      <trkpt lat="44.12216" lon="7.09188">
        <ele>667</ele>
        <time>2019-09-03T20:31:11Z</time>
      </trkpt>
      <trkpt lat="44.12385" lon="7.09225">
        <ele>660</ele>
        <time>2019-09-03T20:31:41Z</time>
      </trkpt>
      <trkpt lat="44.12398" lon="7.09229">
        <ele>658</ele>
        <time>2019-09-03T20:31:44Z</time>
      </trkpt>
      <trkpt lat="44.12425" lon="7.09243">
        <ele>655</ele>
        <time>2019-09-03T20:31:49Z</time>
      </trkpt>
      <trkpt lat="44.12452" lon="7.09265">
        <ele>661</ele>
        <time>2019-09-03T20:31:54Z</time>
      </trkpt>
      <trkpt lat="44.12516" lon="7.09338">
        <ele>671</ele>
        <time>2019-09-03T20:32:09Z</time>
      </trkpt>
      <trkpt lat="44.12534" lon="7.09355">
        <ele>675</ele>
        <time>2019-09-03T20:32:13Z</time>
      </trkpt>
      <trkpt lat="44.1257" lon="7.09376">
        <ele>671</ele>
        <time>2019-09-03T20:32:20Z</time>
      </trkpt>
      <trkpt lat="44.12653" lon="7.09416">
        <ele>670</ele>
        <time>2019-09-03T20:32:36Z</time>
      </trkpt>
      <trkpt lat="44.12682" lon="7.09441">
        <ele>679</ele>
        <time>2019-09-03T20:32:42Z</time>
      </trkpt>
      <trkpt lat="44.12703" lon="7.0947">
        <ele>684</ele>
        <time>2019-09-03T20:32:47Z</time>
      </trkpt>
      <trkpt lat="44.12716" lon="7.09492">
        <ele>680</ele>
        <time>2019-09-03T20:32:51Z</time>
      </trkpt>
      <trkpt lat="44.12759" lon="7.09612">
        <ele>681</ele>
        <time>2019-09-03T20:33:08Z</time>
      </trkpt>
      <trkpt lat="44.12767" lon="7.09628">
        <ele>686</ele>
        <time>2019-09-03T20:33:10Z</time>
      </trkpt>
      <trkpt lat="44.12779" lon="7.09643">
        <ele>689</ele>
        <time>2019-09-03T20:33:13Z</time>
      </trkpt>
      <trkpt lat="44.12854" lon="7.09723">
        <ele>692</ele>
        <time>2019-09-03T20:33:30Z</time>
      </trkpt>
      <trkpt lat="44.12892" lon="7.09776">
        <ele>696</ele>
        <time>2019-09-03T20:33:39Z</time>
      </trkpt>
      <trkpt lat="44.12974" lon="7.0994">
        <ele>686</ele>
        <time>2019-09-03T20:34:05Z</time>
      </trkpt>
      <trkpt lat="44.13013" lon="7.09987">
        <ele>685</ele>
        <time>2019-09-03T20:34:14Z</time>
      </trkpt>
      <trkpt lat="44.13049" lon="7.10009">
        <ele>686</ele>
        <time>2019-09-03T20:34:21Z</time>
      </trkpt>
      <trkpt lat="44.13092" lon="7.10023">
        <ele>690</ele>
        <time>2019-09-03T20:34:29Z</time>
      </trkpt>
      <trkpt lat="44.13134" lon="7.10026">
        <ele>698</ele>
        <time>2019-09-03T20:34:37Z</time>
      </trkpt>
      <trkpt lat="44.13186" lon="7.10047">
        <ele>702</ele>
        <time>2019-09-03T20:34:46Z</time>
      </trkpt>
      <trkpt lat="44.13218" lon="7.10072">
        <ele>700</ele>
        <time>2019-09-03T20:34:53Z</time>
      </trkpt>
      <trkpt lat="44.13251" lon="7.1009">
        <ele>704</ele>
        <time>2019-09-03T20:34:59Z</time>
      </trkpt>
      <trkpt lat="44.13283" lon="7.101">
        <ele>707</ele>
        <time>2019-09-03T20:35:05Z</time>
      </trkpt>
      <trkpt lat="44.1331" lon="7.10101">
        <ele>706</ele>
        <time>2019-09-03T20:35:10Z</time>
      </trkpt>
      <trkpt lat="44.13526" lon="7.10048">
        <ele>715</ele>
        <time>2019-09-03T20:35:49Z</time>
      </trkpt>
      <trkpt lat="44.1359" lon="7.10011">
        <ele>719</ele>
        <time>2019-09-03T20:36:01Z</time>
      </trkpt>
      <trkpt lat="44.13624" lon="7.09998">
        <ele>723</ele>
        <time>2019-09-03T20:36:07Z</time>
      </trkpt>
      <trkpt lat="44.13654" lon="7.09991">
        <ele>729</ele>
        <time>2019-09-03T20:36:13Z</time>
      </trkpt>
      <trkpt lat="44.13685" lon="7.09993">
        <ele>730</ele>
        <time>2019-09-03T20:36:18Z</time>
      </trkpt>
      <trkpt lat="44.1371" lon="7.10002">
        <ele>726</ele>
        <time>2019-09-03T20:36:23Z</time>
      </trkpt>
      <trkpt lat="44.13793" lon="7.10021">
        <ele>722</ele>
        <time>2019-09-03T20:36:38Z</time>
      </trkpt>
      <trkpt lat="44.13806" lon="7.10018">
        <ele>722</ele>
        <time>2019-09-03T20:36:40Z</time>
      </trkpt>
      <trkpt lat="44.13819" lon="7.10018">
        <ele>721</ele>
        <time>2019-09-03T20:36:42Z</time>
      </trkpt>
      <trkpt lat="44.13835" lon="7.10012">
        <ele>721</ele>
        <time>2019-09-03T20:36:45Z</time>
      </trkpt>
      <trkpt lat="44.13861" lon="7.09992">
        <ele>724</ele>
        <time>2019-09-03T20:36:51Z</time>
      </trkpt>
      <trkpt lat="44.13922" lon="7.09937">
        <ele>730</ele>
        <time>2019-09-03T20:37:04Z</time>
      </trkpt>
      <trkpt lat="44.14022" lon="7.09861">
        <ele>737</ele>
        <time>2019-09-03T20:37:24Z</time>
      </trkpt>
      <trkpt lat="44.14041" lon="7.09856">
        <ele>737</ele>
        <time>2019-09-03T20:37:27Z</time>
      </trkpt>
      <trkpt lat="44.14098" lon="7.0986">
        <ele>731</ele>
        <time>2019-09-03T20:37:37Z</time>
      </trkpt>
      <trkpt lat="44.1419" lon="7.09829">
        <ele>729</ele>
        <time>2019-09-03T20:37:54Z</time>
      </trkpt>
      <trkpt lat="44.1428" lon="7.0977">
        <ele>738</ele>
        <time>2019-09-03T20:38:12Z</time>
      </trkpt>
      <trkpt lat="44.14306" lon="7.09763">
        <ele>739</ele>
        <time>2019-09-03T20:38:17Z</time>
      </trkpt>
      <trkpt lat="44.14335" lon="7.0976">
        <ele>740</ele>
        <time>2019-09-03T20:38:22Z</time>
      </trkpt>
      <trkpt lat="44.14385" lon="7.09774">
        <ele>740</ele>
        <time>2019-09-03T20:38:31Z</time>
      </trkpt>
      <trkpt lat="44.14451" lon="7.09798">
        <ele>732</ele>
        <time>2019-09-03T20:38:43Z</time>
      </trkpt>
      <trkpt lat="44.14515" lon="7.09808">
        <ele>727</ele>
        <time>2019-09-03T20:38:55Z</time>
      </trkpt>
      <trkpt lat="44.14537" lon="7.09801">
        <ele>729</ele>
        <time>2019-09-03T20:38:59Z</time>
      </trkpt>
      <trkpt lat="44.14576" lon="7.09775">
        <ele>734</ele>
        <time>2019-09-03T20:39:06Z</time>
      </trkpt>
      <trkpt lat="44.14602" lon="7.09748">
        <ele>736</ele>
        <time>2019-09-03T20:39:12Z</time>
      </trkpt>
      <trkpt lat="44.14631" lon="7.09707">
        <ele>749</ele>
        <time>2019-09-03T20:39:19Z</time>
      </trkpt>
      <trkpt lat="44.14655" lon="7.09688">
        <ele>748</ele>
        <time>2019-09-03T20:39:24Z</time>
      </trkpt>
      <trkpt lat="44.14756" lon="7.09633">
        <ele>748</ele>
        <time>2019-09-03T20:39:44Z</time>
      </trkpt>
      <trkpt lat="44.14786" lon="7.0963">
        <ele>748</ele>
        <time>2019-09-03T20:39:49Z</time>
      </trkpt>
      <trkpt lat="44.14861" lon="7.09643">
        <ele>744</ele>
        <time>2019-09-03T20:40:02Z</time>
      </trkpt>
      <trkpt lat="44.14927" lon="7.09659">
        <ele>747</ele>
        <time>2019-09-03T20:40:14Z</time>
      </trkpt>
      <trkpt lat="44.14961" lon="7.0966">
        <ele>746</ele>
        <time>2019-09-03T20:40:20Z</time>
      </trkpt>
      <trkpt lat="44.14995" lon="7.0965">
        <ele>751</ele>
        <time>2019-09-03T20:40:26Z</time>
      </trkpt>
      <trkpt lat="44.1503" lon="7.09625">
        <ele>757</ele>
        <time>2019-09-03T20:40:33Z</time>
      </trkpt>
      <trkpt lat="44.15063" lon="7.09591">
        <ele>753</ele>
        <time>2019-09-03T20:40:41Z</time>
      </trkpt>
      <trkpt lat="44.1511" lon="7.09509">
        <ele>755</ele>
        <time>2019-09-03T20:40:54Z</time>
      </trkpt>
      <trkpt lat="44.1516" lon="7.09437">
        <ele>753</ele>
        <time>2019-09-03T20:41:07Z</time>
      </trkpt>
      <trkpt lat="44.15193" lon="7.09407">
        <ele>754</ele>
        <time>2019-09-03T20:41:14Z</time>
      </trkpt>
      <trkpt lat="44.15226" lon="7.09393">
        <ele>756</ele>
        <time>2019-09-03T20:41:20Z</time>
      </trkpt>
      <trkpt lat="44.15263" lon="7.09392">
        <ele>754</ele>
        <time>2019-09-03T20:41:27Z</time>
      </trkpt>
      <trkpt lat="44.15301" lon="7.09394">
        <ele>753</ele>
        <time>2019-09-03T20:41:33Z</time>
      </trkpt>
      <trkpt lat="44.15338" lon="7.09386">
        <ele>755</ele>
        <time>2019-09-03T20:41:40Z</time>
      </trkpt>
      <trkpt lat="44.15367" lon="7.09361">
        <ele>758</ele>
        <time>2019-09-03T20:41:46Z</time>
      </trkpt>
      <trkpt lat="44.15387" lon="7.09331">
        <ele>758</ele>
        <time>2019-09-03T20:41:51Z</time>
      </trkpt>
      <trkpt lat="44.154" lon="7.09303">
        <ele>759</ele>
        <time>2019-09-03T20:41:56Z</time>
      </trkpt>
      <trkpt lat="44.15421" lon="7.09245">
        <ele>758</ele>
        <time>2019-09-03T20:42:04Z</time>
      </trkpt>
      <trkpt lat="44.1544" lon="7.09202">
        <ele>764</ele>
        <time>2019-09-03T20:42:10Z</time>
      </trkpt>
      <trkpt lat="44.15459" lon="7.09167">
        <ele>761</ele>
        <time>2019-09-03T20:42:16Z</time>
      </trkpt>
      <trkpt lat="44.15481" lon="7.09139">
        <ele>759</ele>
        <time>2019-09-03T20:42:21Z</time>
      </trkpt>
      <trkpt lat="44.1558" lon="7.09051">
        <ele>766</ele>
        <time>2019-09-03T20:42:42Z</time>
      </trkpt>
      <trkpt lat="44.15641" lon="7.09028">
        <ele>773</ele>
        <time>2019-09-03T20:42:53Z</time>
      </trkpt>
      <trkpt lat="44.15686" lon="7.09029">
        <ele>776</ele>
        <time>2019-09-03T20:43:01Z</time>
      </trkpt>
      <trkpt lat="44.15725" lon="7.09038">
        <ele>780</ele>
        <time>2019-09-03T20:43:09Z</time>
      </trkpt>
      <trkpt lat="44.15819" lon="7.09079">
        <ele>771</ele>
        <time>2019-09-03T20:43:26Z</time>
      </trkpt>
      <trkpt lat="44.15845" lon="7.09086">
        <ele>772</ele>
        <time>2019-09-03T20:43:31Z</time>
      </trkpt>
      <trkpt lat="44.15882" lon="7.09088">
        <ele>775</ele>
        <time>2019-09-03T20:43:37Z</time>
      </trkpt>
      <trkpt lat="44.15916" lon="7.09084">
        <ele>777</ele>
        <time>2019-09-03T20:43:43Z</time>
      </trkpt>
      <trkpt lat="44.16021" lon="7.09042">
        <ele>786</ele>
        <time>2019-09-03T20:44:03Z</time>
      </trkpt>
      <trkpt lat="44.16069" lon="7.09026">
        <ele>790</ele>
        <time>2019-09-03T20:44:12Z</time>
      </trkpt>
      <trkpt lat="44.16098" lon="7.09019">
        <ele>791</ele>
        <time>2019-09-03T20:44:17Z</time>
      </trkpt>
      <trkpt lat="44.16147" lon="7.09016">
        <ele>790</ele>
        <time>2019-09-03T20:44:26Z</time>
      </trkpt>
      <trkpt lat="44.16219" lon="7.09017">
        <ele>787</ele>
        <time>2019-09-03T20:44:38Z</time>
      </trkpt>
      <trkpt lat="44.16248" lon="7.09009">
        <ele>787</ele>
        <time>2019-09-03T20:44:44Z</time>
      </trkpt>
      <trkpt lat="44.16281" lon="7.08989">
        <ele>791</ele>
        <time>2019-09-03T20:44:50Z</time>
      </trkpt>
      <trkpt lat="44.16319" lon="7.08958">
        <ele>795</ele>
        <time>2019-09-03T20:44:58Z</time>
      </trkpt>
      <trkpt lat="44.16355" lon="7.08924">
        <ele>795</ele>
        <time>2019-09-03T20:45:06Z</time>
      </trkpt>
      <trkpt lat="44.16403" lon="7.08867">
        <ele>802</ele>
        <time>2019-09-03T20:45:17Z</time>
      </trkpt>
      <trkpt lat="44.16421" lon="7.08853">
        <ele>799</ele>
        <time>2019-09-03T20:45:21Z</time>
      </trkpt>
      <trkpt lat="44.16506" lon="7.08813">
        <ele>808</ele>
        <time>2019-09-03T20:45:36Z</time>
      </trkpt>
      <trkpt lat="44.1654" lon="7.08806">
        <ele>813</ele>
        <time>2019-09-03T20:45:43Z</time>
      </trkpt>
      <trkpt lat="44.16588" lon="7.08805">
        <ele>814</ele>
        <time>2019-09-03T20:45:51Z</time>
      </trkpt>
      <trkpt lat="44.16647" lon="7.088">
        <ele>821</ele>
        <time>2019-09-03T20:46:02Z</time>
      </trkpt>
      <trkpt lat="44.1671" lon="7.08789">
        <ele>824</ele>
        <time>2019-09-03T20:46:13Z</time>
      </trkpt>
      <trkpt lat="44.16758" lon="7.08778">
        <ele>822</ele>
        <time>2019-09-03T20:46:22Z</time>
      </trkpt>
      <trkpt lat="44.16784" lon="7.08768">
        <ele>818</ele>
        <time>2019-09-03T20:46:26Z</time>
      </trkpt>
      <trkpt lat="44.16863" lon="7.0871">
        <ele>826</ele>
        <time>2019-09-03T20:46:42Z</time>
      </trkpt>
      <trkpt lat="44.16885" lon="7.08701">
        <ele>825</ele>
        <time>2019-09-03T20:46:46Z</time>
      </trkpt>
      <trkpt lat="44.16922" lon="7.08678">
        <ele>823</ele>
        <time>2019-09-03T20:46:54Z</time>
      </trkpt>
      <trkpt lat="44.17039" lon="7.08584">
        <ele>823</ele>
        <time>2019-09-03T20:47:18Z</time>
      </trkpt>
      <trkpt lat="44.17059" lon="7.08562">
        <ele>826</ele>
        <time>2019-09-03T20:47:22Z</time>
      </trkpt>
      <trkpt lat="44.17149" lon="7.08451">
        <ele>833</ele>
        <time>2019-09-03T20:47:44Z</time>
      </trkpt>
      <trkpt lat="44.1721" lon="7.08364">
        <ele>841</ele>
        <time>2019-09-03T20:47:59Z</time>
      </trkpt>
      <trkpt lat="44.17276" lon="7.08249">
        <ele>839</ele>
        <time>2019-09-03T20:48:18Z</time>
      </trkpt>
      <trkpt lat="44.17285" lon="7.08217">
        <ele>843</ele>
        <time>2019-09-03T20:48:22Z</time>
      </trkpt>
      <trkpt lat="44.17288" lon="7.08185">
        <ele>846</ele>
        <time>2019-09-03T20:48:26Z</time>
      </trkpt>
      <trkpt lat="44.17286" lon="7.08141">
        <ele>850</ele>
        <time>2019-09-03T20:48:32Z</time>
      </trkpt>
      <trkpt lat="44.17287" lon="7.08097">
        <ele>851</ele>
        <time>2019-09-03T20:48:38Z</time>
      </trkpt>
      <trkpt lat="44.17297" lon="7.08046">
        <ele>854</ele>
        <time>2019-09-03T20:48:44Z</time>
      </trkpt>
      <trkpt lat="44.17306" lon="7.08031">
        <ele>852</ele>
        <time>2019-09-03T20:48:47Z</time>
      </trkpt>
      <trkpt lat="44.17384" lon="7.07966">
        <ele>844</ele>
        <time>2019-09-03T20:49:03Z</time>
      </trkpt>
      <trkpt lat="44.17396" lon="7.07952">
        <ele>843</ele>
        <time>2019-09-03T20:49:06Z</time>
      </trkpt>
      <trkpt lat="44.17484" lon="7.07808">
        <ele>852</ele>
        <time>2019-09-03T20:49:30Z</time>
      </trkpt>
      <trkpt lat="44.17495" lon="7.07786">
        <ele>851</ele>
        <time>2019-09-03T20:49:33Z</time>
      </trkpt>
      <trkpt lat="44.17572" lon="7.07547">
        <ele>851</ele>
        <time>2019-09-03T20:50:07Z</time>
      </trkpt>
      <trkpt lat="44.17614" lon="7.07435">
        <ele>852</ele>
        <time>2019-09-03T20:50:23Z</time>
      </trkpt>
      <trkpt lat="44.17622" lon="7.07371">
        <ele>850</ele>
        <time>2019-09-03T20:50:31Z</time>
      </trkpt>
      <trkpt lat="44.17623" lon="7.07329">
        <ele>848</ele>
        <time>2019-09-03T20:50:37Z</time>
      </trkpt>
      <trkpt lat="44.17613" lon="7.07245">
        <ele>843</ele>
        <time>2019-09-03T20:50:47Z</time>
      </trkpt>
      <trkpt lat="44.17614" lon="7.07223">
        <ele>844</ele>
        <time>2019-09-03T20:50:50Z</time>
      </trkpt>
      <trkpt lat="44.17623" lon="7.07149">
        <ele>845</ele>
        <time>2019-09-03T20:51:00Z</time>
      </trkpt>
      <trkpt lat="44.1765" lon="7.06991">
        <ele>838</ele>
        <time>2019-09-03T20:51:21Z</time>
      </trkpt>
      <trkpt lat="44.17657" lon="7.06961">
        <ele>838</ele>
        <time>2019-09-03T20:51:25Z</time>
      </trkpt>
      <trkpt lat="44.17667" lon="7.06934">
        <ele>836</ele>
        <time>2019-09-03T20:51:28Z</time>
      </trkpt>
      <trkpt lat="44.17737" lon="7.06799">
        <ele>846</ele>
        <time>2019-09-03T20:51:50Z</time>
      </trkpt>
      <trkpt lat="44.17754" lon="7.06773">
        <ele>844</ele>
        <time>2019-09-03T20:51:54Z</time>
      </trkpt>
      <trkpt lat="44.17852" lon="7.06638">
        <ele>853</ele>
        <time>2019-09-03T20:52:19Z</time>
      </trkpt>
      <trkpt lat="44.17869" lon="7.0661">
        <ele>854</ele>
        <time>2019-09-03T20:52:23Z</time>
      </trkpt>
      <trkpt lat="44.17882" lon="7.06583">
        <ele>853</ele>
        <time>2019-09-03T20:52:28Z</time>
      </trkpt>
      <trkpt lat="44.17895" lon="7.06544">
        <ele>854</ele>
        <time>2019-09-03T20:52:33Z</time>
      </trkpt>
      <trkpt lat="44.17912" lon="7.0647">
        <ele>852</ele>
        <time>2019-09-03T20:52:43Z</time>
      </trkpt>
      <trkpt lat="44.17925" lon="7.06428">
        <ele>852</ele>
        <time>2019-09-03T20:52:49Z</time>
      </trkpt>
      <trkpt lat="44.17951" lon="7.06349">
        <ele>862</ele>
        <time>2019-09-03T20:53:00Z</time>
      </trkpt>
      <trkpt lat="44.1797" lon="7.063">
        <ele>865</ele>
        <time>2019-09-03T20:53:07Z</time>
      </trkpt>
      <trkpt lat="44.18002" lon="7.06237">
        <ele>854</ele>
        <time>2019-09-03T20:53:17Z</time>
      </trkpt>
      <trkpt lat="44.18028" lon="7.06193">
        <ele>861</ele>
        <time>2019-09-03T20:53:24Z</time>
      </trkpt>
      <trkpt lat="44.18083" lon="7.06106">
        <ele>855</ele>
        <time>2019-09-03T20:53:39Z</time>
      </trkpt>
      <trkpt lat="44.1811" lon="7.06058">
        <ele>861</ele>
        <time>2019-09-03T20:53:47Z</time>
      </trkpt>
      <trkpt lat="44.18149" lon="7.05973">
        <ele>860</ele>
        <time>2019-09-03T20:54:00Z</time>
      </trkpt>
      <trkpt lat="44.18174" lon="7.05929">
        <ele>857</ele>
        <time>2019-09-03T20:54:07Z</time>
      </trkpt>
      <trkpt lat="44.18191" lon="7.05906">
        <ele>859</ele>
        <time>2019-09-03T20:54:11Z</time>
      </trkpt>
      <trkpt lat="44.1827" lon="7.05832">
        <ele>864</ele>
        <time>2019-09-03T20:54:28Z</time>
      </trkpt>
      <trkpt lat="44.18297" lon="7.05802">
        <ele>866</ele>
        <time>2019-09-03T20:54:34Z</time>
      </trkpt>
      <trkpt lat="44.18315" lon="7.05777">
        <ele>864</ele>
        <time>2019-09-03T20:54:39Z</time>
      </trkpt>
      <trkpt lat="44.18426" lon="7.05546">
        <ele>858</ele>
        <time>2019-09-03T20:55:14Z</time>
      </trkpt>
      <trkpt lat="44.1845" lon="7.0551">
        <ele>861</ele>
        <time>2019-09-03T20:55:20Z</time>
      </trkpt>
      <trkpt lat="44.18467" lon="7.05482">
        <ele>863</ele>
        <time>2019-09-03T20:55:25Z</time>
      </trkpt>
      <trkpt lat="44.18475" lon="7.05485">
        <ele>863</ele>
        <time>2019-09-03T20:55:26Z</time>
      </trkpt>
      <trkpt lat="44.18483" lon="7.05481">
        <ele>864</ele>
        <time>2019-09-03T20:55:28Z</time>
      </trkpt>
      <trkpt lat="44.18485" lon="7.05477">
        <ele>864</ele>
        <time>2019-09-03T20:55:29Z</time>
      </trkpt>
      <trkpt lat="44.18487" lon="7.05471">
        <ele>865</ele>
        <time>2019-09-03T20:55:29Z</time>
      </trkpt>
      <trkpt lat="44.18486" lon="7.05459">
        <ele>865</ele>
        <time>2019-09-03T20:55:31Z</time>
      </trkpt>
      <trkpt lat="44.18483" lon="7.05454">
        <ele>864</ele>
        <time>2019-09-03T20:55:32Z</time>
      </trkpt>
      <trkpt lat="44.18494" lon="7.05428">
        <ele>865</ele>
        <time>2019-09-03T20:55:36Z</time>
      </trkpt>
      <trkpt lat="44.18503" lon="7.05401">
        <ele>866</ele>
        <time>2019-09-03T20:55:39Z</time>
      </trkpt>
      <trkpt lat="44.18508" lon="7.05378">
        <ele>865</ele>
        <time>2019-09-03T20:55:43Z</time>
      </trkpt>
      <trkpt lat="44.18511" lon="7.05352">
        <ele>864</ele>
        <time>2019-09-03T20:55:46Z</time>
      </trkpt>
      <trkpt lat="44.18534" lon="7.05039">
        <ele>867</ele>
        <time>2019-09-03T20:56:26Z</time>
      </trkpt>
      <trkpt lat="44.18538" lon="7.04997">
        <ele>868</ele>
        <time>2019-09-03T20:56:31Z</time>
      </trkpt>
      <trkpt lat="44.18542" lon="7.04976">
        <ele>868</ele>
        <time>2019-09-03T20:56:34Z</time>
      </trkpt>
      <trkpt lat="44.18551" lon="7.04942">
        <ele>869</ele>
        <time>2019-09-03T20:56:39Z</time>
      </trkpt>
      <trkpt lat="44.18578" lon="7.04879">
        <ele>868</ele>
        <time>2019-09-03T20:56:48Z</time>
      </trkpt>
      <trkpt lat="44.18615" lon="7.04768">
        <ele>872</ele>
        <time>2019-09-03T20:57:04Z</time>
      </trkpt>
      <trkpt lat="44.18635" lon="7.04658">
        <ele>874</ele>
        <time>2019-09-03T20:57:18Z</time>
      </trkpt>
      <trkpt lat="44.18639" lon="7.0465">
        <ele>874</ele>
        <time>2019-09-03T20:57:20Z</time>
      </trkpt>
      <trkpt lat="44.18649" lon="7.04641">
        <ele>873</ele>
        <time>2019-09-03T20:57:22Z</time>
      </trkpt>
      <trkpt lat="44.18698" lon="7.04616">
        <ele>884</ele>
        <time>2019-09-03T20:57:31Z</time>
      </trkpt>
      <trkpt lat="44.18701" lon="7.04626">
        <ele>885</ele>
        <time>2019-09-03T20:57:32Z</time>
      </trkpt>
      <trkpt lat="44.18702" lon="7.04638">
        <ele>887</ele>
        <time>2019-09-03T20:57:34Z</time>
      </trkpt>
      <trkpt lat="44.187" lon="7.04653">
        <ele>887</ele>
        <time>2019-09-03T20:57:36Z</time>
      </trkpt>
      <trkpt lat="44.18696" lon="7.04671">
        <ele>887</ele>
        <time>2019-09-03T20:57:38Z</time>
      </trkpt>
      <trkpt lat="44.18692" lon="7.04674">
        <ele>885</ele>
        <time>2019-09-03T20:57:39Z</time>
      </trkpt>
      <trkpt lat="44.18696" lon="7.04671">
        <ele>887</ele>
        <time>2019-09-03T20:57:40Z</time>
      </trkpt>
      <trkpt lat="44.187" lon="7.04653">
        <ele>887</ele>
        <time>2019-09-03T20:57:42Z</time>
      </trkpt>
      <trkpt lat="44.18702" lon="7.04638">
        <ele>887</ele>
        <time>2019-09-03T20:57:44Z</time>
      </trkpt>
      <trkpt lat="44.18701" lon="7.04626">
        <ele>885</ele>
        <time>2019-09-03T20:57:46Z</time>
      </trkpt>
      <trkpt lat="44.18698" lon="7.04616">
        <ele>884</ele>
        <time>2019-09-03T20:57:47Z</time>
      </trkpt>
      <trkpt lat="44.18713" lon="7.04606">
        <ele>888</ele>
        <time>2019-09-03T20:57:50Z</time>
      </trkpt>
      <trkpt lat="44.18719" lon="7.04599">
        <ele>889</ele>
        <time>2019-09-03T20:57:51Z</time>
      </trkpt>
      <trkpt lat="44.18723" lon="7.04591">
        <ele>889</ele>
        <time>2019-09-03T20:57:53Z</time>
      </trkpt>
      <trkpt lat="44.18758" lon="7.04465">
        <ele>884</ele>
        <time>2019-09-03T20:58:10Z</time>
      </trkpt>
      <trkpt lat="44.18785" lon="7.04398">
        <ele>890</ele>
        <time>2019-09-03T20:58:20Z</time>
      </trkpt>
      <trkpt lat="44.18821" lon="7.04327">
        <ele>890</ele>
        <time>2019-09-03T20:58:31Z</time>
      </trkpt>
      <trkpt lat="44.18835" lon="7.04292">
        <ele>890</ele>
        <time>2019-09-03T20:58:36Z</time>
      </trkpt>
      <trkpt lat="44.18847" lon="7.04256">
        <ele>894</ele>
        <time>2019-09-03T20:58:41Z</time>
      </trkpt>
      <trkpt lat="44.18862" lon="7.04188">
        <ele>896</ele>
        <time>2019-09-03T20:58:50Z</time>
      </trkpt>
      <trkpt lat="44.18894" lon="7.04054">
        <ele>898</ele>
        <time>2019-09-03T20:59:08Z</time>
      </trkpt>
      <trkpt lat="44.18898" lon="7.04025">
        <ele>895</ele>
        <time>2019-09-03T20:59:12Z</time>
      </trkpt>
      <trkpt lat="44.189" lon="7.03959">
        <ele>893</ele>
        <time>2019-09-03T20:59:20Z</time>
      </trkpt>
      <trkpt lat="44.18903" lon="7.03925">
        <ele>893</ele>
        <time>2019-09-03T20:59:25Z</time>
      </trkpt>
      <trkpt lat="44.18933" lon="7.03791">
        <ele>904</ele>
        <time>2019-09-03T20:59:43Z</time>
      </trkpt>
      <trkpt lat="44.1897" lon="7.03639">
        <ele>910</ele>
        <time>2019-09-03T21:00:03Z</time>
      </trkpt>
      <trkpt lat="44.19001" lon="7.03466">
        <ele>906</ele>
        <time>2019-09-03T21:00:26Z</time>
      </trkpt>
      <trkpt lat="44.1903" lon="7.03342">
        <ele>917</ele>
        <time>2019-09-03T21:00:42Z</time>
      </trkpt>
      <trkpt lat="44.19045" lon="7.0324">
        <ele>914</ele>
        <time>2019-09-03T21:00:56Z</time>
      </trkpt>
      <trkpt lat="44.19054" lon="7.03138">
        <ele>914</ele>
        <time>2019-09-03T21:01:09Z</time>
      </trkpt>
      <trkpt lat="44.19056" lon="7.03076">
        <ele>917</ele>
        <time>2019-09-03T21:01:17Z</time>
      </trkpt>
      <trkpt lat="44.19053" lon="7.03012">
        <ele>923</ele>
        <time>2019-09-03T21:01:25Z</time>
      </trkpt>
      <trkpt lat="44.19045" lon="7.02947">
        <ele>928</ele>
        <time>2019-09-03T21:01:33Z</time>
      </trkpt>
      <trkpt lat="44.19023" lon="7.02847">
        <ele>932</ele>
        <time>2019-09-03T21:01:47Z</time>
      </trkpt>
      <trkpt lat="44.18997" lon="7.02768">
        <ele>932</ele>
        <time>2019-09-03T21:01:58Z</time>
      </trkpt>
      <trkpt lat="44.18965" lon="7.0269">
        <ele>940</ele>
        <time>2019-09-03T21:02:09Z</time>
      </trkpt>
      <trkpt lat="44.1894" lon="7.02619">
        <ele>931</ele>
        <time>2019-09-03T21:02:19Z</time>
      </trkpt>
      <trkpt lat="44.18924" lon="7.02567">
        <ele>923</ele>
        <time>2019-09-03T21:02:27Z</time>
      </trkpt>
      <trkpt lat="44.18917" lon="7.02523">
        <ele>923</ele>
        <time>2019-09-03T21:02:32Z</time>
      </trkpt>
      <trkpt lat="44.18918" lon="7.02485">
        <ele>925</ele>
        <time>2019-09-03T21:02:37Z</time>
      </trkpt>
      <trkpt lat="44.18929" lon="7.02418">
        <ele>925</ele>
        <time>2019-09-03T21:02:46Z</time>
      </trkpt>
      <trkpt lat="44.18947" lon="7.02335">
        <ele>923</ele>
        <time>2019-09-03T21:02:57Z</time>
      </trkpt>
      <trkpt lat="44.18956" lon="7.02281">
        <ele>925</ele>
        <time>2019-09-03T21:03:04Z</time>
      </trkpt>
      <trkpt lat="44.18963" lon="7.02223">
        <ele>925</ele>
        <time>2019-09-03T21:03:12Z</time>
      </trkpt>
      <trkpt lat="44.18968" lon="7.02139">
        <ele>927</ele>
        <time>2019-09-03T21:03:22Z</time>
      </trkpt>
      <trkpt lat="44.18968" lon="7.02034">
        <ele>929</ele>
        <time>2019-09-03T21:03:36Z</time>
      </trkpt>
      <trkpt lat="44.1897" lon="7.01966">
        <ele>931</ele>
        <time>2019-09-03T21:03:44Z</time>
      </trkpt>
      <trkpt lat="44.18975" lon="7.0191">
        <ele>933</ele>
        <time>2019-09-03T21:03:52Z</time>
      </trkpt>
      <trkpt lat="44.18986" lon="7.01863">
        <ele>935</ele>
        <time>2019-09-03T21:03:58Z</time>
      </trkpt>
      <trkpt lat="44.19" lon="7.01821">
        <ele>936</ele>
        <time>2019-09-03T21:04:04Z</time>
      </trkpt>
      <trkpt lat="44.1902" lon="7.01782">
        <ele>940</ele>
        <time>2019-09-03T21:04:10Z</time>
      </trkpt>
      <trkpt lat="44.19074" lon="7.01703">
        <ele>947</ele>
        <time>2019-09-03T21:04:24Z</time>
      </trkpt>
      <trkpt lat="44.19094" lon="7.01669">
        <ele>948</ele>
        <time>2019-09-03T21:04:29Z</time>
      </trkpt>
      <trkpt lat="44.19147" lon="7.01534">
        <ele>953</ele>
        <time>2019-09-03T21:04:49Z</time>
      </trkpt>
      <trkpt lat="44.19228" lon="7.01348">
        <ele>955</ele>
        <time>2019-09-03T21:05:17Z</time>
      </trkpt>
      <trkpt lat="44.19261" lon="7.01284">
        <ele>955</ele>
        <time>2019-09-03T21:05:27Z</time>
      </trkpt>
      <trkpt lat="44.19318" lon="7.01182">
        <ele>955</ele>
        <time>2019-09-03T21:05:43Z</time>
      </trkpt>
      <trkpt lat="44.19355" lon="7.0112">
        <ele>957</ele>
        <time>2019-09-03T21:05:54Z</time>
      </trkpt>
      <trkpt lat="44.19403" lon="7.01048">
        <ele>961</ele>
        <time>2019-09-03T21:06:06Z</time>
      </trkpt>
      <trkpt lat="44.19416" lon="7.01018">
        <ele>959</ele>
        <time>2019-09-03T21:06:11Z</time>
      </trkpt>
      <trkpt lat="44.19425" lon="7.00984">
        <ele>959</ele>
        <time>2019-09-03T21:06:15Z</time>
      </trkpt>
      <trkpt lat="44.19447" lon="7.0088">
        <ele>965</ele>
        <time>2019-09-03T21:06:29Z</time>
      </trkpt>
      <trkpt lat="44.19457" lon="7.00842">
        <ele>967</ele>
        <time>2019-09-03T21:06:34Z</time>
      </trkpt>
      <trkpt lat="44.19466" lon="7.0082">
        <ele>968</ele>
        <time>2019-09-03T21:06:38Z</time>
      </trkpt>
      <trkpt lat="44.19476" lon="7.00803">
        <ele>967</ele>
        <time>2019-09-03T21:06:40Z</time>
      </trkpt>
      <trkpt lat="44.19488" lon="7.00788">
        <ele>966</ele>
        <time>2019-09-03T21:06:43Z</time>
      </trkpt>
      <trkpt lat="44.19506" lon="7.00769">
        <ele>964</ele>
        <time>2019-09-03T21:06:47Z</time>
      </trkpt>
      <trkpt lat="44.19585" lon="7.00702">
        <ele>966</ele>
        <time>2019-09-03T21:07:04Z</time>
      </trkpt>
      <trkpt lat="44.19602" lon="7.00685">
        <ele>965</ele>
        <time>2019-09-03T21:07:07Z</time>
      </trkpt>
      <trkpt lat="44.19636" lon="7.00644">
        <ele>965</ele>
        <time>2019-09-03T21:07:15Z</time>
      </trkpt>
      <trkpt lat="44.19729" lon="7.00522">
        <ele>967</ele>
        <time>2019-09-03T21:07:38Z</time>
      </trkpt>
      <trkpt lat="44.1975" lon="7.00491">
        <ele>966</ele>
        <time>2019-09-03T21:07:44Z</time>
      </trkpt>
      <trkpt lat="44.1977" lon="7.00452">
        <ele>974</ele>
        <time>2019-09-03T21:07:50Z</time>
      </trkpt>
      <trkpt lat="44.19787" lon="7.00402">
        <ele>980</ele>
        <time>2019-09-03T21:07:57Z</time>
      </trkpt>
      <trkpt lat="44.19797" lon="7.00356">
        <ele>980</ele>
        <time>2019-09-03T21:08:03Z</time>
      </trkpt>
      <trkpt lat="44.19812" lon="7.00254">
        <ele>974</ele>
        <time>2019-09-03T21:08:16Z</time>
      </trkpt>
      <trkpt lat="44.19824" lon="7.00188">
        <ele>973</ele>
        <time>2019-09-03T21:08:25Z</time>
      </trkpt>
      <trkpt lat="44.19843" lon="7.00132">
        <ele>973</ele>
        <time>2019-09-03T21:08:33Z</time>
      </trkpt>
      <trkpt lat="44.19866" lon="7.00089">
        <ele>976</ele>
        <time>2019-09-03T21:08:40Z</time>
      </trkpt>
      <trkpt lat="44.19939" lon="6.99972">
        <ele>980</ele>
        <time>2019-09-03T21:08:59Z</time>
      </trkpt>
      <trkpt lat="44.19956" lon="6.99941">
        <ele>981</ele>
        <time>2019-09-03T21:09:04Z</time>
      </trkpt>
      <trkpt lat="44.1997" lon="6.99911">
        <ele>982</ele>
        <time>2019-09-03T21:09:09Z</time>
      </trkpt>
      <trkpt lat="44.19987" lon="6.99857">
        <ele>982</ele>
        <time>2019-09-03T21:09:16Z</time>
      </trkpt>
      <trkpt lat="44.19995" lon="6.99821">
        <ele>982</ele>
        <time>2019-09-03T21:09:21Z</time>
      </trkpt>
      <trkpt lat="44.20011" lon="6.99709">
        <ele>988</ele>
        <time>2019-09-03T21:09:36Z</time>
      </trkpt>
      <trkpt lat="44.20019" lon="6.9966">
        <ele>990</ele>
        <time>2019-09-03T21:09:42Z</time>
      </trkpt>
      <trkpt lat="44.20029" lon="6.99626">
        <ele>991</ele>
        <time>2019-09-03T21:09:47Z</time>
      </trkpt>
      <trkpt lat="44.20042" lon="6.99593">
        <ele>992</ele>
        <time>2019-09-03T21:09:52Z</time>
      </trkpt>
      <trkpt lat="44.20095" lon="6.99504">
        <ele>990</ele>
        <time>2019-09-03T21:10:07Z</time>
      </trkpt>
      <trkpt lat="44.20112" lon="6.99465">
        <ele>992</ele>
        <time>2019-09-03T21:10:12Z</time>
      </trkpt>
      <trkpt lat="44.2012" lon="6.99438">
        <ele>991</ele>
        <time>2019-09-03T21:10:16Z</time>
      </trkpt>
      <trkpt lat="44.20126" lon="6.99401">
        <ele>989</ele>
        <time>2019-09-03T21:10:21Z</time>
      </trkpt>
      <trkpt lat="44.20131" lon="6.99326">
        <ele>989</ele>
        <time>2019-09-03T21:10:31Z</time>
      </trkpt>
      <trkpt lat="44.20136" lon="6.99208">
        <ele>997</ele>
        <time>2019-09-03T21:10:46Z</time>
      </trkpt>
      <trkpt lat="44.20141" lon="6.99155">
        <ele>1000</ele>
        <time>2019-09-03T21:10:52Z</time>
      </trkpt>
      <trkpt lat="44.2015" lon="6.99117">
        <ele>999</ele>
        <time>2019-09-03T21:10:58Z</time>
      </trkpt>
      <trkpt lat="44.20162" lon="6.99087">
        <ele>997</ele>
        <time>2019-09-03T21:11:02Z</time>
      </trkpt>
      <trkpt lat="44.20174" lon="6.99062">
        <ele>997</ele>
        <time>2019-09-03T21:11:06Z</time>
      </trkpt>
      <trkpt lat="44.20187" lon="6.99039">
        <ele>998</ele>
        <time>2019-09-03T21:11:09Z</time>
      </trkpt>
      <trkpt lat="44.20201" lon="6.9902">
        <ele>999</ele>
        <time>2019-09-03T21:11:13Z</time>
      </trkpt>
      <trkpt lat="44.20266" lon="6.98956">
        <ele>1004</ele>
        <time>2019-09-03T21:11:27Z</time>
      </trkpt>
      <trkpt lat="44.20291" lon="6.98924">
        <ele>1004</ele>
        <time>2019-09-03T21:11:33Z</time>
      </trkpt>
      <trkpt lat="44.20313" lon="6.98891">
        <ele>1004</ele>
        <time>2019-09-03T21:11:39Z</time>
      </trkpt>
      <trkpt lat="44.20374" lon="6.98786">
        <ele>1013</ele>
        <time>2019-09-03T21:11:56Z</time>
      </trkpt>
      <trkpt lat="44.20412" lon="6.98703">
        <ele>1012</ele>
        <time>2019-09-03T21:12:09Z</time>
      </trkpt>
      <trkpt lat="44.20459" lon="6.98591">
        <ele>1010</ele>
        <time>2019-09-03T21:12:25Z</time>
      </trkpt>
      <trkpt lat="44.20476" lon="6.98562">
        <ele>1011</ele>
        <time>2019-09-03T21:12:30Z</time>
      </trkpt>
      <trkpt lat="44.20509" lon="6.9852">
        <ele>1008</ele>
        <time>2019-09-03T21:12:38Z</time>
      </trkpt>
      <trkpt lat="44.20541" lon="6.98491">
        <ele>1011</ele>
        <time>2019-09-03T21:12:45Z</time>
      </trkpt>
      <trkpt lat="44.2056" lon="6.98471">
        <ele>1013</ele>
        <time>2019-09-03T21:12:49Z</time>
      </trkpt>
      <trkpt lat="44.20593" lon="6.98426">
        <ele>1012</ele>
        <time>2019-09-03T21:12:57Z</time>
      </trkpt>
      <trkpt lat="44.20636" lon="6.98377">
        <ele>1018</ele>
        <time>2019-09-03T21:13:07Z</time>
      </trkpt>
      <trkpt lat="44.20662" lon="6.98336">
        <ele>1012</ele>
        <time>2019-09-03T21:13:14Z</time>
      </trkpt>
      <trkpt lat="44.2067" lon="6.98312">
        <ele>1011</ele>
        <time>2019-09-03T21:13:17Z</time>
      </trkpt>
      <trkpt lat="44.20676" lon="6.98287">
        <ele>1013</ele>
        <time>2019-09-03T21:13:21Z</time>
      </trkpt>
      <trkpt lat="44.2068" lon="6.98249">
        <ele>1011</ele>
        <time>2019-09-03T21:13:26Z</time>
      </trkpt>
      <trkpt lat="44.20688" lon="6.9807">
        <ele>1017</ele>
        <time>2019-09-03T21:13:49Z</time>
      </trkpt>
      <trkpt lat="44.20698" lon="6.98026">
        <ele>1018</ele>
        <time>2019-09-03T21:13:54Z</time>
      </trkpt>
      <trkpt lat="44.20715" lon="6.97987">
        <ele>1019</ele>
        <time>2019-09-03T21:14:00Z</time>
      </trkpt>
      <trkpt lat="44.20737" lon="6.97953">
        <ele>1018</ele>
        <time>2019-09-03T21:14:06Z</time>
      </trkpt>
      <trkpt lat="44.20796" lon="6.97898">
        <ele>1015</ele>
        <time>2019-09-03T21:14:19Z</time>
      </trkpt>
      <trkpt lat="44.20817" lon="6.97867">
        <ele>1012</ele>
        <time>2019-09-03T21:14:24Z</time>
      </trkpt>
      <trkpt lat="44.20877" lon="6.97756">
        <ele>1009</ele>
        <time>2019-09-03T21:14:42Z</time>
      </trkpt>
      <trkpt lat="44.20905" lon="6.97717">
        <ele>1010</ele>
        <time>2019-09-03T21:14:49Z</time>
      </trkpt>
      <trkpt lat="44.20937" lon="6.97682">
        <ele>1013</ele>
        <time>2019-09-03T21:14:56Z</time>
      </trkpt>
      <trkpt lat="44.20965" lon="6.97661">
        <ele>1014</ele>
        <time>2019-09-03T21:15:02Z</time>
      </trkpt>
      <trkpt lat="44.20996" lon="6.97634">
        <ele>1016</ele>
        <time>2019-09-03T21:15:08Z</time>
      </trkpt>
      <trkpt lat="44.21018" lon="6.97603">
        <ele>1018</ele>
        <time>2019-09-03T21:15:14Z</time>
      </trkpt>
      <trkpt lat="44.21035" lon="6.97574">
        <ele>1018</ele>
        <time>2019-09-03T21:15:19Z</time>
      </trkpt>
      <trkpt lat="44.21055" lon="6.9755">
        <ele>1017</ele>
        <time>2019-09-03T21:15:23Z</time>
      </trkpt>
      <trkpt lat="44.21078" lon="6.97527">
        <ele>1016</ele>
        <time>2019-09-03T21:15:28Z</time>
      </trkpt>
      <trkpt lat="44.21145" lon="6.97481">
        <ele>1024</ele>
        <time>2019-09-03T21:15:42Z</time>
      </trkpt>
      <trkpt lat="44.21265" lon="6.97414">
        <ele>1029</ele>
        <time>2019-09-03T21:16:05Z</time>
      </trkpt>
      <trkpt lat="44.21309" lon="6.97384">
        <ele>1030</ele>
        <time>2019-09-03T21:16:13Z</time>
      </trkpt>
      <trkpt lat="44.21353" lon="6.97334">
        <ele>1024</ele>
        <time>2019-09-03T21:16:24Z</time>
      </trkpt>
      <trkpt lat="44.21404" lon="6.97262">
        <ele>1027</ele>
        <time>2019-09-03T21:16:36Z</time>
      </trkpt>
      <trkpt lat="44.21484" lon="6.9716">
        <ele>1027</ele>
        <time>2019-09-03T21:16:56Z</time>
      </trkpt>
      <trkpt lat="44.21517" lon="6.97132">
        <ele>1031</ele>
        <time>2019-09-03T21:17:03Z</time>
      </trkpt>
      <trkpt lat="44.2156" lon="6.97112">
        <ele>1036</ele>
        <time>2019-09-03T21:17:11Z</time>
      </trkpt>
      <trkpt lat="44.21602" lon="6.97103">
        <ele>1041</ele>
        <time>2019-09-03T21:17:18Z</time>
      </trkpt>
      <trkpt lat="44.21619" lon="6.97096">
        <ele>1043</ele>
        <time>2019-09-03T21:17:21Z</time>
      </trkpt>
      <trkpt lat="44.21646" lon="6.97079">
        <ele>1043</ele>
        <time>2019-09-03T21:17:27Z</time>
      </trkpt>
      <trkpt lat="44.21667" lon="6.97061">
        <ele>1044</ele>
        <time>2019-09-03T21:17:31Z</time>
      </trkpt>
      <trkpt lat="44.21706" lon="6.97019">
        <ele>1050</ele>
        <time>2019-09-03T21:17:40Z</time>
      </trkpt>
      <trkpt lat="44.21756" lon="6.96953">
        <ele>1051</ele>
        <time>2019-09-03T21:17:52Z</time>
      </trkpt>
      <trkpt lat="44.21792" lon="6.96913">
        <ele>1056</ele>
        <time>2019-09-03T21:18:00Z</time>
      </trkpt>
      <trkpt lat="44.21831" lon="6.96876">
        <ele>1054</ele>
        <time>2019-09-03T21:18:09Z</time>
      </trkpt>
      <trkpt lat="44.21875" lon="6.96821">
        <ele>1052</ele>
        <time>2019-09-03T21:18:19Z</time>
      </trkpt>
      <trkpt lat="44.21921" lon="6.96784">
        <ele>1056</ele>
        <time>2019-09-03T21:18:29Z</time>
      </trkpt>
      <trkpt lat="44.21943" lon="6.9676">
        <ele>1055</ele>
        <time>2019-09-03T21:18:34Z</time>
      </trkpt>
      <trkpt lat="44.22011" lon="6.96663">
        <ele>1048</ele>
        <time>2019-09-03T21:18:51Z</time>
      </trkpt>
      <trkpt lat="44.22032" lon="6.96643">
        <ele>1050</ele>
        <time>2019-09-03T21:18:55Z</time>
      </trkpt>
      <trkpt lat="44.22379" lon="6.9639">
        <ele>1055</ele>
        <time>2019-09-03T21:20:05Z</time>
      </trkpt>
      <trkpt lat="44.22444" lon="6.96346">
        <ele>1056</ele>
        <time>2019-09-03T21:20:18Z</time>
      </trkpt>
      <trkpt lat="44.22461" lon="6.96331">
        <ele>1056</ele>
        <time>2019-09-03T21:20:21Z</time>
      </trkpt>
      <trkpt lat="44.22474" lon="6.96316">
        <ele>1057</ele>
        <time>2019-09-03T21:20:24Z</time>
      </trkpt>
      <trkpt lat="44.22486" lon="6.96297">
        <ele>1057</ele>
        <time>2019-09-03T21:20:28Z</time>
      </trkpt>
      <trkpt lat="44.22494" lon="6.96273">
        <ele>1056</ele>
        <time>2019-09-03T21:20:31Z</time>
      </trkpt>
      <trkpt lat="44.225" lon="6.96251">
        <ele>1054</ele>
        <time>2019-09-03T21:20:34Z</time>
      </trkpt>
      <trkpt lat="44.22539" lon="6.96044">
        <ele>1056</ele>
        <time>2019-09-03T21:21:01Z</time>
      </trkpt>
      <trkpt lat="44.22548" lon="6.96019">
        <ele>1056</ele>
        <time>2019-09-03T21:21:05Z</time>
      </trkpt>
      <trkpt lat="44.22556" lon="6.96003">
        <ele>1055</ele>
        <time>2019-09-03T21:21:07Z</time>
      </trkpt>
      <trkpt lat="44.22564" lon="6.95992">
        <ele>1055</ele>
        <time>2019-09-03T21:21:09Z</time>
      </trkpt>
      <trkpt lat="44.22579" lon="6.95979">
        <ele>1055</ele>
        <time>2019-09-03T21:21:13Z</time>
      </trkpt>
      <trkpt lat="44.22699" lon="6.95915">
        <ele>1058</ele>
        <time>2019-09-03T21:21:35Z</time>
      </trkpt>
      <trkpt lat="44.22728" lon="6.95893">
        <ele>1058</ele>
        <time>2019-09-03T21:21:41Z</time>
      </trkpt>
      <trkpt lat="44.22791" lon="6.95841">
        <ele>1059</ele>
        <time>2019-09-03T21:21:54Z</time>
      </trkpt>
      <trkpt lat="44.22821" lon="6.95826">
        <ele>1060</ele>
        <time>2019-09-03T21:22:00Z</time>
      </trkpt>
      <trkpt lat="44.22881" lon="6.95804">
        <ele>1060</ele>
        <time>2019-09-03T21:22:11Z</time>
      </trkpt>
      <trkpt lat="44.22905" lon="6.9579">
        <ele>1060</ele>
        <time>2019-09-03T21:22:16Z</time>
      </trkpt>
      <trkpt lat="44.22927" lon="6.95771">
        <ele>1060</ele>
        <time>2019-09-03T21:22:20Z</time>
      </trkpt>
      <trkpt lat="44.22973" lon="6.95713">
        <ele>1060</ele>
        <time>2019-09-03T21:22:31Z</time>
      </trkpt>
      <trkpt lat="44.2317" lon="6.95395">
        <ele>1064</ele>
        <time>2019-09-03T21:23:25Z</time>
      </trkpt>
      <trkpt lat="44.23188" lon="6.95356">
        <ele>1066</ele>
        <time>2019-09-03T21:23:31Z</time>
      </trkpt>
      <trkpt lat="44.23238" lon="6.95226">
        <ele>1070</ele>
        <time>2019-09-03T21:23:50Z</time>
      </trkpt>
      <trkpt lat="44.23299" lon="6.9508">
        <ele>1073</ele>
        <time>2019-09-03T21:24:11Z</time>
      </trkpt>
      <trkpt lat="44.23348" lon="6.9497">
        <ele>1085</ele>
        <time>2019-09-03T21:24:28Z</time>
      </trkpt>
      <trkpt lat="44.23376" lon="6.9492">
        <ele>1088</ele>
        <time>2019-09-03T21:24:36Z</time>
      </trkpt>
      <trkpt lat="44.23428" lon="6.94852">
        <ele>1092</ele>
        <time>2019-09-03T21:24:48Z</time>
      </trkpt>
      <trkpt lat="44.23517" lon="6.94732">
        <ele>1099</ele>
        <time>2019-09-03T21:25:10Z</time>
      </trkpt>
      <trkpt lat="44.23627" lon="6.94546">
        <ele>1111</ele>
        <time>2019-09-03T21:25:41Z</time>
      </trkpt>
      <trkpt lat="44.23658" lon="6.94507">
        <ele>1106</ele>
        <time>2019-09-03T21:25:49Z</time>
      </trkpt>
      <trkpt lat="44.2369" lon="6.94473">
        <ele>1110</ele>
        <time>2019-09-03T21:25:56Z</time>
      </trkpt>
      <trkpt lat="44.2374" lon="6.94433">
        <ele>1111</ele>
        <time>2019-09-03T21:26:06Z</time>
      </trkpt>
      <trkpt lat="44.23816" lon="6.94399">
        <ele>1110</ele>
        <time>2019-09-03T21:26:20Z</time>
      </trkpt>
      <trkpt lat="44.23838" lon="6.94384">
        <ele>1110</ele>
        <time>2019-09-03T21:26:25Z</time>
      </trkpt>
      <trkpt lat="44.23872" lon="6.94351">
        <ele>1114</ele>
        <time>2019-09-03T21:26:32Z</time>
      </trkpt>
      <trkpt lat="44.2389" lon="6.94322">
        <ele>1118</ele>
        <time>2019-09-03T21:26:37Z</time>
      </trkpt>
      <trkpt lat="44.23905" lon="6.94278">
        <ele>1124</ele>
        <time>2019-09-03T21:26:43Z</time>
      </trkpt>
      <trkpt lat="44.23933" lon="6.94169">
        <ele>1136</ele>
        <time>2019-09-03T21:26:58Z</time>
      </trkpt>
      <trkpt lat="44.23948" lon="6.94133">
        <ele>1142</ele>
        <time>2019-09-03T21:27:03Z</time>
      </trkpt>
      <trkpt lat="44.23961" lon="6.94112">
        <ele>1144</ele>
        <time>2019-09-03T21:27:07Z</time>
      </trkpt>
      <trkpt lat="44.24038" lon="6.94017">
        <ele>1150</ele>
        <time>2019-09-03T21:27:25Z</time>
      </trkpt>
      <trkpt lat="44.2405" lon="6.94">
        <ele>1153</ele>
        <time>2019-09-03T21:27:28Z</time>
      </trkpt>
      <trkpt lat="44.24052" lon="6.93993">
        <ele>1154</ele>
        <time>2019-09-03T21:27:29Z</time>
      </trkpt>
      <trkpt lat="44.24054" lon="6.93982">
        <ele>1156</ele>
        <time>2019-09-03T21:27:30Z</time>
      </trkpt>
      <trkpt lat="44.24052" lon="6.93971">
        <ele>1159</ele>
        <time>2019-09-03T21:27:32Z</time>
      </trkpt>
      <trkpt lat="44.24048" lon="6.93962">
        <ele>1161</ele>
        <time>2019-09-03T21:27:33Z</time>
      </trkpt>
      <trkpt lat="44.24041" lon="6.93956">
        <ele>1163</ele>
        <time>2019-09-03T21:27:35Z</time>
      </trkpt>
      <trkpt lat="44.24028" lon="6.93954">
        <ele>1164</ele>
        <time>2019-09-03T21:27:37Z</time>
      </trkpt>
      <trkpt lat="44.2402" lon="6.93962">
        <ele>1163</ele>
        <time>2019-09-03T21:27:39Z</time>
      </trkpt>
      <trkpt lat="44.23981" lon="6.94017">
        <ele>1159</ele>
        <time>2019-09-03T21:27:49Z</time>
      </trkpt>
      <trkpt lat="44.23891" lon="6.94104">
        <ele>1166</ele>
        <time>2019-09-03T21:28:08Z</time>
      </trkpt>
      <trkpt lat="44.2386" lon="6.94149">
        <ele>1161</ele>
        <time>2019-09-03T21:28:16Z</time>
      </trkpt>
      <trkpt lat="44.23834" lon="6.94193">
        <ele>1157</ele>
        <time>2019-09-03T21:28:23Z</time>
      </trkpt>
      <trkpt lat="44.2382" lon="6.94203">
        <ele>1160</ele>
        <time>2019-09-03T21:28:26Z</time>
      </trkpt>
      <trkpt lat="44.23807" lon="6.94201">
        <ele>1166</ele>
        <time>2019-09-03T21:28:28Z</time>
      </trkpt>
      <trkpt lat="44.23801" lon="6.94189">
        <ele>1171</ele>
        <time>2019-09-03T21:28:30Z</time>
      </trkpt>
      <trkpt lat="44.238" lon="6.94168">
        <ele>1176</ele>
        <time>2019-09-03T21:28:33Z</time>
      </trkpt>
      <trkpt lat="44.23806" lon="6.94143">
        <ele>1182</ele>
        <time>2019-09-03T21:28:36Z</time>
      </trkpt>
      <trkpt lat="44.23826" lon="6.94117">
        <ele>1183</ele>
        <time>2019-09-03T21:28:41Z</time>
      </trkpt>
      <trkpt lat="44.23907" lon="6.94025">
        <ele>1185</ele>
        <time>2019-09-03T21:29:00Z</time>
      </trkpt>
      <trkpt lat="44.2405" lon="6.93809">
        <ele>1206</ele>
        <time>2019-09-03T21:29:37Z</time>
      </trkpt>
      <trkpt lat="44.24073" lon="6.9379">
        <ele>1205</ele>
        <time>2019-09-03T21:29:42Z</time>
      </trkpt>
      <trkpt lat="44.24095" lon="6.93781">
        <ele>1204</ele>
        <time>2019-09-03T21:29:46Z</time>
      </trkpt>
      <trkpt lat="44.24197" lon="6.93777">
        <ele>1201</ele>
        <time>2019-09-03T21:30:04Z</time>
      </trkpt>
      <trkpt lat="44.24221" lon="6.93764">
        <ele>1201</ele>
        <time>2019-09-03T21:30:09Z</time>
      </trkpt>
      <trkpt lat="44.24249" lon="6.93737">
        <ele>1203</ele>
        <time>2019-09-03T21:30:15Z</time>
      </trkpt>
      <trkpt lat="44.2426" lon="6.9373">
        <ele>1202</ele>
        <time>2019-09-03T21:30:17Z</time>
      </trkpt>
      <trkpt lat="44.24276" lon="6.93726">
        <ele>1199</ele>
        <time>2019-09-03T21:30:20Z</time>
      </trkpt>
      <trkpt lat="44.2428" lon="6.93723">
        <ele>1199</ele>
        <time>2019-09-03T21:30:21Z</time>
      </trkpt>
      <trkpt lat="44.24302" lon="6.93698">
        <ele>1198</ele>
        <time>2019-09-03T21:30:26Z</time>
      </trkpt>
      <trkpt lat="44.2434" lon="6.93664">
        <ele>1197</ele>
        <time>2019-09-03T21:30:34Z</time>
      </trkpt>
      <trkpt lat="44.24461" lon="6.93509">
        <ele>1185</ele>
        <time>2019-09-03T21:31:03Z</time>
      </trkpt>
      <trkpt lat="44.24472" lon="6.93476">
        <ele>1185</ele>
        <time>2019-09-03T21:31:08Z</time>
      </trkpt>
      <trkpt lat="44.24477" lon="6.93446">
        <ele>1186</ele>
        <time>2019-09-03T21:31:12Z</time>
      </trkpt>
      <trkpt lat="44.2448" lon="6.93419">
        <ele>1189</ele>
        <time>2019-09-03T21:31:15Z</time>
      </trkpt>
      <trkpt lat="44.24486" lon="6.93398">
        <ele>1190</ele>
        <time>2019-09-03T21:31:18Z</time>
      </trkpt>
      <trkpt lat="44.24496" lon="6.9339">
        <ele>1188</ele>
        <time>2019-09-03T21:31:20Z</time>
      </trkpt>
      <trkpt lat="44.24513" lon="6.93384">
        <ele>1188</ele>
        <time>2019-09-03T21:31:23Z</time>
      </trkpt>
      <trkpt lat="44.24532" lon="6.93387">
        <ele>1186</ele>
        <time>2019-09-03T21:31:27Z</time>
      </trkpt>
      <trkpt lat="44.24552" lon="6.93396">
        <ele>1182</ele>
        <time>2019-09-03T21:31:30Z</time>
      </trkpt>
      <trkpt lat="44.24572" lon="6.93403">
        <ele>1179</ele>
        <time>2019-09-03T21:31:34Z</time>
      </trkpt>
      <trkpt lat="44.2459" lon="6.93403">
        <ele>1177</ele>
        <time>2019-09-03T21:31:37Z</time>
      </trkpt>
      <trkpt lat="44.24611" lon="6.93398">
        <ele>1174</ele>
        <time>2019-09-03T21:31:41Z</time>
      </trkpt>
      <trkpt lat="44.24634" lon="6.93378">
        <ele>1173</ele>
        <time>2019-09-03T21:31:46Z</time>
      </trkpt>
      <trkpt lat="44.24679" lon="6.93295">
        <ele>1177</ele>
        <time>2019-09-03T21:31:59Z</time>
      </trkpt>
      <trkpt lat="44.24732" lon="6.93213">
        <ele>1170</ele>
        <time>2019-09-03T21:32:13Z</time>
      </trkpt>
      <trkpt lat="44.24768" lon="6.93141">
        <ele>1173</ele>
        <time>2019-09-03T21:32:24Z</time>
      </trkpt>
      <trkpt lat="44.24817" lon="6.93062">
        <ele>1179</ele>
        <time>2019-09-03T21:32:38Z</time>
      </trkpt>
      <trkpt lat="44.24852" lon="6.92991">
        <ele>1188</ele>
        <time>2019-09-03T21:32:49Z</time>
      </trkpt>
      <trkpt lat="44.24897" lon="6.92936">
        <ele>1186</ele>
        <time>2019-09-03T21:32:59Z</time>
      </trkpt>
      <trkpt lat="44.25025" lon="6.92817">
        <ele>1176</ele>
        <time>2019-09-03T21:33:27Z</time>
      </trkpt>
      <trkpt lat="44.25132" lon="6.92728">
        <ele>1171</ele>
        <time>2019-09-03T21:33:49Z</time>
      </trkpt>
      <trkpt lat="44.25183" lon="6.92696">
        <ele>1167</ele>
        <time>2019-09-03T21:33:59Z</time>
      </trkpt>
      <trkpt lat="44.25206" lon="6.92679">
        <ele>1168</ele>
        <time>2019-09-03T21:34:03Z</time>
      </trkpt>
      <trkpt lat="44.25231" lon="6.92672">
        <ele>1167</ele>
        <time>2019-09-03T21:34:08Z</time>
      </trkpt>
      <trkpt lat="44.2527" lon="6.92653">
        <ele>1167</ele>
        <time>2019-09-03T21:34:15Z</time>
      </trkpt>
      <trkpt lat="44.25301" lon="6.92627">
        <ele>1169</ele>
        <time>2019-09-03T21:34:22Z</time>
      </trkpt>
      <trkpt lat="44.25369" lon="6.92542">
        <ele>1171</ele>
        <time>2019-09-03T21:34:38Z</time>
      </trkpt>
      <trkpt lat="44.25401" lon="6.92498">
        <ele>1168</ele>
        <time>2019-09-03T21:34:46Z</time>
      </trkpt>
      <trkpt lat="44.25452" lon="6.92457">
        <ele>1164</ele>
        <time>2019-09-03T21:34:56Z</time>
      </trkpt>
      <trkpt lat="44.25521" lon="6.92548">
        <ele>1153</ele>
        <time>2019-09-03T21:35:13Z</time>
      </trkpt>
      <trkpt lat="44.2556" lon="6.92579">
        <ele>1154</ele>
        <time>2019-09-03T21:35:21Z</time>
      </trkpt>
      <trkpt lat="44.25563" lon="6.92575">
        <ele>1154</ele>
        <time>2019-09-03T21:35:22Z</time>
      </trkpt>
      <trkpt lat="44.25568" lon="6.92573">
        <ele>1155</ele>
        <time>2019-09-03T21:35:23Z</time>
      </trkpt>
      <trkpt lat="44.25592" lon="6.92596">
        <ele>1153</ele>
        <time>2019-09-03T21:35:28Z</time>
      </trkpt>
      <trkpt lat="44.25594" lon="6.92608">
        <ele>1151</ele>
        <time>2019-09-03T21:35:30Z</time>
      </trkpt>
      <trkpt lat="44.25619" lon="6.9263">
        <ele>1148</ele>
        <time>2019-09-03T21:35:35Z</time>
      </trkpt>
      <trkpt lat="44.25629" lon="6.92632">
        <ele>1147</ele>
        <time>2019-09-03T21:35:37Z</time>
      </trkpt>
      <trkpt lat="44.2567" lon="6.92623">
        <ele>1147</ele>
        <time>2019-09-03T21:35:44Z</time>
      </trkpt>
      <trkpt lat="44.25701" lon="6.92613">
        <ele>1145</ele>
        <time>2019-09-03T21:35:50Z</time>
      </trkpt>
      <trkpt lat="44.25716" lon="6.92604">
        <ele>1145</ele>
        <time>2019-09-03T21:35:53Z</time>
      </trkpt>
      <trkpt lat="44.25723" lon="6.92597">
        <ele>1145</ele>
        <time>2019-09-03T21:35:54Z</time>
      </trkpt>
      <trkpt lat="44.25782" lon="6.92525">
        <ele>1145</ele>
        <time>2019-09-03T21:36:08Z</time>
      </trkpt>
      <trkpt lat="44.25801" lon="6.92495">
        <ele>1146</ele>
        <time>2019-09-03T21:36:13Z</time>
      </trkpt>
      <trkpt lat="44.25856" lon="6.92598">
        <ele>1150</ele>
        <time>2019-09-03T21:36:30Z</time>
      </trkpt>
      <trkpt lat="44.25862" lon="6.92606">
        <ele>1153</ele>
        <time>2019-09-03T21:36:31Z</time>
      </trkpt>
      <trkpt lat="44.25874" lon="6.92594">
        <ele>1154</ele>
        <time>2019-09-03T21:36:34Z</time>
      </trkpt>
      <trkpt lat="44.25892" lon="6.92571">
        <ele>1154</ele>
        <time>2019-09-03T21:36:38Z</time>
      </trkpt>
      <trkpt lat="44.25931" lon="6.92513">
        <ele>1157</ele>
        <time>2019-09-03T21:36:48Z</time>
      </trkpt>
      <trkpt lat="44.25938" lon="6.9249">
        <ele>1158</ele>
        <time>2019-09-03T21:36:51Z</time>
      </trkpt>
      <trkpt lat="44.25942" lon="6.92438">
        <ele>1157</ele>
        <time>2019-09-03T21:36:58Z</time>
      </trkpt>
      <trkpt lat="44.25958" lon="6.92396">
        <ele>1160</ele>
        <time>2019-09-03T21:37:04Z</time>
      </trkpt>
      <trkpt lat="44.25962" lon="6.92361">
        <ele>1160</ele>
        <time>2019-09-03T21:37:09Z</time>
      </trkpt>
      <trkpt lat="44.25986" lon="6.92291">
        <ele>1163</ele>
        <time>2019-09-03T21:37:19Z</time>
      </trkpt>
      <trkpt lat="44.25997" lon="6.92264">
        <ele>1165</ele>
        <time>2019-09-03T21:37:22Z</time>
      </trkpt>
      <trkpt lat="44.26015" lon="6.92231">
        <ele>1166</ele>
        <time>2019-09-03T21:37:28Z</time>
      </trkpt>
      <trkpt lat="44.26032" lon="6.92209">
        <ele>1167</ele>
        <time>2019-09-03T21:37:32Z</time>
      </trkpt>
      <trkpt lat="44.26044" lon="6.922">
        <ele>1168</ele>
        <time>2019-09-03T21:37:34Z</time>
      </trkpt>
      <trkpt lat="44.26056" lon="6.92197">
        <ele>1170</ele>
        <time>2019-09-03T21:37:36Z</time>
      </trkpt>
      <trkpt lat="44.26066" lon="6.92191">
        <ele>1171</ele>
        <time>2019-09-03T21:37:38Z</time>
      </trkpt>
      <trkpt lat="44.26106" lon="6.92161">
        <ele>1173</ele>
        <time>2019-09-03T21:37:47Z</time>
      </trkpt>
      <trkpt lat="44.26122" lon="6.92163">
        <ele>1175</ele>
        <time>2019-09-03T21:37:49Z</time>
      </trkpt>
      <trkpt lat="44.26145" lon="6.92163">
        <ele>1177</ele>
        <time>2019-09-03T21:37:53Z</time>
      </trkpt>
      <trkpt lat="44.26152" lon="6.9216">
        <ele>1178</ele>
        <time>2019-09-03T21:37:55Z</time>
      </trkpt>
      <trkpt lat="44.26165" lon="6.92146">
        <ele>1181</ele>
        <time>2019-09-03T21:37:58Z</time>
      </trkpt>
      <trkpt lat="44.26175" lon="6.9214">
        <ele>1182</ele>
        <time>2019-09-03T21:38:00Z</time>
      </trkpt>
      <trkpt lat="44.26195" lon="6.9214">
        <ele>1186</ele>
        <time>2019-09-03T21:38:03Z</time>
      </trkpt>
      <trkpt lat="44.26221" lon="6.92144">
        <ele>1190</ele>
        <time>2019-09-03T21:38:08Z</time>
      </trkpt>
      <trkpt lat="44.26268" lon="6.92161">
        <ele>1197</ele>
        <time>2019-09-03T21:38:16Z</time>
      </trkpt>
      <trkpt lat="44.26285" lon="6.92163">
        <ele>1200</ele>
        <time>2019-09-03T21:38:20Z</time>
      </trkpt>
      <trkpt lat="44.26306" lon="6.92159">
        <ele>1204</ele>
        <time>2019-09-03T21:38:23Z</time>
      </trkpt>
      <trkpt lat="44.26351" lon="6.9214">
        <ele>1207</ele>
        <time>2019-09-03T21:38:32Z</time>
      </trkpt>
      <trkpt lat="44.2646" lon="6.92145">
        <ele>1206</ele>
        <time>2019-09-03T21:38:51Z</time>
      </trkpt>
      <trkpt lat="44.26536" lon="6.92158">
        <ele>1213</ele>
        <time>2019-09-03T21:39:05Z</time>
      </trkpt>
      <trkpt lat="44.2656" lon="6.92156">
        <ele>1216</ele>
        <time>2019-09-03T21:39:09Z</time>
      </trkpt>
      <trkpt lat="44.26586" lon="6.92149">
        <ele>1218</ele>
        <time>2019-09-03T21:39:14Z</time>
      </trkpt>
      <trkpt lat="44.26615" lon="6.92137">
        <ele>1219</ele>
        <time>2019-09-03T21:39:19Z</time>
      </trkpt>
      <trkpt lat="44.26646" lon="6.9212">
        <ele>1218</ele>
        <time>2019-09-03T21:39:25Z</time>
      </trkpt>
      <trkpt lat="44.26707" lon="6.92106">
        <ele>1220</ele>
        <time>2019-09-03T21:39:36Z</time>
      </trkpt>
      <trkpt lat="44.26743" lon="6.92089">
        <ele>1219</ele>
        <time>2019-09-03T21:39:43Z</time>
      </trkpt>
      <trkpt lat="44.26764" lon="6.92082">
        <ele>1220</ele>
        <time>2019-09-03T21:39:47Z</time>
      </trkpt>
      <trkpt lat="44.26785" lon="6.9208">
        <ele>1222</ele>
        <time>2019-09-03T21:39:50Z</time>
      </trkpt>
      <trkpt lat="44.26805" lon="6.92084">
        <ele>1223</ele>
        <time>2019-09-03T21:39:54Z</time>
      </trkpt>
      <trkpt lat="44.26826" lon="6.92092">
        <ele>1227</ele>
        <time>2019-09-03T21:39:58Z</time>
      </trkpt>
      <trkpt lat="44.26846" lon="6.92103">
        <ele>1231</ele>
        <time>2019-09-03T21:40:02Z</time>
      </trkpt>
      <trkpt lat="44.26922" lon="6.92118">
        <ele>1234</ele>
        <time>2019-09-03T21:40:15Z</time>
      </trkpt>
      <trkpt lat="44.2697" lon="6.92108">
        <ele>1232</ele>
        <time>2019-09-03T21:40:24Z</time>
      </trkpt>
      <trkpt lat="44.27011" lon="6.92095">
        <ele>1230</ele>
        <time>2019-09-03T21:40:31Z</time>
      </trkpt>
      <trkpt lat="44.27032" lon="6.92082">
        <ele>1229</ele>
        <time>2019-09-03T21:40:35Z</time>
      </trkpt>
      <trkpt lat="44.27068" lon="6.92039">
        <ele>1232</ele>
        <time>2019-09-03T21:40:44Z</time>
      </trkpt>
      <trkpt lat="44.27102" lon="6.9198">
        <ele>1237</ele>
        <time>2019-09-03T21:40:54Z</time>
      </trkpt>
      <trkpt lat="44.27133" lon="6.9191">
        <ele>1246</ele>
        <time>2019-09-03T21:41:04Z</time>
      </trkpt>
      <trkpt lat="44.27165" lon="6.91818">
        <ele>1246</ele>
        <time>2019-09-03T21:41:17Z</time>
      </trkpt>
      <trkpt lat="44.27182" lon="6.91789">
        <ele>1252</ele>
        <time>2019-09-03T21:41:22Z</time>
      </trkpt>
      <trkpt lat="44.272" lon="6.91771">
        <ele>1253</ele>
        <time>2019-09-03T21:41:26Z</time>
      </trkpt>
      <trkpt lat="44.27221" lon="6.91753">
        <ele>1250</ele>
        <time>2019-09-03T21:41:30Z</time>
      </trkpt>
      <trkpt lat="44.2725" lon="6.91734">
        <ele>1246</ele>
        <time>2019-09-03T21:41:36Z</time>
      </trkpt>
      <trkpt lat="44.27334" lon="6.91697">
        <ele>1247</ele>
        <time>2019-09-03T21:41:52Z</time>
      </trkpt>
      <trkpt lat="44.27358" lon="6.91676">
        <ele>1248</ele>
        <time>2019-09-03T21:41:57Z</time>
      </trkpt>
      <trkpt lat="44.27376" lon="6.91647">
        <ele>1251</ele>
        <time>2019-09-03T21:42:01Z</time>
      </trkpt>
      <trkpt lat="44.27388" lon="6.91616">
        <ele>1253</ele>
        <time>2019-09-03T21:42:06Z</time>
      </trkpt>
      <trkpt lat="44.27399" lon="6.9158">
        <ele>1252</ele>
        <time>2019-09-03T21:42:11Z</time>
      </trkpt>
      <trkpt lat="44.27419" lon="6.91531">
        <ele>1253</ele>
        <time>2019-09-03T21:42:18Z</time>
      </trkpt>
      <trkpt lat="44.27431" lon="6.91509">
        <ele>1254</ele>
        <time>2019-09-03T21:42:22Z</time>
      </trkpt>
      <trkpt lat="44.27447" lon="6.91488">
        <ele>1257</ele>
        <time>2019-09-03T21:42:26Z</time>
      </trkpt>
      <trkpt lat="44.27503" lon="6.91402">
        <ele>1254</ele>
        <time>2019-09-03T21:42:40Z</time>
      </trkpt>
      <trkpt lat="44.27551" lon="6.91323">
        <ele>1264</ele>
        <time>2019-09-03T21:42:54Z</time>
      </trkpt>
      <trkpt lat="44.2759" lon="6.9125">
        <ele>1264</ele>
        <time>2019-09-03T21:43:05Z</time>
      </trkpt>
      <trkpt lat="44.27608" lon="6.91192">
        <ele>1269</ele>
        <time>2019-09-03T21:43:13Z</time>
      </trkpt>
      <trkpt lat="44.27627" lon="6.91119">
        <ele>1271</ele>
        <time>2019-09-03T21:43:23Z</time>
      </trkpt>
      <trkpt lat="44.27643" lon="6.9107">
        <ele>1270</ele>
        <time>2019-09-03T21:43:30Z</time>
      </trkpt>
      <trkpt lat="44.27663" lon="6.9105">
        <ele>1268</ele>
        <time>2019-09-03T21:43:34Z</time>
      </trkpt>
      <trkpt lat="44.27707" lon="6.91027">
        <ele>1277</ele>
        <time>2019-09-03T21:43:43Z</time>
      </trkpt>
      <trkpt lat="44.27737" lon="6.90998">
        <ele>1278</ele>
        <time>2019-09-03T21:43:49Z</time>
      </trkpt>
      <trkpt lat="44.27759" lon="6.9097">
        <ele>1281</ele>
        <time>2019-09-03T21:43:55Z</time>
      </trkpt>
      <trkpt lat="44.27783" lon="6.90913">
        <ele>1283</ele>
        <time>2019-09-03T21:44:03Z</time>
      </trkpt>
      <trkpt lat="44.27798" lon="6.90849">
        <ele>1282</ele>
        <time>2019-09-03T21:44:12Z</time>
      </trkpt>
      <trkpt lat="44.2782" lon="6.90807">
        <ele>1282</ele>
        <time>2019-09-03T21:44:18Z</time>
      </trkpt>
      <trkpt lat="44.27858" lon="6.90769">
        <ele>1290</ele>
        <time>2019-09-03T21:44:26Z</time>
      </trkpt>
      <trkpt lat="44.27898" lon="6.90713">
        <ele>1296</ele>
        <time>2019-09-03T21:44:37Z</time>
      </trkpt>
      <trkpt lat="44.27929" lon="6.90661">
        <ele>1293</ele>
        <time>2019-09-03T21:44:45Z</time>
      </trkpt>
      <trkpt lat="44.27973" lon="6.90542">
        <ele>1304</ele>
        <time>2019-09-03T21:45:02Z</time>
      </trkpt>
      <trkpt lat="44.28" lon="6.90492">
        <ele>1297</ele>
        <time>2019-09-03T21:45:10Z</time>
      </trkpt>
      <trkpt lat="44.28042" lon="6.90427">
        <ele>1308</ele>
        <time>2019-09-03T21:45:21Z</time>
      </trkpt>
      <trkpt lat="44.28067" lon="6.9038">
        <ele>1305</ele>
        <time>2019-09-03T21:45:29Z</time>
      </trkpt>
      <trkpt lat="44.2811" lon="6.90351">
        <ele>1306</ele>
        <time>2019-09-03T21:45:37Z</time>
      </trkpt>
      <trkpt lat="44.28165" lon="6.90321">
        <ele>1316</ele>
        <time>2019-09-03T21:45:48Z</time>
      </trkpt>
      <trkpt lat="44.28238" lon="6.90259">
        <ele>1316</ele>
        <time>2019-09-03T21:46:03Z</time>
      </trkpt>
      <trkpt lat="44.28265" lon="6.90226">
        <ele>1317</ele>
        <time>2019-09-03T21:46:09Z</time>
      </trkpt>
      <trkpt lat="44.2832" lon="6.90201">
        <ele>1324</ele>
        <time>2019-09-03T21:46:20Z</time>
      </trkpt>
      <trkpt lat="44.28354" lon="6.90203">
        <ele>1334</ele>
        <time>2019-09-03T21:46:26Z</time>
      </trkpt>
      <trkpt lat="44.28385" lon="6.90159">
        <ele>1325</ele>
        <time>2019-09-03T21:46:34Z</time>
      </trkpt>
      <trkpt lat="44.28424" lon="6.90129">
        <ele>1326</ele>
        <time>2019-09-03T21:46:42Z</time>
      </trkpt>
      <trkpt lat="44.28482" lon="6.90095">
        <ele>1333</ele>
        <time>2019-09-03T21:46:53Z</time>
      </trkpt>
      <trkpt lat="44.28512" lon="6.90065">
        <ele>1332</ele>
        <time>2019-09-03T21:46:59Z</time>
      </trkpt>
      <trkpt lat="44.28545" lon="6.90047">
        <ele>1336</ele>
        <time>2019-09-03T21:47:06Z</time>
      </trkpt>
      <trkpt lat="44.28569" lon="6.90055">
        <ele>1344</ele>
        <time>2019-09-03T21:47:10Z</time>
      </trkpt>
      <trkpt lat="44.28606" lon="6.90042">
        <ele>1347</ele>
        <time>2019-09-03T21:47:17Z</time>
      </trkpt>
      <trkpt lat="44.28627" lon="6.90048">
        <ele>1353</ele>
        <time>2019-09-03T21:47:21Z</time>
      </trkpt>
      <trkpt lat="44.2864" lon="6.90047">
        <ele>1356</ele>
        <time>2019-09-03T21:47:23Z</time>
      </trkpt>
      <trkpt lat="44.28654" lon="6.90036">
        <ele>1353</ele>
        <time>2019-09-03T21:47:26Z</time>
      </trkpt>
      <trkpt lat="44.28662" lon="6.90023">
        <ele>1348</ele>
        <time>2019-09-03T21:47:28Z</time>
      </trkpt>
      <trkpt lat="44.28668" lon="6.90007">
        <ele>1341</ele>
        <time>2019-09-03T21:47:30Z</time>
      </trkpt>
      <trkpt lat="44.28682" lon="6.89929">
        <ele>1353</ele>
        <time>2019-09-03T21:47:40Z</time>
      </trkpt>
      <trkpt lat="44.2869" lon="6.89922">
        <ele>1355</ele>
        <time>2019-09-03T21:47:42Z</time>
      </trkpt>
      <trkpt lat="44.28703" lon="6.89925">
        <ele>1357</ele>
        <time>2019-09-03T21:47:44Z</time>
      </trkpt>
      <trkpt lat="44.28712" lon="6.8993">
        <ele>1358</ele>
        <time>2019-09-03T21:47:46Z</time>
      </trkpt>
      <trkpt lat="44.28721" lon="6.8994">
        <ele>1358</ele>
        <time>2019-09-03T21:47:48Z</time>
      </trkpt>
      <trkpt lat="44.28733" lon="6.89946">
        <ele>1359</ele>
        <time>2019-09-03T21:47:51Z</time>
      </trkpt>
      <trkpt lat="44.28761" lon="6.89944">
        <ele>1364</ele>
        <time>2019-09-03T21:47:56Z</time>
      </trkpt>
      <trkpt lat="44.28782" lon="6.89929">
        <ele>1370</ele>
        <time>2019-09-03T21:48:00Z</time>
      </trkpt>
      <trkpt lat="44.28798" lon="6.89929">
        <ele>1373</ele>
        <time>2019-09-03T21:48:03Z</time>
      </trkpt>
      <trkpt lat="44.28816" lon="6.89947">
        <ele>1370</ele>
        <time>2019-09-03T21:48:07Z</time>
      </trkpt>
      <trkpt lat="44.28836" lon="6.89953">
        <ele>1370</ele>
        <time>2019-09-03T21:48:10Z</time>
      </trkpt>
      <trkpt lat="44.28855" lon="6.89955">
        <ele>1372</ele>
        <time>2019-09-03T21:48:14Z</time>
      </trkpt>
      <trkpt lat="44.28882" lon="6.8994">
        <ele>1382</ele>
        <time>2019-09-03T21:48:19Z</time>
      </trkpt>
      <trkpt lat="44.28895" lon="6.8994">
        <ele>1384</ele>
        <time>2019-09-03T21:48:21Z</time>
      </trkpt>
      <trkpt lat="44.28914" lon="6.89952">
        <ele>1381</ele>
        <time>2019-09-03T21:48:25Z</time>
      </trkpt>
      <trkpt lat="44.28938" lon="6.89964">
        <ele>1380</ele>
        <time>2019-09-03T21:48:29Z</time>
      </trkpt>
      <trkpt lat="44.28968" lon="6.89984">
        <ele>1377</ele>
        <time>2019-09-03T21:48:35Z</time>
      </trkpt>
      <trkpt lat="44.28983" lon="6.89998">
        <ele>1373</ele>
        <time>2019-09-03T21:48:38Z</time>
      </trkpt>
      <trkpt lat="44.2901" lon="6.89999">
        <ele>1380</ele>
        <time>2019-09-03T21:48:43Z</time>
      </trkpt>
      <trkpt lat="44.29046" lon="6.89984">
        <ele>1398</ele>
        <time>2019-09-03T21:48:50Z</time>
      </trkpt>
      <trkpt lat="44.29057" lon="6.89985">
        <ele>1401</ele>
        <time>2019-09-03T21:48:52Z</time>
      </trkpt>
      <trkpt lat="44.29067" lon="6.89998">
        <ele>1398</ele>
        <time>2019-09-03T21:48:54Z</time>
      </trkpt>
      <trkpt lat="44.29072" lon="6.90015">
        <ele>1394</ele>
        <time>2019-09-03T21:48:57Z</time>
      </trkpt>
      <trkpt lat="44.29073" lon="6.90046">
        <ele>1384</ele>
        <time>2019-09-03T21:49:01Z</time>
      </trkpt>
      <trkpt lat="44.29078" lon="6.90064">
        <ele>1380</ele>
        <time>2019-09-03T21:49:03Z</time>
      </trkpt>
      <trkpt lat="44.2911" lon="6.90098">
        <ele>1383</ele>
        <time>2019-09-03T21:49:10Z</time>
      </trkpt>
      <trkpt lat="44.29129" lon="6.90108">
        <ele>1387</ele>
        <time>2019-09-03T21:49:14Z</time>
      </trkpt>
      <trkpt lat="44.29155" lon="6.90111">
        <ele>1393</ele>
        <time>2019-09-03T21:49:18Z</time>
      </trkpt>
      <trkpt lat="44.29213" lon="6.90104">
        <ele>1413</ele>
        <time>2019-09-03T21:49:29Z</time>
      </trkpt>
      <trkpt lat="44.29221" lon="6.90111">
        <ele>1412</ele>
        <time>2019-09-03T21:49:30Z</time>
      </trkpt>
      <trkpt lat="44.29231" lon="6.90133">
        <ele>1404</ele>
        <time>2019-09-03T21:49:34Z</time>
      </trkpt>
      <trkpt lat="44.29257" lon="6.90132">
        <ele>1411</ele>
        <time>2019-09-03T21:49:38Z</time>
      </trkpt>
      <trkpt lat="44.29293" lon="6.90151">
        <ele>1409</ele>
        <time>2019-09-03T21:49:45Z</time>
      </trkpt>
      <trkpt lat="44.29337" lon="6.90166">
        <ele>1410</ele>
        <time>2019-09-03T21:49:53Z</time>
      </trkpt>
      <trkpt lat="44.29399" lon="6.90169">
        <ele>1422</ele>
        <time>2019-09-03T21:50:04Z</time>
      </trkpt>
      <trkpt lat="44.29467" lon="6.90169">
        <ele>1437</ele>
        <time>2019-09-03T21:50:16Z</time>
      </trkpt>
      <trkpt lat="44.29511" lon="6.90177">
        <ele>1440</ele>
        <time>2019-09-03T21:50:24Z</time>
      </trkpt>
      <trkpt lat="44.29547" lon="6.9017">
        <ele>1440</ele>
        <time>2019-09-03T21:50:31Z</time>
      </trkpt>
      <trkpt lat="44.29564" lon="6.90162">
        <ele>1445</ele>
        <time>2019-09-03T21:50:34Z</time>
      </trkpt>
      <trkpt lat="44.29593" lon="6.90169">
        <ele>1437</ele>
        <time>2019-09-03T21:50:39Z</time>
      </trkpt>
      <trkpt lat="44.29623" lon="6.90159">
        <ele>1441</ele>
        <time>2019-09-03T21:50:45Z</time>
      </trkpt>
      <trkpt lat="44.29641" lon="6.90162">
        <ele>1436</ele>
        <time>2019-09-03T21:50:48Z</time>
      </trkpt>
      <trkpt lat="44.29657" lon="6.90168">
        <ele>1430</ele>
        <time>2019-09-03T21:50:51Z</time>
      </trkpt>
      <trkpt lat="44.29696" lon="6.90155">
        <ele>1439</ele>
        <time>2019-09-03T21:50:58Z</time>
      </trkpt>
      <trkpt lat="44.29734" lon="6.90153">
        <ele>1442</ele>
        <time>2019-09-03T21:51:05Z</time>
      </trkpt>
      <trkpt lat="44.29752" lon="6.90157">
        <ele>1440</ele>
        <time>2019-09-03T21:51:08Z</time>
      </trkpt>
      <trkpt lat="44.29781" lon="6.90153">
        <ele>1444</ele>
        <time>2019-09-03T21:51:13Z</time>
      </trkpt>
      <trkpt lat="44.29837" lon="6.90166">
        <ele>1438</ele>
        <time>2019-09-03T21:51:23Z</time>
      </trkpt>
      <trkpt lat="44.29871" lon="6.90172">
        <ele>1442</ele>
        <time>2019-09-03T21:51:29Z</time>
      </trkpt>
      <trkpt lat="44.29912" lon="6.90192">
        <ele>1444</ele>
        <time>2019-09-03T21:51:37Z</time>
      </trkpt>
      <trkpt lat="44.29923" lon="6.90194">
        <ele>1445</ele>
        <time>2019-09-03T21:51:39Z</time>
      </trkpt>
      <trkpt lat="44.2998" lon="6.90178">
        <ele>1455</ele>
        <time>2019-09-03T21:51:49Z</time>
      </trkpt>
      <trkpt lat="44.29991" lon="6.90181">
        <ele>1456</ele>
        <time>2019-09-03T21:51:51Z</time>
      </trkpt>
      <trkpt lat="44.3004" lon="6.90214">
        <ele>1455</ele>
        <time>2019-09-03T21:52:01Z</time>
      </trkpt>
      <trkpt lat="44.30062" lon="6.90223">
        <ele>1456</ele>
        <time>2019-09-03T21:52:05Z</time>
      </trkpt>
      <trkpt lat="44.30077" lon="6.90234">
        <ele>1454</ele>
        <time>2019-09-03T21:52:08Z</time>
      </trkpt>
      <trkpt lat="44.30107" lon="6.90244">
        <ele>1452</ele>
        <time>2019-09-03T21:52:14Z</time>
      </trkpt>
      <trkpt lat="44.30122" lon="6.9026">
        <ele>1452</ele>
        <time>2019-09-03T21:52:17Z</time>
      </trkpt>
      <trkpt lat="44.30134" lon="6.903">
        <ele>1458</ele>
        <time>2019-09-03T21:52:23Z</time>
      </trkpt>
      <trkpt lat="44.30143" lon="6.90319">
        <ele>1459</ele>
        <time>2019-09-03T21:52:26Z</time>
      </trkpt>
      <trkpt lat="44.30156" lon="6.90328">
        <ele>1458</ele>
        <time>2019-09-03T21:52:28Z</time>
      </trkpt>
      <trkpt lat="44.30181" lon="6.90337">
        <ele>1460</ele>
        <time>2019-09-03T21:52:33Z</time>
      </trkpt>
      <trkpt lat="44.30219" lon="6.90339">
        <ele>1465</ele>
        <time>2019-09-03T21:52:39Z</time>
      </trkpt>
      <trkpt lat="44.30313" lon="6.90325">
        <ele>1471</ele>
        <time>2019-09-03T21:52:56Z</time>
      </trkpt>
      <trkpt lat="44.30346" lon="6.90331">
        <ele>1472</ele>
        <time>2019-09-03T21:53:02Z</time>
      </trkpt>
      <trkpt lat="44.30401" lon="6.9035">
        <ele>1476</ele>
        <time>2019-09-03T21:53:12Z</time>
      </trkpt>
      <trkpt lat="44.30435" lon="6.90375">
        <ele>1482</ele>
        <time>2019-09-03T21:53:19Z</time>
      </trkpt>
      <trkpt lat="44.30475" lon="6.90413">
        <ele>1488</ele>
        <time>2019-09-03T21:53:28Z</time>
      </trkpt>
      <trkpt lat="44.30508" lon="6.90453">
        <ele>1499</ele>
        <time>2019-09-03T21:53:35Z</time>
      </trkpt>
      <trkpt lat="44.30526" lon="6.90464">
        <ele>1505</ele>
        <time>2019-09-03T21:53:39Z</time>
      </trkpt>
      <trkpt lat="44.30537" lon="6.9046">
        <ele>1506</ele>
        <time>2019-09-03T21:53:41Z</time>
      </trkpt>
      <trkpt lat="44.30544" lon="6.90449">
        <ele>1504</ele>
        <time>2019-09-03T21:53:43Z</time>
      </trkpt>
      <trkpt lat="44.30547" lon="6.9043">
        <ele>1500</ele>
        <time>2019-09-03T21:53:45Z</time>
      </trkpt>
      <trkpt lat="44.30547" lon="6.90395">
        <ele>1494</ele>
        <time>2019-09-03T21:53:50Z</time>
      </trkpt>
      <trkpt lat="44.30557" lon="6.90359">
        <ele>1492</ele>
        <time>2019-09-03T21:53:55Z</time>
      </trkpt>
      <trkpt lat="44.30568" lon="6.90331">
        <ele>1493</ele>
        <time>2019-09-03T21:53:59Z</time>
      </trkpt>
      <trkpt lat="44.30573" lon="6.90332">
        <ele>1494</ele>
        <time>2019-09-03T21:54:00Z</time>
      </trkpt>
      <trkpt lat="44.30575" lon="6.90335">
        <ele>1494</ele>
        <time>2019-09-03T21:54:00Z</time>
      </trkpt>
      <trkpt lat="44.30575" lon="6.90342">
        <ele>1495</ele>
        <time>2019-09-03T21:54:01Z</time>
      </trkpt>
      <trkpt lat="44.3057" lon="6.90365">
        <ele>1496</ele>
        <time>2019-09-03T21:54:04Z</time>
      </trkpt>
      <trkpt lat="44.30567" lon="6.9039">
        <ele>1499</ele>
        <time>2019-09-03T21:54:07Z</time>
      </trkpt>
      <trkpt lat="44.30567" lon="6.90435">
        <ele>1505</ele>
        <time>2019-09-03T21:54:13Z</time>
      </trkpt>
      <trkpt lat="44.30564" lon="6.9047">
        <ele>1511</ele>
        <time>2019-09-03T21:54:18Z</time>
      </trkpt>
      <trkpt lat="44.30559" lon="6.90493">
        <ele>1516</ele>
        <time>2019-09-03T21:54:21Z</time>
      </trkpt>
      <trkpt lat="44.3056" lon="6.90501">
        <ele>1517</ele>
        <time>2019-09-03T21:54:22Z</time>
      </trkpt>
      <trkpt lat="44.30567" lon="6.90501">
        <ele>1518</ele>
        <time>2019-09-03T21:54:23Z</time>
      </trkpt>
      <trkpt lat="44.30571" lon="6.90496">
        <ele>1517</ele>
        <time>2019-09-03T21:54:24Z</time>
      </trkpt>
      <trkpt lat="44.3061" lon="6.90353">
        <ele>1507</ele>
        <time>2019-09-03T21:54:43Z</time>
      </trkpt>
      <trkpt lat="44.30618" lon="6.90332">
        <ele>1507</ele>
        <time>2019-09-03T21:54:46Z</time>
      </trkpt>
      <trkpt lat="44.30641" lon="6.90302">
        <ele>1512</ele>
        <time>2019-09-03T21:54:52Z</time>
      </trkpt>
      <trkpt lat="44.30663" lon="6.90292">
        <ele>1516</ele>
        <time>2019-09-03T21:54:56Z</time>
      </trkpt>
      <trkpt lat="44.30699" lon="6.90281">
        <ele>1521</ele>
        <time>2019-09-03T21:55:03Z</time>
      </trkpt>
      <trkpt lat="44.30764" lon="6.90244">
        <ele>1525</ele>
        <time>2019-09-03T21:55:15Z</time>
      </trkpt>
      <trkpt lat="44.30794" lon="6.90236">
        <ele>1531</ele>
        <time>2019-09-03T21:55:21Z</time>
      </trkpt>
      <trkpt lat="44.30852" lon="6.90207">
        <ele>1542</ele>
        <time>2019-09-03T21:55:32Z</time>
      </trkpt>
      <trkpt lat="44.30884" lon="6.90203">
        <ele>1547</ele>
        <time>2019-09-03T21:55:37Z</time>
      </trkpt>
      <trkpt lat="44.30909" lon="6.90193">
        <ele>1549</ele>
        <time>2019-09-03T21:55:42Z</time>
      </trkpt>
      <trkpt lat="44.3094" lon="6.90169">
        <ele>1547</ele>
        <time>2019-09-03T21:55:48Z</time>
      </trkpt>
      <trkpt lat="44.30979" lon="6.90133">
        <ele>1554</ele>
        <time>2019-09-03T21:55:57Z</time>
      </trkpt>
      <trkpt lat="44.3101" lon="6.90112">
        <ele>1554</ele>
        <time>2019-09-03T21:56:03Z</time>
      </trkpt>
      <trkpt lat="44.31052" lon="6.90097">
        <ele>1553</ele>
        <time>2019-09-03T21:56:10Z</time>
      </trkpt>
      <trkpt lat="44.31076" lon="6.90096">
        <ele>1553</ele>
        <time>2019-09-03T21:56:15Z</time>
      </trkpt>
      <trkpt lat="44.31092" lon="6.90098">
        <ele>1557</ele>
        <time>2019-09-03T21:56:18Z</time>
      </trkpt>
      <trkpt lat="44.31108" lon="6.90095">
        <ele>1559</ele>
        <time>2019-09-03T21:56:20Z</time>
      </trkpt>
      <trkpt lat="44.31128" lon="6.90081">
        <ele>1559</ele>
        <time>2019-09-03T21:56:24Z</time>
      </trkpt>
      <trkpt lat="44.31159" lon="6.90071">
        <ele>1564</ele>
        <time>2019-09-03T21:56:30Z</time>
      </trkpt>
      <trkpt lat="44.31196" lon="6.90067">
        <ele>1569</ele>
        <time>2019-09-03T21:56:37Z</time>
      </trkpt>
      <trkpt lat="44.31227" lon="6.90045">
        <ele>1569</ele>
        <time>2019-09-03T21:56:43Z</time>
      </trkpt>
      <trkpt lat="44.31297" lon="6.90064">
        <ele>1575</ele>
        <time>2019-09-03T21:56:56Z</time>
      </trkpt>
      <trkpt lat="44.31369" lon="6.90089">
        <ele>1583</ele>
        <time>2019-09-03T21:57:09Z</time>
      </trkpt>
      <trkpt lat="44.31401" lon="6.90094">
        <ele>1586</ele>
        <time>2019-09-03T21:57:14Z</time>
      </trkpt>
      <trkpt lat="44.31428" lon="6.90093">
        <ele>1588</ele>
        <time>2019-09-03T21:57:19Z</time>
      </trkpt>
      <trkpt lat="44.31448" lon="6.90087">
        <ele>1588</ele>
        <time>2019-09-03T21:57:23Z</time>
      </trkpt>
      <trkpt lat="44.31475" lon="6.90071">
        <ele>1587</ele>
        <time>2019-09-03T21:57:28Z</time>
      </trkpt>
      <trkpt lat="44.31515" lon="6.90059">
        <ele>1589</ele>
        <time>2019-09-03T21:57:35Z</time>
      </trkpt>
      <trkpt lat="44.31564" lon="6.9005">
        <ele>1593</ele>
        <time>2019-09-03T21:57:44Z</time>
      </trkpt>
      <trkpt lat="44.31596" lon="6.90038">
        <ele>1594</ele>
        <time>2019-09-03T21:57:50Z</time>
      </trkpt>
      <trkpt lat="44.31618" lon="6.90023">
        <ele>1594</ele>
        <time>2019-09-03T21:57:54Z</time>
      </trkpt>
      <trkpt lat="44.31641" lon="6.9">
        <ele>1591</ele>
        <time>2019-09-03T21:57:59Z</time>
      </trkpt>
      <trkpt lat="44.31705" lon="6.89955">
        <ele>1601</ele>
        <time>2019-09-03T21:58:12Z</time>
      </trkpt>
      <trkpt lat="44.31747" lon="6.89906">
        <ele>1601</ele>
        <time>2019-09-03T21:58:22Z</time>
      </trkpt>
      <trkpt lat="44.31771" lon="6.89868">
        <ele>1608</ele>
        <time>2019-09-03T21:58:28Z</time>
      </trkpt>
      <trkpt lat="44.31802" lon="6.89798">
        <ele>1611</ele>
        <time>2019-09-03T21:58:39Z</time>
      </trkpt>
      <trkpt lat="44.31824" lon="6.89763">
        <ele>1613</ele>
        <time>2019-09-03T21:58:45Z</time>
      </trkpt>
      <trkpt lat="44.31856" lon="6.89724">
        <ele>1623</ele>
        <time>2019-09-03T21:58:52Z</time>
      </trkpt>
      <trkpt lat="44.3187" lon="6.89703">
        <ele>1627</ele>
        <time>2019-09-03T21:58:56Z</time>
      </trkpt>
      <trkpt lat="44.31875" lon="6.89679">
        <ele>1625</ele>
        <time>2019-09-03T21:58:59Z</time>
      </trkpt>
      <trkpt lat="44.31885" lon="6.89614">
        <ele>1622</ele>
        <time>2019-09-03T21:59:08Z</time>
      </trkpt>
      <trkpt lat="44.319" lon="6.89563">
        <ele>1622</ele>
        <time>2019-09-03T21:59:15Z</time>
      </trkpt>
      <trkpt lat="44.31913" lon="6.89531">
        <ele>1621</ele>
        <time>2019-09-03T21:59:19Z</time>
      </trkpt>
      <trkpt lat="44.31943" lon="6.89478">
        <ele>1632</ele>
        <time>2019-09-03T21:59:28Z</time>
      </trkpt>
      <trkpt lat="44.31951" lon="6.89459">
        <ele>1635</ele>
        <time>2019-09-03T21:59:31Z</time>
      </trkpt>
      <trkpt lat="44.31958" lon="6.89423">
        <ele>1633</ele>
        <time>2019-09-03T21:59:36Z</time>
      </trkpt>
      <trkpt lat="44.31964" lon="6.89403">
        <ele>1633</ele>
        <time>2019-09-03T21:59:38Z</time>
      </trkpt>
      <trkpt lat="44.31986" lon="6.89382">
        <ele>1641</ele>
        <time>2019-09-03T21:59:43Z</time>
      </trkpt>
      <trkpt lat="44.31994" lon="6.89372">
        <ele>1643</ele>
        <time>2019-09-03T21:59:45Z</time>
      </trkpt>
      <trkpt lat="44.32031" lon="6.8928">
        <ele>1651</ele>
        <time>2019-09-03T21:59:58Z</time>
      </trkpt>
      <trkpt lat="44.32054" lon="6.89129">
        <ele>1649</ele>
        <time>2019-09-03T22:00:18Z</time>
      </trkpt>
      <trkpt lat="44.32068" lon="6.88983">
        <ele>1654</ele>
        <time>2019-09-03T22:00:37Z</time>
      </trkpt>
      <trkpt lat="44.3208" lon="6.88946">
        <ele>1655</ele>
        <time>2019-09-03T22:00:42Z</time>
      </trkpt>
      <trkpt lat="44.32102" lon="6.88892">
        <ele>1659</ele>
        <time>2019-09-03T22:00:50Z</time>
      </trkpt>
      <trkpt lat="44.32122" lon="6.88847">
        <ele>1662</ele>
        <time>2019-09-03T22:00:57Z</time>
      </trkpt>
      <trkpt lat="44.32151" lon="6.88772">
        <ele>1664</ele>
        <time>2019-09-03T22:01:07Z</time>
      </trkpt>
      <trkpt lat="44.32161" lon="6.88738">
        <ele>1662</ele>
        <time>2019-09-03T22:01:12Z</time>
      </trkpt>
      <trkpt lat="44.32182" lon="6.88688">
        <ele>1660</ele>
        <time>2019-09-03T22:01:20Z</time>
      </trkpt>
      <trkpt lat="44.32334" lon="6.88465">
        <ele>1674</ele>
        <time>2019-09-03T22:01:59Z</time>
      </trkpt>
      <trkpt lat="44.32349" lon="6.88445">
        <ele>1678</ele>
        <time>2019-09-03T22:02:02Z</time>
      </trkpt>
      <trkpt lat="44.32357" lon="6.88422">
        <ele>1678</ele>
        <time>2019-09-03T22:02:06Z</time>
      </trkpt>
      <trkpt lat="44.32358" lon="6.88402">
        <ele>1680</ele>
        <time>2019-09-03T22:02:08Z</time>
      </trkpt>
      <trkpt lat="44.32357" lon="6.88355">
        <ele>1684</ele>
        <time>2019-09-03T22:02:14Z</time>
      </trkpt>
      <trkpt lat="44.32355" lon="6.88341">
        <ele>1685</ele>
        <time>2019-09-03T22:02:16Z</time>
      </trkpt>
      <trkpt lat="44.32344" lon="6.88332">
        <ele>1684</ele>
        <time>2019-09-03T22:02:18Z</time>
      </trkpt>
      <trkpt lat="44.32322" lon="6.88308">
        <ele>1687</ele>
        <time>2019-09-03T22:02:23Z</time>
      </trkpt>
      <trkpt lat="44.32297" lon="6.88266">
        <ele>1694</ele>
        <time>2019-09-03T22:02:30Z</time>
      </trkpt>
      <trkpt lat="44.32265" lon="6.88246">
        <ele>1691</ele>
        <time>2019-09-03T22:02:36Z</time>
      </trkpt>
      <trkpt lat="44.32247" lon="6.88225">
        <ele>1691</ele>
        <time>2019-09-03T22:02:41Z</time>
      </trkpt>
      <trkpt lat="44.32233" lon="6.88199">
        <ele>1693</ele>
        <time>2019-09-03T22:02:45Z</time>
      </trkpt>
      <trkpt lat="44.32205" lon="6.88117">
        <ele>1699</ele>
        <time>2019-09-03T22:02:56Z</time>
      </trkpt>
      <trkpt lat="44.32194" lon="6.88075">
        <ele>1703</ele>
        <time>2019-09-03T22:03:02Z</time>
      </trkpt>
      <trkpt lat="44.3219" lon="6.88042">
        <ele>1711</ele>
        <time>2019-09-03T22:03:06Z</time>
      </trkpt>
      <trkpt lat="44.32177" lon="6.88001">
        <ele>1714</ele>
        <time>2019-09-03T22:03:12Z</time>
      </trkpt>
      <trkpt lat="44.32168" lon="6.87981">
        <ele>1713</ele>
        <time>2019-09-03T22:03:15Z</time>
      </trkpt>
      <trkpt lat="44.32158" lon="6.87943">
        <ele>1718</ele>
        <time>2019-09-03T22:03:20Z</time>
      </trkpt>
      <trkpt lat="44.32151" lon="6.87898">
        <ele>1725</ele>
        <time>2019-09-03T22:03:26Z</time>
      </trkpt>
      <trkpt lat="44.32142" lon="6.87867">
        <ele>1729</ele>
        <time>2019-09-03T22:03:30Z</time>
      </trkpt>
      <trkpt lat="44.32118" lon="6.87812">
        <ele>1729</ele>
        <time>2019-09-03T22:03:38Z</time>
      </trkpt>
      <trkpt lat="44.32112" lon="6.87783">
        <ele>1732</ele>
        <time>2019-09-03T22:03:42Z</time>
      </trkpt>
      <trkpt lat="44.32106" lon="6.87765">
        <ele>1732</ele>
        <time>2019-09-03T22:03:45Z</time>
      </trkpt>
      <trkpt lat="44.32076" lon="6.87711">
        <ele>1730</ele>
        <time>2019-09-03T22:03:54Z</time>
      </trkpt>
      <trkpt lat="44.3207" lon="6.87686">
        <ele>1734</ele>
        <time>2019-09-03T22:03:57Z</time>
      </trkpt>
      <trkpt lat="44.32067" lon="6.87651">
        <ele>1739</ele>
        <time>2019-09-03T22:04:01Z</time>
      </trkpt>
      <trkpt lat="44.32061" lon="6.87632">
        <ele>1740</ele>
        <time>2019-09-03T22:04:04Z</time>
      </trkpt>
      <trkpt lat="44.32051" lon="6.8761">
        <ele>1740</ele>
        <time>2019-09-03T22:04:07Z</time>
      </trkpt>
      <trkpt lat="44.32033" lon="6.8753">
        <ele>1747</ele>
        <time>2019-09-03T22:04:18Z</time>
      </trkpt>
      <trkpt lat="44.32009" lon="6.87481">
        <ele>1743</ele>
        <time>2019-09-03T22:04:26Z</time>
      </trkpt>
      <trkpt lat="44.32006" lon="6.87465">
        <ele>1745</ele>
        <time>2019-09-03T22:04:28Z</time>
      </trkpt>
      <trkpt lat="44.32" lon="6.87405">
        <ele>1752</ele>
        <time>2019-09-03T22:04:35Z</time>
      </trkpt>
      <trkpt lat="44.31972" lon="6.87218">
        <ele>1770</ele>
        <time>2019-09-03T22:05:00Z</time>
      </trkpt>
      <trkpt lat="44.31964" lon="6.87147">
        <ele>1771</ele>
        <time>2019-09-03T22:05:09Z</time>
      </trkpt>
      <trkpt lat="44.31958" lon="6.87108">
        <ele>1770</ele>
        <time>2019-09-03T22:05:14Z</time>
      </trkpt>
      <trkpt lat="44.31958" lon="6.87073">
        <ele>1771</ele>
        <time>2019-09-03T22:05:18Z</time>
      </trkpt>
      <trkpt lat="44.31963" lon="6.86982">
        <ele>1776</ele>
        <time>2019-09-03T22:05:30Z</time>
      </trkpt>
      <trkpt lat="44.3197" lon="6.86904">
        <ele>1782</ele>
        <time>2019-09-03T22:05:40Z</time>
      </trkpt>
      <trkpt lat="44.31971" lon="6.86873">
        <ele>1784</ele>
        <time>2019-09-03T22:05:44Z</time>
      </trkpt>
      <trkpt lat="44.31968" lon="6.86849">
        <ele>1784</ele>
        <time>2019-09-03T22:05:47Z</time>
      </trkpt>
      <trkpt lat="44.31982" lon="6.86775">
        <ele>1789</ele>
        <time>2019-09-03T22:05:57Z</time>
      </trkpt>
      <trkpt lat="44.31993" lon="6.86645">
        <ele>1788</ele>
        <time>2019-09-03T22:06:13Z</time>
      </trkpt>
      <trkpt lat="44.31996" lon="6.86634">
        <ele>1787</ele>
        <time>2019-09-03T22:06:15Z</time>
      </trkpt>
      <trkpt lat="44.32006" lon="6.86629">
        <ele>1789</ele>
        <time>2019-09-03T22:06:17Z</time>
      </trkpt>
      <trkpt lat="44.32007" lon="6.86645">
        <ele>1790</ele>
        <time>2019-09-03T22:06:19Z</time>
      </trkpt>
      <trkpt lat="44.32004" lon="6.86696">
        <ele>1791</ele>
        <time>2019-09-03T22:06:25Z</time>
      </trkpt>
      <trkpt lat="44.32009" lon="6.8679">
        <ele>1796</ele>
        <time>2019-09-03T22:06:37Z</time>
      </trkpt>
      <trkpt lat="44.32005" lon="6.8683">
        <ele>1796</ele>
        <time>2019-09-03T22:06:43Z</time>
      </trkpt>
      <trkpt lat="44.32009" lon="6.8684">
        <ele>1799</ele>
        <time>2019-09-03T22:06:44Z</time>
      </trkpt>
      <trkpt lat="44.32015" lon="6.86842">
        <ele>1802</ele>
        <time>2019-09-03T22:06:45Z</time>
      </trkpt>
      <trkpt lat="44.32019" lon="6.86836">
        <ele>1805</ele>
        <time>2019-09-03T22:06:46Z</time>
      </trkpt>
      <trkpt lat="44.32022" lon="6.86785">
        <ele>1804</ele>
        <time>2019-09-03T22:06:53Z</time>
      </trkpt>
      <trkpt lat="44.32027" lon="6.86747">
        <ele>1805</ele>
        <time>2019-09-03T22:06:58Z</time>
      </trkpt>
      <trkpt lat="44.32033" lon="6.86709">
        <ele>1807</ele>
        <time>2019-09-03T22:07:03Z</time>
      </trkpt>
      <trkpt lat="44.32044" lon="6.86664">
        <ele>1810</ele>
        <time>2019-09-03T22:07:09Z</time>
      </trkpt>
      <trkpt lat="44.32077" lon="6.8657">
        <ele>1816</ele>
        <time>2019-09-03T22:07:22Z</time>
      </trkpt>
      <trkpt lat="44.32085" lon="6.86557">
        <ele>1818</ele>
        <time>2019-09-03T22:07:24Z</time>
      </trkpt>
      <trkpt lat="44.32095" lon="6.86548">
        <ele>1823</ele>
        <time>2019-09-03T22:07:26Z</time>
      </trkpt>
      <trkpt lat="44.32098" lon="6.86534">
        <ele>1824</ele>
        <time>2019-09-03T22:07:28Z</time>
      </trkpt>
      <trkpt lat="44.32098" lon="6.86489">
        <ele>1820</ele>
        <time>2019-09-03T22:07:34Z</time>
      </trkpt>
      <trkpt lat="44.32108" lon="6.86433">
        <ele>1825</ele>
        <time>2019-09-03T22:07:41Z</time>
      </trkpt>
      <trkpt lat="44.32109" lon="6.86388">
        <ele>1827</ele>
        <time>2019-09-03T22:07:47Z</time>
      </trkpt>
      <trkpt lat="44.32102" lon="6.86325">
        <ele>1829</ele>
        <time>2019-09-03T22:07:55Z</time>
      </trkpt>
      <trkpt lat="44.32097" lon="6.86238">
        <ele>1841</ele>
        <time>2019-09-03T22:08:06Z</time>
      </trkpt>
      <trkpt lat="44.32089" lon="6.86194">
        <ele>1843</ele>
        <time>2019-09-03T22:08:12Z</time>
      </trkpt>
      <trkpt lat="44.32086" lon="6.86148">
        <ele>1844</ele>
        <time>2019-09-03T22:08:18Z</time>
      </trkpt>
      <trkpt lat="44.32091" lon="6.86132">
        <ele>1846</ele>
        <time>2019-09-03T22:08:20Z</time>
      </trkpt>
      <trkpt lat="44.32112" lon="6.86113">
        <ele>1853</ele>
        <time>2019-09-03T22:08:24Z</time>
      </trkpt>
      <trkpt lat="44.32119" lon="6.86101">
        <ele>1855</ele>
        <time>2019-09-03T22:08:26Z</time>
      </trkpt>
      <trkpt lat="44.32128" lon="6.86073">
        <ele>1855</ele>
        <time>2019-09-03T22:08:30Z</time>
      </trkpt>
      <trkpt lat="44.32144" lon="6.86041">
        <ele>1857</ele>
        <time>2019-09-03T22:08:35Z</time>
      </trkpt>
      <trkpt lat="44.32155" lon="6.86027">
        <ele>1858</ele>
        <time>2019-09-03T22:08:38Z</time>
      </trkpt>
      <trkpt lat="44.32203" lon="6.85994">
        <ele>1865</ele>
        <time>2019-09-03T22:08:47Z</time>
      </trkpt>
      <trkpt lat="44.32251" lon="6.85925">
        <ele>1869</ele>
        <time>2019-09-03T22:09:00Z</time>
      </trkpt>
      <trkpt lat="44.32256" lon="6.85921">
        <ele>1871</ele>
        <time>2019-09-03T22:09:01Z</time>
      </trkpt>
      <trkpt lat="44.3226" lon="6.85921">
        <ele>1873</ele>
        <time>2019-09-03T22:09:01Z</time>
      </trkpt>
      <trkpt lat="44.32265" lon="6.85925">
        <ele>1875</ele>
        <time>2019-09-03T22:09:02Z</time>
      </trkpt>
      <trkpt lat="44.32266" lon="6.85931">
        <ele>1876</ele>
        <time>2019-09-03T22:09:03Z</time>
      </trkpt>
      <trkpt lat="44.32262" lon="6.85946">
        <ele>1876</ele>
        <time>2019-09-03T22:09:05Z</time>
      </trkpt>
      <trkpt lat="44.32253" lon="6.85969">
        <ele>1876</ele>
        <time>2019-09-03T22:09:09Z</time>
      </trkpt>
      <trkpt lat="44.32245" lon="6.85983">
        <ele>1875</ele>
        <time>2019-09-03T22:09:11Z</time>
      </trkpt>
      <trkpt lat="44.32234" lon="6.85995">
        <ele>1873</ele>
        <time>2019-09-03T22:09:13Z</time>
      </trkpt>
      <trkpt lat="44.32229" lon="6.86004">
        <ele>1873</ele>
        <time>2019-09-03T22:09:15Z</time>
      </trkpt>
      <trkpt lat="44.32213" lon="6.86086">
        <ele>1882</ele>
        <time>2019-09-03T22:09:26Z</time>
      </trkpt>
      <trkpt lat="44.32201" lon="6.8611">
        <ele>1884</ele>
        <time>2019-09-03T22:09:29Z</time>
      </trkpt>
      <trkpt lat="44.32186" lon="6.86118">
        <ele>1882</ele>
        <time>2019-09-03T22:09:32Z</time>
      </trkpt>
      <trkpt lat="44.32161" lon="6.86137">
        <ele>1879</ele>
        <time>2019-09-03T22:09:37Z</time>
      </trkpt>
      <trkpt lat="44.32156" lon="6.86148">
        <ele>1879</ele>
        <time>2019-09-03T22:09:39Z</time>
      </trkpt>
      <trkpt lat="44.32156" lon="6.86158">
        <ele>1881</ele>
        <time>2019-09-03T22:09:40Z</time>
      </trkpt>
      <trkpt lat="44.32178" lon="6.86204">
        <ele>1888</ele>
        <time>2019-09-03T22:09:47Z</time>
      </trkpt>
      <trkpt lat="44.32198" lon="6.8624">
        <ele>1891</ele>
        <time>2019-09-03T22:09:53Z</time>
      </trkpt>
      <trkpt lat="44.32206" lon="6.86249">
        <ele>1893</ele>
        <time>2019-09-03T22:09:55Z</time>
      </trkpt>
      <trkpt lat="44.32236" lon="6.86273">
        <ele>1899</ele>
        <time>2019-09-03T22:10:01Z</time>
      </trkpt>
      <trkpt lat="44.32243" lon="6.86281">
        <ele>1901</ele>
        <time>2019-09-03T22:10:03Z</time>
      </trkpt>
      <trkpt lat="44.32247" lon="6.86292">
        <ele>1901</ele>
        <time>2019-09-03T22:10:04Z</time>
      </trkpt>
      <trkpt lat="44.32251" lon="6.86345">
        <ele>1898</ele>
        <time>2019-09-03T22:10:11Z</time>
      </trkpt>
      <trkpt lat="44.32249" lon="6.86389">
        <ele>1898</ele>
        <time>2019-09-03T22:10:17Z</time>
      </trkpt>
      <trkpt lat="44.32252" lon="6.86394">
        <ele>1899</ele>
        <time>2019-09-03T22:10:17Z</time>
      </trkpt>
      <trkpt lat="44.32256" lon="6.86396">
        <ele>1901</ele>
        <time>2019-09-03T22:10:18Z</time>
      </trkpt>
      <trkpt lat="44.32262" lon="6.86393">
        <ele>1904</ele>
        <time>2019-09-03T22:10:19Z</time>
      </trkpt>
      <trkpt lat="44.32266" lon="6.86386">
        <ele>1906</ele>
        <time>2019-09-03T22:10:21Z</time>
      </trkpt>
      <trkpt lat="44.32274" lon="6.86362">
        <ele>1909</ele>
        <time>2019-09-03T22:10:24Z</time>
      </trkpt>
      <trkpt lat="44.32277" lon="6.86334">
        <ele>1909</ele>
        <time>2019-09-03T22:10:28Z</time>
      </trkpt>
      <trkpt lat="44.32281" lon="6.86316">
        <ele>1911</ele>
        <time>2019-09-03T22:10:30Z</time>
      </trkpt>
      <trkpt lat="44.32289" lon="6.86295">
        <ele>1915</ele>
        <time>2019-09-03T22:10:33Z</time>
      </trkpt>
      <trkpt lat="44.323" lon="6.86277">
        <ele>1918</ele>
        <time>2019-09-03T22:10:36Z</time>
      </trkpt>
      <trkpt lat="44.32302" lon="6.8626">
        <ele>1919</ele>
        <time>2019-09-03T22:10:38Z</time>
      </trkpt>
      <trkpt lat="44.32301" lon="6.86246">
        <ele>1918</ele>
        <time>2019-09-03T22:10:40Z</time>
      </trkpt>
      <trkpt lat="44.32294" lon="6.8623">
        <ele>1917</ele>
        <time>2019-09-03T22:10:42Z</time>
      </trkpt>
      <trkpt lat="44.32273" lon="6.86203">
        <ele>1912</ele>
        <time>2019-09-03T22:10:47Z</time>
      </trkpt>
      <trkpt lat="44.3227" lon="6.86185">
        <ele>1912</ele>
        <time>2019-09-03T22:10:50Z</time>
      </trkpt>
      <trkpt lat="44.32274" lon="6.8618">
        <ele>1913</ele>
        <time>2019-09-03T22:10:51Z</time>
      </trkpt>
      <trkpt lat="44.32281" lon="6.86174">
        <ele>1915</ele>
        <time>2019-09-03T22:10:52Z</time>
      </trkpt>
      <trkpt lat="44.32306" lon="6.86163">
        <ele>1921</ele>
        <time>2019-09-03T22:10:57Z</time>
      </trkpt>
      <trkpt lat="44.32316" lon="6.86155">
        <ele>1922</ele>
        <time>2019-09-03T22:10:59Z</time>
      </trkpt>
      <trkpt lat="44.32334" lon="6.86135">
        <ele>1924</ele>
        <time>2019-09-03T22:11:03Z</time>
      </trkpt>
      <trkpt lat="44.32341" lon="6.86123">
        <ele>1926</ele>
        <time>2019-09-03T22:11:05Z</time>
      </trkpt>
      <trkpt lat="44.32356" lon="6.86088">
        <ele>1928</ele>
        <time>2019-09-03T22:11:10Z</time>
      </trkpt>
      <trkpt lat="44.3236" lon="6.86071">
        <ele>1928</ele>
        <time>2019-09-03T22:11:12Z</time>
      </trkpt>
      <trkpt lat="44.32368" lon="6.85995">
        <ele>1928</ele>
        <time>2019-09-03T22:11:22Z</time>
      </trkpt>
      <trkpt lat="44.32374" lon="6.8598">
        <ele>1929</ele>
        <time>2019-09-03T22:11:24Z</time>
      </trkpt>
      <trkpt lat="44.32407" lon="6.85928">
        <ele>1936</ele>
        <time>2019-09-03T22:11:33Z</time>
      </trkpt>
      <trkpt lat="44.32426" lon="6.85905">
        <ele>1942</ele>
        <time>2019-09-03T22:11:38Z</time>
      </trkpt>
      <trkpt lat="44.32429" lon="6.85896">
        <ele>1943</ele>
        <time>2019-09-03T22:11:39Z</time>
      </trkpt>
      <trkpt lat="44.32432" lon="6.85874">
        <ele>1944</ele>
        <time>2019-09-03T22:11:42Z</time>
      </trkpt>
      <trkpt lat="44.32432" lon="6.85848">
        <ele>1943</ele>
        <time>2019-09-03T22:11:45Z</time>
      </trkpt>
      <trkpt lat="44.32426" lon="6.85821">
        <ele>1940</ele>
        <time>2019-09-03T22:11:49Z</time>
      </trkpt>
      <trkpt lat="44.32428" lon="6.85809">
        <ele>1941</ele>
        <time>2019-09-03T22:11:50Z</time>
      </trkpt>
      <trkpt lat="44.32475" lon="6.85678">
        <ele>1953</ele>
        <time>2019-09-03T22:12:09Z</time>
      </trkpt>
      <trkpt lat="44.32497" lon="6.85638">
        <ele>1958</ele>
        <time>2019-09-03T22:12:15Z</time>
      </trkpt>
      <trkpt lat="44.32509" lon="6.85604">
        <ele>1959</ele>
        <time>2019-09-03T22:12:20Z</time>
      </trkpt>
      <trkpt lat="44.32518" lon="6.85589">
        <ele>1960</ele>
        <time>2019-09-03T22:12:23Z</time>
      </trkpt>
      <trkpt lat="44.32548" lon="6.85557">
        <ele>1963</ele>
        <time>2019-09-03T22:12:29Z</time>
      </trkpt>
      <trkpt lat="44.32592" lon="6.85523">
        <ele>1970</ele>
        <time>2019-09-03T22:12:38Z</time>
      </trkpt>
      <trkpt lat="44.32599" lon="6.85514">
        <ele>1971</ele>
        <time>2019-09-03T22:12:40Z</time>
      </trkpt>
      <trkpt lat="44.32602" lon="6.85505">
        <ele>1972</ele>
        <time>2019-09-03T22:12:41Z</time>
      </trkpt>
      <trkpt lat="44.32603" lon="6.85488">
        <ele>1972</ele>
        <time>2019-09-03T22:12:43Z</time>
      </trkpt>
      <trkpt lat="44.32597" lon="6.85455">
        <ele>1970</ele>
        <time>2019-09-03T22:12:48Z</time>
      </trkpt>
      <trkpt lat="44.32598" lon="6.85436">
        <ele>1971</ele>
        <time>2019-09-03T22:12:50Z</time>
      </trkpt>
      <trkpt lat="44.32615" lon="6.8535">
        <ele>1976</ele>
        <time>2019-09-03T22:13:02Z</time>
      </trkpt>
      <trkpt lat="44.32619" lon="6.85338">
        <ele>1977</ele>
        <time>2019-09-03T22:13:03Z</time>
      </trkpt>
      <trkpt lat="44.32627" lon="6.85326">
        <ele>1980</ele>
        <time>2019-09-03T22:13:05Z</time>
      </trkpt>
      <trkpt lat="44.3264" lon="6.85303">
        <ele>1983</ele>
        <time>2019-09-03T22:13:09Z</time>
      </trkpt>
      <trkpt lat="44.32651" lon="6.85263">
        <ele>1984</ele>
        <time>2019-09-03T22:13:15Z</time>
      </trkpt>
      <trkpt lat="44.32656" lon="6.85229">
        <ele>1984</ele>
        <time>2019-09-03T22:13:19Z</time>
      </trkpt>
      <trkpt lat="44.32661" lon="6.85226">
        <ele>1986</ele>
        <time>2019-09-03T22:13:20Z</time>
      </trkpt>
      <trkpt lat="44.32665" lon="6.85228">
        <ele>1988</ele>
        <time>2019-09-03T22:13:21Z</time>
      </trkpt>
      <trkpt lat="44.32668" lon="6.85234">
        <ele>1989</ele>
        <time>2019-09-03T22:13:22Z</time>
      </trkpt>
      <trkpt lat="44.32666" lon="6.85293">
        <ele>1992</ele>
        <time>2019-09-03T22:13:29Z</time>
      </trkpt>
      <trkpt lat="44.32667" lon="6.85326">
        <ele>1995</ele>
        <time>2019-09-03T22:13:33Z</time>
      </trkpt>
      <trkpt lat="44.32672" lon="6.85341">
        <ele>1996</ele>
        <time>2019-09-03T22:13:35Z</time>
      </trkpt>
      <trkpt lat="44.32706" lon="6.85393">
        <ele>2002</ele>
        <time>2019-09-03T22:13:44Z</time>
      </trkpt>
      <trkpt lat="44.32716" lon="6.85416">
        <ele>2003</ele>
        <time>2019-09-03T22:13:48Z</time>
      </trkpt>
      <trkpt lat="44.32727" lon="6.85462">
        <ele>2006</ele>
        <time>2019-09-03T22:13:54Z</time>
      </trkpt>
      <trkpt lat="44.32747" lon="6.85509">
        <ele>2013</ele>
        <time>2019-09-03T22:14:01Z</time>
      </trkpt>
      <trkpt lat="44.32748" lon="6.85523">
        <ele>2014</ele>
        <time>2019-09-03T22:14:03Z</time>
      </trkpt>
      <trkpt lat="44.32746" lon="6.85545">
        <ele>2015</ele>
        <time>2019-09-03T22:14:06Z</time>
      </trkpt>
      <trkpt lat="44.3274" lon="6.85574">
        <ele>2015</ele>
        <time>2019-09-03T22:14:09Z</time>
      </trkpt>
      <trkpt lat="44.32723" lon="6.85638">
        <ele>2017</ele>
        <time>2019-09-03T22:14:18Z</time>
      </trkpt>
      <trkpt lat="44.32715" lon="6.85657">
        <ele>2017</ele>
        <time>2019-09-03T22:14:21Z</time>
      </trkpt>
      <trkpt lat="44.327" lon="6.85713">
        <ele>2020</ele>
        <time>2019-09-03T22:14:29Z</time>
      </trkpt>
      <trkpt lat="44.32696" lon="6.85735">
        <ele>2022</ele>
        <time>2019-09-03T22:14:31Z</time>
      </trkpt>
      <trkpt lat="44.32696" lon="6.85762">
        <ele>2025</ele>
        <time>2019-09-03T22:14:35Z</time>
      </trkpt>
      <trkpt lat="44.32697" lon="6.85792">
        <ele>2027</ele>
        <time>2019-09-03T22:14:39Z</time>
      </trkpt>
      <trkpt lat="44.32708" lon="6.85857">
        <ele>2035</ele>
        <time>2019-09-03T22:14:47Z</time>
      </trkpt>
      <trkpt lat="44.32709" lon="6.85882">
        <ele>2037</ele>
        <time>2019-09-03T22:14:50Z</time>
      </trkpt>
      <trkpt lat="44.32704" lon="6.8593">
        <ele>2038</ele>
        <time>2019-09-03T22:14:57Z</time>
      </trkpt>
      <trkpt lat="44.32705" lon="6.85962">
        <ele>2040</ele>
        <time>2019-09-03T22:15:01Z</time>
      </trkpt>
      <trkpt lat="44.32706" lon="6.85979">
        <ele>2041</ele>
        <time>2019-09-03T22:15:03Z</time>
      </trkpt>
      <trkpt lat="44.32712" lon="6.86013">
        <ele>2046</ele>
        <time>2019-09-03T22:15:07Z</time>
      </trkpt>
      <trkpt lat="44.32713" lon="6.8603">
        <ele>2047</ele>
        <time>2019-09-03T22:15:09Z</time>
      </trkpt>
      <trkpt lat="44.32711" lon="6.86045">
        <ele>2048</ele>
        <time>2019-09-03T22:15:11Z</time>
      </trkpt>
      <trkpt lat="44.32706" lon="6.86062">
        <ele>2047</ele>
        <time>2019-09-03T22:15:14Z</time>
      </trkpt>
      <trkpt lat="44.32676" lon="6.86116">
        <ele>2044</ele>
        <time>2019-09-03T22:15:22Z</time>
      </trkpt>
      <trkpt lat="44.3267" lon="6.86136">
        <ele>2044</ele>
        <time>2019-09-03T22:15:25Z</time>
      </trkpt>
      <trkpt lat="44.32666" lon="6.86169">
        <ele>2047</ele>
        <time>2019-09-03T22:15:29Z</time>
      </trkpt>
      <trkpt lat="44.32663" lon="6.86178">
        <ele>2049</ele>
        <time>2019-09-03T22:15:31Z</time>
      </trkpt>
      <trkpt lat="44.32657" lon="6.86189">
        <ele>2050</ele>
        <time>2019-09-03T22:15:32Z</time>
      </trkpt>
      <trkpt lat="44.32636" lon="6.86205">
        <ele>2047</ele>
        <time>2019-09-03T22:15:37Z</time>
      </trkpt>
      <trkpt lat="44.32616" lon="6.86216">
        <ele>2043</ele>
        <time>2019-09-03T22:15:41Z</time>
      </trkpt>
      <trkpt lat="44.32608" lon="6.86227">
        <ele>2042</ele>
        <time>2019-09-03T22:15:43Z</time>
      </trkpt>
      <trkpt lat="44.32606" lon="6.86238">
        <ele>2044</ele>
        <time>2019-09-03T22:15:44Z</time>
      </trkpt>
      <trkpt lat="44.32608" lon="6.86245">
        <ele>2046</ele>
        <time>2019-09-03T22:15:45Z</time>
      </trkpt>
      <trkpt lat="44.32611" lon="6.86248">
        <ele>2047</ele>
        <time>2019-09-03T22:15:46Z</time>
      </trkpt>
      <trkpt lat="44.32616" lon="6.86245">
        <ele>2049</ele>
        <time>2019-09-03T22:15:47Z</time>
      </trkpt>
      <trkpt lat="44.32624" lon="6.86235">
        <ele>2050</ele>
        <time>2019-09-03T22:15:48Z</time>
      </trkpt>
      <trkpt lat="44.32663" lon="6.86219">
        <ele>2060</ele>
        <time>2019-09-03T22:15:56Z</time>
      </trkpt>
      <trkpt lat="44.32679" lon="6.86217">
        <ele>2064</ele>
        <time>2019-09-03T22:15:59Z</time>
      </trkpt>
      <trkpt lat="44.3269" lon="6.86209">
        <ele>2066</ele>
        <time>2019-09-03T22:16:01Z</time>
      </trkpt>
      <trkpt lat="44.32714" lon="6.86183">
        <ele>2068</ele>
        <time>2019-09-03T22:16:06Z</time>
      </trkpt>
      <trkpt lat="44.32752" lon="6.86122">
        <ele>2071</ele>
        <time>2019-09-03T22:16:16Z</time>
      </trkpt>
      <trkpt lat="44.32768" lon="6.86088">
        <ele>2072</ele>
        <time>2019-09-03T22:16:22Z</time>
      </trkpt>
      <trkpt lat="44.32779" lon="6.86052">
        <ele>2075</ele>
        <time>2019-09-03T22:16:27Z</time>
      </trkpt>
      <trkpt lat="44.32785" lon="6.86016">
        <ele>2077</ele>
        <time>2019-09-03T22:16:31Z</time>
      </trkpt>
      <trkpt lat="44.32792" lon="6.85963">
        <ele>2078</ele>
        <time>2019-09-03T22:16:38Z</time>
      </trkpt>
      <trkpt lat="44.32797" lon="6.85958">
        <ele>2080</ele>
        <time>2019-09-03T22:16:39Z</time>
      </trkpt>
      <trkpt lat="44.32803" lon="6.85959">
        <ele>2083</ele>
        <time>2019-09-03T22:16:40Z</time>
      </trkpt>
      <trkpt lat="44.32806" lon="6.85963">
        <ele>2084</ele>
        <time>2019-09-03T22:16:41Z</time>
      </trkpt>
      <trkpt lat="44.32812" lon="6.85996">
        <ele>2088</ele>
        <time>2019-09-03T22:16:45Z</time>
      </trkpt>
      <trkpt lat="44.32816" lon="6.86028">
        <ele>2091</ele>
        <time>2019-09-03T22:16:50Z</time>
      </trkpt>
      <trkpt lat="44.32814" lon="6.8605">
        <ele>2090</ele>
        <time>2019-09-03T22:16:52Z</time>
      </trkpt>
      <trkpt lat="44.32804" lon="6.86092">
        <ele>2088</ele>
        <time>2019-09-03T22:16:58Z</time>
      </trkpt>
      <trkpt lat="44.32801" lon="6.86135">
        <ele>2092</ele>
        <time>2019-09-03T22:17:04Z</time>
      </trkpt>
      <trkpt lat="44.32803" lon="6.86167">
        <ele>2097</ele>
        <time>2019-09-03T22:17:08Z</time>
      </trkpt>
      <trkpt lat="44.32802" lon="6.86192">
        <ele>2101</ele>
        <time>2019-09-03T22:17:11Z</time>
      </trkpt>
      <trkpt lat="44.32797" lon="6.86204">
        <ele>2102</ele>
        <time>2019-09-03T22:17:13Z</time>
      </trkpt>
      <trkpt lat="44.32765" lon="6.86249">
        <ele>2100</ele>
        <time>2019-09-03T22:17:21Z</time>
      </trkpt>
      <trkpt lat="44.32741" lon="6.86301">
        <ele>2103</ele>
        <time>2019-09-03T22:17:29Z</time>
      </trkpt>
      <trkpt lat="44.32713" lon="6.86319">
        <ele>2097</ele>
        <time>2019-09-03T22:17:34Z</time>
      </trkpt>
      <trkpt lat="44.3271" lon="6.86329">
        <ele>2098</ele>
        <time>2019-09-03T22:17:35Z</time>
      </trkpt>
      <trkpt lat="44.32708" lon="6.8634">
        <ele>2099</ele>
        <time>2019-09-03T22:17:37Z</time>
      </trkpt>
      <trkpt lat="44.3271" lon="6.86372">
        <ele>2105</ele>
        <time>2019-09-03T22:17:41Z</time>
      </trkpt>
      <trkpt lat="44.32711" lon="6.86389">
        <ele>2108</ele>
        <time>2019-09-03T22:17:43Z</time>
      </trkpt>
      <trkpt lat="44.32707" lon="6.86404">
        <ele>2109</ele>
        <time>2019-09-03T22:17:45Z</time>
      </trkpt>
      <trkpt lat="44.32678" lon="6.86479">
        <ele>2110</ele>
        <time>2019-09-03T22:17:56Z</time>
      </trkpt>
      <trkpt lat="44.32678" lon="6.86494">
        <ele>2112</ele>
        <time>2019-09-03T22:17:58Z</time>
      </trkpt>
      <trkpt lat="44.3268" lon="6.86501">
        <ele>2113</ele>
        <time>2019-09-03T22:17:59Z</time>
      </trkpt>
      <trkpt lat="44.32689" lon="6.86506">
        <ele>2116</ele>
        <time>2019-09-03T22:18:01Z</time>
      </trkpt>
      <trkpt lat="44.32696" lon="6.86506">
        <ele>2117</ele>
        <time>2019-09-03T22:18:02Z</time>
      </trkpt>
      <trkpt lat="44.32704" lon="6.86502">
        <ele>2119</ele>
        <time>2019-09-03T22:18:03Z</time>
      </trkpt>
      <trkpt lat="44.32709" lon="6.86492">
        <ele>2119</ele>
        <time>2019-09-03T22:18:05Z</time>
      </trkpt>
      <trkpt lat="44.32723" lon="6.8645">
        <ele>2118</ele>
        <time>2019-09-03T22:18:11Z</time>
      </trkpt>
      <trkpt lat="44.32767" lon="6.86384">
        <ele>2123</ele>
        <time>2019-09-03T22:18:22Z</time>
      </trkpt>
      <trkpt lat="44.32775" lon="6.86375">
        <ele>2124</ele>
        <time>2019-09-03T22:18:24Z</time>
      </trkpt>
      <trkpt lat="44.32781" lon="6.86372">
        <ele>2125</ele>
        <time>2019-09-03T22:18:25Z</time>
      </trkpt>
      <trkpt lat="44.32815" lon="6.86367">
        <ele>2133</ele>
        <time>2019-09-03T22:18:31Z</time>
      </trkpt>
      <trkpt lat="44.32823" lon="6.86363">
        <ele>2135</ele>
        <time>2019-09-03T22:18:33Z</time>
      </trkpt>
      <trkpt lat="44.32831" lon="6.8635">
        <ele>2136</ele>
        <time>2019-09-03T22:18:35Z</time>
      </trkpt>
      <trkpt lat="44.32835" lon="6.86327">
        <ele>2135</ele>
        <time>2019-09-03T22:18:38Z</time>
      </trkpt>
      <trkpt lat="44.32839" lon="6.86314">
        <ele>2134</ele>
        <time>2019-09-03T22:18:40Z</time>
      </trkpt>
      <trkpt lat="44.32846" lon="6.86303">
        <ele>2135</ele>
        <time>2019-09-03T22:18:42Z</time>
      </trkpt>
      <trkpt lat="44.32872" lon="6.86275">
        <ele>2140</ele>
        <time>2019-09-03T22:18:48Z</time>
      </trkpt>
      <trkpt lat="44.3288" lon="6.86274">
        <ele>2142</ele>
        <time>2019-09-03T22:18:49Z</time>
      </trkpt>
      <trkpt lat="44.32884" lon="6.86278">
        <ele>2144</ele>
        <time>2019-09-03T22:18:50Z</time>
      </trkpt>
      <trkpt lat="44.32887" lon="6.86285">
        <ele>2145</ele>
        <time>2019-09-03T22:18:51Z</time>
      </trkpt>
      <trkpt lat="44.32886" lon="6.86295">
        <ele>2146</ele>
        <time>2019-09-03T22:18:52Z</time>
      </trkpt>
      <trkpt lat="44.32882" lon="6.86316">
        <ele>2147</ele>
        <time>2019-09-03T22:18:55Z</time>
      </trkpt>
      <trkpt lat="44.32882" lon="6.86333">
        <ele>2148</ele>
        <time>2019-09-03T22:18:57Z</time>
      </trkpt>
      <trkpt lat="44.32892" lon="6.86371">
        <ele>2153</ele>
        <time>2019-09-03T22:19:02Z</time>
      </trkpt>
      <trkpt lat="44.32893" lon="6.86384">
        <ele>2154</ele>
        <time>2019-09-03T22:19:04Z</time>
      </trkpt>
      <trkpt lat="44.32889" lon="6.86404">
        <ele>2154</ele>
        <time>2019-09-03T22:19:07Z</time>
      </trkpt>
      <trkpt lat="44.32876" lon="6.86444">
        <ele>2153</ele>
        <time>2019-09-03T22:19:12Z</time>
      </trkpt>
      <trkpt lat="44.32876" lon="6.86456">
        <ele>2153</ele>
        <time>2019-09-03T22:19:14Z</time>
      </trkpt>
      <trkpt lat="44.32879" lon="6.86468">
        <ele>2154</ele>
        <time>2019-09-03T22:19:15Z</time>
      </trkpt>
      <trkpt lat="44.32885" lon="6.86479">
        <ele>2156</ele>
        <time>2019-09-03T22:19:17Z</time>
      </trkpt>
      <trkpt lat="44.3294" lon="6.86555">
        <ele>2167</ele>
        <time>2019-09-03T22:19:31Z</time>
      </trkpt>
      <trkpt lat="44.32947" lon="6.8657">
        <ele>2169</ele>
        <time>2019-09-03T22:19:33Z</time>
      </trkpt>
      <trkpt lat="44.32958" lon="6.86607">
        <ele>2171</ele>
        <time>2019-09-03T22:19:38Z</time>
      </trkpt>
      <trkpt lat="44.33001" lon="6.86719">
        <ele>2179</ele>
        <time>2019-09-03T22:19:54Z</time>
      </trkpt>
      <trkpt lat="44.33017" lon="6.86756">
        <ele>2182</ele>
        <time>2019-09-03T22:20:00Z</time>
      </trkpt>
      <trkpt lat="44.33017" lon="6.86766">
        <ele>2183</ele>
        <time>2019-09-03T22:20:01Z</time>
      </trkpt>
      <trkpt lat="44.33014" lon="6.86776">
        <ele>2184</ele>
        <time>2019-09-03T22:20:03Z</time>
      </trkpt>
      <trkpt lat="44.33009" lon="6.86783">
        <ele>2184</ele>
        <time>2019-09-03T22:20:04Z</time>
      </trkpt>
      <trkpt lat="44.32978" lon="6.86802">
        <ele>2184</ele>
        <time>2019-09-03T22:20:10Z</time>
      </trkpt>
      <trkpt lat="44.32937" lon="6.86815">
        <ele>2188</ele>
        <time>2019-09-03T22:20:17Z</time>
      </trkpt>
      <trkpt lat="44.32916" lon="6.86819">
        <ele>2189</ele>
        <time>2019-09-03T22:20:21Z</time>
      </trkpt>
      <trkpt lat="44.32906" lon="6.86818">
        <ele>2190</ele>
        <time>2019-09-03T22:20:23Z</time>
      </trkpt>
      <trkpt lat="44.32873" lon="6.868">
        <ele>2186</ele>
        <time>2019-09-03T22:20:29Z</time>
      </trkpt>
      <trkpt lat="44.32868" lon="6.86802">
        <ele>2187</ele>
        <time>2019-09-03T22:20:30Z</time>
      </trkpt>
      <trkpt lat="44.32865" lon="6.86807">
        <ele>2189</ele>
        <time>2019-09-03T22:20:31Z</time>
      </trkpt>
      <trkpt lat="44.32866" lon="6.86815">
        <ele>2191</ele>
        <time>2019-09-03T22:20:32Z</time>
      </trkpt>
      <trkpt lat="44.32869" lon="6.8682">
        <ele>2193</ele>
        <time>2019-09-03T22:20:33Z</time>
      </trkpt>
      <trkpt lat="44.32924" lon="6.86846">
        <ele>2196</ele>
        <time>2019-09-03T22:20:43Z</time>
      </trkpt>
      <trkpt lat="44.3295" lon="6.8685">
        <ele>2196</ele>
        <time>2019-09-03T22:20:48Z</time>
      </trkpt>
      <trkpt lat="44.33012" lon="6.86875">
        <ele>2202</ele>
        <time>2019-09-03T22:20:59Z</time>
      </trkpt>
      <trkpt lat="44.33025" lon="6.86877">
        <ele>2204</ele>
        <time>2019-09-03T22:21:02Z</time>
      </trkpt>
      <trkpt lat="44.33042" lon="6.86876">
        <ele>2205</ele>
        <time>2019-09-03T22:21:05Z</time>
      </trkpt>
      <trkpt lat="44.33071" lon="6.86863">
        <ele>2205</ele>
        <time>2019-09-03T22:21:10Z</time>
      </trkpt>
      <trkpt lat="44.33081" lon="6.8686">
        <ele>2206</ele>
        <time>2019-09-03T22:21:12Z</time>
      </trkpt>
      <trkpt lat="44.33111" lon="6.86862">
        <ele>2211</ele>
        <time>2019-09-03T22:21:17Z</time>
      </trkpt>
      <trkpt lat="44.33118" lon="6.8686">
        <ele>2211</ele>
        <time>2019-09-03T22:21:18Z</time>
      </trkpt>
      <trkpt lat="44.3313" lon="6.86853">
        <ele>2212</ele>
        <time>2019-09-03T22:21:21Z</time>
      </trkpt>
      <trkpt lat="44.3315" lon="6.86834">
        <ele>2213</ele>
        <time>2019-09-03T22:21:25Z</time>
      </trkpt>
      <trkpt lat="44.33171" lon="6.86808">
        <ele>2217</ele>
        <time>2019-09-03T22:21:30Z</time>
      </trkpt>
      <trkpt lat="44.33178" lon="6.86793">
        <ele>2219</ele>
        <time>2019-09-03T22:21:32Z</time>
      </trkpt>
      <trkpt lat="44.33181" lon="6.8678">
        <ele>2219</ele>
        <time>2019-09-03T22:21:34Z</time>
      </trkpt>
      <trkpt lat="44.33181" lon="6.86759">
        <ele>2219</ele>
        <time>2019-09-03T22:21:37Z</time>
      </trkpt>
      <trkpt lat="44.33176" lon="6.86732">
        <ele>2220</ele>
        <time>2019-09-03T22:21:40Z</time>
      </trkpt>
      <trkpt lat="44.33171" lon="6.86711">
        <ele>2221</ele>
        <time>2019-09-03T22:21:43Z</time>
      </trkpt>
      <trkpt lat="44.33162" lon="6.86682">
        <ele>2222</ele>
        <time>2019-09-03T22:21:47Z</time>
      </trkpt>
      <trkpt lat="44.3316" lon="6.8667">
        <ele>2223</ele>
        <time>2019-09-03T22:21:49Z</time>
      </trkpt>
      <trkpt lat="44.33161" lon="6.8666">
        <ele>2224</ele>
        <time>2019-09-03T22:21:50Z</time>
      </trkpt>
      <trkpt lat="44.33167" lon="6.86653">
        <ele>2226</ele>
        <time>2019-09-03T22:21:51Z</time>
      </trkpt>
      <trkpt lat="44.33173" lon="6.86654">
        <ele>2227</ele>
        <time>2019-09-03T22:21:52Z</time>
      </trkpt>
      <trkpt lat="44.33179" lon="6.8666">
        <ele>2227</ele>
        <time>2019-09-03T22:21:54Z</time>
      </trkpt>
      <trkpt lat="44.33187" lon="6.86685">
        <ele>2226</ele>
        <time>2019-09-03T22:21:57Z</time>
      </trkpt>
      <trkpt lat="44.33214" lon="6.86729">
        <ele>2228</ele>
        <time>2019-09-03T22:22:05Z</time>
      </trkpt>
      <trkpt lat="44.33223" lon="6.86739">
        <ele>2229</ele>
        <time>2019-09-03T22:22:07Z</time>
      </trkpt>
      <trkpt lat="44.3323" lon="6.86742">
        <ele>2231</ele>
        <time>2019-09-03T22:22:08Z</time>
      </trkpt>
      <trkpt lat="44.33235" lon="6.86742">
        <ele>2232</ele>
        <time>2019-09-03T22:22:09Z</time>
      </trkpt>
      <trkpt lat="44.33261" lon="6.86733">
        <ele>2238</ele>
        <time>2019-09-03T22:22:14Z</time>
      </trkpt>
      <trkpt lat="44.33273" lon="6.86733">
        <ele>2241</ele>
        <time>2019-09-03T22:22:16Z</time>
      </trkpt>
      <trkpt lat="44.33282" lon="6.86738">
        <ele>2243</ele>
        <time>2019-09-03T22:22:17Z</time>
      </trkpt>
      <trkpt lat="44.33289" lon="6.86749">
        <ele>2245</ele>
        <time>2019-09-03T22:22:19Z</time>
      </trkpt>
      <trkpt lat="44.33292" lon="6.86763">
        <ele>2246</ele>
        <time>2019-09-03T22:22:21Z</time>
      </trkpt>
      <trkpt lat="44.33295" lon="6.86784">
        <ele>2246</ele>
        <time>2019-09-03T22:22:24Z</time>
      </trkpt>
      <trkpt lat="44.33293" lon="6.86797">
        <ele>2246</ele>
        <time>2019-09-03T22:22:26Z</time>
      </trkpt>
      <trkpt lat="44.33291" lon="6.86807">
        <ele>2245</ele>
        <time>2019-09-03T22:22:27Z</time>
      </trkpt>
      <trkpt lat="44.33276" lon="6.86834">
        <ele>2243</ele>
        <time>2019-09-03T22:22:31Z</time>
      </trkpt>
      <trkpt lat="44.33274" lon="6.86847">
        <ele>2243</ele>
        <time>2019-09-03T22:22:33Z</time>
      </trkpt>
      <trkpt lat="44.33277" lon="6.86858">
        <ele>2244</ele>
        <time>2019-09-03T22:22:34Z</time>
      </trkpt>
      <trkpt lat="44.33285" lon="6.86864">
        <ele>2246</ele>
        <time>2019-09-03T22:22:36Z</time>
      </trkpt>
      <trkpt lat="44.33291" lon="6.86863">
        <ele>2247</ele>
        <time>2019-09-03T22:22:37Z</time>
      </trkpt>
      <trkpt lat="44.33322" lon="6.86853">
        <ele>2252</ele>
        <time>2019-09-03T22:22:43Z</time>
      </trkpt>
      <trkpt lat="44.33333" lon="6.8684">
        <ele>2253</ele>
        <time>2019-09-03T22:22:45Z</time>
      </trkpt>
      <trkpt lat="44.33336" lon="6.86833">
        <ele>2253</ele>
        <time>2019-09-03T22:22:46Z</time>
      </trkpt>
      <trkpt lat="44.33338" lon="6.86806">
        <ele>2255</ele>
        <time>2019-09-03T22:22:50Z</time>
      </trkpt>
      <trkpt lat="44.33336" lon="6.86785">
        <ele>2255</ele>
        <time>2019-09-03T22:22:53Z</time>
      </trkpt>
      <trkpt lat="44.33326" lon="6.86726">
        <ele>2255</ele>
        <time>2019-09-03T22:23:00Z</time>
      </trkpt>
      <trkpt lat="44.33325" lon="6.86711">
        <ele>2255</ele>
        <time>2019-09-03T22:23:02Z</time>
      </trkpt>
      <trkpt lat="44.33326" lon="6.86696">
        <ele>2256</ele>
        <time>2019-09-03T22:23:04Z</time>
      </trkpt>
      <trkpt lat="44.33332" lon="6.86676">
        <ele>2258</ele>
        <time>2019-09-03T22:23:07Z</time>
      </trkpt>
      <trkpt lat="44.33355" lon="6.86637">
        <ele>2263</ele>
        <time>2019-09-03T22:23:13Z</time>
      </trkpt>
      <trkpt lat="44.33371" lon="6.86596">
        <ele>2267</ele>
        <time>2019-09-03T22:23:19Z</time>
      </trkpt>
      <trkpt lat="44.33374" lon="6.86575">
        <ele>2267</ele>
        <time>2019-09-03T22:23:22Z</time>
      </trkpt>
      <trkpt lat="44.33374" lon="6.86459">
        <ele>2265</ele>
        <time>2019-09-03T22:23:37Z</time>
      </trkpt>
      <trkpt lat="44.33381" lon="6.86432">
        <ele>2266</ele>
        <time>2019-09-03T22:23:40Z</time>
      </trkpt>
      <trkpt lat="44.3339" lon="6.86368">
        <ele>2274</ele>
        <time>2019-09-03T22:23:49Z</time>
      </trkpt>
      <trkpt lat="44.3339" lon="6.86352">
        <ele>2276</ele>
        <time>2019-09-03T22:23:51Z</time>
      </trkpt>
      <trkpt lat="44.33387" lon="6.86339">
        <ele>2277</ele>
        <time>2019-09-03T22:23:52Z</time>
      </trkpt>
      <trkpt lat="44.3338" lon="6.86328">
        <ele>2277</ele>
        <time>2019-09-03T22:23:54Z</time>
      </trkpt>
      <trkpt lat="44.33268" lon="6.86213">
        <ele>2279</ele>
        <time>2019-09-03T22:24:19Z</time>
      </trkpt>
      <trkpt lat="44.33217" lon="6.86132">
        <ele>2289</ele>
        <time>2019-09-03T22:24:33Z</time>
      </trkpt>
      <trkpt lat="44.33205" lon="6.86119">
        <ele>2288</ele>
        <time>2019-09-03T22:24:36Z</time>
      </trkpt>
      <trkpt lat="44.33187" lon="6.86104">
        <ele>2285</ele>
        <time>2019-09-03T22:24:39Z</time>
      </trkpt>
      <trkpt lat="44.33177" lon="6.86087">
        <ele>2284</ele>
        <time>2019-09-03T22:24:42Z</time>
      </trkpt>
      <trkpt lat="44.33162" lon="6.86053">
        <ele>2280</ele>
        <time>2019-09-03T22:24:47Z</time>
      </trkpt>
      <trkpt lat="44.33161" lon="6.86043">
        <ele>2280</ele>
        <time>2019-09-03T22:24:48Z</time>
      </trkpt>
      <trkpt lat="44.33164" lon="6.86034">
        <ele>2282</ele>
        <time>2019-09-03T22:24:50Z</time>
      </trkpt>
      <trkpt lat="44.33173" lon="6.86022">
        <ele>2287</ele>
        <time>2019-09-03T22:24:52Z</time>
      </trkpt>
      <trkpt lat="44.33184" lon="6.86002">
        <ele>2294</ele>
        <time>2019-09-03T22:24:55Z</time>
      </trkpt>
      <trkpt lat="44.33206" lon="6.85941">
        <ele>2301</ele>
        <time>2019-09-03T22:25:04Z</time>
      </trkpt>
      <trkpt lat="44.33209" lon="6.85922">
        <ele>2301</ele>
        <time>2019-09-03T22:25:06Z</time>
      </trkpt>
      <trkpt lat="44.33217" lon="6.85903">
        <ele>2305</ele>
        <time>2019-09-03T22:25:09Z</time>
      </trkpt>
      <trkpt lat="44.33221" lon="6.8588">
        <ele>2306</ele>
        <time>2019-09-03T22:25:12Z</time>
      </trkpt>
      <trkpt lat="44.33221" lon="6.85852">
        <ele>2305</ele>
        <time>2019-09-03T22:25:16Z</time>
      </trkpt>
      <trkpt lat="44.33232" lon="6.85815">
        <ele>2311</ele>
        <time>2019-09-03T22:25:21Z</time>
      </trkpt>
      <trkpt lat="44.33235" lon="6.85793">
        <ele>2313</ele>
        <time>2019-09-03T22:25:24Z</time>
      </trkpt>
      <trkpt lat="44.33241" lon="6.8568">
        <ele>2318</ele>
        <time>2019-09-03T22:25:38Z</time>
      </trkpt>
      <trkpt lat="44.33239" lon="6.85608">
        <ele>2323</ele>
        <time>2019-09-03T22:25:47Z</time>
      </trkpt>
      <trkpt lat="44.33232" lon="6.85571">
        <ele>2322</ele>
        <time>2019-09-03T22:25:52Z</time>
      </trkpt>
      <trkpt lat="44.33211" lon="6.85493">
        <ele>2315</ele>
        <time>2019-09-03T22:26:03Z</time>
      </trkpt>
      <trkpt lat="44.33209" lon="6.85477">
        <ele>2313</ele>
        <time>2019-09-03T22:26:05Z</time>
      </trkpt>
      <trkpt lat="44.33211" lon="6.85467">
        <ele>2314</ele>
        <time>2019-09-03T22:26:06Z</time>
      </trkpt>
      <trkpt lat="44.33218" lon="6.85449">
        <ele>2319</ele>
        <time>2019-09-03T22:26:09Z</time>
      </trkpt>
      <trkpt lat="44.33236" lon="6.85362">
        <ele>2325</ele>
        <time>2019-09-03T22:26:20Z</time>
      </trkpt>
      <trkpt lat="44.33244" lon="6.85341">
        <ele>2329</ele>
        <time>2019-09-03T22:26:23Z</time>
      </trkpt>
      <trkpt lat="44.33246" lon="6.85324">
        <ele>2328</ele>
        <time>2019-09-03T22:26:25Z</time>
      </trkpt>
      <trkpt lat="44.33245" lon="6.85285">
        <ele>2321</ele>
        <time>2019-09-03T22:26:30Z</time>
      </trkpt>
      <trkpt lat="44.33262" lon="6.85251">
        <ele>2331</ele>
        <time>2019-09-03T22:26:36Z</time>
      </trkpt>
      <trkpt lat="44.33277" lon="6.85213">
        <ele>2343</ele>
        <time>2019-09-03T22:26:41Z</time>
      </trkpt>
      <trkpt lat="44.33279" lon="6.85203">
        <ele>2344</ele>
        <time>2019-09-03T22:26:43Z</time>
      </trkpt>
      <trkpt lat="44.33277" lon="6.85134">
        <ele>2334</ele>
        <time>2019-09-03T22:26:51Z</time>
      </trkpt>
      <trkpt lat="44.33276" lon="6.85119">
        <ele>2330</ele>
        <time>2019-09-03T22:26:53Z</time>
      </trkpt>
      <trkpt lat="44.33281" lon="6.85099">
        <ele>2328</ele>
        <time>2019-09-03T22:26:56Z</time>
      </trkpt>
      <trkpt lat="44.33298" lon="6.85062">
        <ele>2326</ele>
        <time>2019-09-03T22:27:02Z</time>
      </trkpt>
      <trkpt lat="44.33308" lon="6.85052">
        <ele>2327</ele>
        <time>2019-09-03T22:27:04Z</time>
      </trkpt>
      <trkpt lat="44.33351" lon="6.85031">
        <ele>2334</ele>
        <time>2019-09-03T22:27:12Z</time>
      </trkpt>
      <trkpt lat="44.33366" lon="6.85028">
        <ele>2337</ele>
        <time>2019-09-03T22:27:15Z</time>
      </trkpt>
      <trkpt lat="44.33429" lon="6.85028">
        <ele>2351</ele>
        <time>2019-09-03T22:27:26Z</time>
      </trkpt>
      <trkpt lat="44.33463" lon="6.85033">
        <ele>2357</ele>
        <time>2019-09-03T22:27:32Z</time>
      </trkpt>
      <trkpt lat="44.33531" lon="6.85062">
        <ele>2375</ele>
        <time>2019-09-03T22:27:44Z</time>
      </trkpt>
      <trkpt lat="44.33541" lon="6.85062">
        <ele>2376</ele>
        <time>2019-09-03T22:27:46Z</time>
      </trkpt>
      <trkpt lat="44.33581" lon="6.85059">
        <ele>2378</ele>
        <time>2019-09-03T22:27:53Z</time>
      </trkpt>
      <trkpt lat="44.33592" lon="6.85054">
        <ele>2378</ele>
        <time>2019-09-03T22:27:55Z</time>
      </trkpt>
      <trkpt lat="44.33601" lon="6.85048">
        <ele>2378</ele>
        <time>2019-09-03T22:27:57Z</time>
      </trkpt>
      <trkpt lat="44.33608" lon="6.85038">
        <ele>2375</ele>
        <time>2019-09-03T22:27:59Z</time>
      </trkpt>
      <trkpt lat="44.33621" lon="6.85014">
        <ele>2369</ele>
        <time>2019-09-03T22:28:03Z</time>
      </trkpt>
      <trkpt lat="44.3363" lon="6.85006">
        <ele>2367</ele>
        <time>2019-09-03T22:28:05Z</time>
      </trkpt>
      <trkpt lat="44.33639" lon="6.85006">
        <ele>2369</ele>
        <time>2019-09-03T22:28:06Z</time>
      </trkpt>
      <trkpt lat="44.33648" lon="6.85009">
        <ele>2372</ele>
        <time>2019-09-03T22:28:08Z</time>
      </trkpt>
      <trkpt lat="44.33673" lon="6.85028">
        <ele>2385</ele>
        <time>2019-09-03T22:28:13Z</time>
      </trkpt>
      <trkpt lat="44.33689" lon="6.85036">
        <ele>2391</ele>
        <time>2019-09-03T22:28:16Z</time>
      </trkpt>
      <trkpt lat="44.33712" lon="6.8504">
        <ele>2394</ele>
        <time>2019-09-03T22:28:20Z</time>
      </trkpt>
      <trkpt lat="44.33755" lon="6.85035">
        <ele>2397</ele>
        <time>2019-09-03T22:28:28Z</time>
      </trkpt>
      <trkpt lat="44.33773" lon="6.85043">
        <ele>2402</ele>
        <time>2019-09-03T22:28:31Z</time>
      </trkpt>
      <trkpt lat="44.33802" lon="6.85049">
        <ele>2407</ele>
        <time>2019-09-03T22:28:36Z</time>
      </trkpt>
      <trkpt lat="44.33815" lon="6.85047">
        <ele>2408</ele>
        <time>2019-09-03T22:28:39Z</time>
      </trkpt>
      <trkpt lat="44.33832" lon="6.85039">
        <ele>2408</ele>
        <time>2019-09-03T22:28:42Z</time>
      </trkpt>
      <trkpt lat="44.33878" lon="6.85011">
        <ele>2409</ele>
        <time>2019-09-03T22:28:51Z</time>
      </trkpt>
      <trkpt lat="44.33899" lon="6.85002">
        <ele>2410</ele>
        <time>2019-09-03T22:28:55Z</time>
      </trkpt>
      <trkpt lat="44.33916" lon="6.84998">
        <ele>2412</ele>
        <time>2019-09-03T22:28:58Z</time>
      </trkpt>
      <trkpt lat="44.33936" lon="6.85003">
        <ele>2417</ele>
        <time>2019-09-03T22:29:01Z</time>
      </trkpt>
      <trkpt lat="44.33959" lon="6.85006">
        <ele>2422</ele>
        <time>2019-09-03T22:29:06Z</time>
      </trkpt>
      <trkpt lat="44.33975" lon="6.84996">
        <ele>2422</ele>
        <time>2019-09-03T22:29:09Z</time>
      </trkpt>
      <trkpt lat="44.33994" lon="6.84976">
        <ele>2422</ele>
        <time>2019-09-03T22:29:13Z</time>
      </trkpt>
      <trkpt lat="44.34015" lon="6.84967">
        <ele>2426</ele>
        <time>2019-09-03T22:29:17Z</time>
      </trkpt>
      <trkpt lat="44.34025" lon="6.84958">
        <ele>2428</ele>
        <time>2019-09-03T22:29:19Z</time>
      </trkpt>
      <trkpt lat="44.34033" lon="6.84943">
        <ele>2428</ele>
        <time>2019-09-03T22:29:21Z</time>
      </trkpt>
      <trkpt lat="44.34035" lon="6.84925">
        <ele>2426</ele>
        <time>2019-09-03T22:29:24Z</time>
      </trkpt>
      <trkpt lat="44.34034" lon="6.8491">
        <ele>2424</ele>
        <time>2019-09-03T22:29:26Z</time>
      </trkpt>
      <trkpt lat="44.34029" lon="6.84893">
        <ele>2420</ele>
        <time>2019-09-03T22:29:28Z</time>
      </trkpt>
      <trkpt lat="44.34027" lon="6.84877">
        <ele>2418</ele>
        <time>2019-09-03T22:29:30Z</time>
      </trkpt>
      <trkpt lat="44.34035" lon="6.8485">
        <ele>2417</ele>
        <time>2019-09-03T22:29:34Z</time>
      </trkpt>
      <trkpt lat="44.34041" lon="6.84821">
        <ele>2416</ele>
        <time>2019-09-03T22:29:38Z</time>
      </trkpt>
      <trkpt lat="44.34047" lon="6.84804">
        <ele>2415</ele>
        <time>2019-09-03T22:29:40Z</time>
      </trkpt>
      <trkpt lat="44.34059" lon="6.8479">
        <ele>2418</ele>
        <time>2019-09-03T22:29:43Z</time>
      </trkpt>
      <trkpt lat="44.34085" lon="6.84769">
        <ele>2423</ele>
        <time>2019-09-03T22:29:48Z</time>
      </trkpt>
      <trkpt lat="44.34104" lon="6.84743">
        <ele>2424</ele>
        <time>2019-09-03T22:29:53Z</time>
      </trkpt>
      <trkpt lat="44.34117" lon="6.84732">
        <ele>2426</ele>
        <time>2019-09-03T22:29:55Z</time>
      </trkpt>
      <trkpt lat="44.34152" lon="6.84732">
        <ele>2435</ele>
        <time>2019-09-03T22:30:02Z</time>
      </trkpt>
      <trkpt lat="44.34163" lon="6.84725">
        <ele>2438</ele>
        <time>2019-09-03T22:30:04Z</time>
      </trkpt>
      <trkpt lat="44.34169" lon="6.84711">
        <ele>2438</ele>
        <time>2019-09-03T22:30:06Z</time>
      </trkpt>
      <trkpt lat="44.34169" lon="6.84693">
        <ele>2436</ele>
        <time>2019-09-03T22:30:08Z</time>
      </trkpt>
      <trkpt lat="44.34171" lon="6.84673">
        <ele>2435</ele>
        <time>2019-09-03T22:30:11Z</time>
      </trkpt>
      <trkpt lat="44.3418" lon="6.84658">
        <ele>2437</ele>
        <time>2019-09-03T22:30:13Z</time>
      </trkpt>
      <trkpt lat="44.3421" lon="6.84618">
        <ele>2443</ele>
        <time>2019-09-03T22:30:21Z</time>
      </trkpt>
      <trkpt lat="44.34226" lon="6.84603">
        <ele>2447</ele>
        <time>2019-09-03T22:30:24Z</time>
      </trkpt>
      <trkpt lat="44.34233" lon="6.84591">
        <ele>2449</ele>
        <time>2019-09-03T22:30:26Z</time>
      </trkpt>
      <trkpt lat="44.34235" lon="6.84581">
        <ele>2449</ele>
        <time>2019-09-03T22:30:27Z</time>
      </trkpt>
      <trkpt lat="44.34234" lon="6.84571">
        <ele>2451</ele>
        <time>2019-09-03T22:30:29Z</time>
      </trkpt>
      <trkpt lat="44.34203" lon="6.845">
        <ele>2453</ele>
        <time>2019-09-03T22:30:39Z</time>
      </trkpt>
      <trkpt lat="44.34194" lon="6.84463">
        <ele>2460</ele>
        <time>2019-09-03T22:30:44Z</time>
      </trkpt>
      <trkpt lat="44.34187" lon="6.8445">
        <ele>2461</ele>
        <time>2019-09-03T22:30:46Z</time>
      </trkpt>
      <trkpt lat="44.34086" lon="6.8434">
        <ele>2463</ele>
        <time>2019-09-03T22:31:09Z</time>
      </trkpt>
      <trkpt lat="44.3407" lon="6.8432">
        <ele>2461</ele>
        <time>2019-09-03T22:31:13Z</time>
      </trkpt>
      <trkpt lat="44.34061" lon="6.84293">
        <ele>2462</ele>
        <time>2019-09-03T22:31:17Z</time>
      </trkpt>
      <trkpt lat="44.34052" lon="6.84249">
        <ele>2466</ele>
        <time>2019-09-03T22:31:23Z</time>
      </trkpt>
      <trkpt lat="44.34054" lon="6.84232">
        <ele>2468</ele>
        <time>2019-09-03T22:31:25Z</time>
      </trkpt>
      <trkpt lat="44.3406" lon="6.8421">
        <ele>2471</ele>
        <time>2019-09-03T22:31:28Z</time>
      </trkpt>
      <trkpt lat="44.34061" lon="6.84184">
        <ele>2473</ele>
        <time>2019-09-03T22:31:31Z</time>
      </trkpt>
      <trkpt lat="44.34055" lon="6.84148">
        <ele>2474</ele>
        <time>2019-09-03T22:31:36Z</time>
      </trkpt>
      <trkpt lat="44.34057" lon="6.84125">
        <ele>2476</ele>
        <time>2019-09-03T22:31:39Z</time>
      </trkpt>
      <trkpt lat="44.34065" lon="6.84098">
        <ele>2481</ele>
        <time>2019-09-03T22:31:42Z</time>
      </trkpt>
      <trkpt lat="44.34086" lon="6.8406">
        <ele>2489</ele>
        <time>2019-09-03T22:31:49Z</time>
      </trkpt>
      <trkpt lat="44.34091" lon="6.84043">
        <ele>2492</ele>
        <time>2019-09-03T22:31:51Z</time>
      </trkpt>
      <trkpt lat="44.34091" lon="6.84021">
        <ele>2492</ele>
        <time>2019-09-03T22:31:54Z</time>
      </trkpt>
      <trkpt lat="44.34059" lon="6.83917">
        <ele>2487</ele>
        <time>2019-09-03T22:32:08Z</time>
      </trkpt>
      <trkpt lat="44.34063" lon="6.8384">
        <ele>2489</ele>
        <time>2019-09-03T22:32:18Z</time>
      </trkpt>
      <trkpt lat="44.34067" lon="6.83825">
        <ele>2491</ele>
        <time>2019-09-03T22:32:20Z</time>
      </trkpt>
      <trkpt lat="44.34087" lon="6.83806">
        <ele>2498</ele>
        <time>2019-09-03T22:32:24Z</time>
      </trkpt>
      <trkpt lat="44.34089" lon="6.83795">
        <ele>2500</ele>
        <time>2019-09-03T22:32:26Z</time>
      </trkpt>
      <trkpt lat="44.34087" lon="6.83778">
        <ele>2501</ele>
        <time>2019-09-03T22:32:28Z</time>
      </trkpt>
      <trkpt lat="44.34055" lon="6.8372">
        <ele>2497</ele>
        <time>2019-09-03T22:32:37Z</time>
      </trkpt>
      <trkpt lat="44.34043" lon="6.83691">
        <ele>2496</ele>
        <time>2019-09-03T22:32:41Z</time>
      </trkpt>
      <trkpt lat="44.34039" lon="6.83664">
        <ele>2497</ele>
        <time>2019-09-03T22:32:45Z</time>
      </trkpt>
      <trkpt lat="44.34044" lon="6.83629">
        <ele>2503</ele>
        <time>2019-09-03T22:32:49Z</time>
      </trkpt>
      <trkpt lat="44.34043" lon="6.83611">
        <ele>2504</ele>
        <time>2019-09-03T22:32:52Z</time>
      </trkpt>
      <trkpt lat="44.34038" lon="6.83591">
        <ele>2505</ele>
        <time>2019-09-03T22:32:54Z</time>
      </trkpt>
      <trkpt lat="44.34014" lon="6.8355">
        <ele>2501</ele>
        <time>2019-09-03T22:33:01Z</time>
      </trkpt>
      <trkpt lat="44.3401" lon="6.83528">
        <ele>2503</ele>
        <time>2019-09-03T22:33:04Z</time>
      </trkpt>
      <trkpt lat="44.34011" lon="6.83487">
        <ele>2508</ele>
        <time>2019-09-03T22:33:09Z</time>
      </trkpt>
      <trkpt lat="44.3401" lon="6.83458">
        <ele>2509</ele>
        <time>2019-09-03T22:33:13Z</time>
      </trkpt>
      <trkpt lat="44.34004" lon="6.83402">
        <ele>2509</ele>
        <time>2019-09-03T22:33:20Z</time>
      </trkpt>
      <trkpt lat="44.34006" lon="6.83373">
        <ele>2509</ele>
        <time>2019-09-03T22:33:24Z</time>
      </trkpt>
      <trkpt lat="44.3402" lon="6.83322">
        <ele>2511</ele>
        <time>2019-09-03T22:33:31Z</time>
      </trkpt>
      <trkpt lat="44.34025" lon="6.83285">
        <ele>2509</ele>
        <time>2019-09-03T22:33:36Z</time>
      </trkpt>
      <trkpt lat="44.34035" lon="6.8326">
        <ele>2508</ele>
        <time>2019-09-03T22:33:39Z</time>
      </trkpt>
      <trkpt lat="44.34044" lon="6.83244">
        <ele>2507</ele>
        <time>2019-09-03T22:33:42Z</time>
      </trkpt>
      <trkpt lat="44.3405" lon="6.83224">
        <ele>2503</ele>
        <time>2019-09-03T22:33:45Z</time>
      </trkpt>
      <trkpt lat="44.34055" lon="6.83203">
        <ele>2497</ele>
        <time>2019-09-03T22:33:47Z</time>
      </trkpt>
      <trkpt lat="44.34055" lon="6.83182">
        <ele>2492</ele>
        <time>2019-09-03T22:33:50Z</time>
      </trkpt>
      <trkpt lat="44.34046" lon="6.8316">
        <ele>2488</ele>
        <time>2019-09-03T22:33:53Z</time>
      </trkpt>
      <trkpt lat="44.34028" lon="6.83145">
        <ele>2489</ele>
        <time>2019-09-03T22:33:57Z</time>
      </trkpt>
      <trkpt lat="44.34001" lon="6.83127">
        <ele>2493</ele>
        <time>2019-09-03T22:34:02Z</time>
      </trkpt>
      <trkpt lat="44.33954" lon="6.83107">
        <ele>2501</ele>
        <time>2019-09-03T22:34:11Z</time>
      </trkpt>
      <trkpt lat="44.33918" lon="6.83099">
        <ele>2511</ele>
        <time>2019-09-03T22:34:18Z</time>
      </trkpt>
      <trkpt lat="44.33873" lon="6.83098">
        <ele>2512</ele>
        <time>2019-09-03T22:34:26Z</time>
      </trkpt>
      <trkpt lat="44.33849" lon="6.83087">
        <ele>2515</ele>
        <time>2019-09-03T22:34:30Z</time>
      </trkpt>
      <trkpt lat="44.33816" lon="6.83059">
        <ele>2520</ele>
        <time>2019-09-03T22:34:37Z</time>
      </trkpt>
      <trkpt lat="44.33752" lon="6.82992">
        <ele>2541</ele>
        <time>2019-09-03T22:34:51Z</time>
      </trkpt>
      <trkpt lat="44.3373" lon="6.82962">
        <ele>2538</ele>
        <time>2019-09-03T22:34:57Z</time>
      </trkpt>
      <trkpt lat="44.33697" lon="6.82913">
        <ele>2539</ele>
        <time>2019-09-03T22:35:05Z</time>
      </trkpt>
      <trkpt lat="44.33675" lon="6.82866">
        <ele>2547</ele>
        <time>2019-09-03T22:35:12Z</time>
      </trkpt>
      <trkpt lat="44.33644" lon="6.82807">
        <ele>2554</ele>
        <time>2019-09-03T22:35:22Z</time>
      </trkpt>
      <trkpt lat="44.33624" lon="6.82776">
        <ele>2555</ele>
        <time>2019-09-03T22:35:27Z</time>
      </trkpt>
      <trkpt lat="44.33606" lon="6.82761">
        <ele>2556</ele>
        <time>2019-09-03T22:35:31Z</time>
      </trkpt>
      <trkpt lat="44.33587" lon="6.82737">
        <ele>2557</ele>
        <time>2019-09-03T22:35:35Z</time>
      </trkpt>
      <trkpt lat="44.33556" lon="6.82714">
        <ele>2553</ele>
        <time>2019-09-03T22:35:42Z</time>
      </trkpt>
      <trkpt lat="44.33529" lon="6.8269">
        <ele>2553</ele>
        <time>2019-09-03T22:35:47Z</time>
      </trkpt>
      <trkpt lat="44.33451" lon="6.82571">
        <ele>2571</ele>
        <time>2019-09-03T22:36:08Z</time>
      </trkpt>
      <trkpt lat="44.3344" lon="6.82566">
        <ele>2572</ele>
        <time>2019-09-03T22:36:10Z</time>
      </trkpt>
      <trkpt lat="44.33416" lon="6.82577">
        <ele>2571</ele>
        <time>2019-09-03T22:36:14Z</time>
      </trkpt>
      <trkpt lat="44.33399" lon="6.82573">
        <ele>2574</ele>
        <time>2019-09-03T22:36:17Z</time>
      </trkpt>
      <trkpt lat="44.33383" lon="6.82564">
        <ele>2577</ele>
        <time>2019-09-03T22:36:21Z</time>
      </trkpt>
      <trkpt lat="44.33367" lon="6.82561">
        <ele>2580</ele>
        <time>2019-09-03T22:36:23Z</time>
      </trkpt>
      <trkpt lat="44.33353" lon="6.8258">
        <ele>2577</ele>
        <time>2019-09-03T22:36:27Z</time>
      </trkpt>
      <trkpt lat="44.33344" lon="6.826">
        <ele>2573</ele>
        <time>2019-09-03T22:36:30Z</time>
      </trkpt>
      <trkpt lat="44.33332" lon="6.82616">
        <ele>2570</ele>
        <time>2019-09-03T22:36:33Z</time>
      </trkpt>
      <trkpt lat="44.33321" lon="6.82627">
        <ele>2568</ele>
        <time>2019-09-03T22:36:35Z</time>
      </trkpt>
      <trkpt lat="44.33301" lon="6.82636">
        <ele>2568</ele>
        <time>2019-09-03T22:36:39Z</time>
      </trkpt>
      <trkpt lat="44.33285" lon="6.8264">
        <ele>2568</ele>
        <time>2019-09-03T22:36:42Z</time>
      </trkpt>
      <trkpt lat="44.33272" lon="6.82637">
        <ele>2570</ele>
        <time>2019-09-03T22:36:44Z</time>
      </trkpt>
      <trkpt lat="44.3326" lon="6.8263">
        <ele>2573</ele>
        <time>2019-09-03T22:36:47Z</time>
      </trkpt>
      <trkpt lat="44.33242" lon="6.82604">
        <ele>2579</ele>
        <time>2019-09-03T22:36:51Z</time>
      </trkpt>
      <trkpt lat="44.33231" lon="6.82593">
        <ele>2581</ele>
        <time>2019-09-03T22:36:54Z</time>
      </trkpt>
      <trkpt lat="44.33208" lon="6.826">
        <ele>2579</ele>
        <time>2019-09-03T22:36:58Z</time>
      </trkpt>
      <trkpt lat="44.33192" lon="6.82608">
        <ele>2577</ele>
        <time>2019-09-03T22:37:01Z</time>
      </trkpt>
      <trkpt lat="44.33181" lon="6.8261">
        <ele>2576</ele>
        <time>2019-09-03T22:37:03Z</time>
      </trkpt>
      <trkpt lat="44.33171" lon="6.826">
        <ele>2578</ele>
        <time>2019-09-03T22:37:05Z</time>
      </trkpt>
      <trkpt lat="44.33165" lon="6.82585">
        <ele>2580</ele>
        <time>2019-09-03T22:37:07Z</time>
      </trkpt>
      <trkpt lat="44.33156" lon="6.82552">
        <ele>2585</ele>
        <time>2019-09-03T22:37:12Z</time>
      </trkpt>
      <trkpt lat="44.33146" lon="6.82535">
        <ele>2586</ele>
        <time>2019-09-03T22:37:14Z</time>
      </trkpt>
      <trkpt lat="44.33128" lon="6.82514">
        <ele>2586</ele>
        <time>2019-09-03T22:37:19Z</time>
      </trkpt>
      <trkpt lat="44.33101" lon="6.82432">
        <ele>2591</ele>
        <time>2019-09-03T22:37:30Z</time>
      </trkpt>
      <trkpt lat="44.331" lon="6.82407">
        <ele>2593</ele>
        <time>2019-09-03T22:37:33Z</time>
      </trkpt>
      <trkpt lat="44.33105" lon="6.82335">
        <ele>2598</ele>
        <time>2019-09-03T22:37:42Z</time>
      </trkpt>
      <trkpt lat="44.33098" lon="6.82297">
        <ele>2597</ele>
        <time>2019-09-03T22:37:47Z</time>
      </trkpt>
      <trkpt lat="44.33094" lon="6.82258">
        <ele>2598</ele>
        <time>2019-09-03T22:37:52Z</time>
      </trkpt>
      <trkpt lat="44.331" lon="6.8221">
        <ele>2609</ele>
        <time>2019-09-03T22:37:59Z</time>
      </trkpt>
      <trkpt lat="44.331" lon="6.82178">
        <ele>2615</ele>
        <time>2019-09-03T22:38:03Z</time>
      </trkpt>
      <trkpt lat="44.33096" lon="6.82162">
        <ele>2616</ele>
        <time>2019-09-03T22:38:05Z</time>
      </trkpt>
      <trkpt lat="44.33082" lon="6.82152">
        <ele>2610</ele>
        <time>2019-09-03T22:38:08Z</time>
      </trkpt>
      <trkpt lat="44.33062" lon="6.8213">
        <ele>2603</ele>
        <time>2019-09-03T22:38:12Z</time>
      </trkpt>
      <trkpt lat="44.33052" lon="6.82115">
        <ele>2600</ele>
        <time>2019-09-03T22:38:15Z</time>
      </trkpt>
      <trkpt lat="44.3305" lon="6.82105">
        <ele>2600</ele>
        <time>2019-09-03T22:38:16Z</time>
      </trkpt>
      <trkpt lat="44.3306" lon="6.8206">
        <ele>2609</ele>
        <time>2019-09-03T22:38:22Z</time>
      </trkpt>
      <trkpt lat="44.33062" lon="6.82026">
        <ele>2612</ele>
        <time>2019-09-03T22:38:26Z</time>
      </trkpt>
      <trkpt lat="44.33069" lon="6.81995">
        <ele>2619</ele>
        <time>2019-09-03T22:38:31Z</time>
      </trkpt>
      <trkpt lat="44.33068" lon="6.81955">
        <ele>2621</ele>
        <time>2019-09-03T22:38:36Z</time>
      </trkpt>
      <trkpt lat="44.33076" lon="6.81907">
        <ele>2630</ele>
        <time>2019-09-03T22:38:42Z</time>
      </trkpt>
      <trkpt lat="44.33073" lon="6.81892">
        <ele>2629</ele>
        <time>2019-09-03T22:38:44Z</time>
      </trkpt>
      <trkpt lat="44.33065" lon="6.81876">
        <ele>2625</ele>
        <time>2019-09-03T22:38:46Z</time>
      </trkpt>
      <trkpt lat="44.33067" lon="6.81864">
        <ele>2626</ele>
        <time>2019-09-03T22:38:48Z</time>
      </trkpt>
      <trkpt lat="44.33077" lon="6.81825">
        <ele>2635</ele>
        <time>2019-09-03T22:38:53Z</time>
      </trkpt>
      <trkpt lat="44.33076" lon="6.81788">
        <ele>2636</ele>
        <time>2019-09-03T22:38:58Z</time>
      </trkpt>
      <trkpt lat="44.33081" lon="6.81751">
        <ele>2641</ele>
        <time>2019-09-03T22:39:03Z</time>
      </trkpt>
      <trkpt lat="44.33084" lon="6.8172">
        <ele>2649</ele>
        <time>2019-09-03T22:39:07Z</time>
      </trkpt>
      <trkpt lat="44.33077" lon="6.81701">
        <ele>2649</ele>
        <time>2019-09-03T22:39:10Z</time>
      </trkpt>
      <trkpt lat="44.33051" lon="6.81673">
        <ele>2643</ele>
        <time>2019-09-03T22:39:15Z</time>
      </trkpt>
      <trkpt lat="44.33047" lon="6.81655">
        <ele>2644</ele>
        <time>2019-09-03T22:39:18Z</time>
      </trkpt>
      <trkpt lat="44.33047" lon="6.81631">
        <ele>2648</ele>
        <time>2019-09-03T22:39:21Z</time>
      </trkpt>
      <trkpt lat="44.33044" lon="6.81607">
        <ele>2651</ele>
        <time>2019-09-03T22:39:24Z</time>
      </trkpt>
      <trkpt lat="44.33045" lon="6.81511">
        <ele>2659</ele>
        <time>2019-09-03T22:39:36Z</time>
      </trkpt>
      <trkpt lat="44.33051" lon="6.81427">
        <ele>2659</ele>
        <time>2019-09-03T22:39:47Z</time>
      </trkpt>
      <trkpt lat="44.3306" lon="6.81376">
        <ele>2661</ele>
        <time>2019-09-03T22:39:54Z</time>
      </trkpt>
      <trkpt lat="44.33084" lon="6.8131">
        <ele>2667</ele>
        <time>2019-09-03T22:40:03Z</time>
      </trkpt>
      <trkpt lat="44.33089" lon="6.81285">
        <ele>2670</ele>
        <time>2019-09-03T22:40:06Z</time>
      </trkpt>
      <trkpt lat="44.3309" lon="6.81255">
        <ele>2672</ele>
        <time>2019-09-03T22:40:10Z</time>
      </trkpt>
      <trkpt lat="44.33089" lon="6.81209">
        <ele>2675</ele>
        <time>2019-09-03T22:40:16Z</time>
      </trkpt>
      <trkpt lat="44.33085" lon="6.81175">
        <ele>2676</ele>
        <time>2019-09-03T22:40:20Z</time>
      </trkpt>
      <trkpt lat="44.33064" lon="6.81111">
        <ele>2680</ele>
        <time>2019-09-03T22:40:29Z</time>
      </trkpt>
      <trkpt lat="44.33049" lon="6.81083">
        <ele>2682</ele>
        <time>2019-09-03T22:40:34Z</time>
      </trkpt>
      <trkpt lat="44.3303" lon="6.81067">
        <ele>2683</ele>
        <time>2019-09-03T22:40:38Z</time>
      </trkpt>
      <trkpt lat="44.33004" lon="6.81057">
        <ele>2682</ele>
        <time>2019-09-03T22:40:42Z</time>
      </trkpt>
      <trkpt lat="44.32985" lon="6.81048">
        <ele>2684</ele>
        <time>2019-09-03T22:40:46Z</time>
      </trkpt>
      <trkpt lat="44.32966" lon="6.81042">
        <ele>2684</ele>
        <time>2019-09-03T22:40:50Z</time>
      </trkpt>
      <trkpt lat="44.32943" lon="6.81044">
        <ele>2683</ele>
        <time>2019-09-03T22:40:54Z</time>
      </trkpt>
      <trkpt lat="44.32932" lon="6.81039">
        <ele>2684</ele>
        <time>2019-09-03T22:40:56Z</time>
      </trkpt>
      <trkpt lat="44.32922" lon="6.81031">
        <ele>2686</ele>
        <time>2019-09-03T22:40:58Z</time>
      </trkpt>
      <trkpt lat="44.32896" lon="6.80998">
        <ele>2692</ele>
        <time>2019-09-03T22:41:04Z</time>
      </trkpt>
      <trkpt lat="44.32863" lon="6.80962">
        <ele>2694</ele>
        <time>2019-09-03T22:41:11Z</time>
      </trkpt>
      <trkpt lat="44.3285" lon="6.80931">
        <ele>2700</ele>
        <time>2019-09-03T22:41:16Z</time>
      </trkpt>
      <trkpt lat="44.32841" lon="6.80918">
        <ele>2701</ele>
        <time>2019-09-03T22:41:18Z</time>
      </trkpt>
      <trkpt lat="44.32786" lon="6.80886">
        <ele>2694</ele>
        <time>2019-09-03T22:41:29Z</time>
      </trkpt>
      <trkpt lat="44.32698" lon="6.80795">
        <ele>2690</ele>
        <time>2019-09-03T22:41:48Z</time>
      </trkpt>
      <trkpt lat="44.32684" lon="6.80786">
        <ele>2691</ele>
        <time>2019-09-03T22:41:51Z</time>
      </trkpt>
      <trkpt lat="44.32663" lon="6.80764">
        <ele>2696</ele>
        <time>2019-09-03T22:41:56Z</time>
      </trkpt>
      <trkpt lat="44.32664" lon="6.80751">
        <ele>2699</ele>
        <time>2019-09-03T22:41:57Z</time>
      </trkpt>
      <trkpt lat="44.32668" lon="6.80746">
        <ele>2699</ele>
        <time>2019-09-03T22:41:58Z</time>
      </trkpt>
      <trkpt lat="44.32673" lon="6.80745">
        <ele>2698</ele>
        <time>2019-09-03T22:41:59Z</time>
      </trkpt>
      <trkpt lat="44.32649" lon="6.80709">
        <ele>2693</ele>
        <time>2019-09-03T22:42:06Z</time>
      </trkpt>
      <trkpt lat="44.32616" lon="6.80687">
        <ele>2696</ele>
        <time>2019-09-03T22:42:12Z</time>
      </trkpt>
      <trkpt lat="44.32606" lon="6.80678">
        <ele>2699</ele>
        <time>2019-09-03T22:42:14Z</time>
      </trkpt>
      <trkpt lat="44.32575" lon="6.80618">
        <ele>2696</ele>
        <time>2019-09-03T22:42:24Z</time>
      </trkpt>
      <trkpt lat="44.32569" lon="6.80614">
        <ele>2695</ele>
        <time>2019-09-03T22:42:25Z</time>
      </trkpt>
      <trkpt lat="44.32558" lon="6.80614">
        <ele>2696</ele>
        <time>2019-09-03T22:42:27Z</time>
      </trkpt>
      <trkpt lat="44.32533" lon="6.80637">
        <ele>2703</ele>
        <time>2019-09-03T22:42:32Z</time>
      </trkpt>
      <trkpt lat="44.32509" lon="6.80653">
        <ele>2708</ele>
        <time>2019-09-03T22:42:37Z</time>
      </trkpt>
      <trkpt lat="44.32498" lon="6.80656">
        <ele>2709</ele>
        <time>2019-09-03T22:42:39Z</time>
      </trkpt>
      <trkpt lat="44.32484" lon="6.80656">
        <ele>2712</ele>
        <time>2019-09-03T22:42:41Z</time>
      </trkpt>
      <trkpt lat="44.3246" lon="6.80643">
        <ele>2714</ele>
        <time>2019-09-03T22:42:46Z</time>
      </trkpt>
      <trkpt lat="44.32423" lon="6.80627">
        <ele>2717</ele>
        <time>2019-09-03T22:42:53Z</time>
      </trkpt>
      <trkpt lat="44.32381" lon="6.80623">
        <ele>2730</ele>
        <time>2019-09-03T22:43:00Z</time>
      </trkpt>
      <trkpt lat="44.32355" lon="6.80611">
        <ele>2735</ele>
        <time>2019-09-03T22:43:05Z</time>
      </trkpt>
      <trkpt lat="44.32328" lon="6.80592">
        <ele>2739</ele>
        <time>2019-09-03T22:43:11Z</time>
      </trkpt>
      <trkpt lat="44.32293" lon="6.80554">
        <ele>2740</ele>
        <time>2019-09-03T22:43:18Z</time>
      </trkpt>
      <trkpt lat="44.32258" lon="6.80547">
        <ele>2754</ele>
        <time>2019-09-03T22:43:25Z</time>
      </trkpt>
      <trkpt lat="44.32247" lon="6.80537">
        <ele>2755</ele>
        <time>2019-09-03T22:43:27Z</time>
      </trkpt>
      <trkpt lat="44.32229" lon="6.80504">
        <ele>2751</ele>
        <time>2019-09-03T22:43:32Z</time>
      </trkpt>
      <trkpt lat="44.32211" lon="6.80477">
        <ele>2748</ele>
        <time>2019-09-03T22:43:37Z</time>
      </trkpt>
      <trkpt lat="44.32202" lon="6.80467">
        <ele>2747</ele>
        <time>2019-09-03T22:43:39Z</time>
      </trkpt>
      <trkpt lat="44.32178" lon="6.80459">
        <ele>2754</ele>
        <time>2019-09-03T22:43:43Z</time>
      </trkpt>
      <trkpt lat="44.32159" lon="6.80464">
        <ele>2763</ele>
        <time>2019-09-03T22:43:47Z</time>
      </trkpt>
      <trkpt lat="44.32148" lon="6.80465">
        <ele>2766</ele>
        <time>2019-09-03T22:43:49Z</time>
      </trkpt>
      <trkpt lat="44.32126" lon="6.8046">
        <ele>2769</ele>
        <time>2019-09-03T22:43:53Z</time>
      </trkpt>
      <trkpt lat="44.32099" lon="6.80463">
        <ele>2776</ele>
        <time>2019-09-03T22:43:58Z</time>
      </trkpt>
      <trkpt lat="44.3206" lon="6.80443">
        <ele>2767</ele>
        <time>2019-09-03T22:44:05Z</time>
      </trkpt>
      <trkpt lat="44.32043" lon="6.80437">
        <ele>2763</ele>
        <time>2019-09-03T22:44:08Z</time>
      </trkpt>
      <trkpt lat="44.32037" lon="6.80439">
        <ele>2763</ele>
        <time>2019-09-03T22:44:09Z</time>
      </trkpt>
      <trkpt lat="44.32034" lon="6.80445">
        <ele>2764</ele>
        <time>2019-09-03T22:44:10Z</time>
      </trkpt>
      <trkpt lat="44.32032" lon="6.80454">
        <ele>2765</ele>
        <time>2019-09-03T22:44:11Z</time>
      </trkpt>
      <trkpt lat="44.32037" lon="6.80475">
        <ele>2770</ele>
        <time>2019-09-03T22:44:14Z</time>
      </trkpt>
      <trkpt lat="44.32045" lon="6.80494">
        <ele>2777</ele>
        <time>2019-09-03T22:44:17Z</time>
      </trkpt>
      <trkpt lat="44.3205" lon="6.80532">
        <ele>2784</ele>
        <time>2019-09-03T22:44:22Z</time>
      </trkpt>
      <trkpt lat="44.32058" lon="6.80573">
        <ele>2791</ele>
        <time>2019-09-03T22:44:27Z</time>
      </trkpt>
      <trkpt lat="44.32072" lon="6.80608">
        <ele>2802</ele>
        <time>2019-09-03T22:44:32Z</time>
      </trkpt>
      <trkpt lat="44.32076" lon="6.80627">
        <ele>2805</ele>
        <time>2019-09-03T22:44:35Z</time>
      </trkpt>
      <trkpt lat="44.32076" lon="6.80644">
        <ele>2806</ele>
        <time>2019-09-03T22:44:37Z</time>
      </trkpt>
      <trkpt lat="44.3207" lon="6.80664">
        <ele>2804</ele>
        <time>2019-09-03T22:44:40Z</time>
      </trkpt>
      <trkpt lat="44.32055" lon="6.80698">
        <ele>2798</ele>
        <time>2019-09-03T22:44:45Z</time>
      </trkpt>
      <trkpt lat="44.32047" lon="6.80718">
        <ele>2796</ele>
        <time>2019-09-03T22:44:48Z</time>
      </trkpt>
      <trkpt lat="44.32047" lon="6.80736">
        <ele>2797</ele>
        <time>2019-09-03T22:44:50Z</time>
      </trkpt>
      <trkpt lat="44.32049" lon="6.80746">
        <ele>2799</ele>
        <time>2019-09-03T22:44:51Z</time>
      </trkpt>
      <trkpt lat="44.32061" lon="6.80765">
        <ele>2801</ele>
        <time>2019-09-03T22:44:55Z</time>
      </trkpt>
      <trkpt lat="44.32071" lon="6.80788">
        <ele>2800</ele>
        <time>2019-09-03T22:44:58Z</time>
      </trkpt>
      <trkpt lat="44.32077" lon="6.80815">
        <ele>2796</ele>
        <time>2019-09-03T22:45:02Z</time>
      </trkpt>
      <trkpt lat="44.3211" lon="6.8086">
        <ele>2788</ele>
        <time>2019-09-03T22:45:10Z</time>
      </trkpt>
      <trkpt lat="44.32149" lon="6.80939">
        <ele>2767</ele>
        <time>2019-09-03T22:45:22Z</time>
      </trkpt>
      <trkpt lat="44.32158" lon="6.80943">
        <ele>2767</ele>
        <time>2019-09-03T22:45:24Z</time>
      </trkpt>
      <trkpt lat="44.32175" lon="6.80924">
        <ele>2770</ele>
        <time>2019-09-03T22:45:28Z</time>
      </trkpt>
      <trkpt lat="44.32221" lon="6.80843">
        <ele>2772</ele>
        <time>2019-09-03T22:45:41Z</time>
      </trkpt>
      <trkpt lat="44.32274" lon="6.80769">
        <ele>2769</ele>
        <time>2019-09-03T22:45:54Z</time>
      </trkpt>
      <trkpt lat="44.32299" lon="6.80753">
        <ele>2761</ele>
        <time>2019-09-03T22:45:59Z</time>
      </trkpt>
      <trkpt lat="44.32316" lon="6.80736">
        <ele>2756</ele>
        <time>2019-09-03T22:46:03Z</time>
      </trkpt>
      <trkpt lat="44.32344" lon="6.80718">
        <ele>2746</ele>
        <time>2019-09-03T22:46:08Z</time>
      </trkpt>
      <trkpt lat="44.32372" lon="6.80708">
        <ele>2737</ele>
        <time>2019-09-03T22:46:13Z</time>
      </trkpt>
      <trkpt lat="44.32398" lon="6.80694">
        <ele>2730</ele>
        <time>2019-09-03T22:46:18Z</time>
      </trkpt>
      <trkpt lat="44.32421" lon="6.80685">
        <ele>2724</ele>
        <time>2019-09-03T22:46:23Z</time>
      </trkpt>
      <trkpt lat="44.3245" lon="6.80682">
        <ele>2718</ele>
        <time>2019-09-03T22:46:28Z</time>
      </trkpt>
      <trkpt lat="44.32474" lon="6.80677">
        <ele>2714</ele>
        <time>2019-09-03T22:46:32Z</time>
      </trkpt>
      <trkpt lat="44.32497" lon="6.80675">
        <ele>2709</ele>
        <time>2019-09-03T22:46:36Z</time>
      </trkpt>
      <trkpt lat="44.32533" lon="6.80676">
        <ele>2707</ele>
        <time>2019-09-03T22:46:43Z</time>
      </trkpt>
      <trkpt lat="44.32567" lon="6.80681">
        <ele>2704</ele>
        <time>2019-09-03T22:46:49Z</time>
      </trkpt>
      <trkpt lat="44.3259" lon="6.80688">
        <ele>2701</ele>
        <time>2019-09-03T22:46:53Z</time>
      </trkpt>
      <trkpt lat="44.32616" lon="6.80705">
        <ele>2696</ele>
        <time>2019-09-03T22:46:58Z</time>
      </trkpt>
      <trkpt lat="44.32641" lon="6.80744">
        <ele>2697</ele>
        <time>2019-09-03T22:47:05Z</time>
      </trkpt>
      <trkpt lat="44.32663" lon="6.80764">
        <ele>2696</ele>
        <time>2019-09-03T22:47:09Z</time>
      </trkpt>
      <trkpt lat="44.32664" lon="6.80751">
        <ele>2699</ele>
        <time>2019-09-03T22:47:11Z</time>
      </trkpt>
      <trkpt lat="44.32668" lon="6.80746">
        <ele>2699</ele>
        <time>2019-09-03T22:47:12Z</time>
      </trkpt>
      <trkpt lat="44.32673" lon="6.80745">
        <ele>2698</ele>
        <time>2019-09-03T22:47:13Z</time>
      </trkpt>
      <trkpt lat="44.32709" lon="6.80774">
        <ele>2692</ele>
        <time>2019-09-03T22:47:20Z</time>
      </trkpt>
      <trkpt lat="44.32735" lon="6.80791">
        <ele>2692</ele>
        <time>2019-09-03T22:47:25Z</time>
      </trkpt>
      <trkpt lat="44.32756" lon="6.80802">
        <ele>2695</ele>
        <time>2019-09-03T22:47:29Z</time>
      </trkpt>
      <trkpt lat="44.32776" lon="6.80805">
        <ele>2697</ele>
        <time>2019-09-03T22:47:33Z</time>
      </trkpt>
      <trkpt lat="44.32836" lon="6.80789">
        <ele>2699</ele>
        <time>2019-09-03T22:47:44Z</time>
      </trkpt>
      <trkpt lat="44.32862" lon="6.80785">
        <ele>2697</ele>
        <time>2019-09-03T22:47:48Z</time>
      </trkpt>
      <trkpt lat="44.32898" lon="6.80793">
        <ele>2699</ele>
        <time>2019-09-03T22:47:55Z</time>
      </trkpt>
      <trkpt lat="44.32956" lon="6.80814">
        <ele>2700</ele>
        <time>2019-09-03T22:48:06Z</time>
      </trkpt>
      <trkpt lat="44.32974" lon="6.80827">
        <ele>2703</ele>
        <time>2019-09-03T22:48:09Z</time>
      </trkpt>
      <trkpt lat="44.33036" lon="6.80887">
        <ele>2698</ele>
        <time>2019-09-03T22:48:23Z</time>
      </trkpt>
      <trkpt lat="44.33062" lon="6.8092">
        <ele>2697</ele>
        <time>2019-09-03T22:48:29Z</time>
      </trkpt>
      <trkpt lat="44.33122" lon="6.80984">
        <ele>2691</ele>
        <time>2019-09-03T22:48:42Z</time>
      </trkpt>
      <trkpt lat="44.33175" lon="6.81053">
        <ele>2695</ele>
        <time>2019-09-03T22:48:55Z</time>
      </trkpt>
      <trkpt lat="44.33195" lon="6.81069">
        <ele>2695</ele>
        <time>2019-09-03T22:48:59Z</time>
      </trkpt>
      <trkpt lat="44.33214" lon="6.81079">
        <ele>2696</ele>
        <time>2019-09-03T22:49:03Z</time>
      </trkpt>
      <trkpt lat="44.33245" lon="6.81083">
        <ele>2694</ele>
        <time>2019-09-03T22:49:08Z</time>
      </trkpt>
      <trkpt lat="44.33269" lon="6.81065">
        <ele>2689</ele>
        <time>2019-09-03T22:49:13Z</time>
      </trkpt>
      <trkpt lat="44.33334" lon="6.81064">
        <ele>2688</ele>
        <time>2019-09-03T22:49:25Z</time>
      </trkpt>
      <trkpt lat="44.33371" lon="6.81061">
        <ele>2685</ele>
        <time>2019-09-03T22:49:31Z</time>
      </trkpt>
      <trkpt lat="44.33399" lon="6.81054">
        <ele>2682</ele>
        <time>2019-09-03T22:49:37Z</time>
      </trkpt>
      <trkpt lat="44.33418" lon="6.81036">
        <ele>2676</ele>
        <time>2019-09-03T22:49:41Z</time>
      </trkpt>
      <trkpt lat="44.33471" lon="6.81013">
        <ele>2674</ele>
        <time>2019-09-03T22:49:50Z</time>
      </trkpt>
      <trkpt lat="44.33512" lon="6.80974">
        <ele>2671</ele>
        <time>2019-09-03T22:49:59Z</time>
      </trkpt>
      <trkpt lat="44.3355" lon="6.80931">
        <ele>2669</ele>
        <time>2019-09-03T22:50:08Z</time>
      </trkpt>
      <trkpt lat="44.33582" lon="6.80881">
        <ele>2668</ele>
        <time>2019-09-03T22:50:17Z</time>
      </trkpt>
      <trkpt lat="44.33613" lon="6.80817">
        <ele>2672</ele>
        <time>2019-09-03T22:50:26Z</time>
      </trkpt>
      <trkpt lat="44.33628" lon="6.80777">
        <ele>2674</ele>
        <time>2019-09-03T22:50:32Z</time>
      </trkpt>
      <trkpt lat="44.33637" lon="6.80714">
        <ele>2674</ele>
        <time>2019-09-03T22:50:40Z</time>
      </trkpt>
      <trkpt lat="44.33643" lon="6.80645">
        <ele>2672</ele>
        <time>2019-09-03T22:50:49Z</time>
      </trkpt>
      <trkpt lat="44.33658" lon="6.80535">
        <ele>2673</ele>
        <time>2019-09-03T22:51:03Z</time>
      </trkpt>
      <trkpt lat="44.33658" lon="6.80512">
        <ele>2671</ele>
        <time>2019-09-03T22:51:06Z</time>
      </trkpt>
      <trkpt lat="44.33652" lon="6.80472">
        <ele>2667</ele>
        <time>2019-09-03T22:51:12Z</time>
      </trkpt>
      <trkpt lat="44.33666" lon="6.80395">
        <ele>2668</ele>
        <time>2019-09-03T22:51:22Z</time>
      </trkpt>
      <trkpt lat="44.33669" lon="6.80335">
        <ele>2667</ele>
        <time>2019-09-03T22:51:29Z</time>
      </trkpt>
      <trkpt lat="44.33669" lon="6.80174">
        <ele>2654</ele>
        <time>2019-09-03T22:51:50Z</time>
      </trkpt>
      <trkpt lat="44.33671" lon="6.80151">
        <ele>2650</ele>
        <time>2019-09-03T22:51:53Z</time>
      </trkpt>
      <trkpt lat="44.33676" lon="6.80139">
        <ele>2648</ele>
        <time>2019-09-03T22:51:54Z</time>
      </trkpt>
      <trkpt lat="44.33683" lon="6.8013">
        <ele>2646</ele>
        <time>2019-09-03T22:51:56Z</time>
      </trkpt>
      <trkpt lat="44.33695" lon="6.80129">
        <ele>2645</ele>
        <time>2019-09-03T22:51:58Z</time>
      </trkpt>
      <trkpt lat="44.33709" lon="6.80133">
        <ele>2644</ele>
        <time>2019-09-03T22:52:01Z</time>
      </trkpt>
      <trkpt lat="44.33724" lon="6.80148">
        <ele>2646</ele>
        <time>2019-09-03T22:52:04Z</time>
      </trkpt>
      <trkpt lat="44.33748" lon="6.80178">
        <ele>2652</ele>
        <time>2019-09-03T22:52:10Z</time>
      </trkpt>
      <trkpt lat="44.33761" lon="6.80189">
        <ele>2652</ele>
        <time>2019-09-03T22:52:13Z</time>
      </trkpt>
      <trkpt lat="44.33808" lon="6.80215">
        <ele>2647</ele>
        <time>2019-09-03T22:52:22Z</time>
      </trkpt>
      <trkpt lat="44.33831" lon="6.80235">
        <ele>2647</ele>
        <time>2019-09-03T22:52:26Z</time>
      </trkpt>
      <trkpt lat="44.33869" lon="6.80252">
        <ele>2645</ele>
        <time>2019-09-03T22:52:33Z</time>
      </trkpt>
      <trkpt lat="44.3389" lon="6.80247">
        <ele>2640</ele>
        <time>2019-09-03T22:52:37Z</time>
      </trkpt>
      <trkpt lat="44.33918" lon="6.80233">
        <ele>2631</ele>
        <time>2019-09-03T22:52:43Z</time>
      </trkpt>
      <trkpt lat="44.33942" lon="6.80215">
        <ele>2628</ele>
        <time>2019-09-03T22:52:47Z</time>
      </trkpt>
      <trkpt lat="44.33958" lon="6.80198">
        <ele>2625</ele>
        <time>2019-09-03T22:52:51Z</time>
      </trkpt>
      <trkpt lat="44.3398" lon="6.80147">
        <ele>2614</ele>
        <time>2019-09-03T22:52:59Z</time>
      </trkpt>
      <trkpt lat="44.33987" lon="6.80138">
        <ele>2612</ele>
        <time>2019-09-03T22:53:00Z</time>
      </trkpt>
      <trkpt lat="44.33996" lon="6.80139">
        <ele>2613</ele>
        <time>2019-09-03T22:53:02Z</time>
      </trkpt>
      <trkpt lat="44.34013" lon="6.80146">
        <ele>2614</ele>
        <time>2019-09-03T22:53:05Z</time>
      </trkpt>
      <trkpt lat="44.34051" lon="6.80168">
        <ele>2614</ele>
        <time>2019-09-03T22:53:12Z</time>
      </trkpt>
      <trkpt lat="44.34112" lon="6.80186">
        <ele>2610</ele>
        <time>2019-09-03T22:53:23Z</time>
      </trkpt>
      <trkpt lat="44.34143" lon="6.80199">
        <ele>2610</ele>
        <time>2019-09-03T22:53:29Z</time>
      </trkpt>
      <trkpt lat="44.34168" lon="6.80206">
        <ele>2609</ele>
        <time>2019-09-03T22:53:34Z</time>
      </trkpt>
      <trkpt lat="44.34208" lon="6.80196">
        <ele>2604</ele>
        <time>2019-09-03T22:53:41Z</time>
      </trkpt>
      <trkpt lat="44.34244" lon="6.802">
        <ele>2603</ele>
        <time>2019-09-03T22:53:47Z</time>
      </trkpt>
      <trkpt lat="44.34259" lon="6.80198">
        <ele>2603</ele>
        <time>2019-09-03T22:53:50Z</time>
      </trkpt>
      <trkpt lat="44.34285" lon="6.80188">
        <ele>2604</ele>
        <time>2019-09-03T22:53:55Z</time>
      </trkpt>
      <trkpt lat="44.3431" lon="6.80171">
        <ele>2602</ele>
        <time>2019-09-03T22:54:00Z</time>
      </trkpt>
      <trkpt lat="44.34359" lon="6.80127">
        <ele>2602</ele>
        <time>2019-09-03T22:54:10Z</time>
      </trkpt>
      <trkpt lat="44.34379" lon="6.80096">
        <ele>2600</ele>
        <time>2019-09-03T22:54:15Z</time>
      </trkpt>
      <trkpt lat="44.34422" lon="6.80004">
        <ele>2592</ele>
        <time>2019-09-03T22:54:29Z</time>
      </trkpt>
      <trkpt lat="44.3443" lon="6.79981">
        <ele>2591</ele>
        <time>2019-09-03T22:54:33Z</time>
      </trkpt>
      <trkpt lat="44.34433" lon="6.79949">
        <ele>2588</ele>
        <time>2019-09-03T22:54:37Z</time>
      </trkpt>
      <trkpt lat="44.34434" lon="6.79924">
        <ele>2586</ele>
        <time>2019-09-03T22:54:40Z</time>
      </trkpt>
      <trkpt lat="44.34428" lon="6.79896">
        <ele>2580</ele>
        <time>2019-09-03T22:54:44Z</time>
      </trkpt>
      <trkpt lat="44.34427" lon="6.79884">
        <ele>2578</ele>
        <time>2019-09-03T22:54:45Z</time>
      </trkpt>
      <trkpt lat="44.34429" lon="6.79873">
        <ele>2576</ele>
        <time>2019-09-03T22:54:47Z</time>
      </trkpt>
      <trkpt lat="44.34436" lon="6.79859">
        <ele>2575</ele>
        <time>2019-09-03T22:54:49Z</time>
      </trkpt>
      <trkpt lat="44.34457" lon="6.79837">
        <ele>2574</ele>
        <time>2019-09-03T22:54:54Z</time>
      </trkpt>
      <trkpt lat="44.34474" lon="6.79823">
        <ele>2574</ele>
        <time>2019-09-03T22:54:57Z</time>
      </trkpt>
      <trkpt lat="44.34514" lon="6.79801">
        <ele>2577</ele>
        <time>2019-09-03T22:55:05Z</time>
      </trkpt>
      <trkpt lat="44.3452" lon="6.79795">
        <ele>2576</ele>
        <time>2019-09-03T22:55:06Z</time>
      </trkpt>
      <trkpt lat="44.34523" lon="6.79786">
        <ele>2575</ele>
        <time>2019-09-03T22:55:07Z</time>
      </trkpt>
      <trkpt lat="44.34523" lon="6.79777">
        <ele>2574</ele>
        <time>2019-09-03T22:55:08Z</time>
      </trkpt>
      <trkpt lat="44.3452" lon="6.79771">
        <ele>2573</ele>
        <time>2019-09-03T22:55:09Z</time>
      </trkpt>
      <trkpt lat="44.34515" lon="6.79768">
        <ele>2572</ele>
        <time>2019-09-03T22:55:10Z</time>
      </trkpt>
      <trkpt lat="44.34507" lon="6.79768">
        <ele>2572</ele>
        <time>2019-09-03T22:55:12Z</time>
      </trkpt>
      <trkpt lat="44.3449" lon="6.79781">
        <ele>2572</ele>
        <time>2019-09-03T22:55:15Z</time>
      </trkpt>
      <trkpt lat="44.34482" lon="6.79783">
        <ele>2572</ele>
        <time>2019-09-03T22:55:17Z</time>
      </trkpt>
      <trkpt lat="44.34473" lon="6.7978">
        <ele>2571</ele>
        <time>2019-09-03T22:55:18Z</time>
      </trkpt>
      <trkpt lat="44.34459" lon="6.7976">
        <ele>2568</ele>
        <time>2019-09-03T22:55:22Z</time>
      </trkpt>
      <trkpt lat="44.34412" lon="6.79729">
        <ele>2563</ele>
        <time>2019-09-03T22:55:31Z</time>
      </trkpt>
      <trkpt lat="44.34402" lon="6.79692">
        <ele>2560</ele>
        <time>2019-09-03T22:55:36Z</time>
      </trkpt>
      <trkpt lat="44.34397" lon="6.79686">
        <ele>2559</ele>
        <time>2019-09-03T22:55:37Z</time>
      </trkpt>
      <trkpt lat="44.34393" lon="6.79687">
        <ele>2558</ele>
        <time>2019-09-03T22:55:38Z</time>
      </trkpt>
      <trkpt lat="44.34388" lon="6.79693">
        <ele>2557</ele>
        <time>2019-09-03T22:55:39Z</time>
      </trkpt>
      <trkpt lat="44.34388" lon="6.79702">
        <ele>2557</ele>
        <time>2019-09-03T22:55:40Z</time>
      </trkpt>
      <trkpt lat="44.34402" lon="6.79749">
        <ele>2561</ele>
        <time>2019-09-03T22:55:47Z</time>
      </trkpt>
      <trkpt lat="44.34404" lon="6.79765">
        <ele>2562</ele>
        <time>2019-09-03T22:55:49Z</time>
      </trkpt>
      <trkpt lat="44.34402" lon="6.79781">
        <ele>2562</ele>
        <time>2019-09-03T22:55:51Z</time>
      </trkpt>
      <trkpt lat="44.34392" lon="6.79812">
        <ele>2560</ele>
        <time>2019-09-03T22:55:55Z</time>
      </trkpt>
      <trkpt lat="44.34387" lon="6.79818">
        <ele>2558</ele>
        <time>2019-09-03T22:55:56Z</time>
      </trkpt>
      <trkpt lat="44.34382" lon="6.79819">
        <ele>2557</ele>
        <time>2019-09-03T22:55:57Z</time>
      </trkpt>
      <trkpt lat="44.34378" lon="6.79816">
        <ele>2556</ele>
        <time>2019-09-03T22:55:58Z</time>
      </trkpt>
      <trkpt lat="44.34374" lon="6.79805">
        <ele>2555</ele>
        <time>2019-09-03T22:56:00Z</time>
      </trkpt>
      <trkpt lat="44.3437" lon="6.79783">
        <ele>2554</ele>
        <time>2019-09-03T22:56:03Z</time>
      </trkpt>
      <trkpt lat="44.34329" lon="6.7967">
        <ele>2545</ele>
        <time>2019-09-03T22:56:19Z</time>
      </trkpt>
      <trkpt lat="44.34308" lon="6.79617">
        <ele>2542</ele>
        <time>2019-09-03T22:56:26Z</time>
      </trkpt>
      <trkpt lat="44.34295" lon="6.79595">
        <ele>2539</ele>
        <time>2019-09-03T22:56:30Z</time>
      </trkpt>
      <trkpt lat="44.34285" lon="6.79583">
        <ele>2537</ele>
        <time>2019-09-03T22:56:32Z</time>
      </trkpt>
      <trkpt lat="44.34273" lon="6.79574">
        <ele>2533</ele>
        <time>2019-09-03T22:56:35Z</time>
      </trkpt>
      <trkpt lat="44.34255" lon="6.79565">
        <ele>2528</ele>
        <time>2019-09-03T22:56:38Z</time>
      </trkpt>
      <trkpt lat="44.34251" lon="6.79559">
        <ele>2526</ele>
        <time>2019-09-03T22:56:39Z</time>
      </trkpt>
      <trkpt lat="44.34249" lon="6.79551">
        <ele>2524</ele>
        <time>2019-09-03T22:56:40Z</time>
      </trkpt>
      <trkpt lat="44.34251" lon="6.79543">
        <ele>2523</ele>
        <time>2019-09-03T22:56:41Z</time>
      </trkpt>
      <trkpt lat="44.34256" lon="6.79538">
        <ele>2523</ele>
        <time>2019-09-03T22:56:43Z</time>
      </trkpt>
      <trkpt lat="44.34273" lon="6.79529">
        <ele>2524</ele>
        <time>2019-09-03T22:56:46Z</time>
      </trkpt>
      <trkpt lat="44.34286" lon="6.79519">
        <ele>2524</ele>
        <time>2019-09-03T22:56:48Z</time>
      </trkpt>
      <trkpt lat="44.34321" lon="6.79478">
        <ele>2520</ele>
        <time>2019-09-03T22:56:57Z</time>
      </trkpt>
      <trkpt lat="44.34331" lon="6.79468">
        <ele>2519</ele>
        <time>2019-09-03T22:56:59Z</time>
      </trkpt>
      <trkpt lat="44.34341" lon="6.79466">
        <ele>2519</ele>
        <time>2019-09-03T22:57:01Z</time>
      </trkpt>
      <trkpt lat="44.34378" lon="6.79466">
        <ele>2520</ele>
        <time>2019-09-03T22:57:07Z</time>
      </trkpt>
      <trkpt lat="44.34386" lon="6.79464">
        <ele>2520</ele>
        <time>2019-09-03T22:57:09Z</time>
      </trkpt>
      <trkpt lat="44.3439" lon="6.79459">
        <ele>2519</ele>
        <time>2019-09-03T22:57:10Z</time>
      </trkpt>
      <trkpt lat="44.34391" lon="6.79453">
        <ele>2517</ele>
        <time>2019-09-03T22:57:10Z</time>
      </trkpt>
      <trkpt lat="44.34389" lon="6.79446">
        <ele>2515</ele>
        <time>2019-09-03T22:57:11Z</time>
      </trkpt>
      <trkpt lat="44.34385" lon="6.7944">
        <ele>2514</ele>
        <time>2019-09-03T22:57:12Z</time>
      </trkpt>
      <trkpt lat="44.34378" lon="6.79436">
        <ele>2512</ele>
        <time>2019-09-03T22:57:14Z</time>
      </trkpt>
      <trkpt lat="44.34324" lon="6.79421">
        <ele>2505</ele>
        <time>2019-09-03T22:57:23Z</time>
      </trkpt>
      <trkpt lat="44.34309" lon="6.79422">
        <ele>2504</ele>
        <time>2019-09-03T22:57:26Z</time>
      </trkpt>
      <trkpt lat="44.34227" lon="6.79444">
        <ele>2500</ele>
        <time>2019-09-03T22:57:41Z</time>
      </trkpt>
      <trkpt lat="44.34207" lon="6.79452">
        <ele>2499</ele>
        <time>2019-09-03T22:57:45Z</time>
      </trkpt>
      <trkpt lat="44.34193" lon="6.79461">
        <ele>2498</ele>
        <time>2019-09-03T22:57:47Z</time>
      </trkpt>
      <trkpt lat="44.34174" lon="6.79477">
        <ele>2498</ele>
        <time>2019-09-03T22:57:51Z</time>
      </trkpt>
      <trkpt lat="44.34159" lon="6.79484">
        <ele>2497</ele>
        <time>2019-09-03T22:57:54Z</time>
      </trkpt>
      <trkpt lat="44.34148" lon="6.79485">
        <ele>2496</ele>
        <time>2019-09-03T22:57:56Z</time>
      </trkpt>
      <trkpt lat="44.34139" lon="6.79483">
        <ele>2494</ele>
        <time>2019-09-03T22:57:58Z</time>
      </trkpt>
      <trkpt lat="44.3413" lon="6.79476">
        <ele>2492</ele>
        <time>2019-09-03T22:58:00Z</time>
      </trkpt>
      <trkpt lat="44.34111" lon="6.79449">
        <ele>2487</ele>
        <time>2019-09-03T22:58:04Z</time>
      </trkpt>
      <trkpt lat="44.34105" lon="6.79435">
        <ele>2485</ele>
        <time>2019-09-03T22:58:07Z</time>
      </trkpt>
      <trkpt lat="44.34093" lon="6.79389">
        <ele>2480</ele>
        <time>2019-09-03T22:58:13Z</time>
      </trkpt>
      <trkpt lat="44.34085" lon="6.79376">
        <ele>2478</ele>
        <time>2019-09-03T22:58:15Z</time>
      </trkpt>
      <trkpt lat="44.34074" lon="6.79364">
        <ele>2476</ele>
        <time>2019-09-03T22:58:17Z</time>
      </trkpt>
      <trkpt lat="44.34061" lon="6.79357">
        <ele>2474</ele>
        <time>2019-09-03T22:58:20Z</time>
      </trkpt>
      <trkpt lat="44.34046" lon="6.79354">
        <ele>2472</ele>
        <time>2019-09-03T22:58:23Z</time>
      </trkpt>
      <trkpt lat="44.34019" lon="6.79355">
        <ele>2470</ele>
        <time>2019-09-03T22:58:27Z</time>
      </trkpt>
      <trkpt lat="44.34009" lon="6.79352">
        <ele>2468</ele>
        <time>2019-09-03T22:58:29Z</time>
      </trkpt>
      <trkpt lat="44.34" lon="6.79342">
        <ele>2467</ele>
        <time>2019-09-03T22:58:31Z</time>
      </trkpt>
      <trkpt lat="44.33996" lon="6.79326">
        <ele>2464</ele>
        <time>2019-09-03T22:58:33Z</time>
      </trkpt>
      <trkpt lat="44.33997" lon="6.79311">
        <ele>2462</ele>
        <time>2019-09-03T22:58:35Z</time>
      </trkpt>
      <trkpt lat="44.34005" lon="6.79295">
        <ele>2460</ele>
        <time>2019-09-03T22:58:38Z</time>
      </trkpt>
      <trkpt lat="44.34075" lon="6.79171">
        <ele>2453</ele>
        <time>2019-09-03T22:58:58Z</time>
      </trkpt>
      <trkpt lat="44.34081" lon="6.79152">
        <ele>2453</ele>
        <time>2019-09-03T22:59:01Z</time>
      </trkpt>
      <trkpt lat="44.34084" lon="6.79134">
        <ele>2453</ele>
        <time>2019-09-03T22:59:03Z</time>
      </trkpt>
      <trkpt lat="44.34084" lon="6.79074">
        <ele>2449</ele>
        <time>2019-09-03T22:59:11Z</time>
      </trkpt>
      <trkpt lat="44.34079" lon="6.79008">
        <ele>2444</ele>
        <time>2019-09-03T22:59:19Z</time>
      </trkpt>
      <trkpt lat="44.3408" lon="6.78981">
        <ele>2440</ele>
        <time>2019-09-03T22:59:22Z</time>
      </trkpt>
      <trkpt lat="44.34082" lon="6.78961">
        <ele>2438</ele>
        <time>2019-09-03T22:59:25Z</time>
      </trkpt>
      <trkpt lat="44.3409" lon="6.78936">
        <ele>2434</ele>
        <time>2019-09-03T22:59:28Z</time>
      </trkpt>
      <trkpt lat="44.3409" lon="6.78927">
        <ele>2432</ele>
        <time>2019-09-03T22:59:30Z</time>
      </trkpt>
      <trkpt lat="44.34088" lon="6.7892">
        <ele>2431</ele>
        <time>2019-09-03T22:59:31Z</time>
      </trkpt>
      <trkpt lat="44.34083" lon="6.78918">
        <ele>2430</ele>
        <time>2019-09-03T22:59:32Z</time>
      </trkpt>
      <trkpt lat="44.34078" lon="6.78922">
        <ele>2429</ele>
        <time>2019-09-03T22:59:33Z</time>
      </trkpt>
      <trkpt lat="44.34068" lon="6.78935">
        <ele>2428</ele>
        <time>2019-09-03T22:59:35Z</time>
      </trkpt>
      <trkpt lat="44.34045" lon="6.7899">
        <ele>2429</ele>
        <time>2019-09-03T22:59:43Z</time>
      </trkpt>
      <trkpt lat="44.34037" lon="6.7902">
        <ele>2429</ele>
        <time>2019-09-03T22:59:47Z</time>
      </trkpt>
      <trkpt lat="44.34027" lon="6.79069">
        <ele>2430</ele>
        <time>2019-09-03T22:59:54Z</time>
      </trkpt>
      <trkpt lat="44.34015" lon="6.79106">
        <ele>2430</ele>
        <time>2019-09-03T22:59:59Z</time>
      </trkpt>
      <trkpt lat="44.34003" lon="6.7913">
        <ele>2430</ele>
        <time>2019-09-03T23:00:03Z</time>
      </trkpt>
      <trkpt lat="44.33992" lon="6.79145">
        <ele>2429</ele>
        <time>2019-09-03T23:00:05Z</time>
      </trkpt>
      <trkpt lat="44.33975" lon="6.79155">
        <ele>2426</ele>
        <time>2019-09-03T23:00:09Z</time>
      </trkpt>
      <trkpt lat="44.33887" lon="6.79172">
        <ele>2411</ele>
        <time>2019-09-03T23:00:24Z</time>
      </trkpt>
      <trkpt lat="44.3383" lon="6.79201">
        <ele>2410</ele>
        <time>2019-09-03T23:00:35Z</time>
      </trkpt>
      <trkpt lat="44.33816" lon="6.79202">
        <ele>2414</ele>
        <time>2019-09-03T23:00:38Z</time>
      </trkpt>
      <trkpt lat="44.33805" lon="6.79194">
        <ele>2415</ele>
        <time>2019-09-03T23:00:40Z</time>
      </trkpt>
      <trkpt lat="44.33796" lon="6.7918">
        <ele>2414</ele>
        <time>2019-09-03T23:00:42Z</time>
      </trkpt>
      <trkpt lat="44.33789" lon="6.7915">
        <ele>2411</ele>
        <time>2019-09-03T23:00:46Z</time>
      </trkpt>
      <trkpt lat="44.33784" lon="6.79059">
        <ele>2399</ele>
        <time>2019-09-03T23:00:58Z</time>
      </trkpt>
      <trkpt lat="44.33783" lon="6.78999">
        <ele>2394</ele>
        <time>2019-09-03T23:01:06Z</time>
      </trkpt>
      <trkpt lat="44.33779" lon="6.78961">
        <ele>2393</ele>
        <time>2019-09-03T23:01:10Z</time>
      </trkpt>
      <trkpt lat="44.33768" lon="6.78915">
        <ele>2393</ele>
        <time>2019-09-03T23:01:17Z</time>
      </trkpt>
      <trkpt lat="44.33764" lon="6.78893">
        <ele>2393</ele>
        <time>2019-09-03T23:01:19Z</time>
      </trkpt>
      <trkpt lat="44.33766" lon="6.78868">
        <ele>2392</ele>
        <time>2019-09-03T23:01:23Z</time>
      </trkpt>
      <trkpt lat="44.33772" lon="6.78833">
        <ele>2390</ele>
        <time>2019-09-03T23:01:27Z</time>
      </trkpt>
      <trkpt lat="44.33771" lon="6.78819">
        <ele>2390</ele>
        <time>2019-09-03T23:01:29Z</time>
      </trkpt>
      <trkpt lat="44.33765" lon="6.78802">
        <ele>2390</ele>
        <time>2019-09-03T23:01:31Z</time>
      </trkpt>
      <trkpt lat="44.33757" lon="6.78785">
        <ele>2391</ele>
        <time>2019-09-03T23:01:34Z</time>
      </trkpt>
      <trkpt lat="44.33753" lon="6.78767">
        <ele>2391</ele>
        <time>2019-09-03T23:01:36Z</time>
      </trkpt>
      <trkpt lat="44.33754" lon="6.78752">
        <ele>2390</ele>
        <time>2019-09-03T23:01:38Z</time>
      </trkpt>
      <trkpt lat="44.33761" lon="6.78732">
        <ele>2389</ele>
        <time>2019-09-03T23:01:41Z</time>
      </trkpt>
      <trkpt lat="44.33772" lon="6.78711">
        <ele>2386</ele>
        <time>2019-09-03T23:01:44Z</time>
      </trkpt>
      <trkpt lat="44.33838" lon="6.78617">
        <ele>2371</ele>
        <time>2019-09-03T23:02:01Z</time>
      </trkpt>
      <trkpt lat="44.33842" lon="6.78604">
        <ele>2371</ele>
        <time>2019-09-03T23:02:03Z</time>
      </trkpt>
      <trkpt lat="44.33843" lon="6.78588">
        <ele>2371</ele>
        <time>2019-09-03T23:02:05Z</time>
      </trkpt>
      <trkpt lat="44.33838" lon="6.78564">
        <ele>2371</ele>
        <time>2019-09-03T23:02:08Z</time>
      </trkpt>
      <trkpt lat="44.33839" lon="6.78537">
        <ele>2371</ele>
        <time>2019-09-03T23:02:12Z</time>
      </trkpt>
      <trkpt lat="44.33846" lon="6.78511">
        <ele>2370</ele>
        <time>2019-09-03T23:02:15Z</time>
      </trkpt>
      <trkpt lat="44.33845" lon="6.78498">
        <ele>2370</ele>
        <time>2019-09-03T23:02:17Z</time>
      </trkpt>
      <trkpt lat="44.3384" lon="6.78486">
        <ele>2370</ele>
        <time>2019-09-03T23:02:19Z</time>
      </trkpt>
      <trkpt lat="44.33831" lon="6.78477">
        <ele>2371</ele>
        <time>2019-09-03T23:02:21Z</time>
      </trkpt>
      <trkpt lat="44.33817" lon="6.78472">
        <ele>2373</ele>
        <time>2019-09-03T23:02:23Z</time>
      </trkpt>
      <trkpt lat="44.33806" lon="6.78464">
        <ele>2375</ele>
        <time>2019-09-03T23:02:25Z</time>
      </trkpt>
      <trkpt lat="44.33803" lon="6.78456">
        <ele>2375</ele>
        <time>2019-09-03T23:02:27Z</time>
      </trkpt>
      <trkpt lat="44.33801" lon="6.78442">
        <ele>2375</ele>
        <time>2019-09-03T23:02:28Z</time>
      </trkpt>
      <trkpt lat="44.33803" lon="6.78433">
        <ele>2374</ele>
        <time>2019-09-03T23:02:30Z</time>
      </trkpt>
      <trkpt lat="44.33811" lon="6.78426">
        <ele>2373</ele>
        <time>2019-09-03T23:02:31Z</time>
      </trkpt>
      <trkpt lat="44.3384" lon="6.78415">
        <ele>2369</ele>
        <time>2019-09-03T23:02:37Z</time>
      </trkpt>
      <trkpt lat="44.33852" lon="6.78406">
        <ele>2368</ele>
        <time>2019-09-03T23:02:39Z</time>
      </trkpt>
      <trkpt lat="44.33861" lon="6.78395">
        <ele>2367</ele>
        <time>2019-09-03T23:02:41Z</time>
      </trkpt>
      <trkpt lat="44.33901" lon="6.78304">
        <ele>2365</ele>
        <time>2019-09-03T23:02:55Z</time>
      </trkpt>
      <trkpt lat="44.33912" lon="6.7829">
        <ele>2365</ele>
        <time>2019-09-03T23:02:57Z</time>
      </trkpt>
      <trkpt lat="44.33949" lon="6.78258">
        <ele>2363</ele>
        <time>2019-09-03T23:03:05Z</time>
      </trkpt>
      <trkpt lat="44.33963" lon="6.7825">
        <ele>2361</ele>
        <time>2019-09-03T23:03:08Z</time>
      </trkpt>
      <trkpt lat="44.33973" lon="6.7825">
        <ele>2360</ele>
        <time>2019-09-03T23:03:10Z</time>
      </trkpt>
      <trkpt lat="44.3399" lon="6.78255">
        <ele>2356</ele>
        <time>2019-09-03T23:03:13Z</time>
      </trkpt>
      <trkpt lat="44.34013" lon="6.78268">
        <ele>2352</ele>
        <time>2019-09-03T23:03:17Z</time>
      </trkpt>
      <trkpt lat="44.34027" lon="6.7827">
        <ele>2351</ele>
        <time>2019-09-03T23:03:20Z</time>
      </trkpt>
      <trkpt lat="44.34112" lon="6.78255">
        <ele>2342</ele>
        <time>2019-09-03T23:03:35Z</time>
      </trkpt>
      <trkpt lat="44.34188" lon="6.78219">
        <ele>2343</ele>
        <time>2019-09-03T23:03:49Z</time>
      </trkpt>
      <trkpt lat="44.34202" lon="6.78215">
        <ele>2343</ele>
        <time>2019-09-03T23:03:52Z</time>
      </trkpt>
      <trkpt lat="44.3426" lon="6.78221">
        <ele>2340</ele>
        <time>2019-09-03T23:04:02Z</time>
      </trkpt>
      <trkpt lat="44.34278" lon="6.78231">
        <ele>2341</ele>
        <time>2019-09-03T23:04:05Z</time>
      </trkpt>
      <trkpt lat="44.34315" lon="6.783">
        <ele>2337</ele>
        <time>2019-09-03T23:04:16Z</time>
      </trkpt>
      <trkpt lat="44.34318" lon="6.78313">
        <ele>2336</ele>
        <time>2019-09-03T23:04:18Z</time>
      </trkpt>
      <trkpt lat="44.34319" lon="6.78324">
        <ele>2335</ele>
        <time>2019-09-03T23:04:20Z</time>
      </trkpt>
      <trkpt lat="44.34317" lon="6.78346">
        <ele>2333</ele>
        <time>2019-09-03T23:04:22Z</time>
      </trkpt>
      <trkpt lat="44.34309" lon="6.7839">
        <ele>2329</ele>
        <time>2019-09-03T23:04:28Z</time>
      </trkpt>
      <trkpt lat="44.34307" lon="6.78418">
        <ele>2327</ele>
        <time>2019-09-03T23:04:32Z</time>
      </trkpt>
      <trkpt lat="44.3431" lon="6.78429">
        <ele>2326</ele>
        <time>2019-09-03T23:04:33Z</time>
      </trkpt>
      <trkpt lat="44.34317" lon="6.78438">
        <ele>2325</ele>
        <time>2019-09-03T23:04:35Z</time>
      </trkpt>
      <trkpt lat="44.3433" lon="6.78452">
        <ele>2323</ele>
        <time>2019-09-03T23:04:38Z</time>
      </trkpt>
      <trkpt lat="44.34346" lon="6.78462">
        <ele>2321</ele>
        <time>2019-09-03T23:04:41Z</time>
      </trkpt>
      <trkpt lat="44.34359" lon="6.78463">
        <ele>2319</ele>
        <time>2019-09-03T23:04:43Z</time>
      </trkpt>
      <trkpt lat="44.34375" lon="6.7846">
        <ele>2318</ele>
        <time>2019-09-03T23:04:46Z</time>
      </trkpt>
      <trkpt lat="44.34404" lon="6.78448">
        <ele>2318</ele>
        <time>2019-09-03T23:04:52Z</time>
      </trkpt>
      <trkpt lat="44.34418" lon="6.78445">
        <ele>2317</ele>
        <time>2019-09-03T23:04:54Z</time>
      </trkpt>
      <trkpt lat="44.34454" lon="6.78451">
        <ele>2313</ele>
        <time>2019-09-03T23:05:01Z</time>
      </trkpt>
      <trkpt lat="44.34477" lon="6.78452">
        <ele>2311</ele>
        <time>2019-09-03T23:05:05Z</time>
      </trkpt>
      <trkpt lat="44.34488" lon="6.78455">
        <ele>2309</ele>
        <time>2019-09-03T23:05:07Z</time>
      </trkpt>
      <trkpt lat="44.34493" lon="6.78464">
        <ele>2308</ele>
        <time>2019-09-03T23:05:08Z</time>
      </trkpt>
      <trkpt lat="44.34497" lon="6.78481">
        <ele>2306</ele>
        <time>2019-09-03T23:05:10Z</time>
      </trkpt>
      <trkpt lat="44.34502" lon="6.78547">
        <ele>2298</ele>
        <time>2019-09-03T23:05:19Z</time>
      </trkpt>
      <trkpt lat="44.34506" lon="6.78561">
        <ele>2297</ele>
        <time>2019-09-03T23:05:21Z</time>
      </trkpt>
      <trkpt lat="44.34514" lon="6.78572">
        <ele>2296</ele>
        <time>2019-09-03T23:05:23Z</time>
      </trkpt>
      <trkpt lat="44.34533" lon="6.78589">
        <ele>2294</ele>
        <time>2019-09-03T23:05:27Z</time>
      </trkpt>
      <trkpt lat="44.34567" lon="6.78632">
        <ele>2292</ele>
        <time>2019-09-03T23:05:35Z</time>
      </trkpt>
      <trkpt lat="44.34581" lon="6.78645">
        <ele>2291</ele>
        <time>2019-09-03T23:05:38Z</time>
      </trkpt>
      <trkpt lat="44.34606" lon="6.78663">
        <ele>2289</ele>
        <time>2019-09-03T23:05:43Z</time>
      </trkpt>
      <trkpt lat="44.34678" lon="6.78707">
        <ele>2283</ele>
        <time>2019-09-03T23:05:57Z</time>
      </trkpt>
      <trkpt lat="44.34694" lon="6.78711">
        <ele>2281</ele>
        <time>2019-09-03T23:06:00Z</time>
      </trkpt>
      <trkpt lat="44.34708" lon="6.78709">
        <ele>2280</ele>
        <time>2019-09-03T23:06:02Z</time>
      </trkpt>
      <trkpt lat="44.34722" lon="6.78702">
        <ele>2279</ele>
        <time>2019-09-03T23:06:05Z</time>
      </trkpt>
      <trkpt lat="44.34756" lon="6.78667">
        <ele>2278</ele>
        <time>2019-09-03T23:06:12Z</time>
      </trkpt>
      <trkpt lat="44.34816" lon="6.78599">
        <ele>2267</ele>
        <time>2019-09-03T23:06:26Z</time>
      </trkpt>
      <trkpt lat="44.34832" lon="6.78579">
        <ele>2264</ele>
        <time>2019-09-03T23:06:30Z</time>
      </trkpt>
      <trkpt lat="44.34836" lon="6.78568">
        <ele>2262</ele>
        <time>2019-09-03T23:06:32Z</time>
      </trkpt>
      <trkpt lat="44.34835" lon="6.78559">
        <ele>2261</ele>
        <time>2019-09-03T23:06:33Z</time>
      </trkpt>
      <trkpt lat="44.34832" lon="6.78552">
        <ele>2260</ele>
        <time>2019-09-03T23:06:34Z</time>
      </trkpt>
      <trkpt lat="44.34827" lon="6.78549">
        <ele>2260</ele>
        <time>2019-09-03T23:06:35Z</time>
      </trkpt>
      <trkpt lat="44.34816" lon="6.7855">
        <ele>2261</ele>
        <time>2019-09-03T23:06:37Z</time>
      </trkpt>
      <trkpt lat="44.34789" lon="6.78559">
        <ele>2265</ele>
        <time>2019-09-03T23:06:42Z</time>
      </trkpt>
      <trkpt lat="44.34778" lon="6.78557">
        <ele>2266</ele>
        <time>2019-09-03T23:06:44Z</time>
      </trkpt>
      <trkpt lat="44.34772" lon="6.78548">
        <ele>2266</ele>
        <time>2019-09-03T23:06:45Z</time>
      </trkpt>
      <trkpt lat="44.3477" lon="6.78532">
        <ele>2266</ele>
        <time>2019-09-03T23:06:47Z</time>
      </trkpt>
      <trkpt lat="44.34773" lon="6.78517">
        <ele>2264</ele>
        <time>2019-09-03T23:06:49Z</time>
      </trkpt>
      <trkpt lat="44.34808" lon="6.78468">
        <ele>2252</ele>
        <time>2019-09-03T23:06:58Z</time>
      </trkpt>
      <trkpt lat="44.34812" lon="6.78453">
        <ele>2249</ele>
        <time>2019-09-03T23:07:00Z</time>
      </trkpt>
      <trkpt lat="44.34813" lon="6.78426">
        <ele>2246</ele>
        <time>2019-09-03T23:07:04Z</time>
      </trkpt>
      <trkpt lat="44.34817" lon="6.78421">
        <ele>2243</ele>
        <time>2019-09-03T23:07:04Z</time>
      </trkpt>
      <trkpt lat="44.34822" lon="6.78421">
        <ele>2241</ele>
        <time>2019-09-03T23:07:05Z</time>
      </trkpt>
      <trkpt lat="44.34826" lon="6.78424">
        <ele>2240</ele>
        <time>2019-09-03T23:07:06Z</time>
      </trkpt>
      <trkpt lat="44.34833" lon="6.78453">
        <ele>2242</ele>
        <time>2019-09-03T23:07:10Z</time>
      </trkpt>
      <trkpt lat="44.34838" lon="6.78469">
        <ele>2244</ele>
        <time>2019-09-03T23:07:12Z</time>
      </trkpt>
      <trkpt lat="44.34847" lon="6.78483">
        <ele>2245</ele>
        <time>2019-09-03T23:07:15Z</time>
      </trkpt>
      <trkpt lat="44.34865" lon="6.78489">
        <ele>2243</ele>
        <time>2019-09-03T23:07:18Z</time>
      </trkpt>
      <trkpt lat="44.34911" lon="6.7849">
        <ele>2236</ele>
        <time>2019-09-03T23:07:26Z</time>
      </trkpt>
      <trkpt lat="44.34924" lon="6.78493">
        <ele>2234</ele>
        <time>2019-09-03T23:07:28Z</time>
      </trkpt>
      <trkpt lat="44.34979" lon="6.78533">
        <ele>2228</ele>
        <time>2019-09-03T23:07:40Z</time>
      </trkpt>
      <trkpt lat="44.34984" lon="6.78532">
        <ele>2226</ele>
        <time>2019-09-03T23:07:40Z</time>
      </trkpt>
      <trkpt lat="44.34986" lon="6.78528">
        <ele>2225</ele>
        <time>2019-09-03T23:07:41Z</time>
      </trkpt>
      <trkpt lat="44.34986" lon="6.7852">
        <ele>2223</ele>
        <time>2019-09-03T23:07:42Z</time>
      </trkpt>
      <trkpt lat="44.34982" lon="6.78513">
        <ele>2223</ele>
        <time>2019-09-03T23:07:43Z</time>
      </trkpt>
      <trkpt lat="44.34915" lon="6.78453">
        <ele>2225</ele>
        <time>2019-09-03T23:07:57Z</time>
      </trkpt>
      <trkpt lat="44.34878" lon="6.78404">
        <ele>2221</ele>
        <time>2019-09-03T23:08:06Z</time>
      </trkpt>
      <trkpt lat="44.34868" lon="6.78388">
        <ele>2221</ele>
        <time>2019-09-03T23:08:09Z</time>
      </trkpt>
      <trkpt lat="44.34865" lon="6.78378">
        <ele>2220</ele>
        <time>2019-09-03T23:08:11Z</time>
      </trkpt>
      <trkpt lat="44.34867" lon="6.78361">
        <ele>2216</ele>
        <time>2019-09-03T23:08:13Z</time>
      </trkpt>
      <trkpt lat="44.34877" lon="6.78356">
        <ele>2213</ele>
        <time>2019-09-03T23:08:15Z</time>
      </trkpt>
      <trkpt lat="44.34959" lon="6.78353">
        <ele>2197</ele>
        <time>2019-09-03T23:08:29Z</time>
      </trkpt>
      <trkpt lat="44.34999" lon="6.78344">
        <ele>2190</ele>
        <time>2019-09-03T23:08:36Z</time>
      </trkpt>
      <trkpt lat="44.35011" lon="6.78345">
        <ele>2187</ele>
        <time>2019-09-03T23:08:39Z</time>
      </trkpt>
      <trkpt lat="44.35023" lon="6.78351">
        <ele>2186</ele>
        <time>2019-09-03T23:08:41Z</time>
      </trkpt>
      <trkpt lat="44.35034" lon="6.78369">
        <ele>2186</ele>
        <time>2019-09-03T23:08:44Z</time>
      </trkpt>
      <trkpt lat="44.35044" lon="6.7839">
        <ele>2186</ele>
        <time>2019-09-03T23:08:47Z</time>
      </trkpt>
      <trkpt lat="44.3505" lon="6.78412">
        <ele>2188</ele>
        <time>2019-09-03T23:08:50Z</time>
      </trkpt>
      <trkpt lat="44.35054" lon="6.78441">
        <ele>2191</ele>
        <time>2019-09-03T23:08:54Z</time>
      </trkpt>
      <trkpt lat="44.35061" lon="6.78452">
        <ele>2190</ele>
        <time>2019-09-03T23:08:56Z</time>
      </trkpt>
      <trkpt lat="44.35112" lon="6.78488">
        <ele>2182</ele>
        <time>2019-09-03T23:09:06Z</time>
      </trkpt>
      <trkpt lat="44.35155" lon="6.78511">
        <ele>2174</ele>
        <time>2019-09-03T23:09:14Z</time>
      </trkpt>
      <trkpt lat="44.35162" lon="6.78509">
        <ele>2172</ele>
        <time>2019-09-03T23:09:15Z</time>
      </trkpt>
      <trkpt lat="44.3517" lon="6.78503">
        <ele>2170</ele>
        <time>2019-09-03T23:09:17Z</time>
      </trkpt>
      <trkpt lat="44.35173" lon="6.78495">
        <ele>2170</ele>
        <time>2019-09-03T23:09:18Z</time>
      </trkpt>
      <trkpt lat="44.35173" lon="6.78487">
        <ele>2169</ele>
        <time>2019-09-03T23:09:19Z</time>
      </trkpt>
      <trkpt lat="44.35167" lon="6.78475">
        <ele>2169</ele>
        <time>2019-09-03T23:09:21Z</time>
      </trkpt>
      <trkpt lat="44.35143" lon="6.78457">
        <ele>2173</ele>
        <time>2019-09-03T23:09:26Z</time>
      </trkpt>
      <trkpt lat="44.35139" lon="6.78444">
        <ele>2173</ele>
        <time>2019-09-03T23:09:28Z</time>
      </trkpt>
      <trkpt lat="44.3514" lon="6.78431">
        <ele>2172</ele>
        <time>2019-09-03T23:09:29Z</time>
      </trkpt>
      <trkpt lat="44.35152" lon="6.78399">
        <ele>2167</ele>
        <time>2019-09-03T23:09:34Z</time>
      </trkpt>
      <trkpt lat="44.35151" lon="6.78335">
        <ele>2162</ele>
        <time>2019-09-03T23:09:42Z</time>
      </trkpt>
      <trkpt lat="44.35153" lon="6.78301">
        <ele>2162</ele>
        <time>2019-09-03T23:09:46Z</time>
      </trkpt>
      <trkpt lat="44.35157" lon="6.78285">
        <ele>2162</ele>
        <time>2019-09-03T23:09:48Z</time>
      </trkpt>
      <trkpt lat="44.35161" lon="6.78276">
        <ele>2162</ele>
        <time>2019-09-03T23:09:50Z</time>
      </trkpt>
      <trkpt lat="44.35169" lon="6.78269">
        <ele>2161</ele>
        <time>2019-09-03T23:09:52Z</time>
      </trkpt>
      <trkpt lat="44.35182" lon="6.78264">
        <ele>2159</ele>
        <time>2019-09-03T23:09:54Z</time>
      </trkpt>
      <trkpt lat="44.35198" lon="6.78268">
        <ele>2157</ele>
        <time>2019-09-03T23:09:57Z</time>
      </trkpt>
      <trkpt lat="44.35218" lon="6.78281">
        <ele>2154</ele>
        <time>2019-09-03T23:10:01Z</time>
      </trkpt>
      <trkpt lat="44.3526" lon="6.78317">
        <ele>2147</ele>
        <time>2019-09-03T23:10:09Z</time>
      </trkpt>
      <trkpt lat="44.35309" lon="6.78353">
        <ele>2141</ele>
        <time>2019-09-03T23:10:19Z</time>
      </trkpt>
      <trkpt lat="44.35347" lon="6.78359">
        <ele>2136</ele>
        <time>2019-09-03T23:10:26Z</time>
      </trkpt>
      <trkpt lat="44.35373" lon="6.78353">
        <ele>2133</ele>
        <time>2019-09-03T23:10:31Z</time>
      </trkpt>
      <trkpt lat="44.35407" lon="6.78336">
        <ele>2130</ele>
        <time>2019-09-03T23:10:37Z</time>
      </trkpt>
      <trkpt lat="44.35431" lon="6.78334">
        <ele>2126</ele>
        <time>2019-09-03T23:10:42Z</time>
      </trkpt>
      <trkpt lat="44.35449" lon="6.78326">
        <ele>2125</ele>
        <time>2019-09-03T23:10:45Z</time>
      </trkpt>
      <trkpt lat="44.35495" lon="6.78273">
        <ele>2126</ele>
        <time>2019-09-03T23:10:55Z</time>
      </trkpt>
      <trkpt lat="44.35512" lon="6.78263">
        <ele>2125</ele>
        <time>2019-09-03T23:10:59Z</time>
      </trkpt>
      <trkpt lat="44.35568" lon="6.78254">
        <ele>2121</ele>
        <time>2019-09-03T23:11:09Z</time>
      </trkpt>
      <trkpt lat="44.35605" lon="6.78265">
        <ele>2117</ele>
        <time>2019-09-03T23:11:16Z</time>
      </trkpt>
      <trkpt lat="44.35681" lon="6.78328">
        <ele>2103</ele>
        <time>2019-09-03T23:11:31Z</time>
      </trkpt>
      <trkpt lat="44.35705" lon="6.78339">
        <ele>2100</ele>
        <time>2019-09-03T23:11:36Z</time>
      </trkpt>
      <trkpt lat="44.35793" lon="6.78361">
        <ele>2093</ele>
        <time>2019-09-03T23:11:52Z</time>
      </trkpt>
      <trkpt lat="44.3581" lon="6.78357">
        <ele>2091</ele>
        <time>2019-09-03T23:11:55Z</time>
      </trkpt>
      <trkpt lat="44.35828" lon="6.78346">
        <ele>2089</ele>
        <time>2019-09-03T23:11:58Z</time>
      </trkpt>
      <trkpt lat="44.35859" lon="6.78306">
        <ele>2094</ele>
        <time>2019-09-03T23:12:06Z</time>
      </trkpt>
      <trkpt lat="44.35873" lon="6.78296">
        <ele>2096</ele>
        <time>2019-09-03T23:12:09Z</time>
      </trkpt>
      <trkpt lat="44.35887" lon="6.783">
        <ele>2095</ele>
        <time>2019-09-03T23:12:11Z</time>
      </trkpt>
      <trkpt lat="44.35899" lon="6.78311">
        <ele>2094</ele>
        <time>2019-09-03T23:12:14Z</time>
      </trkpt>
      <trkpt lat="44.35953" lon="6.78379">
        <ele>2087</ele>
        <time>2019-09-03T23:12:27Z</time>
      </trkpt>
      <trkpt lat="44.36001" lon="6.78444">
        <ele>2082</ele>
        <time>2019-09-03T23:12:38Z</time>
      </trkpt>
      <trkpt lat="44.36011" lon="6.78463">
        <ele>2082</ele>
        <time>2019-09-03T23:12:41Z</time>
      </trkpt>
      <trkpt lat="44.36018" lon="6.78488">
        <ele>2080</ele>
        <time>2019-09-03T23:12:45Z</time>
      </trkpt>
      <trkpt lat="44.36027" lon="6.78543">
        <ele>2080</ele>
        <time>2019-09-03T23:12:52Z</time>
      </trkpt>
      <trkpt lat="44.3603" lon="6.78552">
        <ele>2080</ele>
        <time>2019-09-03T23:12:53Z</time>
      </trkpt>
      <trkpt lat="44.36058" lon="6.78563">
        <ele>2078</ele>
        <time>2019-09-03T23:12:58Z</time>
      </trkpt>
      <trkpt lat="44.36081" lon="6.78589">
        <ele>2074</ele>
        <time>2019-09-03T23:13:04Z</time>
      </trkpt>
      <trkpt lat="44.36103" lon="6.78607">
        <ele>2075</ele>
        <time>2019-09-03T23:13:08Z</time>
      </trkpt>
      <trkpt lat="44.3611" lon="6.7862">
        <ele>2074</ele>
        <time>2019-09-03T23:13:10Z</time>
      </trkpt>
      <trkpt lat="44.36113" lon="6.78633">
        <ele>2074</ele>
        <time>2019-09-03T23:13:12Z</time>
      </trkpt>
      <trkpt lat="44.36117" lon="6.78661">
        <ele>2072</ele>
        <time>2019-09-03T23:13:16Z</time>
      </trkpt>
      <trkpt lat="44.36126" lon="6.78683">
        <ele>2070</ele>
        <time>2019-09-03T23:13:19Z</time>
      </trkpt>
      <trkpt lat="44.36145" lon="6.78711">
        <ele>2065</ele>
        <time>2019-09-03T23:13:24Z</time>
      </trkpt>
      <trkpt lat="44.36163" lon="6.78732">
        <ele>2058</ele>
        <time>2019-09-03T23:13:28Z</time>
      </trkpt>
      <trkpt lat="44.36185" lon="6.7875">
        <ele>2054</ele>
        <time>2019-09-03T23:13:33Z</time>
      </trkpt>
      <trkpt lat="44.36197" lon="6.78756">
        <ele>2055</ele>
        <time>2019-09-03T23:13:35Z</time>
      </trkpt>
      <trkpt lat="44.36265" lon="6.78778">
        <ele>2054</ele>
        <time>2019-09-03T23:13:47Z</time>
      </trkpt>
      <trkpt lat="44.36277" lon="6.78784">
        <ele>2054</ele>
        <time>2019-09-03T23:13:49Z</time>
      </trkpt>
      <trkpt lat="44.36319" lon="6.78811">
        <ele>2058</ele>
        <time>2019-09-03T23:13:58Z</time>
      </trkpt>
      <trkpt lat="44.36334" lon="6.78817">
        <ele>2059</ele>
        <time>2019-09-03T23:14:00Z</time>
      </trkpt>
      <trkpt lat="44.36376" lon="6.78801">
        <ele>2052</ele>
        <time>2019-09-03T23:14:08Z</time>
      </trkpt>
      <trkpt lat="44.36384" lon="6.78803">
        <ele>2053</ele>
        <time>2019-09-03T23:14:10Z</time>
      </trkpt>
      <trkpt lat="44.36398" lon="6.7881">
        <ele>2054</ele>
        <time>2019-09-03T23:14:12Z</time>
      </trkpt>
      <trkpt lat="44.36406" lon="6.7881">
        <ele>2054</ele>
        <time>2019-09-03T23:14:14Z</time>
      </trkpt>
      <trkpt lat="44.36443" lon="6.78794">
        <ele>2041</ele>
        <time>2019-09-03T23:14:21Z</time>
      </trkpt>
      <trkpt lat="44.36454" lon="6.78793">
        <ele>2038</ele>
        <time>2019-09-03T23:14:23Z</time>
      </trkpt>
      <trkpt lat="44.36463" lon="6.78796">
        <ele>2037</ele>
        <time>2019-09-03T23:14:24Z</time>
      </trkpt>
      <trkpt lat="44.36481" lon="6.7881">
        <ele>2038</ele>
        <time>2019-09-03T23:14:28Z</time>
      </trkpt>
      <trkpt lat="44.36496" lon="6.78833">
        <ele>2042</ele>
        <time>2019-09-03T23:14:32Z</time>
      </trkpt>
      <trkpt lat="44.36507" lon="6.78845">
        <ele>2045</ele>
        <time>2019-09-03T23:14:34Z</time>
      </trkpt>
      <trkpt lat="44.36525" lon="6.78855">
        <ele>2045</ele>
        <time>2019-09-03T23:14:38Z</time>
      </trkpt>
      <trkpt lat="44.36546" lon="6.78861">
        <ele>2044</ele>
        <time>2019-09-03T23:14:42Z</time>
      </trkpt>
      <trkpt lat="44.36582" lon="6.78862">
        <ele>2037</ele>
        <time>2019-09-03T23:14:48Z</time>
      </trkpt>
      <trkpt lat="44.36602" lon="6.78869">
        <ele>2040</ele>
        <time>2019-09-03T23:14:52Z</time>
      </trkpt>
      <trkpt lat="44.36619" lon="6.78866">
        <ele>2038</ele>
        <time>2019-09-03T23:14:55Z</time>
      </trkpt>
      <trkpt lat="44.36631" lon="6.7886">
        <ele>2035</ele>
        <time>2019-09-03T23:14:57Z</time>
      </trkpt>
      <trkpt lat="44.36644" lon="6.7885">
        <ele>2031</ele>
        <time>2019-09-03T23:15:00Z</time>
      </trkpt>
      <trkpt lat="44.36677" lon="6.78839">
        <ele>2028</ele>
        <time>2019-09-03T23:15:06Z</time>
      </trkpt>
      <trkpt lat="44.36687" lon="6.7883">
        <ele>2026</ele>
        <time>2019-09-03T23:15:08Z</time>
      </trkpt>
      <trkpt lat="44.36704" lon="6.78801">
        <ele>2020</ele>
        <time>2019-09-03T23:15:13Z</time>
      </trkpt>
      <trkpt lat="44.36735" lon="6.78764">
        <ele>2015</ele>
        <time>2019-09-03T23:15:20Z</time>
      </trkpt>
      <trkpt lat="44.36745" lon="6.78757">
        <ele>2014</ele>
        <time>2019-09-03T23:15:22Z</time>
      </trkpt>
      <trkpt lat="44.36775" lon="6.78742">
        <ele>2013</ele>
        <time>2019-09-03T23:15:27Z</time>
      </trkpt>
      <trkpt lat="44.36788" lon="6.78729">
        <ele>2010</ele>
        <time>2019-09-03T23:15:30Z</time>
      </trkpt>
      <trkpt lat="44.36803" lon="6.7872">
        <ele>2009</ele>
        <time>2019-09-03T23:15:33Z</time>
      </trkpt>
      <trkpt lat="44.36845" lon="6.78705">
        <ele>2008</ele>
        <time>2019-09-03T23:15:41Z</time>
      </trkpt>
      <trkpt lat="44.36875" lon="6.78698">
        <ele>2008</ele>
        <time>2019-09-03T23:15:46Z</time>
      </trkpt>
      <trkpt lat="44.36879" lon="6.78689">
        <ele>2005</ele>
        <time>2019-09-03T23:15:48Z</time>
      </trkpt>
      <trkpt lat="44.36877" lon="6.78681">
        <ele>2003</ele>
        <time>2019-09-03T23:15:49Z</time>
      </trkpt>
      <trkpt lat="44.36873" lon="6.78679">
        <ele>2002</ele>
        <time>2019-09-03T23:15:50Z</time>
      </trkpt>
      <trkpt lat="44.36821" lon="6.78681">
        <ele>1998</ele>
        <time>2019-09-03T23:15:59Z</time>
      </trkpt>
      <trkpt lat="44.36771" lon="6.78675">
        <ele>1991</ele>
        <time>2019-09-03T23:16:08Z</time>
      </trkpt>
      <trkpt lat="44.36757" lon="6.78678">
        <ele>1990</ele>
        <time>2019-09-03T23:16:10Z</time>
      </trkpt>
      <trkpt lat="44.3674" lon="6.78688">
        <ele>1992</ele>
        <time>2019-09-03T23:16:14Z</time>
      </trkpt>
      <trkpt lat="44.36731" lon="6.78689">
        <ele>1992</ele>
        <time>2019-09-03T23:16:15Z</time>
      </trkpt>
      <trkpt lat="44.36724" lon="6.78688">
        <ele>1991</ele>
        <time>2019-09-03T23:16:16Z</time>
      </trkpt>
      <trkpt lat="44.367" lon="6.78675">
        <ele>1986</ele>
        <time>2019-09-03T23:16:21Z</time>
      </trkpt>
      <trkpt lat="44.36689" lon="6.78672">
        <ele>1985</ele>
        <time>2019-09-03T23:16:23Z</time>
      </trkpt>
      <trkpt lat="44.36674" lon="6.78673">
        <ele>1985</ele>
        <time>2019-09-03T23:16:26Z</time>
      </trkpt>
      <trkpt lat="44.36656" lon="6.78682">
        <ele>1986</ele>
        <time>2019-09-03T23:16:29Z</time>
      </trkpt>
      <trkpt lat="44.36649" lon="6.78679">
        <ele>1984</ele>
        <time>2019-09-03T23:16:30Z</time>
      </trkpt>
      <trkpt lat="44.36648" lon="6.78666">
        <ele>1981</ele>
        <time>2019-09-03T23:16:32Z</time>
      </trkpt>
      <trkpt lat="44.36651" lon="6.7866">
        <ele>1980</ele>
        <time>2019-09-03T23:16:33Z</time>
      </trkpt>
      <trkpt lat="44.36656" lon="6.78656">
        <ele>1980</ele>
        <time>2019-09-03T23:16:34Z</time>
      </trkpt>
      <trkpt lat="44.36674" lon="6.78648">
        <ele>1980</ele>
        <time>2019-09-03T23:16:37Z</time>
      </trkpt>
      <trkpt lat="44.36719" lon="6.78639">
        <ele>1979</ele>
        <time>2019-09-03T23:16:45Z</time>
      </trkpt>
      <trkpt lat="44.36742" lon="6.7863">
        <ele>1978</ele>
        <time>2019-09-03T23:16:50Z</time>
      </trkpt>
      <trkpt lat="44.36786" lon="6.786">
        <ele>1972</ele>
        <time>2019-09-03T23:16:58Z</time>
      </trkpt>
      <trkpt lat="44.3682" lon="6.78591">
        <ele>1970</ele>
        <time>2019-09-03T23:17:05Z</time>
      </trkpt>
      <trkpt lat="44.36841" lon="6.78567">
        <ele>1964</ele>
        <time>2019-09-03T23:17:09Z</time>
      </trkpt>
      <trkpt lat="44.3687" lon="6.78543">
        <ele>1960</ele>
        <time>2019-09-03T23:17:15Z</time>
      </trkpt>
      <trkpt lat="44.36901" lon="6.78534">
        <ele>1961</ele>
        <time>2019-09-03T23:17:21Z</time>
      </trkpt>
      <trkpt lat="44.36911" lon="6.78529">
        <ele>1960</ele>
        <time>2019-09-03T23:17:23Z</time>
      </trkpt>
      <trkpt lat="44.36919" lon="6.78519">
        <ele>1959</ele>
        <time>2019-09-03T23:17:25Z</time>
      </trkpt>
      <trkpt lat="44.36924" lon="6.78508">
        <ele>1957</ele>
        <time>2019-09-03T23:17:26Z</time>
      </trkpt>
      <trkpt lat="44.3693" lon="6.78485">
        <ele>1953</ele>
        <time>2019-09-03T23:17:30Z</time>
      </trkpt>
      <trkpt lat="44.36956" lon="6.78461">
        <ele>1952</ele>
        <time>2019-09-03T23:17:35Z</time>
      </trkpt>
      <trkpt lat="44.37002" lon="6.78414">
        <ele>1948</ele>
        <time>2019-09-03T23:17:45Z</time>
      </trkpt>
      <trkpt lat="44.37016" lon="6.78396">
        <ele>1948</ele>
        <time>2019-09-03T23:17:49Z</time>
      </trkpt>
      <trkpt lat="44.37033" lon="6.78356">
        <ele>1943</ele>
        <time>2019-09-03T23:17:55Z</time>
      </trkpt>
      <trkpt lat="44.37057" lon="6.7831">
        <ele>1938</ele>
        <time>2019-09-03T23:18:02Z</time>
      </trkpt>
      <trkpt lat="44.37088" lon="6.78271">
        <ele>1931</ele>
        <time>2019-09-03T23:18:09Z</time>
      </trkpt>
      <trkpt lat="44.37134" lon="6.78237">
        <ele>1927</ele>
        <time>2019-09-03T23:18:18Z</time>
      </trkpt>
      <trkpt lat="44.37153" lon="6.78225">
        <ele>1925</ele>
        <time>2019-09-03T23:18:22Z</time>
      </trkpt>
      <trkpt lat="44.37172" lon="6.78217">
        <ele>1923</ele>
        <time>2019-09-03T23:18:26Z</time>
      </trkpt>
      <trkpt lat="44.3721" lon="6.78214">
        <ele>1921</ele>
        <time>2019-09-03T23:18:32Z</time>
      </trkpt>
      <trkpt lat="44.37228" lon="6.78204">
        <ele>1917</ele>
        <time>2019-09-03T23:18:36Z</time>
      </trkpt>
      <trkpt lat="44.37269" lon="6.78191">
        <ele>1906</ele>
        <time>2019-09-03T23:18:43Z</time>
      </trkpt>
      <trkpt lat="44.37285" lon="6.78193">
        <ele>1902</ele>
        <time>2019-09-03T23:18:46Z</time>
      </trkpt>
      <trkpt lat="44.37302" lon="6.78202">
        <ele>1900</ele>
        <time>2019-09-03T23:18:49Z</time>
      </trkpt>
      <trkpt lat="44.3734" lon="6.78237">
        <ele>1902</ele>
        <time>2019-09-03T23:18:58Z</time>
      </trkpt>
      <trkpt lat="44.37361" lon="6.78249">
        <ele>1903</ele>
        <time>2019-09-03T23:19:02Z</time>
      </trkpt>
      <trkpt lat="44.3739" lon="6.78255">
        <ele>1901</ele>
        <time>2019-09-03T23:19:07Z</time>
      </trkpt>
      <trkpt lat="44.37491" lon="6.78254">
        <ele>1891</ele>
        <time>2019-09-03T23:19:25Z</time>
      </trkpt>
      <trkpt lat="44.3751" lon="6.78248">
        <ele>1889</ele>
        <time>2019-09-03T23:19:28Z</time>
      </trkpt>
      <trkpt lat="44.37535" lon="6.78233">
        <ele>1886</ele>
        <time>2019-09-03T23:19:33Z</time>
      </trkpt>
      <trkpt lat="44.37556" lon="6.78223">
        <ele>1884</ele>
        <time>2019-09-03T23:19:37Z</time>
      </trkpt>
      <trkpt lat="44.37587" lon="6.78216">
        <ele>1885</ele>
        <time>2019-09-03T23:19:43Z</time>
      </trkpt>
      <trkpt lat="44.37609" lon="6.78204">
        <ele>1886</ele>
        <time>2019-09-03T23:19:47Z</time>
      </trkpt>
      <trkpt lat="44.37627" lon="6.78185">
        <ele>1884</ele>
        <time>2019-09-03T23:19:51Z</time>
      </trkpt>
      <trkpt lat="44.37651" lon="6.78154">
        <ele>1877</ele>
        <time>2019-09-03T23:19:57Z</time>
      </trkpt>
      <trkpt lat="44.37674" lon="6.78132">
        <ele>1870</ele>
        <time>2019-09-03T23:20:02Z</time>
      </trkpt>
      <trkpt lat="44.37698" lon="6.78118">
        <ele>1861</ele>
        <time>2019-09-03T23:20:06Z</time>
      </trkpt>
      <trkpt lat="44.37719" lon="6.78113">
        <ele>1857</ele>
        <time>2019-09-03T23:20:10Z</time>
      </trkpt>
      <trkpt lat="44.37739" lon="6.78114">
        <ele>1855</ele>
        <time>2019-09-03T23:20:14Z</time>
      </trkpt>
      <trkpt lat="44.37758" lon="6.78122">
        <ele>1855</ele>
        <time>2019-09-03T23:20:17Z</time>
      </trkpt>
      <trkpt lat="44.37797" lon="6.78164">
        <ele>1863</ele>
        <time>2019-09-03T23:20:26Z</time>
      </trkpt>
      <trkpt lat="44.37821" lon="6.78178">
        <ele>1860</ele>
        <time>2019-09-03T23:20:30Z</time>
      </trkpt>
      <trkpt lat="44.37853" lon="6.78185">
        <ele>1856</ele>
        <time>2019-09-03T23:20:36Z</time>
      </trkpt>
      <trkpt lat="44.37963" lon="6.78195">
        <ele>1849</ele>
        <time>2019-09-03T23:20:56Z</time>
      </trkpt>
      <trkpt lat="44.3799" lon="6.78191">
        <ele>1846</ele>
        <time>2019-09-03T23:21:01Z</time>
      </trkpt>
      <trkpt lat="44.38095" lon="6.78151">
        <ele>1833</ele>
        <time>2019-09-03T23:21:20Z</time>
      </trkpt>
      <trkpt lat="44.38117" lon="6.78151">
        <ele>1832</ele>
        <time>2019-09-03T23:21:24Z</time>
      </trkpt>
      <trkpt lat="44.38156" lon="6.78158">
        <ele>1832</ele>
        <time>2019-09-03T23:21:31Z</time>
      </trkpt>
      <trkpt lat="44.38177" lon="6.78155">
        <ele>1830</ele>
        <time>2019-09-03T23:21:35Z</time>
      </trkpt>
      <trkpt lat="44.38184" lon="6.78151">
        <ele>1828</ele>
        <time>2019-09-03T23:21:36Z</time>
      </trkpt>
      <trkpt lat="44.38186" lon="6.78144">
        <ele>1825</ele>
        <time>2019-09-03T23:21:37Z</time>
      </trkpt>
      <trkpt lat="44.38185" lon="6.78138">
        <ele>1824</ele>
        <time>2019-09-03T23:21:38Z</time>
      </trkpt>
      <trkpt lat="44.3818" lon="6.78131">
        <ele>1823</ele>
        <time>2019-09-03T23:21:39Z</time>
      </trkpt>
      <trkpt lat="44.3816" lon="6.78125">
        <ele>1823</ele>
        <time>2019-09-03T23:21:43Z</time>
      </trkpt>
      <trkpt lat="44.38106" lon="6.78083">
        <ele>1816</ele>
        <time>2019-09-03T23:21:54Z</time>
      </trkpt>
      <trkpt lat="44.38093" lon="6.78077">
        <ele>1816</ele>
        <time>2019-09-03T23:21:56Z</time>
      </trkpt>
      <trkpt lat="44.38067" lon="6.78077">
        <ele>1816</ele>
        <time>2019-09-03T23:22:01Z</time>
      </trkpt>
      <trkpt lat="44.38061" lon="6.78073">
        <ele>1815</ele>
        <time>2019-09-03T23:22:02Z</time>
      </trkpt>
      <trkpt lat="44.38059" lon="6.78066">
        <ele>1813</ele>
        <time>2019-09-03T23:22:03Z</time>
      </trkpt>
      <trkpt lat="44.38061" lon="6.78059">
        <ele>1812</ele>
        <time>2019-09-03T23:22:04Z</time>
      </trkpt>
      <trkpt lat="44.38065" lon="6.78053">
        <ele>1811</ele>
        <time>2019-09-03T23:22:05Z</time>
      </trkpt>
      <trkpt lat="44.38087" lon="6.78052">
        <ele>1811</ele>
        <time>2019-09-03T23:22:09Z</time>
      </trkpt>
      <trkpt lat="44.38118" lon="6.7804">
        <ele>1805</ele>
        <time>2019-09-03T23:22:15Z</time>
      </trkpt>
      <trkpt lat="44.38171" lon="6.78039">
        <ele>1801</ele>
        <time>2019-09-03T23:22:24Z</time>
      </trkpt>
      <trkpt lat="44.38231" lon="6.78028">
        <ele>1795</ele>
        <time>2019-09-03T23:22:35Z</time>
      </trkpt>
      <trkpt lat="44.3825" lon="6.7803">
        <ele>1795</ele>
        <time>2019-09-03T23:22:38Z</time>
      </trkpt>
      <trkpt lat="44.38264" lon="6.78038">
        <ele>1795</ele>
        <time>2019-09-03T23:22:41Z</time>
      </trkpt>
      <trkpt lat="44.38273" lon="6.78052">
        <ele>1797</ele>
        <time>2019-09-03T23:22:43Z</time>
      </trkpt>
      <trkpt lat="44.38285" lon="6.7806">
        <ele>1798</ele>
        <time>2019-09-03T23:22:46Z</time>
      </trkpt>
      <trkpt lat="44.38298" lon="6.78058">
        <ele>1797</ele>
        <time>2019-09-03T23:22:48Z</time>
      </trkpt>
      <trkpt lat="44.38319" lon="6.78042">
        <ele>1794</ele>
        <time>2019-09-03T23:22:52Z</time>
      </trkpt>
      <trkpt lat="44.38335" lon="6.7804">
        <ele>1793</ele>
        <time>2019-09-03T23:22:55Z</time>
      </trkpt>
      <trkpt lat="44.38354" lon="6.78047">
        <ele>1794</ele>
        <time>2019-09-03T23:22:59Z</time>
      </trkpt>
      <trkpt lat="44.38361" lon="6.78052">
        <ele>1795</ele>
        <time>2019-09-03T23:23:00Z</time>
      </trkpt>
      <trkpt lat="44.38368" lon="6.78052">
        <ele>1795</ele>
        <time>2019-09-03T23:23:01Z</time>
      </trkpt>
      <trkpt lat="44.38412" lon="6.78015">
        <ele>1784</ele>
        <time>2019-09-03T23:23:10Z</time>
      </trkpt>
      <trkpt lat="44.38456" lon="6.77993">
        <ele>1778</ele>
        <time>2019-09-03T23:23:19Z</time>
      </trkpt>
      <trkpt lat="44.38467" lon="6.77991">
        <ele>1778</ele>
        <time>2019-09-03T23:23:21Z</time>
      </trkpt>
      <trkpt lat="44.38475" lon="6.77996">
        <ele>1779</ele>
        <time>2019-09-03T23:23:22Z</time>
      </trkpt>
      <trkpt lat="44.38488" lon="6.78011">
        <ele>1782</ele>
        <time>2019-09-03T23:23:25Z</time>
      </trkpt>
      <trkpt lat="44.38502" lon="6.78032">
        <ele>1786</ele>
        <time>2019-09-03T23:23:29Z</time>
      </trkpt>
      <trkpt lat="44.38511" lon="6.78039">
        <ele>1786</ele>
        <time>2019-09-03T23:23:31Z</time>
      </trkpt>
      <trkpt lat="44.38531" lon="6.78044">
        <ele>1784</ele>
        <time>2019-09-03T23:23:34Z</time>
      </trkpt>
      <trkpt lat="44.38564" lon="6.78046">
        <ele>1778</ele>
        <time>2019-09-03T23:23:40Z</time>
      </trkpt>
      <trkpt lat="44.38599" lon="6.78041">
        <ele>1767</ele>
        <time>2019-09-03T23:23:46Z</time>
      </trkpt>
      <trkpt lat="44.38612" lon="6.78044">
        <ele>1765</ele>
        <time>2019-09-03T23:23:49Z</time>
      </trkpt>
      <trkpt lat="44.38645" lon="6.78061">
        <ele>1763</ele>
        <time>2019-09-03T23:23:55Z</time>
      </trkpt>
      <trkpt lat="44.38663" lon="6.78074">
        <ele>1765</ele>
        <time>2019-09-03T23:23:59Z</time>
      </trkpt>
      <trkpt lat="44.38681" lon="6.78096">
        <ele>1773</ele>
        <time>2019-09-03T23:24:03Z</time>
      </trkpt>
      <trkpt lat="44.38694" lon="6.78102">
        <ele>1773</ele>
        <time>2019-09-03T23:24:05Z</time>
      </trkpt>
      <trkpt lat="44.38709" lon="6.781">
        <ele>1769</ele>
        <time>2019-09-03T23:24:08Z</time>
      </trkpt>
      <trkpt lat="44.3875" lon="6.78082">
        <ele>1752</ele>
        <time>2019-09-03T23:24:16Z</time>
      </trkpt>
      <trkpt lat="44.3879" lon="6.78068">
        <ele>1745</ele>
        <time>2019-09-03T23:24:23Z</time>
      </trkpt>
      <trkpt lat="44.38821" lon="6.7806">
        <ele>1741</ele>
        <time>2019-09-03T23:24:29Z</time>
      </trkpt>
      <trkpt lat="44.38891" lon="6.78056">
        <ele>1734</ele>
        <time>2019-09-03T23:24:41Z</time>
      </trkpt>
      <trkpt lat="44.38898" lon="6.78058">
        <ele>1734</ele>
        <time>2019-09-03T23:24:42Z</time>
      </trkpt>
      <trkpt lat="44.38912" lon="6.78067">
        <ele>1735</ele>
        <time>2019-09-03T23:24:45Z</time>
      </trkpt>
      <trkpt lat="44.38921" lon="6.78076">
        <ele>1736</ele>
        <time>2019-09-03T23:24:47Z</time>
      </trkpt>
      <trkpt lat="44.38926" lon="6.78075">
        <ele>1735</ele>
        <time>2019-09-03T23:24:48Z</time>
      </trkpt>
      <trkpt lat="44.38929" lon="6.78066">
        <ele>1732</ele>
        <time>2019-09-03T23:24:49Z</time>
      </trkpt>
      <trkpt lat="44.38926" lon="6.78061">
        <ele>1731</ele>
        <time>2019-09-03T23:24:50Z</time>
      </trkpt>
      <trkpt lat="44.38881" lon="6.78023">
        <ele>1726</ele>
        <time>2019-09-03T23:24:59Z</time>
      </trkpt>
      <trkpt lat="44.38852" lon="6.78015">
        <ele>1726</ele>
        <time>2019-09-03T23:25:05Z</time>
      </trkpt>
      <trkpt lat="44.38822" lon="6.78015">
        <ele>1727</ele>
        <time>2019-09-03T23:25:10Z</time>
      </trkpt>
      <trkpt lat="44.38803" lon="6.78009">
        <ele>1725</ele>
        <time>2019-09-03T23:25:13Z</time>
      </trkpt>
      <trkpt lat="44.38788" lon="6.77996">
        <ele>1721</ele>
        <time>2019-09-03T23:25:17Z</time>
      </trkpt>
      <trkpt lat="44.3876" lon="6.77997">
        <ele>1720</ele>
        <time>2019-09-03T23:25:22Z</time>
      </trkpt>
      <trkpt lat="44.38757" lon="6.77993">
        <ele>1719</ele>
        <time>2019-09-03T23:25:22Z</time>
      </trkpt>
      <trkpt lat="44.38756" lon="6.77988">
        <ele>1717</ele>
        <time>2019-09-03T23:25:23Z</time>
      </trkpt>
      <trkpt lat="44.38757" lon="6.77982">
        <ele>1715</ele>
        <time>2019-09-03T23:25:24Z</time>
      </trkpt>
      <trkpt lat="44.38761" lon="6.77978">
        <ele>1713</ele>
        <time>2019-09-03T23:25:25Z</time>
      </trkpt>
      <trkpt lat="44.3878" lon="6.77973">
        <ele>1712</ele>
        <time>2019-09-03T23:25:28Z</time>
      </trkpt>
      <trkpt lat="44.38821" lon="6.77977">
        <ele>1715</ele>
        <time>2019-09-03T23:25:35Z</time>
      </trkpt>
      <trkpt lat="44.38832" lon="6.77976">
        <ele>1715</ele>
        <time>2019-09-03T23:25:37Z</time>
      </trkpt>
      <trkpt lat="44.38843" lon="6.77969">
        <ele>1712</ele>
        <time>2019-09-03T23:25:39Z</time>
      </trkpt>
      <trkpt lat="44.38854" lon="6.77954">
        <ele>1708</ele>
        <time>2019-09-03T23:25:42Z</time>
      </trkpt>
      <trkpt lat="44.38869" lon="6.77916">
        <ele>1697</ele>
        <time>2019-09-03T23:25:48Z</time>
      </trkpt>
      <trkpt lat="44.38877" lon="6.77905">
        <ele>1694</ele>
        <time>2019-09-03T23:25:50Z</time>
      </trkpt>
      <trkpt lat="44.38887" lon="6.779">
        <ele>1693</ele>
        <time>2019-09-03T23:25:52Z</time>
      </trkpt>
      <trkpt lat="44.38895" lon="6.77901">
        <ele>1693</ele>
        <time>2019-09-03T23:25:53Z</time>
      </trkpt>
      <trkpt lat="44.38909" lon="6.77909">
        <ele>1696</ele>
        <time>2019-09-03T23:25:56Z</time>
      </trkpt>
      <trkpt lat="44.38935" lon="6.77942">
        <ele>1701</ele>
        <time>2019-09-03T23:26:02Z</time>
      </trkpt>
      <trkpt lat="44.3894" lon="6.77943">
        <ele>1700</ele>
        <time>2019-09-03T23:26:03Z</time>
      </trkpt>
      <trkpt lat="44.38944" lon="6.77941">
        <ele>1699</ele>
        <time>2019-09-03T23:26:04Z</time>
      </trkpt>
      <trkpt lat="44.38947" lon="6.77931">
        <ele>1696</ele>
        <time>2019-09-03T23:26:05Z</time>
      </trkpt>
      <trkpt lat="44.38945" lon="6.77923">
        <ele>1695</ele>
        <time>2019-09-03T23:26:06Z</time>
      </trkpt>
      <trkpt lat="44.3893" lon="6.7789">
        <ele>1689</ele>
        <time>2019-09-03T23:26:11Z</time>
      </trkpt>
      <trkpt lat="44.38902" lon="6.77841">
        <ele>1676</ele>
        <time>2019-09-03T23:26:19Z</time>
      </trkpt>
      <trkpt lat="44.38893" lon="6.77831">
        <ele>1672</ele>
        <time>2019-09-03T23:26:21Z</time>
      </trkpt>
      <trkpt lat="44.38884" lon="6.77829">
        <ele>1671</ele>
        <time>2019-09-03T23:26:23Z</time>
      </trkpt>
      <trkpt lat="44.38873" lon="6.7783">
        <ele>1671</ele>
        <time>2019-09-03T23:26:25Z</time>
      </trkpt>
      <trkpt lat="44.38859" lon="6.77839">
        <ele>1674</ele>
        <time>2019-09-03T23:26:27Z</time>
      </trkpt>
      <trkpt lat="44.38833" lon="6.77862">
        <ele>1679</ele>
        <time>2019-09-03T23:26:33Z</time>
      </trkpt>
      <trkpt lat="44.38821" lon="6.77869">
        <ele>1680</ele>
        <time>2019-09-03T23:26:35Z</time>
      </trkpt>
      <trkpt lat="44.38813" lon="6.7787">
        <ele>1680</ele>
        <time>2019-09-03T23:26:37Z</time>
      </trkpt>
      <trkpt lat="44.38809" lon="6.77865">
        <ele>1678</ele>
        <time>2019-09-03T23:26:38Z</time>
      </trkpt>
      <trkpt lat="44.38809" lon="6.77859">
        <ele>1677</ele>
        <time>2019-09-03T23:26:38Z</time>
      </trkpt>
      <trkpt lat="44.38812" lon="6.77853">
        <ele>1675</ele>
        <time>2019-09-03T23:26:39Z</time>
      </trkpt>
      <trkpt lat="44.38836" lon="6.77835">
        <ele>1672</ele>
        <time>2019-09-03T23:26:44Z</time>
      </trkpt>
      <trkpt lat="44.38854" lon="6.77814">
        <ele>1666</ele>
        <time>2019-09-03T23:26:48Z</time>
      </trkpt>
      <trkpt lat="44.38867" lon="6.77801">
        <ele>1662</ele>
        <time>2019-09-03T23:26:51Z</time>
      </trkpt>
      <trkpt lat="44.38878" lon="6.77794">
        <ele>1660</ele>
        <time>2019-09-03T23:26:53Z</time>
      </trkpt>
      <trkpt lat="44.38892" lon="6.77794">
        <ele>1660</ele>
        <time>2019-09-03T23:26:56Z</time>
      </trkpt>
      <trkpt lat="44.38907" lon="6.778">
        <ele>1662</ele>
        <time>2019-09-03T23:26:59Z</time>
      </trkpt>
      <trkpt lat="44.38937" lon="6.77822">
        <ele>1667</ele>
        <time>2019-09-03T23:27:05Z</time>
      </trkpt>
      <trkpt lat="44.38947" lon="6.77823">
        <ele>1666</ele>
        <time>2019-09-03T23:27:06Z</time>
      </trkpt>
      <trkpt lat="44.38963" lon="6.77822">
        <ele>1664</ele>
        <time>2019-09-03T23:27:09Z</time>
      </trkpt>
      <trkpt lat="44.38994" lon="6.77812">
        <ele>1658</ele>
        <time>2019-09-03T23:27:15Z</time>
      </trkpt>
      <trkpt lat="44.39021" lon="6.77789">
        <ele>1655</ele>
        <time>2019-09-03T23:27:20Z</time>
      </trkpt>
      <trkpt lat="44.39068" lon="6.77764">
        <ele>1654</ele>
        <time>2019-09-03T23:27:29Z</time>
      </trkpt>
      <trkpt lat="44.391" lon="6.77735">
        <ele>1651</ele>
        <time>2019-09-03T23:27:36Z</time>
      </trkpt>
      <trkpt lat="44.39114" lon="6.77714">
        <ele>1650</ele>
        <time>2019-09-03T23:27:40Z</time>
      </trkpt>
      <trkpt lat="44.39126" lon="6.77684">
        <ele>1648</ele>
        <time>2019-09-03T23:27:44Z</time>
      </trkpt>
      <trkpt lat="44.39145" lon="6.77615">
        <ele>1643</ele>
        <time>2019-09-03T23:27:54Z</time>
      </trkpt>
      <trkpt lat="44.3915" lon="6.77583">
        <ele>1640</ele>
        <time>2019-09-03T23:27:58Z</time>
      </trkpt>
      <trkpt lat="44.39154" lon="6.77549">
        <ele>1634</ele>
        <time>2019-09-03T23:28:02Z</time>
      </trkpt>
      <trkpt lat="44.39164" lon="6.77522">
        <ele>1631</ele>
        <time>2019-09-03T23:28:06Z</time>
      </trkpt>
      <trkpt lat="44.39201" lon="6.77483">
        <ele>1633</ele>
        <time>2019-09-03T23:28:14Z</time>
      </trkpt>
      <trkpt lat="44.39227" lon="6.7744">
        <ele>1630</ele>
        <time>2019-09-03T23:28:21Z</time>
      </trkpt>
      <trkpt lat="44.39276" lon="6.77332">
        <ele>1622</ele>
        <time>2019-09-03T23:28:38Z</time>
      </trkpt>
      <trkpt lat="44.39289" lon="6.77291">
        <ele>1619</ele>
        <time>2019-09-03T23:28:43Z</time>
      </trkpt>
      <trkpt lat="44.39303" lon="6.77231">
        <ele>1611</ele>
        <time>2019-09-03T23:28:51Z</time>
      </trkpt>
      <trkpt lat="44.39324" lon="6.77192">
        <ele>1609</ele>
        <time>2019-09-03T23:28:58Z</time>
      </trkpt>
      <trkpt lat="44.39347" lon="6.77155">
        <ele>1607</ele>
        <time>2019-09-03T23:29:04Z</time>
      </trkpt>
      <trkpt lat="44.39414" lon="6.77067">
        <ele>1602</ele>
        <time>2019-09-03T23:29:20Z</time>
      </trkpt>
      <trkpt lat="44.3943" lon="6.77043">
        <ele>1600</ele>
        <time>2019-09-03T23:29:24Z</time>
      </trkpt>
      <trkpt lat="44.39444" lon="6.77008">
        <ele>1596</ele>
        <time>2019-09-03T23:29:29Z</time>
      </trkpt>
      <trkpt lat="44.39454" lon="6.76968">
        <ele>1592</ele>
        <time>2019-09-03T23:29:35Z</time>
      </trkpt>
      <trkpt lat="44.39459" lon="6.76916">
        <ele>1586</ele>
        <time>2019-09-03T23:29:42Z</time>
      </trkpt>
      <trkpt lat="44.39465" lon="6.76888">
        <ele>1584</ele>
        <time>2019-09-03T23:29:45Z</time>
      </trkpt>
      <trkpt lat="44.39475" lon="6.76856">
        <ele>1582</ele>
        <time>2019-09-03T23:29:50Z</time>
      </trkpt>
      <trkpt lat="44.39502" lon="6.76807">
        <ele>1580</ele>
        <time>2019-09-03T23:29:58Z</time>
      </trkpt>
      <trkpt lat="44.39547" lon="6.76762">
        <ele>1575</ele>
        <time>2019-09-03T23:30:07Z</time>
      </trkpt>
      <trkpt lat="44.39575" lon="6.76738">
        <ele>1572</ele>
        <time>2019-09-03T23:30:13Z</time>
      </trkpt>
      <trkpt lat="44.396" lon="6.7673">
        <ele>1570</ele>
        <time>2019-09-03T23:30:18Z</time>
      </trkpt>
      <trkpt lat="44.3966" lon="6.76743">
        <ele>1570</ele>
        <time>2019-09-03T23:30:29Z</time>
      </trkpt>
      <trkpt lat="44.39711" lon="6.76735">
        <ele>1561</ele>
        <time>2019-09-03T23:30:38Z</time>
      </trkpt>
      <trkpt lat="44.39729" lon="6.76741">
        <ele>1558</ele>
        <time>2019-09-03T23:30:41Z</time>
      </trkpt>
      <trkpt lat="44.39754" lon="6.76774">
        <ele>1558</ele>
        <time>2019-09-03T23:30:47Z</time>
      </trkpt>
      <trkpt lat="44.39806" lon="6.76863">
        <ele>1556</ele>
        <time>2019-09-03T23:31:02Z</time>
      </trkpt>
      <trkpt lat="44.3982" lon="6.76878">
        <ele>1554</ele>
        <time>2019-09-03T23:31:05Z</time>
      </trkpt>
      <trkpt lat="44.39834" lon="6.76886">
        <ele>1551</ele>
        <time>2019-09-03T23:31:08Z</time>
      </trkpt>
      <trkpt lat="44.39859" lon="6.7689">
        <ele>1550</ele>
        <time>2019-09-03T23:31:12Z</time>
      </trkpt>
      <trkpt lat="44.39877" lon="6.76888">
        <ele>1548</ele>
        <time>2019-09-03T23:31:15Z</time>
      </trkpt>
      <trkpt lat="44.39893" lon="6.76875">
        <ele>1544</ele>
        <time>2019-09-03T23:31:19Z</time>
      </trkpt>
      <trkpt lat="44.39936" lon="6.76823">
        <ele>1534</ele>
        <time>2019-09-03T23:31:29Z</time>
      </trkpt>
      <trkpt lat="44.39954" lon="6.7681">
        <ele>1533</ele>
        <time>2019-09-03T23:31:32Z</time>
      </trkpt>
      <trkpt lat="44.39997" lon="6.76789">
        <ele>1532</ele>
        <time>2019-09-03T23:31:40Z</time>
      </trkpt>
      <trkpt lat="44.40017" lon="6.7677">
        <ele>1532</ele>
        <time>2019-09-03T23:31:45Z</time>
      </trkpt>
      <trkpt lat="44.40061" lon="6.76716">
        <ele>1526</ele>
        <time>2019-09-03T23:31:55Z</time>
      </trkpt>
      <trkpt lat="44.4013" lon="6.7661">
        <ele>1511</ele>
        <time>2019-09-03T23:32:13Z</time>
      </trkpt>
      <trkpt lat="44.40147" lon="6.76598">
        <ele>1510</ele>
        <time>2019-09-03T23:32:17Z</time>
      </trkpt>
      <trkpt lat="44.4017" lon="6.76592">
        <ele>1511</ele>
        <time>2019-09-03T23:32:21Z</time>
      </trkpt>
      <trkpt lat="44.40211" lon="6.76596">
        <ele>1515</ele>
        <time>2019-09-03T23:32:28Z</time>
      </trkpt>
      <trkpt lat="44.40228" lon="6.76587">
        <ele>1515</ele>
        <time>2019-09-03T23:32:31Z</time>
      </trkpt>
      <trkpt lat="44.40245" lon="6.76563">
        <ele>1513</ele>
        <time>2019-09-03T23:32:36Z</time>
      </trkpt>
      <trkpt lat="44.40264" lon="6.76453">
        <ele>1500</ele>
        <time>2019-09-03T23:32:50Z</time>
      </trkpt>
      <trkpt lat="44.40273" lon="6.76414">
        <ele>1497</ele>
        <time>2019-09-03T23:32:55Z</time>
      </trkpt>
      <trkpt lat="44.40316" lon="6.76317">
        <ele>1496</ele>
        <time>2019-09-03T23:33:10Z</time>
      </trkpt>
      <trkpt lat="44.40335" lon="6.76255">
        <ele>1491</ele>
        <time>2019-09-03T23:33:18Z</time>
      </trkpt>
      <trkpt lat="44.4034" lon="6.76223">
        <ele>1489</ele>
        <time>2019-09-03T23:33:23Z</time>
      </trkpt>
      <trkpt lat="44.40344" lon="6.7613">
        <ele>1479</ele>
        <time>2019-09-03T23:33:34Z</time>
      </trkpt>
      <trkpt lat="44.40353" lon="6.76099">
        <ele>1477</ele>
        <time>2019-09-03T23:33:39Z</time>
      </trkpt>
      <trkpt lat="44.40366" lon="6.7608">
        <ele>1476</ele>
        <time>2019-09-03T23:33:42Z</time>
      </trkpt>
      <trkpt lat="44.4038" lon="6.76069">
        <ele>1475</ele>
        <time>2019-09-03T23:33:45Z</time>
      </trkpt>
      <trkpt lat="44.40415" lon="6.7606">
        <ele>1479</ele>
        <time>2019-09-03T23:33:51Z</time>
      </trkpt>
      <trkpt lat="44.40437" lon="6.76051">
        <ele>1481</ele>
        <time>2019-09-03T23:33:55Z</time>
      </trkpt>
      <trkpt lat="44.40456" lon="6.7603">
        <ele>1478</ele>
        <time>2019-09-03T23:34:00Z</time>
      </trkpt>
      <trkpt lat="44.40505" lon="6.75941">
        <ele>1472</ele>
        <time>2019-09-03T23:34:14Z</time>
      </trkpt>
      <trkpt lat="44.40514" lon="6.75902">
        <ele>1469</ele>
        <time>2019-09-03T23:34:19Z</time>
      </trkpt>
      <trkpt lat="44.40513" lon="6.75865">
        <ele>1466</ele>
        <time>2019-09-03T23:34:24Z</time>
      </trkpt>
      <trkpt lat="44.40501" lon="6.75803">
        <ele>1458</ele>
        <time>2019-09-03T23:34:32Z</time>
      </trkpt>
      <trkpt lat="44.405" lon="6.7576">
        <ele>1454</ele>
        <time>2019-09-03T23:34:37Z</time>
      </trkpt>
      <trkpt lat="44.40509" lon="6.75731">
        <ele>1450</ele>
        <time>2019-09-03T23:34:41Z</time>
      </trkpt>
      <trkpt lat="44.40552" lon="6.75657">
        <ele>1446</ele>
        <time>2019-09-03T23:34:54Z</time>
      </trkpt>
      <trkpt lat="44.40559" lon="6.75631">
        <ele>1445</ele>
        <time>2019-09-03T23:34:57Z</time>
      </trkpt>
      <trkpt lat="44.40561" lon="6.756">
        <ele>1443</ele>
        <time>2019-09-03T23:35:01Z</time>
      </trkpt>
      <trkpt lat="44.40557" lon="6.75549">
        <ele>1436</ele>
        <time>2019-09-03T23:35:08Z</time>
      </trkpt>
      <trkpt lat="44.40562" lon="6.75514">
        <ele>1434</ele>
        <time>2019-09-03T23:35:12Z</time>
      </trkpt>
      <trkpt lat="44.40569" lon="6.75487">
        <ele>1434</ele>
        <time>2019-09-03T23:35:16Z</time>
      </trkpt>
      <trkpt lat="44.40587" lon="6.75463">
        <ele>1435</ele>
        <time>2019-09-03T23:35:20Z</time>
      </trkpt>
      <trkpt lat="44.40606" lon="6.75454">
        <ele>1433</ele>
        <time>2019-09-03T23:35:24Z</time>
      </trkpt>
      <trkpt lat="44.40624" lon="6.75458">
        <ele>1434</ele>
        <time>2019-09-03T23:35:27Z</time>
      </trkpt>
      <trkpt lat="44.40633" lon="6.75462">
        <ele>1434</ele>
        <time>2019-09-03T23:35:29Z</time>
      </trkpt>
      <trkpt lat="44.4064" lon="6.75471">
        <ele>1435</ele>
        <time>2019-09-03T23:35:30Z</time>
      </trkpt>
      <trkpt lat="44.40661" lon="6.75517">
        <ele>1441</ele>
        <time>2019-09-03T23:35:37Z</time>
      </trkpt>
      <trkpt lat="44.4067" lon="6.7553">
        <ele>1442</ele>
        <time>2019-09-03T23:35:40Z</time>
      </trkpt>
      <trkpt lat="44.40684" lon="6.75538">
        <ele>1441</ele>
        <time>2019-09-03T23:35:42Z</time>
      </trkpt>
      <trkpt lat="44.40696" lon="6.75539">
        <ele>1441</ele>
        <time>2019-09-03T23:35:44Z</time>
      </trkpt>
      <trkpt lat="44.40709" lon="6.75528">
        <ele>1438</ele>
        <time>2019-09-03T23:35:47Z</time>
      </trkpt>
      <trkpt lat="44.40715" lon="6.75517">
        <ele>1436</ele>
        <time>2019-09-03T23:35:49Z</time>
      </trkpt>
      <trkpt lat="44.40729" lon="6.75458">
        <ele>1432</ele>
        <time>2019-09-03T23:35:57Z</time>
      </trkpt>
      <trkpt lat="44.40733" lon="6.75445">
        <ele>1431</ele>
        <time>2019-09-03T23:35:59Z</time>
      </trkpt>
      <trkpt lat="44.40744" lon="6.75432">
        <ele>1430</ele>
        <time>2019-09-03T23:36:01Z</time>
      </trkpt>
      <trkpt lat="44.40755" lon="6.75422">
        <ele>1430</ele>
        <time>2019-09-03T23:36:04Z</time>
      </trkpt>
      <trkpt lat="44.40782" lon="6.7541">
        <ele>1428</ele>
        <time>2019-09-03T23:36:09Z</time>
      </trkpt>
      <trkpt lat="44.40814" lon="6.75408">
        <ele>1426</ele>
        <time>2019-09-03T23:36:14Z</time>
      </trkpt>
      <trkpt lat="44.40842" lon="6.75394">
        <ele>1423</ele>
        <time>2019-09-03T23:36:20Z</time>
      </trkpt>
      <trkpt lat="44.4088" lon="6.75351">
        <ele>1417</ele>
        <time>2019-09-03T23:36:28Z</time>
      </trkpt>
      <trkpt lat="44.40904" lon="6.75339">
        <ele>1414</ele>
        <time>2019-09-03T23:36:33Z</time>
      </trkpt>
      <trkpt lat="44.40938" lon="6.7534">
        <ele>1412</ele>
        <time>2019-09-03T23:36:39Z</time>
      </trkpt>
      <trkpt lat="44.40982" lon="6.75335">
        <ele>1406</ele>
        <time>2019-09-03T23:36:47Z</time>
      </trkpt>
      <trkpt lat="44.41017" lon="6.7532">
        <ele>1399</ele>
        <time>2019-09-03T23:36:53Z</time>
      </trkpt>
      <trkpt lat="44.41041" lon="6.75305">
        <ele>1394</ele>
        <time>2019-09-03T23:36:58Z</time>
      </trkpt>
      <trkpt lat="44.41064" lon="6.75278">
        <ele>1390</ele>
        <time>2019-09-03T23:37:03Z</time>
      </trkpt>
      <trkpt lat="44.41076" lon="6.75256">
        <ele>1389</ele>
        <time>2019-09-03T23:37:07Z</time>
      </trkpt>
      <trkpt lat="44.41083" lon="6.75225">
        <ele>1390</ele>
        <time>2019-09-03T23:37:11Z</time>
      </trkpt>
      <trkpt lat="44.41088" lon="6.75143">
        <ele>1390</ele>
        <time>2019-09-03T23:37:21Z</time>
      </trkpt>
      <trkpt lat="44.411" lon="6.75105">
        <ele>1387</ele>
        <time>2019-09-03T23:37:27Z</time>
      </trkpt>
      <trkpt lat="44.41109" lon="6.75097">
        <ele>1386</ele>
        <time>2019-09-03T23:37:28Z</time>
      </trkpt>
      <trkpt lat="44.4112" lon="6.75103">
        <ele>1383</ele>
        <time>2019-09-03T23:37:31Z</time>
      </trkpt>
      <trkpt lat="44.41124" lon="6.75114">
        <ele>1382</ele>
        <time>2019-09-03T23:37:32Z</time>
      </trkpt>
      <trkpt lat="44.41118" lon="6.75164">
        <ele>1382</ele>
        <time>2019-09-03T23:37:39Z</time>
      </trkpt>
      <trkpt lat="44.41118" lon="6.75225">
        <ele>1380</ele>
        <time>2019-09-03T23:37:46Z</time>
      </trkpt>
      <trkpt lat="44.4112" lon="6.75263">
        <ele>1379</ele>
        <time>2019-09-03T23:37:51Z</time>
      </trkpt>
      <trkpt lat="44.41132" lon="6.75296">
        <ele>1377</ele>
        <time>2019-09-03T23:37:56Z</time>
      </trkpt>
      <trkpt lat="44.4125" lon="6.75459">
        <ele>1364</ele>
        <time>2019-09-03T23:38:25Z</time>
      </trkpt>
      <trkpt lat="44.41262" lon="6.75478">
        <ele>1362</ele>
        <time>2019-09-03T23:38:29Z</time>
      </trkpt>
      <trkpt lat="44.41265" lon="6.75498">
        <ele>1362</ele>
        <time>2019-09-03T23:38:31Z</time>
      </trkpt>
      <trkpt lat="44.41266" lon="6.75522">
        <ele>1362</ele>
        <time>2019-09-03T23:38:34Z</time>
      </trkpt>
      <trkpt lat="44.41257" lon="6.75559">
        <ele>1365</ele>
        <time>2019-09-03T23:38:39Z</time>
      </trkpt>
      <trkpt lat="44.4126" lon="6.75581">
        <ele>1365</ele>
        <time>2019-09-03T23:38:42Z</time>
      </trkpt>
      <trkpt lat="44.4127" lon="6.75591">
        <ele>1363</ele>
        <time>2019-09-03T23:38:44Z</time>
      </trkpt>
      <trkpt lat="44.41282" lon="6.75586">
        <ele>1361</ele>
        <time>2019-09-03T23:38:47Z</time>
      </trkpt>
      <trkpt lat="44.41291" lon="6.75572">
        <ele>1358</ele>
        <time>2019-09-03T23:38:49Z</time>
      </trkpt>
      <trkpt lat="44.41301" lon="6.75546">
        <ele>1355</ele>
        <time>2019-09-03T23:38:53Z</time>
      </trkpt>
      <trkpt lat="44.41307" lon="6.75513">
        <ele>1352</ele>
        <time>2019-09-03T23:38:57Z</time>
      </trkpt>
      <trkpt lat="44.41307" lon="6.75487">
        <ele>1351</ele>
        <time>2019-09-03T23:39:00Z</time>
      </trkpt>
      <trkpt lat="44.41302" lon="6.75459">
        <ele>1350</ele>
        <time>2019-09-03T23:39:04Z</time>
      </trkpt>
      <trkpt lat="44.4127" lon="6.75362">
        <ele>1347</ele>
        <time>2019-09-03T23:39:18Z</time>
      </trkpt>
      <trkpt lat="44.41246" lon="6.75313">
        <ele>1346</ele>
        <time>2019-09-03T23:39:25Z</time>
      </trkpt>
      <trkpt lat="44.41241" lon="6.75297">
        <ele>1345</ele>
        <time>2019-09-03T23:39:27Z</time>
      </trkpt>
      <trkpt lat="44.41242" lon="6.75281">
        <ele>1343</ele>
        <time>2019-09-03T23:39:29Z</time>
      </trkpt>
      <trkpt lat="44.4125" lon="6.75273">
        <ele>1339</ele>
        <time>2019-09-03T23:39:31Z</time>
      </trkpt>
      <trkpt lat="44.41259" lon="6.75274">
        <ele>1337</ele>
        <time>2019-09-03T23:39:33Z</time>
      </trkpt>
      <trkpt lat="44.41272" lon="6.75285">
        <ele>1336</ele>
        <time>2019-09-03T23:39:35Z</time>
      </trkpt>
      <trkpt lat="44.4131" lon="6.75342">
        <ele>1333</ele>
        <time>2019-09-03T23:39:45Z</time>
      </trkpt>
      <trkpt lat="44.41342" lon="6.75401">
        <ele>1333</ele>
        <time>2019-09-03T23:39:55Z</time>
      </trkpt>
      <trkpt lat="44.41353" lon="6.75408">
        <ele>1332</ele>
        <time>2019-09-03T23:39:57Z</time>
      </trkpt>
      <trkpt lat="44.41361" lon="6.75406">
        <ele>1330</ele>
        <time>2019-09-03T23:39:58Z</time>
      </trkpt>
      <trkpt lat="44.41367" lon="6.75395">
        <ele>1327</ele>
        <time>2019-09-03T23:40:00Z</time>
      </trkpt>
      <trkpt lat="44.41369" lon="6.7538">
        <ele>1325</ele>
        <time>2019-09-03T23:40:02Z</time>
      </trkpt>
      <trkpt lat="44.41365" lon="6.75333">
        <ele>1320</ele>
        <time>2019-09-03T23:40:08Z</time>
      </trkpt>
      <trkpt lat="44.4136" lon="6.75304">
        <ele>1319</ele>
        <time>2019-09-03T23:40:12Z</time>
      </trkpt>
      <trkpt lat="44.4134" lon="6.75239">
        <ele>1316</ele>
        <time>2019-09-03T23:40:21Z</time>
      </trkpt>
      <trkpt lat="44.41329" lon="6.75182">
        <ele>1310</ele>
        <time>2019-09-03T23:40:28Z</time>
      </trkpt>
      <trkpt lat="44.41321" lon="6.75165">
        <ele>1310</ele>
        <time>2019-09-03T23:40:31Z</time>
      </trkpt>
      <trkpt lat="44.41307" lon="6.75149">
        <ele>1311</ele>
        <time>2019-09-03T23:40:34Z</time>
      </trkpt>
      <trkpt lat="44.41283" lon="6.75134">
        <ele>1316</ele>
        <time>2019-09-03T23:40:39Z</time>
      </trkpt>
      <trkpt lat="44.41276" lon="6.75128">
        <ele>1318</ele>
        <time>2019-09-03T23:40:40Z</time>
      </trkpt>
      <trkpt lat="44.41275" lon="6.75118">
        <ele>1317</ele>
        <time>2019-09-03T23:40:42Z</time>
      </trkpt>
      <trkpt lat="44.41278" lon="6.75111">
        <ele>1316</ele>
        <time>2019-09-03T23:40:43Z</time>
      </trkpt>
      <trkpt lat="44.41285" lon="6.75109">
        <ele>1314</ele>
        <time>2019-09-03T23:40:44Z</time>
      </trkpt>
      <trkpt lat="44.41298" lon="6.75112">
        <ele>1310</ele>
        <time>2019-09-03T23:40:46Z</time>
      </trkpt>
      <trkpt lat="44.41387" lon="6.75171">
        <ele>1296</ele>
        <time>2019-09-03T23:41:04Z</time>
      </trkpt>
      <trkpt lat="44.41433" lon="6.75197">
        <ele>1292</ele>
        <time>2019-09-03T23:41:13Z</time>
      </trkpt>
      <trkpt lat="44.41456" lon="6.75232">
        <ele>1293</ele>
        <time>2019-09-03T23:41:19Z</time>
      </trkpt>
      <trkpt lat="44.41475" lon="6.75272">
        <ele>1294</ele>
        <time>2019-09-03T23:41:25Z</time>
      </trkpt>
      <trkpt lat="44.41485" lon="6.75285">
        <ele>1293</ele>
        <time>2019-09-03T23:41:27Z</time>
      </trkpt>
      <trkpt lat="44.41494" lon="6.75283">
        <ele>1291</ele>
        <time>2019-09-03T23:41:29Z</time>
      </trkpt>
      <trkpt lat="44.41501" lon="6.75275">
        <ele>1289</ele>
        <time>2019-09-03T23:41:30Z</time>
      </trkpt>
      <trkpt lat="44.41503" lon="6.75261">
        <ele>1288</ele>
        <time>2019-09-03T23:41:32Z</time>
      </trkpt>
      <trkpt lat="44.41501" lon="6.75246">
        <ele>1286</ele>
        <time>2019-09-03T23:41:34Z</time>
      </trkpt>
      <trkpt lat="44.41473" lon="6.75196">
        <ele>1286</ele>
        <time>2019-09-03T23:41:42Z</time>
      </trkpt>
      <trkpt lat="44.41463" lon="6.75173">
        <ele>1284</ele>
        <time>2019-09-03T23:41:46Z</time>
      </trkpt>
      <trkpt lat="44.41462" lon="6.75156">
        <ele>1282</ele>
        <time>2019-09-03T23:41:48Z</time>
      </trkpt>
      <trkpt lat="44.41466" lon="6.75145">
        <ele>1281</ele>
        <time>2019-09-03T23:41:49Z</time>
      </trkpt>
      <trkpt lat="44.41478" lon="6.75137">
        <ele>1279</ele>
        <time>2019-09-03T23:41:52Z</time>
      </trkpt>
      <trkpt lat="44.41513" lon="6.75127">
        <ele>1280</ele>
        <time>2019-09-03T23:41:58Z</time>
      </trkpt>
      <trkpt lat="44.41519" lon="6.75123">
        <ele>1281</ele>
        <time>2019-09-03T23:41:59Z</time>
      </trkpt>
      <trkpt lat="44.41542" lon="6.75104">
        <ele>1286</ele>
        <time>2019-09-03T23:42:04Z</time>
      </trkpt>
      <trkpt lat="44.4155" lon="6.75092">
        <ele>1287</ele>
        <time>2019-09-03T23:42:06Z</time>
      </trkpt>
      <trkpt lat="44.41553" lon="6.7508">
        <ele>1288</ele>
        <time>2019-09-03T23:42:08Z</time>
      </trkpt>
      <trkpt lat="44.41551" lon="6.75067">
        <ele>1287</ele>
        <time>2019-09-03T23:42:09Z</time>
      </trkpt>
      <trkpt lat="44.41532" lon="6.75041">
        <ele>1280</ele>
        <time>2019-09-03T23:42:14Z</time>
      </trkpt>
      <trkpt lat="44.41522" lon="6.75021">
        <ele>1277</ele>
        <time>2019-09-03T23:42:17Z</time>
      </trkpt>
      <trkpt lat="44.41477" lon="6.7491">
        <ele>1268</ele>
        <time>2019-09-03T23:42:33Z</time>
      </trkpt>
      <trkpt lat="44.41459" lon="6.74857">
        <ele>1264</ele>
        <time>2019-09-03T23:42:41Z</time>
      </trkpt>
      <trkpt lat="44.41456" lon="6.7484">
        <ele>1263</ele>
        <time>2019-09-03T23:42:43Z</time>
      </trkpt>
      <trkpt lat="44.41456" lon="6.74821">
        <ele>1262</ele>
        <time>2019-09-03T23:42:46Z</time>
      </trkpt>
      <trkpt lat="44.41459" lon="6.74807">
        <ele>1261</ele>
        <time>2019-09-03T23:42:47Z</time>
      </trkpt>
      <trkpt lat="44.41479" lon="6.74751">
        <ele>1260</ele>
        <time>2019-09-03T23:42:55Z</time>
      </trkpt>
      <trkpt lat="44.41493" lon="6.74669">
        <ele>1257</ele>
        <time>2019-09-03T23:43:06Z</time>
      </trkpt>
      <trkpt lat="44.4152" lon="6.74578">
        <ele>1258</ele>
        <time>2019-09-03T23:43:19Z</time>
      </trkpt>
      <trkpt lat="44.41523" lon="6.74539">
        <ele>1254</ele>
        <time>2019-09-03T23:43:24Z</time>
      </trkpt>
      <trkpt lat="44.41522" lon="6.74514">
        <ele>1252</ele>
        <time>2019-09-03T23:43:27Z</time>
      </trkpt>
      <trkpt lat="44.41525" lon="6.7449">
        <ele>1250</ele>
        <time>2019-09-03T23:43:30Z</time>
      </trkpt>
      <trkpt lat="44.41545" lon="6.74434">
        <ele>1246</ele>
        <time>2019-09-03T23:43:38Z</time>
      </trkpt>
      <trkpt lat="44.41584" lon="6.74338">
        <ele>1240</ele>
        <time>2019-09-03T23:43:52Z</time>
      </trkpt>
      <trkpt lat="44.41593" lon="6.74329">
        <ele>1240</ele>
        <time>2019-09-03T23:43:54Z</time>
      </trkpt>
      <trkpt lat="44.41611" lon="6.74319">
        <ele>1240</ele>
        <time>2019-09-03T23:43:57Z</time>
      </trkpt>
      <trkpt lat="44.41633" lon="6.74297">
        <ele>1239</ele>
        <time>2019-09-03T23:44:02Z</time>
      </trkpt>
      <trkpt lat="44.41689" lon="6.74228">
        <ele>1238</ele>
        <time>2019-09-03T23:44:15Z</time>
      </trkpt>
      <trkpt lat="44.41713" lon="6.74191">
        <ele>1236</ele>
        <time>2019-09-03T23:44:22Z</time>
      </trkpt>
      <trkpt lat="44.41728" lon="6.74172">
        <ele>1234</ele>
        <time>2019-09-03T23:44:25Z</time>
      </trkpt>
      <trkpt lat="44.4181" lon="6.74112">
        <ele>1227</ele>
        <time>2019-09-03T23:44:42Z</time>
      </trkpt>
      <trkpt lat="44.41869" lon="6.74056">
        <ele>1223</ele>
        <time>2019-09-03T23:44:54Z</time>
      </trkpt>
      <trkpt lat="44.41953" lon="6.73999">
        <ele>1223</ele>
        <time>2019-09-03T23:45:11Z</time>
      </trkpt>
      <trkpt lat="44.41971" lon="6.73981">
        <ele>1223</ele>
        <time>2019-09-03T23:45:15Z</time>
      </trkpt>
      <trkpt lat="44.41983" lon="6.73965">
        <ele>1223</ele>
        <time>2019-09-03T23:45:18Z</time>
      </trkpt>
      <trkpt lat="44.41996" lon="6.73942">
        <ele>1223</ele>
        <time>2019-09-03T23:45:22Z</time>
      </trkpt>
      <trkpt lat="44.42" lon="6.73929">
        <ele>1222</ele>
        <time>2019-09-03T23:45:23Z</time>
      </trkpt>
      <trkpt lat="44.42009" lon="6.73872">
        <ele>1221</ele>
        <time>2019-09-03T23:45:31Z</time>
      </trkpt>
      <trkpt lat="44.42021" lon="6.7377">
        <ele>1219</ele>
        <time>2019-09-03T23:45:44Z</time>
      </trkpt>
      <trkpt lat="44.42027" lon="6.73743">
        <ele>1219</ele>
        <time>2019-09-03T23:45:48Z</time>
      </trkpt>
      <trkpt lat="44.42037" lon="6.73708">
        <ele>1220</ele>
        <time>2019-09-03T23:45:52Z</time>
      </trkpt>
      <trkpt lat="44.42057" lon="6.73662">
        <ele>1219</ele>
        <time>2019-09-03T23:45:59Z</time>
      </trkpt>
      <trkpt lat="44.42026" lon="6.73635">
        <ele>1220</ele>
        <time>2019-09-03T23:46:06Z</time>
      </trkpt>
      <trkpt lat="44.42019" lon="6.73625">
        <ele>1220</ele>
        <time>2019-09-03T23:46:08Z</time>
      </trkpt>
      <trkpt lat="44.42011" lon="6.73603">
        <ele>1220</ele>
        <time>2019-09-03T23:46:11Z</time>
      </trkpt>
      <trkpt lat="44.42006" lon="6.73606">
        <ele>1220</ele>
        <time>2019-09-03T23:46:12Z</time>
      </trkpt>
      <trkpt lat="44.42001" lon="6.73601">
        <ele>1220</ele>
        <time>2019-09-03T23:46:13Z</time>
      </trkpt>
      <trkpt lat="44.41944" lon="6.73513">
        <ele>1219</ele>
        <time>2019-09-03T23:46:28Z</time>
      </trkpt>
      <trkpt lat="44.41926" lon="6.73475">
        <ele>1220</ele>
        <time>2019-09-03T23:46:34Z</time>
      </trkpt>
      <trkpt lat="44.41916" lon="6.73458">
        <ele>1220</ele>
        <time>2019-09-03T23:46:36Z</time>
      </trkpt>
      <trkpt lat="44.41894" lon="6.73392">
        <ele>1220</ele>
        <time>2019-09-03T23:46:46Z</time>
      </trkpt>
    </trkseg>
  </trk>
</gpx>